<?xml version="1.0" encoding="UTF-8" standalone="no" ?>
<gpx xmlns="http://www.topografix.com/GPX/1/1" xmlns:xsi="http://www.w3.org/2001/XMLSchema-instance" xsi:schemaLocation="http://www.topografix.com/GPX/1/1 http://www.topografix.com/GPX/1/1/gpx.xsd" version="1.1" creator="VisuGPX - https://www.visugpx.com">
  <metadata>
    <name>GTJ-2</name>
    <desc><![CDATA[US-CERGY-CYCLO]]></desc>
  </metadata>
  <trk>
    <name><![CDATA[20150629_GTJ-2_47]]></name>
    <trkseg>
      <trkpt lat="46.74598" lon="6.29477">
        <ele>869.65</ele>
        <time>2015-06-29T07:00:56Z</time>
      </trkpt>
      <trkpt lat="46.74594" lon="6.29465">
        <ele>870.13</ele>
        <time>2015-06-29T07:01:00Z</time>
      </trkpt>
      <trkpt lat="46.74588" lon="6.29453">
        <ele>870.13</ele>
        <time>2015-06-29T07:01:07Z</time>
      </trkpt>
      <trkpt lat="46.74574" lon="6.29459">
        <ele>869.65</ele>
        <time>2015-06-29T07:01:22Z</time>
      </trkpt>
      <trkpt lat="46.74572" lon="6.29459">
        <ele>870.13</ele>
        <time>2015-06-29T07:01:23Z</time>
      </trkpt>
      <trkpt lat="46.74572" lon="6.2946">
        <ele>870.13</ele>
        <time>2015-06-29T07:01:32Z</time>
      </trkpt>
      <trkpt lat="46.74571" lon="6.2946">
        <ele>874.46</ele>
        <time>2015-06-29T07:01:37Z</time>
      </trkpt>
      <trkpt lat="46.74571" lon="6.2946">
        <ele>877.82</ele>
        <time>2015-06-29T07:01:39Z</time>
      </trkpt>
      <trkpt lat="46.74571" lon="6.2946">
        <ele>881.67</ele>
        <time>2015-06-29T07:01:41Z</time>
      </trkpt>
      <trkpt lat="46.7457" lon="6.2946">
        <ele>885.03</ele>
        <time>2015-06-29T07:01:43Z</time>
      </trkpt>
      <trkpt lat="46.7457" lon="6.29459">
        <ele>888.4</ele>
        <time>2015-06-29T07:01:45Z</time>
      </trkpt>
      <trkpt lat="46.7457" lon="6.29459">
        <ele>892.72</ele>
        <time>2015-06-29T07:01:48Z</time>
      </trkpt>
      <trkpt lat="46.7457" lon="6.29459">
        <ele>895.61</ele>
        <time>2015-06-29T07:01:50Z</time>
      </trkpt>
      <trkpt lat="46.7457" lon="6.29459">
        <ele>899.45</ele>
        <time>2015-06-29T07:01:53Z</time>
      </trkpt>
      <trkpt lat="46.7457" lon="6.29459">
        <ele>902.82</ele>
        <time>2015-06-29T07:01:56Z</time>
      </trkpt>
      <trkpt lat="46.74573" lon="6.29465">
        <ele>905.7</ele>
        <time>2015-06-29T07:01:59Z</time>
      </trkpt>
      <trkpt lat="46.74574" lon="6.29465">
        <ele>909.06</ele>
        <time>2015-06-29T07:02:03Z</time>
      </trkpt>
      <trkpt lat="46.74574" lon="6.29464">
        <ele>912.43</ele>
        <time>2015-06-29T07:02:07Z</time>
      </trkpt>
      <trkpt lat="46.74575" lon="6.29462">
        <ele>915.79</ele>
        <time>2015-06-29T07:02:13Z</time>
      </trkpt>
      <trkpt lat="46.74575" lon="6.29462">
        <ele>916.27</ele>
        <time>2015-06-29T07:02:14Z</time>
      </trkpt>
      <trkpt lat="46.74575" lon="6.29462">
        <ele>918.68</ele>
        <time>2015-06-29T07:02:18Z</time>
      </trkpt>
      <trkpt lat="46.74575" lon="6.29463">
        <ele>920.12</ele>
        <time>2015-06-29T07:02:21Z</time>
      </trkpt>
      <trkpt lat="46.74575" lon="6.29464">
        <ele>923.48</ele>
        <time>2015-06-29T07:02:29Z</time>
      </trkpt>
      <trkpt lat="46.74573" lon="6.29464">
        <ele>926.85</ele>
        <time>2015-06-29T07:02:40Z</time>
      </trkpt>
      <trkpt lat="46.74574" lon="6.29464">
        <ele>929.73</ele>
        <time>2015-06-29T07:02:52Z</time>
      </trkpt>
      <trkpt lat="46.74575" lon="6.29463">
        <ele>933.1</ele>
        <time>2015-06-29T07:03:26Z</time>
      </trkpt>
      <trkpt lat="46.74575" lon="6.29466">
        <ele>932.62</ele>
        <time>2015-06-29T07:04:10Z</time>
      </trkpt>
      <trkpt lat="46.74574" lon="6.29466">
        <ele>932.62</ele>
        <time>2015-06-29T07:04:47Z</time>
      </trkpt>
      <trkpt lat="46.74575" lon="6.29466">
        <ele>933.1</ele>
        <time>2015-06-29T07:05:25Z</time>
      </trkpt>
      <trkpt lat="46.74575" lon="6.29465">
        <ele>933.1</ele>
        <time>2015-06-29T07:06:00Z</time>
      </trkpt>
      <trkpt lat="46.74575" lon="6.29465">
        <ele>933.1</ele>
        <time>2015-06-29T07:06:33Z</time>
      </trkpt>
      <trkpt lat="46.74574" lon="6.29465">
        <ele>933.58</ele>
        <time>2015-06-29T07:06:56Z</time>
      </trkpt>
      <trkpt lat="46.74574" lon="6.29465">
        <ele>930.21</ele>
        <time>2015-06-29T07:07:03Z</time>
      </trkpt>
      <trkpt lat="46.74574" lon="6.29465">
        <ele>934.06</ele>
        <time>2015-06-29T07:07:04Z</time>
      </trkpt>
      <trkpt lat="46.74574" lon="6.29464">
        <ele>933.1</ele>
        <time>2015-06-29T07:07:05Z</time>
      </trkpt>
      <trkpt lat="46.74573" lon="6.29462">
        <ele>933.1</ele>
        <time>2015-06-29T07:07:08Z</time>
      </trkpt>
      <trkpt lat="46.74563" lon="6.29474">
        <ele>933.1</ele>
        <time>2015-06-29T07:07:23Z</time>
      </trkpt>
      <trkpt lat="46.74562" lon="6.29476">
        <ele>933.1</ele>
        <time>2015-06-29T07:07:36Z</time>
      </trkpt>
      <trkpt lat="46.74562" lon="6.29475">
        <ele>933.58</ele>
        <time>2015-06-29T07:07:50Z</time>
      </trkpt>
      <trkpt lat="46.74562" lon="6.29475">
        <ele>929.73</ele>
        <time>2015-06-29T07:07:55Z</time>
      </trkpt>
      <trkpt lat="46.74562" lon="6.29475">
        <ele>933.1</ele>
        <time>2015-06-29T07:07:56Z</time>
      </trkpt>
      <trkpt lat="46.74562" lon="6.29475">
        <ele>933.1</ele>
        <time>2015-06-29T07:08:24Z</time>
      </trkpt>
      <trkpt lat="46.74562" lon="6.29475">
        <ele>933.1</ele>
        <time>2015-06-29T07:08:48Z</time>
      </trkpt>
      <trkpt lat="46.74562" lon="6.29475">
        <ele>934.54</ele>
        <time>2015-06-29T07:08:56Z</time>
      </trkpt>
      <trkpt lat="46.74563" lon="6.29475">
        <ele>933.1</ele>
        <time>2015-06-29T07:09:08Z</time>
      </trkpt>
      <trkpt lat="46.7457" lon="6.29483">
        <ele>933.1</ele>
        <time>2015-06-29T07:09:14Z</time>
      </trkpt>
      <trkpt lat="46.74582" lon="6.29529">
        <ele>932.14</ele>
        <time>2015-06-29T07:09:27Z</time>
      </trkpt>
      <trkpt lat="46.74618" lon="6.29579">
        <ele>928.77</ele>
        <time>2015-06-29T07:09:39Z</time>
      </trkpt>
      <trkpt lat="46.74625" lon="6.29587">
        <ele>928.29</ele>
        <time>2015-06-29T07:09:41Z</time>
      </trkpt>
      <trkpt lat="46.7463" lon="6.29592">
        <ele>927.33</ele>
        <time>2015-06-29T07:09:42Z</time>
      </trkpt>
      <trkpt lat="46.74634" lon="6.29595">
        <ele>927.81</ele>
        <time>2015-06-29T07:09:43Z</time>
      </trkpt>
      <trkpt lat="46.74658" lon="6.29611">
        <ele>925.41</ele>
        <time>2015-06-29T07:09:49Z</time>
      </trkpt>
      <trkpt lat="46.74661" lon="6.29611">
        <ele>925.41</ele>
        <time>2015-06-29T07:09:50Z</time>
      </trkpt>
      <trkpt lat="46.74664" lon="6.29612">
        <ele>924.93</ele>
        <time>2015-06-29T07:09:51Z</time>
      </trkpt>
      <trkpt lat="46.74667" lon="6.29615">
        <ele>924.93</ele>
        <time>2015-06-29T07:09:52Z</time>
      </trkpt>
      <trkpt lat="46.74668" lon="6.2962">
        <ele>924.93</ele>
        <time>2015-06-29T07:09:53Z</time>
      </trkpt>
      <trkpt lat="46.7467" lon="6.29625">
        <ele>924.45</ele>
        <time>2015-06-29T07:09:54Z</time>
      </trkpt>
      <trkpt lat="46.74695" lon="6.29721">
        <ele>921.08</ele>
        <time>2015-06-29T07:10:07Z</time>
      </trkpt>
      <trkpt lat="46.74696" lon="6.2974">
        <ele>920.6</ele>
        <time>2015-06-29T07:10:09Z</time>
      </trkpt>
      <trkpt lat="46.74696" lon="6.2975">
        <ele>920.12</ele>
        <time>2015-06-29T07:10:10Z</time>
      </trkpt>
      <trkpt lat="46.74695" lon="6.2976">
        <ele>920.12</ele>
        <time>2015-06-29T07:10:11Z</time>
      </trkpt>
      <trkpt lat="46.74694" lon="6.2977">
        <ele>920.12</ele>
        <time>2015-06-29T07:10:12Z</time>
      </trkpt>
      <trkpt lat="46.74692" lon="6.2978">
        <ele>920.12</ele>
        <time>2015-06-29T07:10:13Z</time>
      </trkpt>
      <trkpt lat="46.7469" lon="6.2979">
        <ele>919.64</ele>
        <time>2015-06-29T07:10:14Z</time>
      </trkpt>
      <trkpt lat="46.74687" lon="6.29799">
        <ele>919.64</ele>
        <time>2015-06-29T07:10:15Z</time>
      </trkpt>
      <trkpt lat="46.74684" lon="6.29808">
        <ele>919.64</ele>
        <time>2015-06-29T07:10:16Z</time>
      </trkpt>
      <trkpt lat="46.74681" lon="6.29816">
        <ele>919.64</ele>
        <time>2015-06-29T07:10:17Z</time>
      </trkpt>
      <trkpt lat="46.7466" lon="6.29869">
        <ele>919.64</ele>
        <time>2015-06-29T07:10:26Z</time>
      </trkpt>
      <trkpt lat="46.74658" lon="6.29869">
        <ele>919.64</ele>
        <time>2015-06-29T07:10:27Z</time>
      </trkpt>
      <trkpt lat="46.74656" lon="6.29869">
        <ele>920.12</ele>
        <time>2015-06-29T07:10:28Z</time>
      </trkpt>
      <trkpt lat="46.74653" lon="6.29868">
        <ele>919.16</ele>
        <time>2015-06-29T07:10:30Z</time>
      </trkpt>
      <trkpt lat="46.74652" lon="6.2987">
        <ele>918.68</ele>
        <time>2015-06-29T07:10:31Z</time>
      </trkpt>
      <trkpt lat="46.74651" lon="6.29873">
        <ele>919.64</ele>
        <time>2015-06-29T07:10:32Z</time>
      </trkpt>
      <trkpt lat="46.74652" lon="6.29877">
        <ele>919.16</ele>
        <time>2015-06-29T07:10:33Z</time>
      </trkpt>
      <trkpt lat="46.74652" lon="6.2988">
        <ele>919.64</ele>
        <time>2015-06-29T07:10:34Z</time>
      </trkpt>
      <trkpt lat="46.74652" lon="6.29884">
        <ele>919.16</ele>
        <time>2015-06-29T07:10:35Z</time>
      </trkpt>
      <trkpt lat="46.74651" lon="6.29886">
        <ele>919.16</ele>
        <time>2015-06-29T07:10:36Z</time>
      </trkpt>
      <trkpt lat="46.7465" lon="6.29889">
        <ele>919.64</ele>
        <time>2015-06-29T07:10:37Z</time>
      </trkpt>
      <trkpt lat="46.74649" lon="6.29891">
        <ele>920.12</ele>
        <time>2015-06-29T07:10:38Z</time>
      </trkpt>
      <trkpt lat="46.74648" lon="6.29893">
        <ele>920.12</ele>
        <time>2015-06-29T07:10:39Z</time>
      </trkpt>
      <trkpt lat="46.74647" lon="6.29895">
        <ele>920.12</ele>
        <time>2015-06-29T07:10:40Z</time>
      </trkpt>
      <trkpt lat="46.74645" lon="6.29901">
        <ele>921.08</ele>
        <time>2015-06-29T07:10:43Z</time>
      </trkpt>
      <trkpt lat="46.74644" lon="6.29903">
        <ele>921.08</ele>
        <time>2015-06-29T07:10:44Z</time>
      </trkpt>
      <trkpt lat="46.74643" lon="6.29905">
        <ele>921.08</ele>
        <time>2015-06-29T07:10:45Z</time>
      </trkpt>
      <trkpt lat="46.74641" lon="6.29906">
        <ele>921.56</ele>
        <time>2015-06-29T07:10:46Z</time>
      </trkpt>
      <trkpt lat="46.7464" lon="6.29907">
        <ele>921.08</ele>
        <time>2015-06-29T07:10:47Z</time>
      </trkpt>
      <trkpt lat="46.74639" lon="6.29907">
        <ele>921.56</ele>
        <time>2015-06-29T07:10:48Z</time>
      </trkpt>
      <trkpt lat="46.74637" lon="6.29908">
        <ele>922.04</ele>
        <time>2015-06-29T07:10:50Z</time>
      </trkpt>
      <trkpt lat="46.74635" lon="6.29907">
        <ele>922.52</ele>
        <time>2015-06-29T07:10:51Z</time>
      </trkpt>
      <trkpt lat="46.74634" lon="6.29906">
        <ele>922.52</ele>
        <time>2015-06-29T07:10:52Z</time>
      </trkpt>
      <trkpt lat="46.74633" lon="6.29905">
        <ele>923</ele>
        <time>2015-06-29T07:10:53Z</time>
      </trkpt>
      <trkpt lat="46.74631" lon="6.29904">
        <ele>923</ele>
        <time>2015-06-29T07:10:54Z</time>
      </trkpt>
      <trkpt lat="46.7463" lon="6.29903">
        <ele>923.48</ele>
        <time>2015-06-29T07:10:55Z</time>
      </trkpt>
      <trkpt lat="46.74629" lon="6.29902">
        <ele>923.48</ele>
        <time>2015-06-29T07:10:56Z</time>
      </trkpt>
      <trkpt lat="46.74627" lon="6.29901">
        <ele>923.48</ele>
        <time>2015-06-29T07:10:57Z</time>
      </trkpt>
      <trkpt lat="46.74626" lon="6.299">
        <ele>923.48</ele>
        <time>2015-06-29T07:10:58Z</time>
      </trkpt>
      <trkpt lat="46.74625" lon="6.29898">
        <ele>923.96</ele>
        <time>2015-06-29T07:10:59Z</time>
      </trkpt>
      <trkpt lat="46.74624" lon="6.29896">
        <ele>924.45</ele>
        <time>2015-06-29T07:11:00Z</time>
      </trkpt>
      <trkpt lat="46.74623" lon="6.29895">
        <ele>924.45</ele>
        <time>2015-06-29T07:11:01Z</time>
      </trkpt>
      <trkpt lat="46.74622" lon="6.29894">
        <ele>924.45</ele>
        <time>2015-06-29T07:11:02Z</time>
      </trkpt>
      <trkpt lat="46.74605" lon="6.2987">
        <ele>927.33</ele>
        <time>2015-06-29T07:11:18Z</time>
      </trkpt>
      <trkpt lat="46.74602" lon="6.29865">
        <ele>927.33</ele>
        <time>2015-06-29T07:11:21Z</time>
      </trkpt>
      <trkpt lat="46.74588" lon="6.29841">
        <ele>930.21</ele>
        <time>2015-06-29T07:11:36Z</time>
      </trkpt>
      <trkpt lat="46.74576" lon="6.29824">
        <ele>931.65</ele>
        <time>2015-06-29T07:11:48Z</time>
      </trkpt>
      <trkpt lat="46.74556" lon="6.29797">
        <ele>934.06</ele>
        <time>2015-06-29T07:12:06Z</time>
      </trkpt>
      <trkpt lat="46.74536" lon="6.29775">
        <ele>935.98</ele>
        <time>2015-06-29T07:12:24Z</time>
      </trkpt>
      <trkpt lat="46.74516" lon="6.29756">
        <ele>937.42</ele>
        <time>2015-06-29T07:12:41Z</time>
      </trkpt>
      <trkpt lat="46.74498" lon="6.2974">
        <ele>939.35</ele>
        <time>2015-06-29T07:12:56Z</time>
      </trkpt>
      <trkpt lat="46.74493" lon="6.29735">
        <ele>939.35</ele>
        <time>2015-06-29T07:13:00Z</time>
      </trkpt>
      <trkpt lat="46.74492" lon="6.29733">
        <ele>939.83</ele>
        <time>2015-06-29T07:13:01Z</time>
      </trkpt>
      <trkpt lat="46.7449" lon="6.29732">
        <ele>939.83</ele>
        <time>2015-06-29T07:13:02Z</time>
      </trkpt>
      <trkpt lat="46.74473" lon="6.29708">
        <ele>941.75</ele>
        <time>2015-06-29T07:13:19Z</time>
      </trkpt>
      <trkpt lat="46.74463" lon="6.29694">
        <ele>943.67</ele>
        <time>2015-06-29T07:13:29Z</time>
      </trkpt>
      <trkpt lat="46.7445" lon="6.29674">
        <ele>944.63</ele>
        <time>2015-06-29T07:13:42Z</time>
      </trkpt>
      <trkpt lat="46.74449" lon="6.29672">
        <ele>944.63</ele>
        <time>2015-06-29T07:13:43Z</time>
      </trkpt>
      <trkpt lat="46.74424" lon="6.29663">
        <ele>946.56</ele>
        <time>2015-06-29T07:14:00Z</time>
      </trkpt>
      <trkpt lat="46.74407" lon="6.29673">
        <ele>947.52</ele>
        <time>2015-06-29T07:14:13Z</time>
      </trkpt>
      <trkpt lat="46.74394" lon="6.29696">
        <ele>948.96</ele>
        <time>2015-06-29T07:14:27Z</time>
      </trkpt>
      <trkpt lat="46.74388" lon="6.29731">
        <ele>951.36</ele>
        <time>2015-06-29T07:14:44Z</time>
      </trkpt>
      <trkpt lat="46.74398" lon="6.2976">
        <ele>952.8</ele>
        <time>2015-06-29T07:15:00Z</time>
      </trkpt>
      <trkpt lat="46.74418" lon="6.2979">
        <ele>954.73</ele>
        <time>2015-06-29T07:15:20Z</time>
      </trkpt>
      <trkpt lat="46.74439" lon="6.29816">
        <ele>956.65</ele>
        <time>2015-06-29T07:15:39Z</time>
      </trkpt>
      <trkpt lat="46.74458" lon="6.2984">
        <ele>959.05</ele>
        <time>2015-06-29T07:15:57Z</time>
      </trkpt>
      <trkpt lat="46.74475" lon="6.29865">
        <ele>961.46</ele>
        <time>2015-06-29T07:16:14Z</time>
      </trkpt>
      <trkpt lat="46.74488" lon="6.29904">
        <ele>963.38</ele>
        <time>2015-06-29T07:16:34Z</time>
      </trkpt>
      <trkpt lat="46.74495" lon="6.2994">
        <ele>964.34</ele>
        <time>2015-06-29T07:16:48Z</time>
      </trkpt>
      <trkpt lat="46.74482" lon="6.29987">
        <ele>966.74</ele>
        <time>2015-06-29T07:17:07Z</time>
      </trkpt>
      <trkpt lat="46.74468" lon="6.30032">
        <ele>967.22</ele>
        <time>2015-06-29T07:17:23Z</time>
      </trkpt>
      <trkpt lat="46.74457" lon="6.3008">
        <ele>968.67</ele>
        <time>2015-06-29T07:17:38Z</time>
      </trkpt>
      <trkpt lat="46.74438" lon="6.30119">
        <ele>971.07</ele>
        <time>2015-06-29T07:17:56Z</time>
      </trkpt>
      <trkpt lat="46.74412" lon="6.30153">
        <ele>972.51</ele>
        <time>2015-06-29T07:18:13Z</time>
      </trkpt>
      <trkpt lat="46.74383" lon="6.30189">
        <ele>973.47</ele>
        <time>2015-06-29T07:18:29Z</time>
      </trkpt>
      <trkpt lat="46.74358" lon="6.30222">
        <ele>975.88</ele>
        <time>2015-06-29T07:18:47Z</time>
      </trkpt>
      <trkpt lat="46.74339" lon="6.30236">
        <ele>978.76</ele>
        <time>2015-06-29T07:19:01Z</time>
      </trkpt>
      <trkpt lat="46.74315" lon="6.3025">
        <ele>981.64</ele>
        <time>2015-06-29T07:19:18Z</time>
      </trkpt>
      <trkpt lat="46.74297" lon="6.30278">
        <ele>982.12</ele>
        <time>2015-06-29T07:19:31Z</time>
      </trkpt>
      <trkpt lat="46.74286" lon="6.30308">
        <ele>983.57</ele>
        <time>2015-06-29T07:19:45Z</time>
      </trkpt>
      <trkpt lat="46.74286" lon="6.3031">
        <ele>984.05</ele>
        <time>2015-06-29T07:19:46Z</time>
      </trkpt>
      <trkpt lat="46.74277" lon="6.30338">
        <ele>985.97</ele>
        <time>2015-06-29T07:19:59Z</time>
      </trkpt>
      <trkpt lat="46.74271" lon="6.30365">
        <ele>987.89</ele>
        <time>2015-06-29T07:20:12Z</time>
      </trkpt>
      <trkpt lat="46.74269" lon="6.30371">
        <ele>988.85</ele>
        <time>2015-06-29T07:20:15Z</time>
      </trkpt>
      <trkpt lat="46.74266" lon="6.30381">
        <ele>989.33</ele>
        <time>2015-06-29T07:20:20Z</time>
      </trkpt>
      <trkpt lat="46.74265" lon="6.30384">
        <ele>989.33</ele>
        <time>2015-06-29T07:20:21Z</time>
      </trkpt>
      <trkpt lat="46.74264" lon="6.30386">
        <ele>989.33</ele>
        <time>2015-06-29T07:20:22Z</time>
      </trkpt>
      <trkpt lat="46.74263" lon="6.30388">
        <ele>989.33</ele>
        <time>2015-06-29T07:20:23Z</time>
      </trkpt>
      <trkpt lat="46.74262" lon="6.3039">
        <ele>989.33</ele>
        <time>2015-06-29T07:20:24Z</time>
      </trkpt>
      <trkpt lat="46.74257" lon="6.30409">
        <ele>990.78</ele>
        <time>2015-06-29T07:20:36Z</time>
      </trkpt>
      <trkpt lat="46.74241" lon="6.30435">
        <ele>992.7</ele>
        <time>2015-06-29T07:20:51Z</time>
      </trkpt>
      <trkpt lat="46.74223" lon="6.3045">
        <ele>994.14</ele>
        <time>2015-06-29T07:21:04Z</time>
      </trkpt>
      <trkpt lat="46.74216" lon="6.30452">
        <ele>994.14</ele>
        <time>2015-06-29T07:21:08Z</time>
      </trkpt>
      <trkpt lat="46.74215" lon="6.30452">
        <ele>994.14</ele>
        <time>2015-06-29T07:21:09Z</time>
      </trkpt>
      <trkpt lat="46.74195" lon="6.30441">
        <ele>996.06</ele>
        <time>2015-06-29T07:21:24Z</time>
      </trkpt>
      <trkpt lat="46.7418" lon="6.30412">
        <ele>997.02</ele>
        <time>2015-06-29T07:21:38Z</time>
      </trkpt>
      <trkpt lat="46.74166" lon="6.30368">
        <ele>998.47</ele>
        <time>2015-06-29T07:21:57Z</time>
      </trkpt>
      <trkpt lat="46.74161" lon="6.30342">
        <ele>999.43</ele>
        <time>2015-06-29T07:22:07Z</time>
      </trkpt>
      <trkpt lat="46.74161" lon="6.3034">
        <ele>999.43</ele>
        <time>2015-06-29T07:22:08Z</time>
      </trkpt>
      <trkpt lat="46.74161" lon="6.30338">
        <ele>998.47</ele>
        <time>2015-06-29T07:22:09Z</time>
      </trkpt>
      <trkpt lat="46.7416" lon="6.30335">
        <ele>999.43</ele>
        <time>2015-06-29T07:22:10Z</time>
      </trkpt>
      <trkpt lat="46.7416" lon="6.30333">
        <ele>999.43</ele>
        <time>2015-06-29T07:22:11Z</time>
      </trkpt>
      <trkpt lat="46.74143" lon="6.30291">
        <ele>999.43</ele>
        <time>2015-06-29T07:22:28Z</time>
      </trkpt>
      <trkpt lat="46.74121" lon="6.30262">
        <ele>1002.31</ele>
        <time>2015-06-29T07:22:44Z</time>
      </trkpt>
      <trkpt lat="46.74108" lon="6.30243">
        <ele>1003.27</ele>
        <time>2015-06-29T07:22:57Z</time>
      </trkpt>
      <trkpt lat="46.74104" lon="6.30238">
        <ele>1004.23</ele>
        <time>2015-06-29T07:23:01Z</time>
      </trkpt>
      <trkpt lat="46.74103" lon="6.30236">
        <ele>1005.2</ele>
        <time>2015-06-29T07:23:02Z</time>
      </trkpt>
      <trkpt lat="46.74102" lon="6.30235">
        <ele>1005.2</ele>
        <time>2015-06-29T07:23:03Z</time>
      </trkpt>
      <trkpt lat="46.74096" lon="6.30223">
        <ele>1006.16</ele>
        <time>2015-06-29T07:23:10Z</time>
      </trkpt>
      <trkpt lat="46.74072" lon="6.3021">
        <ele>1006.64</ele>
        <time>2015-06-29T07:23:24Z</time>
      </trkpt>
      <trkpt lat="46.74051" lon="6.30221">
        <ele>1009.04</ele>
        <time>2015-06-29T07:23:38Z</time>
      </trkpt>
      <trkpt lat="46.74036" lon="6.30257">
        <ele>1010</ele>
        <time>2015-06-29T07:23:54Z</time>
      </trkpt>
      <trkpt lat="46.74012" lon="6.30263">
        <ele>1012.89</ele>
        <time>2015-06-29T07:24:09Z</time>
      </trkpt>
      <trkpt lat="46.73993" lon="6.30247">
        <ele>1014.81</ele>
        <time>2015-06-29T07:24:22Z</time>
      </trkpt>
      <trkpt lat="46.73973" lon="6.30233">
        <ele>1017.21</ele>
        <time>2015-06-29T07:24:35Z</time>
      </trkpt>
      <trkpt lat="46.73972" lon="6.30232">
        <ele>1017.21</ele>
        <time>2015-06-29T07:24:36Z</time>
      </trkpt>
      <trkpt lat="46.73948" lon="6.30218">
        <ele>1019.13</ele>
        <time>2015-06-29T07:24:52Z</time>
      </trkpt>
      <trkpt lat="46.73929" lon="6.30207">
        <ele>1020.1</ele>
        <time>2015-06-29T07:25:04Z</time>
      </trkpt>
      <trkpt lat="46.73904" lon="6.30193">
        <ele>1022.02</ele>
        <time>2015-06-29T07:25:20Z</time>
      </trkpt>
      <trkpt lat="46.73876" lon="6.30184">
        <ele>1023.94</ele>
        <time>2015-06-29T07:25:38Z</time>
      </trkpt>
      <trkpt lat="46.73845" lon="6.30187">
        <ele>1025.86</ele>
        <time>2015-06-29T07:25:56Z</time>
      </trkpt>
      <trkpt lat="46.73825" lon="6.30197">
        <ele>1029.23</ele>
        <time>2015-06-29T07:26:09Z</time>
      </trkpt>
      <trkpt lat="46.73809" lon="6.30207">
        <ele>1030.19</ele>
        <time>2015-06-29T07:26:20Z</time>
      </trkpt>
      <trkpt lat="46.73802" lon="6.30205">
        <ele>1030.67</ele>
        <time>2015-06-29T07:26:33Z</time>
      </trkpt>
      <trkpt lat="46.73802" lon="6.30205">
        <ele>1031.15</ele>
        <time>2015-06-29T07:27:00Z</time>
      </trkpt>
      <trkpt lat="46.73801" lon="6.30203">
        <ele>1031.15</ele>
        <time>2015-06-29T07:27:12Z</time>
      </trkpt>
      <trkpt lat="46.73801" lon="6.30201">
        <ele>1031.15</ele>
        <time>2015-06-29T07:27:41Z</time>
      </trkpt>
      <trkpt lat="46.73802" lon="6.30201">
        <ele>1031.15</ele>
        <time>2015-06-29T07:28:13Z</time>
      </trkpt>
      <trkpt lat="46.73803" lon="6.30202">
        <ele>1030.67</ele>
        <time>2015-06-29T07:28:42Z</time>
      </trkpt>
      <trkpt lat="46.73801" lon="6.30199">
        <ele>1031.15</ele>
        <time>2015-06-29T07:28:56Z</time>
      </trkpt>
      <trkpt lat="46.73794" lon="6.30175">
        <ele>1030.67</ele>
        <time>2015-06-29T07:29:06Z</time>
      </trkpt>
      <trkpt lat="46.73787" lon="6.30161">
        <ele>1030.67</ele>
        <time>2015-06-29T07:29:12Z</time>
      </trkpt>
      <trkpt lat="46.7377" lon="6.30131">
        <ele>1031.15</ele>
        <time>2015-06-29T07:29:24Z</time>
      </trkpt>
      <trkpt lat="46.73749" lon="6.30095">
        <ele>1031.63</ele>
        <time>2015-06-29T07:29:38Z</time>
      </trkpt>
      <trkpt lat="46.73734" lon="6.30051">
        <ele>1032.11</ele>
        <time>2015-06-29T07:29:52Z</time>
      </trkpt>
      <trkpt lat="46.73714" lon="6.29998">
        <ele>1033.07</ele>
        <time>2015-06-29T07:30:05Z</time>
      </trkpt>
      <trkpt lat="46.73701" lon="6.29953">
        <ele>1032.59</ele>
        <time>2015-06-29T07:30:17Z</time>
      </trkpt>
      <trkpt lat="46.73688" lon="6.29915">
        <ele>1033.07</ele>
        <time>2015-06-29T07:30:28Z</time>
      </trkpt>
      <trkpt lat="46.73675" lon="6.29875">
        <ele>1031.63</ele>
        <time>2015-06-29T07:30:39Z</time>
      </trkpt>
      <trkpt lat="46.73663" lon="6.29832">
        <ele>1030.19</ele>
        <time>2015-06-29T07:30:53Z</time>
      </trkpt>
      <trkpt lat="46.73652" lon="6.29802">
        <ele>1030.67</ele>
        <time>2015-06-29T07:31:05Z</time>
      </trkpt>
      <trkpt lat="46.73636" lon="6.29755">
        <ele>1029.23</ele>
        <time>2015-06-29T07:31:17Z</time>
      </trkpt>
      <trkpt lat="46.73626" lon="6.29725">
        <ele>1027.79</ele>
        <time>2015-06-29T07:31:26Z</time>
      </trkpt>
      <trkpt lat="46.73617" lon="6.29683">
        <ele>1024.42</ele>
        <time>2015-06-29T07:31:37Z</time>
      </trkpt>
      <trkpt lat="46.73611" lon="6.29641">
        <ele>1021.54</ele>
        <time>2015-06-29T07:31:48Z</time>
      </trkpt>
      <trkpt lat="46.73609" lon="6.29622">
        <ele>1019.13</ele>
        <time>2015-06-29T07:31:52Z</time>
      </trkpt>
      <trkpt lat="46.73609" lon="6.29592">
        <ele>1016.25</ele>
        <time>2015-06-29T07:31:59Z</time>
      </trkpt>
      <trkpt lat="46.7361" lon="6.29587">
        <ele>1015.77</ele>
        <time>2015-06-29T07:32:00Z</time>
      </trkpt>
      <trkpt lat="46.73609" lon="6.29563">
        <ele>1013.85</ele>
        <time>2015-06-29T07:32:05Z</time>
      </trkpt>
      <trkpt lat="46.73594" lon="6.29523">
        <ele>1013.85</ele>
        <time>2015-06-29T07:32:19Z</time>
      </trkpt>
      <trkpt lat="46.73579" lon="6.29491">
        <ele>1012.41</ele>
        <time>2015-06-29T07:32:31Z</time>
      </trkpt>
      <trkpt lat="46.73579" lon="6.29475">
        <ele>1012.89</ele>
        <time>2015-06-29T07:32:36Z</time>
      </trkpt>
      <trkpt lat="46.7358" lon="6.29449">
        <ele>1011.93</ele>
        <time>2015-06-29T07:32:44Z</time>
      </trkpt>
      <trkpt lat="46.73588" lon="6.29432">
        <ele>1011.93</ele>
        <time>2015-06-29T07:32:50Z</time>
      </trkpt>
      <trkpt lat="46.73596" lon="6.294">
        <ele>1010</ele>
        <time>2015-06-29T07:33:01Z</time>
      </trkpt>
      <trkpt lat="46.73594" lon="6.29383">
        <ele>1010.48</ele>
        <time>2015-06-29T07:33:07Z</time>
      </trkpt>
      <trkpt lat="46.73598" lon="6.29369">
        <ele>1010.48</ele>
        <time>2015-06-29T07:33:21Z</time>
      </trkpt>
      <trkpt lat="46.73601" lon="6.29366">
        <ele>1010.48</ele>
        <time>2015-06-29T07:33:36Z</time>
      </trkpt>
      <trkpt lat="46.73604" lon="6.29364">
        <ele>1010</ele>
        <time>2015-06-29T07:34:00Z</time>
      </trkpt>
      <trkpt lat="46.73609" lon="6.29363">
        <ele>1009.04</ele>
        <time>2015-06-29T07:34:13Z</time>
      </trkpt>
      <trkpt lat="46.73616" lon="6.29358">
        <ele>1008.56</ele>
        <time>2015-06-29T07:34:24Z</time>
      </trkpt>
      <trkpt lat="46.73628" lon="6.29354">
        <ele>1008.56</ele>
        <time>2015-06-29T07:34:36Z</time>
      </trkpt>
      <trkpt lat="46.73633" lon="6.29342">
        <ele>1007.6</ele>
        <time>2015-06-29T07:34:50Z</time>
      </trkpt>
      <trkpt lat="46.73633" lon="6.29342">
        <ele>1007.6</ele>
        <time>2015-06-29T07:34:51Z</time>
      </trkpt>
      <trkpt lat="46.73633" lon="6.29341">
        <ele>1007.6</ele>
        <time>2015-06-29T07:35:07Z</time>
      </trkpt>
      <trkpt lat="46.73632" lon="6.29333">
        <ele>1008.08</ele>
        <time>2015-06-29T07:35:23Z</time>
      </trkpt>
      <trkpt lat="46.73626" lon="6.29319">
        <ele>1010</ele>
        <time>2015-06-29T07:35:35Z</time>
      </trkpt>
      <trkpt lat="46.73618" lon="6.29319">
        <ele>1010.48</ele>
        <time>2015-06-29T07:35:46Z</time>
      </trkpt>
      <trkpt lat="46.7361" lon="6.29327">
        <ele>1010.96</ele>
        <time>2015-06-29T07:35:53Z</time>
      </trkpt>
      <trkpt lat="46.73589" lon="6.29343">
        <ele>1012.41</ele>
        <time>2015-06-29T07:36:07Z</time>
      </trkpt>
      <trkpt lat="46.73564" lon="6.29363">
        <ele>1014.81</ele>
        <time>2015-06-29T07:36:24Z</time>
      </trkpt>
      <trkpt lat="46.73544" lon="6.29382">
        <ele>1017.21</ele>
        <time>2015-06-29T07:36:39Z</time>
      </trkpt>
      <trkpt lat="46.73523" lon="6.29402">
        <ele>1020.1</ele>
        <time>2015-06-29T07:36:55Z</time>
      </trkpt>
      <trkpt lat="46.73509" lon="6.29414">
        <ele>1021.54</ele>
        <time>2015-06-29T07:37:07Z</time>
      </trkpt>
      <trkpt lat="46.73487" lon="6.29417">
        <ele>1023.94</ele>
        <time>2015-06-29T07:37:22Z</time>
      </trkpt>
      <trkpt lat="46.73482" lon="6.29414">
        <ele>1024.42</ele>
        <time>2015-06-29T07:37:26Z</time>
      </trkpt>
      <trkpt lat="46.73465" lon="6.29393">
        <ele>1026.83</ele>
        <time>2015-06-29T07:37:42Z</time>
      </trkpt>
      <trkpt lat="46.73456" lon="6.29377">
        <ele>1028.75</ele>
        <time>2015-06-29T07:37:51Z</time>
      </trkpt>
      <trkpt lat="46.73447" lon="6.29354">
        <ele>1030.67</ele>
        <time>2015-06-29T07:38:06Z</time>
      </trkpt>
      <trkpt lat="46.73433" lon="6.29326">
        <ele>1032.59</ele>
        <time>2015-06-29T07:38:19Z</time>
      </trkpt>
      <trkpt lat="46.73429" lon="6.29315">
        <ele>1033.55</ele>
        <time>2015-06-29T07:38:25Z</time>
      </trkpt>
      <trkpt lat="46.73424" lon="6.29307">
        <ele>1034.04</ele>
        <time>2015-06-29T07:38:30Z</time>
      </trkpt>
      <trkpt lat="46.73419" lon="6.29295">
        <ele>1034.52</ele>
        <time>2015-06-29T07:38:37Z</time>
      </trkpt>
      <trkpt lat="46.73415" lon="6.29287">
        <ele>1035.48</ele>
        <time>2015-06-29T07:38:42Z</time>
      </trkpt>
      <trkpt lat="46.73405" lon="6.29263">
        <ele>1037.88</ele>
        <time>2015-06-29T07:38:58Z</time>
      </trkpt>
      <trkpt lat="46.734" lon="6.2926">
        <ele>1037.88</ele>
        <time>2015-06-29T07:39:02Z</time>
      </trkpt>
      <trkpt lat="46.73396" lon="6.29255">
        <ele>1039.32</ele>
        <time>2015-06-29T07:39:08Z</time>
      </trkpt>
      <trkpt lat="46.7339" lon="6.29237">
        <ele>1040.28</ele>
        <time>2015-06-29T07:39:22Z</time>
      </trkpt>
      <trkpt lat="46.73385" lon="6.29217">
        <ele>1041.73</ele>
        <time>2015-06-29T07:39:36Z</time>
      </trkpt>
      <trkpt lat="46.73368" lon="6.29191">
        <ele>1043.65</ele>
        <time>2015-06-29T07:39:50Z</time>
      </trkpt>
      <trkpt lat="46.73358" lon="6.29169">
        <ele>1045.09</ele>
        <time>2015-06-29T07:40:02Z</time>
      </trkpt>
      <trkpt lat="46.73358" lon="6.29167">
        <ele>1044.61</ele>
        <time>2015-06-29T07:40:03Z</time>
      </trkpt>
      <trkpt lat="46.73354" lon="6.2916">
        <ele>1045.09</ele>
        <time>2015-06-29T07:40:07Z</time>
      </trkpt>
      <trkpt lat="46.73345" lon="6.29147">
        <ele>1046.05</ele>
        <time>2015-06-29T07:40:13Z</time>
      </trkpt>
      <trkpt lat="46.73332" lon="6.29123">
        <ele>1047.01</ele>
        <time>2015-06-29T07:40:26Z</time>
      </trkpt>
      <trkpt lat="46.73318" lon="6.29101">
        <ele>1047.49</ele>
        <time>2015-06-29T07:40:37Z</time>
      </trkpt>
      <trkpt lat="46.73313" lon="6.29093">
        <ele>1048.45</ele>
        <time>2015-06-29T07:40:41Z</time>
      </trkpt>
      <trkpt lat="46.73304" lon="6.29083">
        <ele>1049.42</ele>
        <time>2015-06-29T07:40:48Z</time>
      </trkpt>
      <trkpt lat="46.73284" lon="6.29061">
        <ele>1050.86</ele>
        <time>2015-06-29T07:41:02Z</time>
      </trkpt>
      <trkpt lat="46.73271" lon="6.29046">
        <ele>1052.78</ele>
        <time>2015-06-29T07:41:15Z</time>
      </trkpt>
      <trkpt lat="46.7327" lon="6.29045">
        <ele>1052.78</ele>
        <time>2015-06-29T07:41:16Z</time>
      </trkpt>
      <trkpt lat="46.73266" lon="6.29037">
        <ele>1054.22</ele>
        <time>2015-06-29T07:41:22Z</time>
      </trkpt>
      <trkpt lat="46.7326" lon="6.2903">
        <ele>1055.67</ele>
        <time>2015-06-29T07:41:28Z</time>
      </trkpt>
      <trkpt lat="46.73254" lon="6.29025">
        <ele>1056.63</ele>
        <time>2015-06-29T07:41:34Z</time>
      </trkpt>
      <trkpt lat="46.73248" lon="6.29017">
        <ele>1057.59</ele>
        <time>2015-06-29T07:41:40Z</time>
      </trkpt>
      <trkpt lat="46.73239" lon="6.29007">
        <ele>1059.03</ele>
        <time>2015-06-29T07:41:51Z</time>
      </trkpt>
      <trkpt lat="46.73227" lon="6.29005">
        <ele>1060.95</ele>
        <time>2015-06-29T07:42:04Z</time>
      </trkpt>
      <trkpt lat="46.73225" lon="6.29008">
        <ele>1061.91</ele>
        <time>2015-06-29T07:42:07Z</time>
      </trkpt>
      <trkpt lat="46.73214" lon="6.29003">
        <ele>1063.36</ele>
        <time>2015-06-29T07:42:16Z</time>
      </trkpt>
      <trkpt lat="46.73198" lon="6.29006">
        <ele>1065.28</ele>
        <time>2015-06-29T07:42:28Z</time>
      </trkpt>
      <trkpt lat="46.73181" lon="6.2902">
        <ele>1068.16</ele>
        <time>2015-06-29T07:42:40Z</time>
      </trkpt>
      <trkpt lat="46.73167" lon="6.2903">
        <ele>1070.08</ele>
        <time>2015-06-29T07:42:53Z</time>
      </trkpt>
      <trkpt lat="46.73151" lon="6.29045">
        <ele>1071.53</ele>
        <time>2015-06-29T07:43:05Z</time>
      </trkpt>
      <trkpt lat="46.73141" lon="6.29054">
        <ele>1072.01</ele>
        <time>2015-06-29T07:43:11Z</time>
      </trkpt>
      <trkpt lat="46.73136" lon="6.29061">
        <ele>1072.49</ele>
        <time>2015-06-29T07:43:17Z</time>
      </trkpt>
      <trkpt lat="46.73116" lon="6.29066">
        <ele>1072.01</ele>
        <time>2015-06-29T07:43:29Z</time>
      </trkpt>
      <trkpt lat="46.73102" lon="6.29072">
        <ele>1072.97</ele>
        <time>2015-06-29T07:43:35Z</time>
      </trkpt>
      <trkpt lat="46.73087" lon="6.29083">
        <ele>1073.45</ele>
        <time>2015-06-29T07:43:45Z</time>
      </trkpt>
      <trkpt lat="46.73071" lon="6.29101">
        <ele>1076.81</ele>
        <time>2015-06-29T07:44:01Z</time>
      </trkpt>
      <trkpt lat="46.73062" lon="6.29103">
        <ele>1078.26</ele>
        <time>2015-06-29T07:44:10Z</time>
      </trkpt>
      <trkpt lat="46.73041" lon="6.29103">
        <ele>1080.66</ele>
        <time>2015-06-29T07:44:25Z</time>
      </trkpt>
      <trkpt lat="46.73022" lon="6.29104">
        <ele>1083.06</ele>
        <time>2015-06-29T07:44:38Z</time>
      </trkpt>
      <trkpt lat="46.73" lon="6.29102">
        <ele>1084.5</ele>
        <time>2015-06-29T07:44:51Z</time>
      </trkpt>
      <trkpt lat="46.7299" lon="6.29099">
        <ele>1086.43</ele>
        <time>2015-06-29T07:44:59Z</time>
      </trkpt>
      <trkpt lat="46.72987" lon="6.29098">
        <ele>1086.91</ele>
        <time>2015-06-29T07:45:01Z</time>
      </trkpt>
      <trkpt lat="46.72974" lon="6.29095">
        <ele>1087.87</ele>
        <time>2015-06-29T07:45:11Z</time>
      </trkpt>
      <trkpt lat="46.72972" lon="6.29094">
        <ele>1088.35</ele>
        <time>2015-06-29T07:45:14Z</time>
      </trkpt>
      <trkpt lat="46.72949" lon="6.29095">
        <ele>1090.27</ele>
        <time>2015-06-29T07:45:29Z</time>
      </trkpt>
      <trkpt lat="46.72933" lon="6.2909">
        <ele>1090.27</ele>
        <time>2015-06-29T07:45:41Z</time>
      </trkpt>
      <trkpt lat="46.72931" lon="6.29091">
        <ele>1090.75</ele>
        <time>2015-06-29T07:45:42Z</time>
      </trkpt>
      <trkpt lat="46.72914" lon="6.2909">
        <ele>1092.2</ele>
        <time>2015-06-29T07:45:52Z</time>
      </trkpt>
      <trkpt lat="46.729" lon="6.29091">
        <ele>1093.16</ele>
        <time>2015-06-29T07:45:59Z</time>
      </trkpt>
      <trkpt lat="46.72898" lon="6.29092">
        <ele>1092.68</ele>
        <time>2015-06-29T07:46:01Z</time>
      </trkpt>
      <trkpt lat="46.72869" lon="6.29093">
        <ele>1095.08</ele>
        <time>2015-06-29T07:46:16Z</time>
      </trkpt>
      <trkpt lat="46.72848" lon="6.29097">
        <ele>1096.52</ele>
        <time>2015-06-29T07:46:28Z</time>
      </trkpt>
      <trkpt lat="46.72825" lon="6.29098">
        <ele>1097.96</ele>
        <time>2015-06-29T07:46:40Z</time>
      </trkpt>
      <trkpt lat="46.72801" lon="6.29098">
        <ele>1099.89</ele>
        <time>2015-06-29T07:46:54Z</time>
      </trkpt>
      <trkpt lat="46.72777" lon="6.29107">
        <ele>1099.89</ele>
        <time>2015-06-29T07:47:05Z</time>
      </trkpt>
      <trkpt lat="46.72765" lon="6.29112">
        <ele>1100.37</ele>
        <time>2015-06-29T07:47:11Z</time>
      </trkpt>
      <trkpt lat="46.72743" lon="6.29126">
        <ele>1101.33</ele>
        <time>2015-06-29T07:47:20Z</time>
      </trkpt>
      <trkpt lat="46.72735" lon="6.29129">
        <ele>1101.33</ele>
        <time>2015-06-29T07:47:24Z</time>
      </trkpt>
      <trkpt lat="46.72724" lon="6.29132">
        <ele>1101.81</ele>
        <time>2015-06-29T07:47:30Z</time>
      </trkpt>
      <trkpt lat="46.72696" lon="6.29115">
        <ele>1101.33</ele>
        <time>2015-06-29T07:47:44Z</time>
      </trkpt>
      <trkpt lat="46.72688" lon="6.29104">
        <ele>1101.81</ele>
        <time>2015-06-29T07:47:51Z</time>
      </trkpt>
      <trkpt lat="46.72693" lon="6.29057">
        <ele>1100.37</ele>
        <time>2015-06-29T07:48:03Z</time>
      </trkpt>
      <trkpt lat="46.72695" lon="6.29045">
        <ele>1099.89</ele>
        <time>2015-06-29T07:48:05Z</time>
      </trkpt>
      <trkpt lat="46.72697" lon="6.29038">
        <ele>1099.4</ele>
        <time>2015-06-29T07:48:06Z</time>
      </trkpt>
      <trkpt lat="46.72698" lon="6.29033">
        <ele>1099.89</ele>
        <time>2015-06-29T07:48:07Z</time>
      </trkpt>
      <trkpt lat="46.727" lon="6.29027">
        <ele>1099.4</ele>
        <time>2015-06-29T07:48:08Z</time>
      </trkpt>
      <trkpt lat="46.72702" lon="6.29022">
        <ele>1099.4</ele>
        <time>2015-06-29T07:48:09Z</time>
      </trkpt>
      <trkpt lat="46.72704" lon="6.29017">
        <ele>1099.4</ele>
        <time>2015-06-29T07:48:10Z</time>
      </trkpt>
      <trkpt lat="46.72706" lon="6.29012">
        <ele>1099.4</ele>
        <time>2015-06-29T07:48:11Z</time>
      </trkpt>
      <trkpt lat="46.72712" lon="6.28987">
        <ele>1098.92</ele>
        <time>2015-06-29T07:48:16Z</time>
      </trkpt>
      <trkpt lat="46.72715" lon="6.28982">
        <ele>1098.92</ele>
        <time>2015-06-29T07:48:17Z</time>
      </trkpt>
      <trkpt lat="46.72718" lon="6.28978">
        <ele>1098.92</ele>
        <time>2015-06-29T07:48:18Z</time>
      </trkpt>
      <trkpt lat="46.72722" lon="6.28975">
        <ele>1098.44</ele>
        <time>2015-06-29T07:48:19Z</time>
      </trkpt>
      <trkpt lat="46.72726" lon="6.28972">
        <ele>1098.44</ele>
        <time>2015-06-29T07:48:20Z</time>
      </trkpt>
      <trkpt lat="46.7274" lon="6.28958">
        <ele>1098.92</ele>
        <time>2015-06-29T07:48:24Z</time>
      </trkpt>
      <trkpt lat="46.72776" lon="6.28953">
        <ele>1099.4</ele>
        <time>2015-06-29T07:48:35Z</time>
      </trkpt>
      <trkpt lat="46.72802" lon="6.28945">
        <ele>1099.89</ele>
        <time>2015-06-29T07:48:47Z</time>
      </trkpt>
      <trkpt lat="46.72828" lon="6.28901">
        <ele>1098.92</ele>
        <time>2015-06-29T07:48:58Z</time>
      </trkpt>
      <trkpt lat="46.72843" lon="6.28872">
        <ele>1098.92</ele>
        <time>2015-06-29T07:49:04Z</time>
      </trkpt>
      <trkpt lat="46.72845" lon="6.28867">
        <ele>1098.44</ele>
        <time>2015-06-29T07:49:05Z</time>
      </trkpt>
      <trkpt lat="46.72865" lon="6.288">
        <ele>1097.48</ele>
        <time>2015-06-29T07:49:17Z</time>
      </trkpt>
      <trkpt lat="46.72865" lon="6.28794">
        <ele>1097.48</ele>
        <time>2015-06-29T07:49:18Z</time>
      </trkpt>
      <trkpt lat="46.72867" lon="6.2878">
        <ele>1097.48</ele>
        <time>2015-06-29T07:49:20Z</time>
      </trkpt>
      <trkpt lat="46.72871" lon="6.28759">
        <ele>1097</ele>
        <time>2015-06-29T07:49:23Z</time>
      </trkpt>
      <trkpt lat="46.72895" lon="6.28659">
        <ele>1096.04</ele>
        <time>2015-06-29T07:49:37Z</time>
      </trkpt>
      <trkpt lat="46.72902" lon="6.28619">
        <ele>1095.56</ele>
        <time>2015-06-29T07:49:43Z</time>
      </trkpt>
      <trkpt lat="46.72903" lon="6.28612">
        <ele>1095.56</ele>
        <time>2015-06-29T07:49:44Z</time>
      </trkpt>
      <trkpt lat="46.72904" lon="6.286">
        <ele>1095.56</ele>
        <time>2015-06-29T07:49:46Z</time>
      </trkpt>
      <trkpt lat="46.72911" lon="6.28531">
        <ele>1097.48</ele>
        <time>2015-06-29T07:49:59Z</time>
      </trkpt>
      <trkpt lat="46.72914" lon="6.2849">
        <ele>1097.96</ele>
        <time>2015-06-29T07:50:09Z</time>
      </trkpt>
      <trkpt lat="46.72911" lon="6.28449">
        <ele>1098.92</ele>
        <time>2015-06-29T07:50:20Z</time>
      </trkpt>
      <trkpt lat="46.72905" lon="6.28407">
        <ele>1100.37</ele>
        <time>2015-06-29T07:50:30Z</time>
      </trkpt>
      <trkpt lat="46.72905" lon="6.28387">
        <ele>1100.85</ele>
        <time>2015-06-29T07:50:34Z</time>
      </trkpt>
      <trkpt lat="46.72908" lon="6.28339">
        <ele>1101.81</ele>
        <time>2015-06-29T07:50:44Z</time>
      </trkpt>
      <trkpt lat="46.72903" lon="6.28279">
        <ele>1101.81</ele>
        <time>2015-06-29T07:50:55Z</time>
      </trkpt>
      <trkpt lat="46.72903" lon="6.28229">
        <ele>1101.81</ele>
        <time>2015-06-29T07:51:05Z</time>
      </trkpt>
      <trkpt lat="46.72907" lon="6.28218">
        <ele>1101.81</ele>
        <time>2015-06-29T07:51:07Z</time>
      </trkpt>
      <trkpt lat="46.72925" lon="6.28167">
        <ele>1100.37</ele>
        <time>2015-06-29T07:51:15Z</time>
      </trkpt>
      <trkpt lat="46.72932" lon="6.28137">
        <ele>1100.37</ele>
        <time>2015-06-29T07:51:19Z</time>
      </trkpt>
      <trkpt lat="46.72947" lon="6.2802">
        <ele>1098.44</ele>
        <time>2015-06-29T07:51:32Z</time>
      </trkpt>
      <trkpt lat="46.72956" lon="6.27968">
        <ele>1097.48</ele>
        <time>2015-06-29T07:51:40Z</time>
      </trkpt>
      <trkpt lat="46.72955" lon="6.27964">
        <ele>1097.96</ele>
        <time>2015-06-29T07:51:41Z</time>
      </trkpt>
      <trkpt lat="46.72955" lon="6.27957">
        <ele>1098.92</ele>
        <time>2015-06-29T07:51:43Z</time>
      </trkpt>
      <trkpt lat="46.7295" lon="6.27924">
        <ele>1099.4</ele>
        <time>2015-06-29T07:51:53Z</time>
      </trkpt>
      <trkpt lat="46.7295" lon="6.27918">
        <ele>1099.4</ele>
        <time>2015-06-29T07:51:55Z</time>
      </trkpt>
      <trkpt lat="46.72945" lon="6.27892">
        <ele>1098.92</ele>
        <time>2015-06-29T07:52:08Z</time>
      </trkpt>
      <trkpt lat="46.72942" lon="6.27883">
        <ele>1099.89</ele>
        <time>2015-06-29T07:52:26Z</time>
      </trkpt>
      <trkpt lat="46.72941" lon="6.27879">
        <ele>1099.4</ele>
        <time>2015-06-29T07:52:30Z</time>
      </trkpt>
      <trkpt lat="46.72937" lon="6.2787">
        <ele>1098.92</ele>
        <time>2015-06-29T07:52:39Z</time>
      </trkpt>
      <trkpt lat="46.72929" lon="6.27848">
        <ele>1099.89</ele>
        <time>2015-06-29T07:52:47Z</time>
      </trkpt>
      <trkpt lat="46.72913" lon="6.27811">
        <ele>1100.37</ele>
        <time>2015-06-29T07:53:03Z</time>
      </trkpt>
      <trkpt lat="46.72898" lon="6.27776">
        <ele>1101.81</ele>
        <time>2015-06-29T07:53:18Z</time>
      </trkpt>
      <trkpt lat="46.72886" lon="6.27748">
        <ele>1101.33</ele>
        <time>2015-06-29T07:53:30Z</time>
      </trkpt>
      <trkpt lat="46.72861" lon="6.27711">
        <ele>1102.29</ele>
        <time>2015-06-29T07:53:49Z</time>
      </trkpt>
      <trkpt lat="46.72854" lon="6.27702">
        <ele>1102.77</ele>
        <time>2015-06-29T07:53:53Z</time>
      </trkpt>
      <trkpt lat="46.72837" lon="6.27674">
        <ele>1103.25</ele>
        <time>2015-06-29T07:54:08Z</time>
      </trkpt>
      <trkpt lat="46.72832" lon="6.27666">
        <ele>1103.73</ele>
        <time>2015-06-29T07:54:14Z</time>
      </trkpt>
      <trkpt lat="46.72816" lon="6.27634">
        <ele>1103.25</ele>
        <time>2015-06-29T07:54:31Z</time>
      </trkpt>
      <trkpt lat="46.72797" lon="6.27609">
        <ele>1102.77</ele>
        <time>2015-06-29T07:54:44Z</time>
      </trkpt>
      <trkpt lat="46.72775" lon="6.27581">
        <ele>1101.33</ele>
        <time>2015-06-29T07:54:55Z</time>
      </trkpt>
      <trkpt lat="46.72772" lon="6.27577">
        <ele>1100.85</ele>
        <time>2015-06-29T07:54:56Z</time>
      </trkpt>
      <trkpt lat="46.72768" lon="6.27574">
        <ele>1100.85</ele>
        <time>2015-06-29T07:54:57Z</time>
      </trkpt>
      <trkpt lat="46.72765" lon="6.27571">
        <ele>1100.85</ele>
        <time>2015-06-29T07:54:58Z</time>
      </trkpt>
      <trkpt lat="46.72762" lon="6.27569">
        <ele>1100.85</ele>
        <time>2015-06-29T07:54:59Z</time>
      </trkpt>
      <trkpt lat="46.72759" lon="6.27567">
        <ele>1101.33</ele>
        <time>2015-06-29T07:55:00Z</time>
      </trkpt>
      <trkpt lat="46.72745" lon="6.27559">
        <ele>1102.77</ele>
        <time>2015-06-29T07:55:11Z</time>
      </trkpt>
      <trkpt lat="46.72743" lon="6.27558">
        <ele>1103.25</ele>
        <time>2015-06-29T07:55:18Z</time>
      </trkpt>
      <trkpt lat="46.72742" lon="6.27553">
        <ele>1104.21</ele>
        <time>2015-06-29T07:55:24Z</time>
      </trkpt>
      <trkpt lat="46.72741" lon="6.27552">
        <ele>1103.25</ele>
        <time>2015-06-29T07:55:25Z</time>
      </trkpt>
      <trkpt lat="46.7274" lon="6.27551">
        <ele>1103.73</ele>
        <time>2015-06-29T07:55:26Z</time>
      </trkpt>
      <trkpt lat="46.72739" lon="6.27551">
        <ele>1103.25</ele>
        <time>2015-06-29T07:55:27Z</time>
      </trkpt>
      <trkpt lat="46.72736" lon="6.27549">
        <ele>1103.73</ele>
        <time>2015-06-29T07:55:38Z</time>
      </trkpt>
      <trkpt lat="46.72731" lon="6.27545">
        <ele>1104.21</ele>
        <time>2015-06-29T07:55:42Z</time>
      </trkpt>
      <trkpt lat="46.72729" lon="6.27543">
        <ele>1104.21</ele>
        <time>2015-06-29T07:55:43Z</time>
      </trkpt>
      <trkpt lat="46.72728" lon="6.27542">
        <ele>1104.21</ele>
        <time>2015-06-29T07:55:44Z</time>
      </trkpt>
      <trkpt lat="46.72726" lon="6.2754">
        <ele>1104.69</ele>
        <time>2015-06-29T07:55:45Z</time>
      </trkpt>
      <trkpt lat="46.72724" lon="6.27539">
        <ele>1105.17</ele>
        <time>2015-06-29T07:55:46Z</time>
      </trkpt>
      <trkpt lat="46.72722" lon="6.27538">
        <ele>1104.21</ele>
        <time>2015-06-29T07:55:47Z</time>
      </trkpt>
      <trkpt lat="46.7272" lon="6.27537">
        <ele>1104.21</ele>
        <time>2015-06-29T07:55:48Z</time>
      </trkpt>
      <trkpt lat="46.72719" lon="6.27535">
        <ele>1104.69</ele>
        <time>2015-06-29T07:55:49Z</time>
      </trkpt>
      <trkpt lat="46.72716" lon="6.27534">
        <ele>1104.69</ele>
        <time>2015-06-29T07:55:50Z</time>
      </trkpt>
      <trkpt lat="46.72714" lon="6.27532">
        <ele>1104.21</ele>
        <time>2015-06-29T07:55:51Z</time>
      </trkpt>
      <trkpt lat="46.72712" lon="6.27531">
        <ele>1104.21</ele>
        <time>2015-06-29T07:55:52Z</time>
      </trkpt>
      <trkpt lat="46.72711" lon="6.2753">
        <ele>1104.21</ele>
        <time>2015-06-29T07:55:53Z</time>
      </trkpt>
      <trkpt lat="46.72709" lon="6.27529">
        <ele>1104.21</ele>
        <time>2015-06-29T07:55:54Z</time>
      </trkpt>
      <trkpt lat="46.72707" lon="6.27528">
        <ele>1104.21</ele>
        <time>2015-06-29T07:55:55Z</time>
      </trkpt>
      <trkpt lat="46.72705" lon="6.27527">
        <ele>1104.69</ele>
        <time>2015-06-29T07:55:56Z</time>
      </trkpt>
      <trkpt lat="46.72704" lon="6.27526">
        <ele>1104.69</ele>
        <time>2015-06-29T07:55:57Z</time>
      </trkpt>
      <trkpt lat="46.72677" lon="6.27514">
        <ele>1106.61</ele>
        <time>2015-06-29T07:56:12Z</time>
      </trkpt>
      <trkpt lat="46.72666" lon="6.27506">
        <ele>1106.61</ele>
        <time>2015-06-29T07:56:19Z</time>
      </trkpt>
      <trkpt lat="46.72664" lon="6.27505">
        <ele>1107.58</ele>
        <time>2015-06-29T07:56:20Z</time>
      </trkpt>
      <trkpt lat="46.72662" lon="6.27504">
        <ele>1107.1</ele>
        <time>2015-06-29T07:56:21Z</time>
      </trkpt>
      <trkpt lat="46.72661" lon="6.27502">
        <ele>1107.1</ele>
        <time>2015-06-29T07:56:22Z</time>
      </trkpt>
      <trkpt lat="46.72659" lon="6.27501">
        <ele>1107.1</ele>
        <time>2015-06-29T07:56:23Z</time>
      </trkpt>
      <trkpt lat="46.72655" lon="6.27492">
        <ele>1107.1</ele>
        <time>2015-06-29T07:56:31Z</time>
      </trkpt>
      <trkpt lat="46.72654" lon="6.2749">
        <ele>1107.1</ele>
        <time>2015-06-29T07:56:33Z</time>
      </trkpt>
      <trkpt lat="46.7265" lon="6.27483">
        <ele>1107.1</ele>
        <time>2015-06-29T07:56:46Z</time>
      </trkpt>
      <trkpt lat="46.72641" lon="6.27471">
        <ele>1107.1</ele>
        <time>2015-06-29T07:56:57Z</time>
      </trkpt>
      <trkpt lat="46.72632" lon="6.27445">
        <ele>1108.06</ele>
        <time>2015-06-29T07:57:08Z</time>
      </trkpt>
      <trkpt lat="46.72621" lon="6.27406">
        <ele>1108.06</ele>
        <time>2015-06-29T07:57:21Z</time>
      </trkpt>
      <trkpt lat="46.72624" lon="6.27361">
        <ele>1106.61</ele>
        <time>2015-06-29T07:57:32Z</time>
      </trkpt>
      <trkpt lat="46.72627" lon="6.2734">
        <ele>1104.69</ele>
        <time>2015-06-29T07:57:39Z</time>
      </trkpt>
      <trkpt lat="46.72628" lon="6.27338">
        <ele>1105.17</ele>
        <time>2015-06-29T07:57:40Z</time>
      </trkpt>
      <trkpt lat="46.72628" lon="6.27329">
        <ele>1104.21</ele>
        <time>2015-06-29T07:57:52Z</time>
      </trkpt>
      <trkpt lat="46.72627" lon="6.27325">
        <ele>1104.21</ele>
        <time>2015-06-29T07:58:00Z</time>
      </trkpt>
      <trkpt lat="46.72628" lon="6.27322">
        <ele>1104.21</ele>
        <time>2015-06-29T07:58:07Z</time>
      </trkpt>
      <trkpt lat="46.72627" lon="6.27319">
        <ele>1104.21</ele>
        <time>2015-06-29T07:58:17Z</time>
      </trkpt>
      <trkpt lat="46.72627" lon="6.27315">
        <ele>1104.69</ele>
        <time>2015-06-29T07:58:32Z</time>
      </trkpt>
      <trkpt lat="46.72626" lon="6.27311">
        <ele>1103.73</ele>
        <time>2015-06-29T07:58:35Z</time>
      </trkpt>
      <trkpt lat="46.72626" lon="6.27309">
        <ele>1104.69</ele>
        <time>2015-06-29T07:58:36Z</time>
      </trkpt>
      <trkpt lat="46.72626" lon="6.27307">
        <ele>1104.21</ele>
        <time>2015-06-29T07:58:37Z</time>
      </trkpt>
      <trkpt lat="46.72626" lon="6.27304">
        <ele>1104.21</ele>
        <time>2015-06-29T07:58:38Z</time>
      </trkpt>
      <trkpt lat="46.72626" lon="6.27302">
        <ele>1103.73</ele>
        <time>2015-06-29T07:58:39Z</time>
      </trkpt>
      <trkpt lat="46.72627" lon="6.273">
        <ele>1104.21</ele>
        <time>2015-06-29T07:58:40Z</time>
      </trkpt>
      <trkpt lat="46.72627" lon="6.27298">
        <ele>1104.21</ele>
        <time>2015-06-29T07:58:41Z</time>
      </trkpt>
      <trkpt lat="46.72627" lon="6.27296">
        <ele>1103.73</ele>
        <time>2015-06-29T07:58:42Z</time>
      </trkpt>
      <trkpt lat="46.72627" lon="6.27293">
        <ele>1104.69</ele>
        <time>2015-06-29T07:58:43Z</time>
      </trkpt>
      <trkpt lat="46.72627" lon="6.27291">
        <ele>1104.21</ele>
        <time>2015-06-29T07:58:44Z</time>
      </trkpt>
      <trkpt lat="46.72627" lon="6.27289">
        <ele>1103.73</ele>
        <time>2015-06-29T07:58:45Z</time>
      </trkpt>
      <trkpt lat="46.72626" lon="6.27286">
        <ele>1103.73</ele>
        <time>2015-06-29T07:58:46Z</time>
      </trkpt>
      <trkpt lat="46.72625" lon="6.27283">
        <ele>1103.73</ele>
        <time>2015-06-29T07:58:47Z</time>
      </trkpt>
      <trkpt lat="46.72617" lon="6.27222">
        <ele>1101.33</ele>
        <time>2015-06-29T07:59:00Z</time>
      </trkpt>
      <trkpt lat="46.72619" lon="6.27151">
        <ele>1098.92</ele>
        <time>2015-06-29T07:59:11Z</time>
      </trkpt>
      <trkpt lat="46.72626" lon="6.27123">
        <ele>1097.48</ele>
        <time>2015-06-29T07:59:16Z</time>
      </trkpt>
      <trkpt lat="46.72629" lon="6.27117">
        <ele>1097.48</ele>
        <time>2015-06-29T07:59:17Z</time>
      </trkpt>
      <trkpt lat="46.72631" lon="6.27112">
        <ele>1097</ele>
        <time>2015-06-29T07:59:18Z</time>
      </trkpt>
      <trkpt lat="46.72636" lon="6.27101">
        <ele>1096.52</ele>
        <time>2015-06-29T07:59:20Z</time>
      </trkpt>
      <trkpt lat="46.72638" lon="6.27095">
        <ele>1096.04</ele>
        <time>2015-06-29T07:59:21Z</time>
      </trkpt>
      <trkpt lat="46.7264" lon="6.27089">
        <ele>1095.56</ele>
        <time>2015-06-29T07:59:22Z</time>
      </trkpt>
      <trkpt lat="46.7264" lon="6.27082">
        <ele>1095.56</ele>
        <time>2015-06-29T07:59:23Z</time>
      </trkpt>
      <trkpt lat="46.7264" lon="6.27077">
        <ele>1095.08</ele>
        <time>2015-06-29T07:59:24Z</time>
      </trkpt>
      <trkpt lat="46.7264" lon="6.27072">
        <ele>1095.08</ele>
        <time>2015-06-29T07:59:25Z</time>
      </trkpt>
      <trkpt lat="46.72642" lon="6.27068">
        <ele>1095.08</ele>
        <time>2015-06-29T07:59:26Z</time>
      </trkpt>
      <trkpt lat="46.72643" lon="6.27064">
        <ele>1095.08</ele>
        <time>2015-06-29T07:59:27Z</time>
      </trkpt>
      <trkpt lat="46.72643" lon="6.27061">
        <ele>1094.6</ele>
        <time>2015-06-29T07:59:28Z</time>
      </trkpt>
      <trkpt lat="46.72644" lon="6.27057">
        <ele>1094.6</ele>
        <time>2015-06-29T07:59:29Z</time>
      </trkpt>
      <trkpt lat="46.72646" lon="6.27053">
        <ele>1094.6</ele>
        <time>2015-06-29T07:59:30Z</time>
      </trkpt>
      <trkpt lat="46.72648" lon="6.27049">
        <ele>1094.6</ele>
        <time>2015-06-29T07:59:31Z</time>
      </trkpt>
      <trkpt lat="46.7265" lon="6.27044">
        <ele>1094.12</ele>
        <time>2015-06-29T07:59:32Z</time>
      </trkpt>
      <trkpt lat="46.72651" lon="6.27039">
        <ele>1094.12</ele>
        <time>2015-06-29T07:59:33Z</time>
      </trkpt>
      <trkpt lat="46.72653" lon="6.27034">
        <ele>1093.64</ele>
        <time>2015-06-29T07:59:34Z</time>
      </trkpt>
      <trkpt lat="46.72655" lon="6.2703">
        <ele>1093.64</ele>
        <time>2015-06-29T07:59:35Z</time>
      </trkpt>
      <trkpt lat="46.72668" lon="6.27007">
        <ele>1093.16</ele>
        <time>2015-06-29T07:59:41Z</time>
      </trkpt>
      <trkpt lat="46.7267" lon="6.26968">
        <ele>1091.71</ele>
        <time>2015-06-29T07:59:51Z</time>
      </trkpt>
      <trkpt lat="46.72668" lon="6.26952">
        <ele>1090.27</ele>
        <time>2015-06-29T07:59:56Z</time>
      </trkpt>
      <trkpt lat="46.72667" lon="6.26946">
        <ele>1089.31</ele>
        <time>2015-06-29T07:59:58Z</time>
      </trkpt>
      <trkpt lat="46.72665" lon="6.26927">
        <ele>1088.35</ele>
        <time>2015-06-29T08:00:10Z</time>
      </trkpt>
      <trkpt lat="46.72665" lon="6.26915">
        <ele>1088.83</ele>
        <time>2015-06-29T08:00:19Z</time>
      </trkpt>
      <trkpt lat="46.72653" lon="6.26884">
        <ele>1088.35</ele>
        <time>2015-06-29T08:00:30Z</time>
      </trkpt>
      <trkpt lat="46.72636" lon="6.2684">
        <ele>1087.87</ele>
        <time>2015-06-29T08:00:41Z</time>
      </trkpt>
      <trkpt lat="46.7262" lon="6.26802">
        <ele>1086.91</ele>
        <time>2015-06-29T08:00:51Z</time>
      </trkpt>
      <trkpt lat="46.72606" lon="6.2678">
        <ele>1086.43</ele>
        <time>2015-06-29T08:00:57Z</time>
      </trkpt>
      <trkpt lat="46.72589" lon="6.26739">
        <ele>1085.95</ele>
        <time>2015-06-29T08:01:08Z</time>
      </trkpt>
      <trkpt lat="46.72583" lon="6.26725">
        <ele>1085.47</ele>
        <time>2015-06-29T08:01:11Z</time>
      </trkpt>
      <trkpt lat="46.72563" lon="6.26684">
        <ele>1084.02</ele>
        <time>2015-06-29T08:01:21Z</time>
      </trkpt>
      <trkpt lat="46.7256" lon="6.26671">
        <ele>1081.62</ele>
        <time>2015-06-29T08:01:27Z</time>
      </trkpt>
      <trkpt lat="46.72558" lon="6.26655">
        <ele>1079.7</ele>
        <time>2015-06-29T08:01:32Z</time>
      </trkpt>
      <trkpt lat="46.72558" lon="6.26652">
        <ele>1079.7</ele>
        <time>2015-06-29T08:01:33Z</time>
      </trkpt>
      <trkpt lat="46.72562" lon="6.26617">
        <ele>1077.78</ele>
        <time>2015-06-29T08:01:42Z</time>
      </trkpt>
      <trkpt lat="46.72566" lon="6.2659">
        <ele>1077.78</ele>
        <time>2015-06-29T08:01:47Z</time>
      </trkpt>
      <trkpt lat="46.72571" lon="6.26537">
        <ele>1075.85</ele>
        <time>2015-06-29T08:01:57Z</time>
      </trkpt>
      <trkpt lat="46.7257" lon="6.26508">
        <ele>1074.89</ele>
        <time>2015-06-29T08:02:03Z</time>
      </trkpt>
      <trkpt lat="46.72574" lon="6.26483">
        <ele>1073.93</ele>
        <time>2015-06-29T08:02:08Z</time>
      </trkpt>
      <trkpt lat="46.72575" lon="6.26476">
        <ele>1073.45</ele>
        <time>2015-06-29T08:02:09Z</time>
      </trkpt>
      <trkpt lat="46.72575" lon="6.26468">
        <ele>1072.97</ele>
        <time>2015-06-29T08:02:10Z</time>
      </trkpt>
      <trkpt lat="46.72577" lon="6.26461">
        <ele>1072.97</ele>
        <time>2015-06-29T08:02:11Z</time>
      </trkpt>
      <trkpt lat="46.72578" lon="6.26453">
        <ele>1072.97</ele>
        <time>2015-06-29T08:02:12Z</time>
      </trkpt>
      <trkpt lat="46.72579" lon="6.26445">
        <ele>1072.01</ele>
        <time>2015-06-29T08:02:13Z</time>
      </trkpt>
      <trkpt lat="46.72571" lon="6.26383">
        <ele>1071.53</ele>
        <time>2015-06-29T08:02:23Z</time>
      </trkpt>
      <trkpt lat="46.72541" lon="6.26341">
        <ele>1073.45</ele>
        <time>2015-06-29T08:02:36Z</time>
      </trkpt>
      <trkpt lat="46.72521" lon="6.26308">
        <ele>1075.85</ele>
        <time>2015-06-29T08:02:49Z</time>
      </trkpt>
      <trkpt lat="46.72511" lon="6.26294">
        <ele>1076.81</ele>
        <time>2015-06-29T08:02:56Z</time>
      </trkpt>
      <trkpt lat="46.7251" lon="6.26292">
        <ele>1076.81</ele>
        <time>2015-06-29T08:02:57Z</time>
      </trkpt>
      <trkpt lat="46.72508" lon="6.26289">
        <ele>1076.81</ele>
        <time>2015-06-29T08:02:58Z</time>
      </trkpt>
      <trkpt lat="46.72507" lon="6.26287">
        <ele>1077.29</ele>
        <time>2015-06-29T08:02:59Z</time>
      </trkpt>
      <trkpt lat="46.72505" lon="6.26284">
        <ele>1077.29</ele>
        <time>2015-06-29T08:03:00Z</time>
      </trkpt>
      <trkpt lat="46.72504" lon="6.26281">
        <ele>1078.26</ele>
        <time>2015-06-29T08:03:01Z</time>
      </trkpt>
      <trkpt lat="46.72502" lon="6.26279">
        <ele>1077.78</ele>
        <time>2015-06-29T08:03:02Z</time>
      </trkpt>
      <trkpt lat="46.72501" lon="6.26276">
        <ele>1077.78</ele>
        <time>2015-06-29T08:03:03Z</time>
      </trkpt>
      <trkpt lat="46.72497" lon="6.26269">
        <ele>1078.26</ele>
        <time>2015-06-29T08:03:06Z</time>
      </trkpt>
      <trkpt lat="46.72496" lon="6.26267">
        <ele>1078.26</ele>
        <time>2015-06-29T08:03:07Z</time>
      </trkpt>
      <trkpt lat="46.72495" lon="6.26265">
        <ele>1078.74</ele>
        <time>2015-06-29T08:03:08Z</time>
      </trkpt>
      <trkpt lat="46.72493" lon="6.26262">
        <ele>1078.26</ele>
        <time>2015-06-29T08:03:09Z</time>
      </trkpt>
      <trkpt lat="46.72492" lon="6.26259">
        <ele>1078.74</ele>
        <time>2015-06-29T08:03:10Z</time>
      </trkpt>
      <trkpt lat="46.72491" lon="6.26257">
        <ele>1079.22</ele>
        <time>2015-06-29T08:03:11Z</time>
      </trkpt>
      <trkpt lat="46.72489" lon="6.26254">
        <ele>1078.74</ele>
        <time>2015-06-29T08:03:12Z</time>
      </trkpt>
      <trkpt lat="46.72488" lon="6.26252">
        <ele>1078.74</ele>
        <time>2015-06-29T08:03:13Z</time>
      </trkpt>
      <trkpt lat="46.72488" lon="6.2625">
        <ele>1079.22</ele>
        <time>2015-06-29T08:03:14Z</time>
      </trkpt>
      <trkpt lat="46.7247" lon="6.26214">
        <ele>1081.14</ele>
        <time>2015-06-29T08:03:27Z</time>
      </trkpt>
      <trkpt lat="46.72445" lon="6.26175">
        <ele>1082.58</ele>
        <time>2015-06-29T08:03:38Z</time>
      </trkpt>
      <trkpt lat="46.7243" lon="6.26157">
        <ele>1084.5</ele>
        <time>2015-06-29T08:03:47Z</time>
      </trkpt>
      <trkpt lat="46.72409" lon="6.26132">
        <ele>1085.95</ele>
        <time>2015-06-29T08:04:00Z</time>
      </trkpt>
      <trkpt lat="46.72405" lon="6.26127">
        <ele>1085.95</ele>
        <time>2015-06-29T08:04:03Z</time>
      </trkpt>
      <trkpt lat="46.72404" lon="6.26125">
        <ele>1085.95</ele>
        <time>2015-06-29T08:04:05Z</time>
      </trkpt>
      <trkpt lat="46.72402" lon="6.26123">
        <ele>1086.43</ele>
        <time>2015-06-29T08:04:06Z</time>
      </trkpt>
      <trkpt lat="46.724" lon="6.26122">
        <ele>1086.43</ele>
        <time>2015-06-29T08:04:07Z</time>
      </trkpt>
      <trkpt lat="46.72398" lon="6.2612">
        <ele>1086.91</ele>
        <time>2015-06-29T08:04:08Z</time>
      </trkpt>
      <trkpt lat="46.72396" lon="6.26119">
        <ele>1086.91</ele>
        <time>2015-06-29T08:04:09Z</time>
      </trkpt>
      <trkpt lat="46.72395" lon="6.26118">
        <ele>1086.91</ele>
        <time>2015-06-29T08:04:10Z</time>
      </trkpt>
      <trkpt lat="46.72393" lon="6.26117">
        <ele>1087.39</ele>
        <time>2015-06-29T08:04:11Z</time>
      </trkpt>
      <trkpt lat="46.72392" lon="6.26115">
        <ele>1086.43</ele>
        <time>2015-06-29T08:04:12Z</time>
      </trkpt>
      <trkpt lat="46.7239" lon="6.26113">
        <ele>1086.91</ele>
        <time>2015-06-29T08:04:13Z</time>
      </trkpt>
      <trkpt lat="46.72388" lon="6.26112">
        <ele>1087.39</ele>
        <time>2015-06-29T08:04:14Z</time>
      </trkpt>
      <trkpt lat="46.72375" lon="6.26106">
        <ele>1088.35</ele>
        <time>2015-06-29T08:04:23Z</time>
      </trkpt>
      <trkpt lat="46.72352" lon="6.26099">
        <ele>1089.79</ele>
        <time>2015-06-29T08:04:35Z</time>
      </trkpt>
      <trkpt lat="46.72329" lon="6.2609">
        <ele>1090.75</ele>
        <time>2015-06-29T08:04:47Z</time>
      </trkpt>
      <trkpt lat="46.72327" lon="6.26089">
        <ele>1090.75</ele>
        <time>2015-06-29T08:04:48Z</time>
      </trkpt>
      <trkpt lat="46.72325" lon="6.26088">
        <ele>1091.23</ele>
        <time>2015-06-29T08:04:49Z</time>
      </trkpt>
      <trkpt lat="46.72323" lon="6.26086">
        <ele>1091.23</ele>
        <time>2015-06-29T08:04:50Z</time>
      </trkpt>
      <trkpt lat="46.72321" lon="6.26085">
        <ele>1091.23</ele>
        <time>2015-06-29T08:04:51Z</time>
      </trkpt>
      <trkpt lat="46.72319" lon="6.26085">
        <ele>1091.71</ele>
        <time>2015-06-29T08:04:52Z</time>
      </trkpt>
      <trkpt lat="46.72317" lon="6.26084">
        <ele>1091.71</ele>
        <time>2015-06-29T08:04:53Z</time>
      </trkpt>
      <trkpt lat="46.72314" lon="6.26084">
        <ele>1092.2</ele>
        <time>2015-06-29T08:04:54Z</time>
      </trkpt>
      <trkpt lat="46.72312" lon="6.26083">
        <ele>1092.2</ele>
        <time>2015-06-29T08:04:55Z</time>
      </trkpt>
      <trkpt lat="46.7231" lon="6.2608">
        <ele>1092.68</ele>
        <time>2015-06-29T08:04:56Z</time>
      </trkpt>
      <trkpt lat="46.72308" lon="6.26078">
        <ele>1092.68</ele>
        <time>2015-06-29T08:04:57Z</time>
      </trkpt>
      <trkpt lat="46.72306" lon="6.26077">
        <ele>1092.68</ele>
        <time>2015-06-29T08:04:58Z</time>
      </trkpt>
      <trkpt lat="46.72303" lon="6.26075">
        <ele>1092.68</ele>
        <time>2015-06-29T08:04:59Z</time>
      </trkpt>
      <trkpt lat="46.72301" lon="6.26073">
        <ele>1092.68</ele>
        <time>2015-06-29T08:05:00Z</time>
      </trkpt>
      <trkpt lat="46.72299" lon="6.26072">
        <ele>1092.68</ele>
        <time>2015-06-29T08:05:01Z</time>
      </trkpt>
      <trkpt lat="46.72297" lon="6.2607">
        <ele>1093.16</ele>
        <time>2015-06-29T08:05:02Z</time>
      </trkpt>
      <trkpt lat="46.72295" lon="6.26069">
        <ele>1093.64</ele>
        <time>2015-06-29T08:05:03Z</time>
      </trkpt>
      <trkpt lat="46.72292" lon="6.26066">
        <ele>1093.16</ele>
        <time>2015-06-29T08:05:05Z</time>
      </trkpt>
      <trkpt lat="46.72291" lon="6.26065">
        <ele>1093.16</ele>
        <time>2015-06-29T08:05:06Z</time>
      </trkpt>
      <trkpt lat="46.72274" lon="6.26055">
        <ele>1095.08</ele>
        <time>2015-06-29T08:05:18Z</time>
      </trkpt>
      <trkpt lat="46.72269" lon="6.26054">
        <ele>1095.56</ele>
        <time>2015-06-29T08:05:22Z</time>
      </trkpt>
      <trkpt lat="46.72267" lon="6.26053">
        <ele>1095.08</ele>
        <time>2015-06-29T08:05:23Z</time>
      </trkpt>
      <trkpt lat="46.72266" lon="6.26053">
        <ele>1095.56</ele>
        <time>2015-06-29T08:05:24Z</time>
      </trkpt>
      <trkpt lat="46.72238" lon="6.26034">
        <ele>1097</ele>
        <time>2015-06-29T08:05:35Z</time>
      </trkpt>
      <trkpt lat="46.72226" lon="6.26029">
        <ele>1097.96</ele>
        <time>2015-06-29T08:05:42Z</time>
      </trkpt>
      <trkpt lat="46.72224" lon="6.26028">
        <ele>1097.96</ele>
        <time>2015-06-29T08:05:43Z</time>
      </trkpt>
      <trkpt lat="46.72222" lon="6.26027">
        <ele>1097.48</ele>
        <time>2015-06-29T08:05:44Z</time>
      </trkpt>
      <trkpt lat="46.72221" lon="6.26026">
        <ele>1097.96</ele>
        <time>2015-06-29T08:05:45Z</time>
      </trkpt>
      <trkpt lat="46.7222" lon="6.26026">
        <ele>1098.44</ele>
        <time>2015-06-29T08:05:46Z</time>
      </trkpt>
      <trkpt lat="46.72218" lon="6.26024">
        <ele>1098.44</ele>
        <time>2015-06-29T08:05:47Z</time>
      </trkpt>
      <trkpt lat="46.72216" lon="6.26022">
        <ele>1098.44</ele>
        <time>2015-06-29T08:05:48Z</time>
      </trkpt>
      <trkpt lat="46.72214" lon="6.26021">
        <ele>1098.92</ele>
        <time>2015-06-29T08:05:49Z</time>
      </trkpt>
      <trkpt lat="46.72212" lon="6.26019">
        <ele>1098.92</ele>
        <time>2015-06-29T08:05:50Z</time>
      </trkpt>
      <trkpt lat="46.7221" lon="6.26017">
        <ele>1098.92</ele>
        <time>2015-06-29T08:05:51Z</time>
      </trkpt>
      <trkpt lat="46.72207" lon="6.26016">
        <ele>1098.92</ele>
        <time>2015-06-29T08:05:52Z</time>
      </trkpt>
      <trkpt lat="46.72206" lon="6.26014">
        <ele>1098.92</ele>
        <time>2015-06-29T08:05:53Z</time>
      </trkpt>
      <trkpt lat="46.72204" lon="6.26012">
        <ele>1099.4</ele>
        <time>2015-06-29T08:05:54Z</time>
      </trkpt>
      <trkpt lat="46.72203" lon="6.26011">
        <ele>1099.4</ele>
        <time>2015-06-29T08:05:55Z</time>
      </trkpt>
      <trkpt lat="46.72201" lon="6.26009">
        <ele>1099.4</ele>
        <time>2015-06-29T08:05:56Z</time>
      </trkpt>
      <trkpt lat="46.72199" lon="6.26008">
        <ele>1099.4</ele>
        <time>2015-06-29T08:05:57Z</time>
      </trkpt>
      <trkpt lat="46.7218" lon="6.25987">
        <ele>1100.85</ele>
        <time>2015-06-29T08:06:10Z</time>
      </trkpt>
      <trkpt lat="46.72175" lon="6.2598">
        <ele>1101.81</ele>
        <time>2015-06-29T08:06:14Z</time>
      </trkpt>
      <trkpt lat="46.72174" lon="6.25978">
        <ele>1101.33</ele>
        <time>2015-06-29T08:06:15Z</time>
      </trkpt>
      <trkpt lat="46.72157" lon="6.25955">
        <ele>1102.77</ele>
        <time>2015-06-29T08:06:27Z</time>
      </trkpt>
      <trkpt lat="46.72154" lon="6.2595">
        <ele>1102.77</ele>
        <time>2015-06-29T08:06:29Z</time>
      </trkpt>
      <trkpt lat="46.72152" lon="6.25948">
        <ele>1103.25</ele>
        <time>2015-06-29T08:06:30Z</time>
      </trkpt>
      <trkpt lat="46.72151" lon="6.25946">
        <ele>1103.73</ele>
        <time>2015-06-29T08:06:31Z</time>
      </trkpt>
      <trkpt lat="46.7215" lon="6.25944">
        <ele>1103.73</ele>
        <time>2015-06-29T08:06:32Z</time>
      </trkpt>
      <trkpt lat="46.72148" lon="6.25942">
        <ele>1103.73</ele>
        <time>2015-06-29T08:06:33Z</time>
      </trkpt>
      <trkpt lat="46.72147" lon="6.2594">
        <ele>1103.73</ele>
        <time>2015-06-29T08:06:34Z</time>
      </trkpt>
      <trkpt lat="46.72146" lon="6.25938">
        <ele>1104.21</ele>
        <time>2015-06-29T08:06:35Z</time>
      </trkpt>
      <trkpt lat="46.72145" lon="6.25936">
        <ele>1104.21</ele>
        <time>2015-06-29T08:06:36Z</time>
      </trkpt>
      <trkpt lat="46.72144" lon="6.25934">
        <ele>1104.21</ele>
        <time>2015-06-29T08:06:37Z</time>
      </trkpt>
      <trkpt lat="46.72143" lon="6.25932">
        <ele>1104.21</ele>
        <time>2015-06-29T08:06:38Z</time>
      </trkpt>
      <trkpt lat="46.72142" lon="6.25931">
        <ele>1104.21</ele>
        <time>2015-06-29T08:06:39Z</time>
      </trkpt>
      <trkpt lat="46.72141" lon="6.25928">
        <ele>1104.21</ele>
        <time>2015-06-29T08:06:40Z</time>
      </trkpt>
      <trkpt lat="46.72141" lon="6.25926">
        <ele>1104.69</ele>
        <time>2015-06-29T08:06:41Z</time>
      </trkpt>
      <trkpt lat="46.7214" lon="6.25924">
        <ele>1105.17</ele>
        <time>2015-06-29T08:06:42Z</time>
      </trkpt>
      <trkpt lat="46.7214" lon="6.25922">
        <ele>1104.69</ele>
        <time>2015-06-29T08:06:43Z</time>
      </trkpt>
      <trkpt lat="46.72139" lon="6.25919">
        <ele>1104.69</ele>
        <time>2015-06-29T08:06:44Z</time>
      </trkpt>
      <trkpt lat="46.72137" lon="6.25917">
        <ele>1105.17</ele>
        <time>2015-06-29T08:06:45Z</time>
      </trkpt>
      <trkpt lat="46.72136" lon="6.25912">
        <ele>1105.17</ele>
        <time>2015-06-29T08:06:47Z</time>
      </trkpt>
      <trkpt lat="46.72136" lon="6.2591">
        <ele>1104.69</ele>
        <time>2015-06-29T08:06:48Z</time>
      </trkpt>
      <trkpt lat="46.72133" lon="6.25869">
        <ele>1103.73</ele>
        <time>2015-06-29T08:06:58Z</time>
      </trkpt>
      <trkpt lat="46.72129" lon="6.25861">
        <ele>1103.25</ele>
        <time>2015-06-29T08:06:59Z</time>
      </trkpt>
      <trkpt lat="46.72126" lon="6.25854">
        <ele>1102.77</ele>
        <time>2015-06-29T08:07:00Z</time>
      </trkpt>
      <trkpt lat="46.72121" lon="6.25847">
        <ele>1102.77</ele>
        <time>2015-06-29T08:07:01Z</time>
      </trkpt>
      <trkpt lat="46.72117" lon="6.25841">
        <ele>1102.29</ele>
        <time>2015-06-29T08:07:02Z</time>
      </trkpt>
      <trkpt lat="46.72112" lon="6.25835">
        <ele>1101.81</ele>
        <time>2015-06-29T08:07:03Z</time>
      </trkpt>
      <trkpt lat="46.72107" lon="6.2583">
        <ele>1101.33</ele>
        <time>2015-06-29T08:07:04Z</time>
      </trkpt>
      <trkpt lat="46.72101" lon="6.25825">
        <ele>1100.85</ele>
        <time>2015-06-29T08:07:05Z</time>
      </trkpt>
      <trkpt lat="46.72096" lon="6.25819">
        <ele>1100.37</ele>
        <time>2015-06-29T08:07:06Z</time>
      </trkpt>
      <trkpt lat="46.72071" lon="6.25779">
        <ele>1097.48</ele>
        <time>2015-06-29T08:07:11Z</time>
      </trkpt>
      <trkpt lat="46.72067" lon="6.25771">
        <ele>1097</ele>
        <time>2015-06-29T08:07:12Z</time>
      </trkpt>
      <trkpt lat="46.72044" lon="6.25727">
        <ele>1093.64</ele>
        <time>2015-06-29T08:07:17Z</time>
      </trkpt>
      <trkpt lat="46.72026" lon="6.25685">
        <ele>1090.27</ele>
        <time>2015-06-29T08:07:22Z</time>
      </trkpt>
      <trkpt lat="46.72023" lon="6.25678">
        <ele>1089.79</ele>
        <time>2015-06-29T08:07:23Z</time>
      </trkpt>
      <trkpt lat="46.72019" lon="6.25665">
        <ele>1088.83</ele>
        <time>2015-06-29T08:07:25Z</time>
      </trkpt>
      <trkpt lat="46.72018" lon="6.25658">
        <ele>1088.35</ele>
        <time>2015-06-29T08:07:26Z</time>
      </trkpt>
      <trkpt lat="46.72017" lon="6.2565">
        <ele>1087.87</ele>
        <time>2015-06-29T08:07:27Z</time>
      </trkpt>
      <trkpt lat="46.72018" lon="6.25642">
        <ele>1087.39</ele>
        <time>2015-06-29T08:07:28Z</time>
      </trkpt>
      <trkpt lat="46.72019" lon="6.25633">
        <ele>1086.91</ele>
        <time>2015-06-29T08:07:29Z</time>
      </trkpt>
      <trkpt lat="46.7202" lon="6.25624">
        <ele>1086.43</ele>
        <time>2015-06-29T08:07:30Z</time>
      </trkpt>
      <trkpt lat="46.72022" lon="6.2559">
        <ele>1084.5</ele>
        <time>2015-06-29T08:07:34Z</time>
      </trkpt>
      <trkpt lat="46.7202" lon="6.25568">
        <ele>1082.58</ele>
        <time>2015-06-29T08:07:37Z</time>
      </trkpt>
      <trkpt lat="46.72019" lon="6.25561">
        <ele>1082.58</ele>
        <time>2015-06-29T08:07:38Z</time>
      </trkpt>
      <trkpt lat="46.72011" lon="6.2553">
        <ele>1080.18</ele>
        <time>2015-06-29T08:07:41Z</time>
      </trkpt>
      <trkpt lat="46.72009" lon="6.25518">
        <ele>1079.7</ele>
        <time>2015-06-29T08:07:42Z</time>
      </trkpt>
      <trkpt lat="46.72007" lon="6.25507">
        <ele>1078.74</ele>
        <time>2015-06-29T08:07:43Z</time>
      </trkpt>
      <trkpt lat="46.72005" lon="6.25496">
        <ele>1078.26</ele>
        <time>2015-06-29T08:07:44Z</time>
      </trkpt>
      <trkpt lat="46.72004" lon="6.25485">
        <ele>1078.26</ele>
        <time>2015-06-29T08:07:45Z</time>
      </trkpt>
      <trkpt lat="46.72002" lon="6.25475">
        <ele>1076.81</ele>
        <time>2015-06-29T08:07:46Z</time>
      </trkpt>
      <trkpt lat="46.72001" lon="6.25465">
        <ele>1076.33</ele>
        <time>2015-06-29T08:07:47Z</time>
      </trkpt>
      <trkpt lat="46.71999" lon="6.25456">
        <ele>1076.33</ele>
        <time>2015-06-29T08:07:48Z</time>
      </trkpt>
      <trkpt lat="46.71997" lon="6.25448">
        <ele>1075.37</ele>
        <time>2015-06-29T08:07:49Z</time>
      </trkpt>
      <trkpt lat="46.71985" lon="6.25414">
        <ele>1073.45</ele>
        <time>2015-06-29T08:07:53Z</time>
      </trkpt>
      <trkpt lat="46.71968" lon="6.25364">
        <ele>1069.6</ele>
        <time>2015-06-29T08:07:58Z</time>
      </trkpt>
      <trkpt lat="46.71939" lon="6.25298">
        <ele>1066.72</ele>
        <time>2015-06-29T08:08:04Z</time>
      </trkpt>
      <trkpt lat="46.71917" lon="6.25254">
        <ele>1064.32</ele>
        <time>2015-06-29T08:08:08Z</time>
      </trkpt>
      <trkpt lat="46.71912" lon="6.25243">
        <ele>1062.87</ele>
        <time>2015-06-29T08:08:09Z</time>
      </trkpt>
      <trkpt lat="46.71908" lon="6.2523">
        <ele>1062.39</ele>
        <time>2015-06-29T08:08:10Z</time>
      </trkpt>
      <trkpt lat="46.71903" lon="6.25216">
        <ele>1060.95</ele>
        <time>2015-06-29T08:08:11Z</time>
      </trkpt>
      <trkpt lat="46.71898" lon="6.25203">
        <ele>1061.43</ele>
        <time>2015-06-29T08:08:12Z</time>
      </trkpt>
      <trkpt lat="46.71884" lon="6.2517">
        <ele>1061.43</ele>
        <time>2015-06-29T08:08:15Z</time>
      </trkpt>
      <trkpt lat="46.71868" lon="6.25143">
        <ele>1064.32</ele>
        <time>2015-06-29T08:08:19Z</time>
      </trkpt>
      <trkpt lat="46.71866" lon="6.25139">
        <ele>1064.32</ele>
        <time>2015-06-29T08:08:20Z</time>
      </trkpt>
      <trkpt lat="46.71858" lon="6.25128">
        <ele>1065.76</ele>
        <time>2015-06-29T08:08:24Z</time>
      </trkpt>
      <trkpt lat="46.71856" lon="6.25126">
        <ele>1066.24</ele>
        <time>2015-06-29T08:08:25Z</time>
      </trkpt>
      <trkpt lat="46.71853" lon="6.25125">
        <ele>1065.76</ele>
        <time>2015-06-29T08:08:26Z</time>
      </trkpt>
      <trkpt lat="46.71852" lon="6.25122">
        <ele>1066.24</ele>
        <time>2015-06-29T08:08:27Z</time>
      </trkpt>
      <trkpt lat="46.7185" lon="6.2512">
        <ele>1067.68</ele>
        <time>2015-06-29T08:08:28Z</time>
      </trkpt>
      <trkpt lat="46.71849" lon="6.25118">
        <ele>1066.72</ele>
        <time>2015-06-29T08:08:29Z</time>
      </trkpt>
      <trkpt lat="46.71848" lon="6.25114">
        <ele>1067.2</ele>
        <time>2015-06-29T08:08:30Z</time>
      </trkpt>
      <trkpt lat="46.71846" lon="6.25112">
        <ele>1067.68</ele>
        <time>2015-06-29T08:08:31Z</time>
      </trkpt>
      <trkpt lat="46.71845" lon="6.2511">
        <ele>1067.68</ele>
        <time>2015-06-29T08:08:32Z</time>
      </trkpt>
      <trkpt lat="46.71844" lon="6.25109">
        <ele>1067.2</ele>
        <time>2015-06-29T08:08:33Z</time>
      </trkpt>
      <trkpt lat="46.71843" lon="6.25107">
        <ele>1067.68</ele>
        <time>2015-06-29T08:08:34Z</time>
      </trkpt>
      <trkpt lat="46.71841" lon="6.25105">
        <ele>1067.2</ele>
        <time>2015-06-29T08:08:35Z</time>
      </trkpt>
      <trkpt lat="46.71838" lon="6.251">
        <ele>1067.2</ele>
        <time>2015-06-29T08:08:48Z</time>
      </trkpt>
      <trkpt lat="46.71836" lon="6.25097">
        <ele>1067.68</ele>
        <time>2015-06-29T08:09:19Z</time>
      </trkpt>
      <trkpt lat="46.71836" lon="6.25097">
        <ele>1067.68</ele>
        <time>2015-06-29T08:09:51Z</time>
      </trkpt>
      <trkpt lat="46.71835" lon="6.25097">
        <ele>1068.16</ele>
        <time>2015-06-29T08:10:22Z</time>
      </trkpt>
      <trkpt lat="46.71833" lon="6.25095">
        <ele>1067.68</ele>
        <time>2015-06-29T08:10:23Z</time>
      </trkpt>
      <trkpt lat="46.71832" lon="6.25094">
        <ele>1068.16</ele>
        <time>2015-06-29T08:10:24Z</time>
      </trkpt>
      <trkpt lat="46.71805" lon="6.25059">
        <ele>1069.12</ele>
        <time>2015-06-29T08:10:38Z</time>
      </trkpt>
      <trkpt lat="46.71783" lon="6.25034">
        <ele>1070.57</ele>
        <time>2015-06-29T08:10:50Z</time>
      </trkpt>
      <trkpt lat="46.71766" lon="6.25016">
        <ele>1073.45</ele>
        <time>2015-06-29T08:11:03Z</time>
      </trkpt>
      <trkpt lat="46.71748" lon="6.24998">
        <ele>1075.85</ele>
        <time>2015-06-29T08:11:20Z</time>
      </trkpt>
      <trkpt lat="46.71747" lon="6.24997">
        <ele>1075.85</ele>
        <time>2015-06-29T08:11:21Z</time>
      </trkpt>
      <trkpt lat="46.7173" lon="6.24985">
        <ele>1078.26</ele>
        <time>2015-06-29T08:11:34Z</time>
      </trkpt>
      <trkpt lat="46.71729" lon="6.24984">
        <ele>1077.78</ele>
        <time>2015-06-29T08:11:35Z</time>
      </trkpt>
      <trkpt lat="46.71708" lon="6.24961">
        <ele>1079.7</ele>
        <time>2015-06-29T08:11:51Z</time>
      </trkpt>
      <trkpt lat="46.71694" lon="6.24947">
        <ele>1080.18</ele>
        <time>2015-06-29T08:12:00Z</time>
      </trkpt>
      <trkpt lat="46.71688" lon="6.24939">
        <ele>1082.1</ele>
        <time>2015-06-29T08:12:05Z</time>
      </trkpt>
      <trkpt lat="46.71677" lon="6.24926">
        <ele>1083.06</ele>
        <time>2015-06-29T08:12:16Z</time>
      </trkpt>
      <trkpt lat="46.7167" lon="6.2492">
        <ele>1083.06</ele>
        <time>2015-06-29T08:12:22Z</time>
      </trkpt>
      <trkpt lat="46.7166" lon="6.2491">
        <ele>1084.5</ele>
        <time>2015-06-29T08:12:30Z</time>
      </trkpt>
      <trkpt lat="46.71652" lon="6.249">
        <ele>1084.99</ele>
        <time>2015-06-29T08:12:38Z</time>
      </trkpt>
      <trkpt lat="46.71645" lon="6.24892">
        <ele>1087.87</ele>
        <time>2015-06-29T08:12:49Z</time>
      </trkpt>
      <trkpt lat="46.71629" lon="6.24874">
        <ele>1088.35</ele>
        <time>2015-06-29T08:13:02Z</time>
      </trkpt>
      <trkpt lat="46.71621" lon="6.24863">
        <ele>1089.31</ele>
        <time>2015-06-29T08:13:07Z</time>
      </trkpt>
      <trkpt lat="46.71608" lon="6.24853">
        <ele>1090.27</ele>
        <time>2015-06-29T08:13:16Z</time>
      </trkpt>
      <trkpt lat="46.7158" lon="6.24824">
        <ele>1091.23</ele>
        <time>2015-06-29T08:13:30Z</time>
      </trkpt>
      <trkpt lat="46.71556" lon="6.24792">
        <ele>1092.2</ele>
        <time>2015-06-29T08:13:42Z</time>
      </trkpt>
      <trkpt lat="46.71537" lon="6.24748">
        <ele>1091.71</ele>
        <time>2015-06-29T08:13:53Z</time>
      </trkpt>
      <trkpt lat="46.71512" lon="6.24699">
        <ele>1091.71</ele>
        <time>2015-06-29T08:14:05Z</time>
      </trkpt>
      <trkpt lat="46.71495" lon="6.24662">
        <ele>1093.16</ele>
        <time>2015-06-29T08:14:14Z</time>
      </trkpt>
      <trkpt lat="46.71475" lon="6.24601">
        <ele>1095.08</ele>
        <time>2015-06-29T08:14:26Z</time>
      </trkpt>
      <trkpt lat="46.71461" lon="6.24554">
        <ele>1094.12</ele>
        <time>2015-06-29T08:14:36Z</time>
      </trkpt>
      <trkpt lat="46.71441" lon="6.2452">
        <ele>1093.64</ele>
        <time>2015-06-29T08:14:46Z</time>
      </trkpt>
      <trkpt lat="46.71402" lon="6.2448">
        <ele>1094.12</ele>
        <time>2015-06-29T08:15:00Z</time>
      </trkpt>
      <trkpt lat="46.7138" lon="6.24464">
        <ele>1093.64</ele>
        <time>2015-06-29T08:15:10Z</time>
      </trkpt>
      <trkpt lat="46.7136" lon="6.24459">
        <ele>1093.16</ele>
        <time>2015-06-29T08:15:16Z</time>
      </trkpt>
      <trkpt lat="46.71347" lon="6.2446">
        <ele>1092.2</ele>
        <time>2015-06-29T08:15:20Z</time>
      </trkpt>
      <trkpt lat="46.71322" lon="6.24464">
        <ele>1088.83</ele>
        <time>2015-06-29T08:15:28Z</time>
      </trkpt>
      <trkpt lat="46.71318" lon="6.24466">
        <ele>1088.83</ele>
        <time>2015-06-29T08:15:29Z</time>
      </trkpt>
      <trkpt lat="46.71314" lon="6.24468">
        <ele>1087.87</ele>
        <time>2015-06-29T08:15:30Z</time>
      </trkpt>
      <trkpt lat="46.71305" lon="6.24468">
        <ele>1087.39</ele>
        <time>2015-06-29T08:15:32Z</time>
      </trkpt>
      <trkpt lat="46.71298" lon="6.24463">
        <ele>1087.87</ele>
        <time>2015-06-29T08:15:33Z</time>
      </trkpt>
      <trkpt lat="46.71292" lon="6.24458">
        <ele>1088.83</ele>
        <time>2015-06-29T08:15:34Z</time>
      </trkpt>
      <trkpt lat="46.71282" lon="6.24447">
        <ele>1090.27</ele>
        <time>2015-06-29T08:15:36Z</time>
      </trkpt>
      <trkpt lat="46.71278" lon="6.24443">
        <ele>1090.75</ele>
        <time>2015-06-29T08:15:37Z</time>
      </trkpt>
      <trkpt lat="46.71276" lon="6.24439">
        <ele>1091.71</ele>
        <time>2015-06-29T08:15:38Z</time>
      </trkpt>
      <trkpt lat="46.71275" lon="6.24436">
        <ele>1091.71</ele>
        <time>2015-06-29T08:15:39Z</time>
      </trkpt>
      <trkpt lat="46.71276" lon="6.24434">
        <ele>1092.2</ele>
        <time>2015-06-29T08:15:40Z</time>
      </trkpt>
      <trkpt lat="46.71276" lon="6.24433">
        <ele>1092.2</ele>
        <time>2015-06-29T08:15:41Z</time>
      </trkpt>
      <trkpt lat="46.71289" lon="6.24407">
        <ele>1093.16</ele>
        <time>2015-06-29T08:15:51Z</time>
      </trkpt>
      <trkpt lat="46.71288" lon="6.24404">
        <ele>1094.12</ele>
        <time>2015-06-29T08:15:52Z</time>
      </trkpt>
      <trkpt lat="46.71285" lon="6.24399">
        <ele>1093.64</ele>
        <time>2015-06-29T08:15:54Z</time>
      </trkpt>
      <trkpt lat="46.71273" lon="6.24383">
        <ele>1095.08</ele>
        <time>2015-06-29T08:16:00Z</time>
      </trkpt>
      <trkpt lat="46.71271" lon="6.24381">
        <ele>1095.56</ele>
        <time>2015-06-29T08:16:01Z</time>
      </trkpt>
      <trkpt lat="46.71268" lon="6.24379">
        <ele>1095.56</ele>
        <time>2015-06-29T08:16:02Z</time>
      </trkpt>
      <trkpt lat="46.71266" lon="6.24376">
        <ele>1095.56</ele>
        <time>2015-06-29T08:16:03Z</time>
      </trkpt>
      <trkpt lat="46.71264" lon="6.24374">
        <ele>1095.08</ele>
        <time>2015-06-29T08:16:04Z</time>
      </trkpt>
      <trkpt lat="46.71262" lon="6.24372">
        <ele>1095.56</ele>
        <time>2015-06-29T08:16:05Z</time>
      </trkpt>
      <trkpt lat="46.71261" lon="6.2437">
        <ele>1095.56</ele>
        <time>2015-06-29T08:16:06Z</time>
      </trkpt>
      <trkpt lat="46.71259" lon="6.24367">
        <ele>1096.04</ele>
        <time>2015-06-29T08:16:07Z</time>
      </trkpt>
      <trkpt lat="46.71258" lon="6.24364">
        <ele>1096.04</ele>
        <time>2015-06-29T08:16:08Z</time>
      </trkpt>
      <trkpt lat="46.71256" lon="6.24361">
        <ele>1095.56</ele>
        <time>2015-06-29T08:16:09Z</time>
      </trkpt>
      <trkpt lat="46.71256" lon="6.24359">
        <ele>1096.04</ele>
        <time>2015-06-29T08:16:10Z</time>
      </trkpt>
      <trkpt lat="46.71255" lon="6.24356">
        <ele>1096.04</ele>
        <time>2015-06-29T08:16:11Z</time>
      </trkpt>
      <trkpt lat="46.71251" lon="6.2433">
        <ele>1096.52</ele>
        <time>2015-06-29T08:16:20Z</time>
      </trkpt>
      <trkpt lat="46.71251" lon="6.2431">
        <ele>1096.52</ele>
        <time>2015-06-29T08:16:27Z</time>
      </trkpt>
      <trkpt lat="46.71242" lon="6.2429">
        <ele>1097.48</ele>
        <time>2015-06-29T08:16:35Z</time>
      </trkpt>
      <trkpt lat="46.7124" lon="6.24277">
        <ele>1098.44</ele>
        <time>2015-06-29T08:16:41Z</time>
      </trkpt>
      <trkpt lat="46.71237" lon="6.24269">
        <ele>1098.92</ele>
        <time>2015-06-29T08:16:45Z</time>
      </trkpt>
      <trkpt lat="46.71231" lon="6.24238">
        <ele>1099.89</ele>
        <time>2015-06-29T08:16:56Z</time>
      </trkpt>
      <trkpt lat="46.71222" lon="6.24199">
        <ele>1100.37</ele>
        <time>2015-06-29T08:17:07Z</time>
      </trkpt>
      <trkpt lat="46.71211" lon="6.24159">
        <ele>1100.85</ele>
        <time>2015-06-29T08:17:18Z</time>
      </trkpt>
      <trkpt lat="46.71194" lon="6.24115">
        <ele>1100.85</ele>
        <time>2015-06-29T08:17:29Z</time>
      </trkpt>
      <trkpt lat="46.71166" lon="6.24064">
        <ele>1099.89</ele>
        <time>2015-06-29T08:17:41Z</time>
      </trkpt>
      <trkpt lat="46.7116" lon="6.24048">
        <ele>1099.89</ele>
        <time>2015-06-29T08:17:44Z</time>
      </trkpt>
      <trkpt lat="46.71158" lon="6.24042">
        <ele>1099.4</ele>
        <time>2015-06-29T08:17:45Z</time>
      </trkpt>
      <trkpt lat="46.71147" lon="6.24013">
        <ele>1097</ele>
        <time>2015-06-29T08:17:49Z</time>
      </trkpt>
      <trkpt lat="46.71144" lon="6.24005">
        <ele>1097</ele>
        <time>2015-06-29T08:17:50Z</time>
      </trkpt>
      <trkpt lat="46.71139" lon="6.23998">
        <ele>1097</ele>
        <time>2015-06-29T08:17:51Z</time>
      </trkpt>
      <trkpt lat="46.71126" lon="6.23982">
        <ele>1096.52</ele>
        <time>2015-06-29T08:17:54Z</time>
      </trkpt>
      <trkpt lat="46.71115" lon="6.23969">
        <ele>1096.52</ele>
        <time>2015-06-29T08:18:01Z</time>
      </trkpt>
      <trkpt lat="46.71115" lon="6.23967">
        <ele>1096.52</ele>
        <time>2015-06-29T08:18:02Z</time>
      </trkpt>
      <trkpt lat="46.71115" lon="6.23964">
        <ele>1096.52</ele>
        <time>2015-06-29T08:18:03Z</time>
      </trkpt>
      <trkpt lat="46.71116" lon="6.2396">
        <ele>1096.04</ele>
        <time>2015-06-29T08:18:04Z</time>
      </trkpt>
      <trkpt lat="46.71119" lon="6.2395">
        <ele>1095.56</ele>
        <time>2015-06-29T08:18:06Z</time>
      </trkpt>
      <trkpt lat="46.7112" lon="6.23943">
        <ele>1095.56</ele>
        <time>2015-06-29T08:18:07Z</time>
      </trkpt>
      <trkpt lat="46.71128" lon="6.23919">
        <ele>1093.16</ele>
        <time>2015-06-29T08:18:15Z</time>
      </trkpt>
      <trkpt lat="46.71127" lon="6.23911">
        <ele>1093.16</ele>
        <time>2015-06-29T08:18:25Z</time>
      </trkpt>
      <trkpt lat="46.71128" lon="6.23909">
        <ele>1093.64</ele>
        <time>2015-06-29T08:18:26Z</time>
      </trkpt>
      <trkpt lat="46.71129" lon="6.23907">
        <ele>1092.68</ele>
        <time>2015-06-29T08:18:27Z</time>
      </trkpt>
      <trkpt lat="46.7113" lon="6.23903">
        <ele>1092.68</ele>
        <time>2015-06-29T08:18:28Z</time>
      </trkpt>
      <trkpt lat="46.71132" lon="6.23898">
        <ele>1092.2</ele>
        <time>2015-06-29T08:18:29Z</time>
      </trkpt>
      <trkpt lat="46.71141" lon="6.23876">
        <ele>1091.23</ele>
        <time>2015-06-29T08:18:33Z</time>
      </trkpt>
      <trkpt lat="46.71142" lon="6.23869">
        <ele>1091.23</ele>
        <time>2015-06-29T08:18:34Z</time>
      </trkpt>
      <trkpt lat="46.71144" lon="6.23861">
        <ele>1090.75</ele>
        <time>2015-06-29T08:18:35Z</time>
      </trkpt>
      <trkpt lat="46.71147" lon="6.23845">
        <ele>1089.31</ele>
        <time>2015-06-29T08:18:37Z</time>
      </trkpt>
      <trkpt lat="46.71147" lon="6.23836">
        <ele>1088.83</ele>
        <time>2015-06-29T08:18:38Z</time>
      </trkpt>
      <trkpt lat="46.71148" lon="6.23786">
        <ele>1085.47</ele>
        <time>2015-06-29T08:18:42Z</time>
      </trkpt>
      <trkpt lat="46.7115" lon="6.23769">
        <ele>1084.99</ele>
        <time>2015-06-29T08:18:43Z</time>
      </trkpt>
      <trkpt lat="46.71153" lon="6.23754">
        <ele>1083.06</ele>
        <time>2015-06-29T08:18:44Z</time>
      </trkpt>
      <trkpt lat="46.71171" lon="6.23683">
        <ele>1079.22</ele>
        <time>2015-06-29T08:18:49Z</time>
      </trkpt>
      <trkpt lat="46.71172" lon="6.2367">
        <ele>1078.26</ele>
        <time>2015-06-29T08:18:50Z</time>
      </trkpt>
      <trkpt lat="46.71172" lon="6.23655">
        <ele>1077.29</ele>
        <time>2015-06-29T08:18:51Z</time>
      </trkpt>
      <trkpt lat="46.7117" lon="6.23641">
        <ele>1076.81</ele>
        <time>2015-06-29T08:18:52Z</time>
      </trkpt>
      <trkpt lat="46.71169" lon="6.23625">
        <ele>1075.37</ele>
        <time>2015-06-29T08:18:53Z</time>
      </trkpt>
      <trkpt lat="46.71166" lon="6.23609">
        <ele>1074.41</ele>
        <time>2015-06-29T08:18:54Z</time>
      </trkpt>
      <trkpt lat="46.71158" lon="6.23578">
        <ele>1072.97</ele>
        <time>2015-06-29T08:18:56Z</time>
      </trkpt>
      <trkpt lat="46.71154" lon="6.23563">
        <ele>1072.01</ele>
        <time>2015-06-29T08:18:57Z</time>
      </trkpt>
      <trkpt lat="46.71148" lon="6.23536">
        <ele>1069.12</ele>
        <time>2015-06-29T08:18:59Z</time>
      </trkpt>
      <trkpt lat="46.71146" lon="6.23521">
        <ele>1068.64</ele>
        <time>2015-06-29T08:19:00Z</time>
      </trkpt>
      <trkpt lat="46.71143" lon="6.23507">
        <ele>1068.16</ele>
        <time>2015-06-29T08:19:01Z</time>
      </trkpt>
      <trkpt lat="46.71132" lon="6.23454">
        <ele>1064.8</ele>
        <time>2015-06-29T08:19:05Z</time>
      </trkpt>
      <trkpt lat="46.71128" lon="6.23444">
        <ele>1063.84</ele>
        <time>2015-06-29T08:19:06Z</time>
      </trkpt>
      <trkpt lat="46.71123" lon="6.23434">
        <ele>1063.36</ele>
        <time>2015-06-29T08:19:07Z</time>
      </trkpt>
      <trkpt lat="46.71117" lon="6.23424">
        <ele>1062.39</ele>
        <time>2015-06-29T08:19:08Z</time>
      </trkpt>
      <trkpt lat="46.71111" lon="6.23413">
        <ele>1061.43</ele>
        <time>2015-06-29T08:19:09Z</time>
      </trkpt>
      <trkpt lat="46.71104" lon="6.23404">
        <ele>1060.95</ele>
        <time>2015-06-29T08:19:10Z</time>
      </trkpt>
      <trkpt lat="46.71098" lon="6.23395">
        <ele>1059.51</ele>
        <time>2015-06-29T08:19:11Z</time>
      </trkpt>
      <trkpt lat="46.71093" lon="6.23384">
        <ele>1059.03</ele>
        <time>2015-06-29T08:19:12Z</time>
      </trkpt>
      <trkpt lat="46.7109" lon="6.23372">
        <ele>1057.11</ele>
        <time>2015-06-29T08:19:13Z</time>
      </trkpt>
      <trkpt lat="46.71089" lon="6.23359">
        <ele>1057.59</ele>
        <time>2015-06-29T08:19:14Z</time>
      </trkpt>
      <trkpt lat="46.71089" lon="6.23345">
        <ele>1056.15</ele>
        <time>2015-06-29T08:19:15Z</time>
      </trkpt>
      <trkpt lat="46.7109" lon="6.23331">
        <ele>1055.67</ele>
        <time>2015-06-29T08:19:16Z</time>
      </trkpt>
      <trkpt lat="46.71091" lon="6.23316">
        <ele>1054.7</ele>
        <time>2015-06-29T08:19:17Z</time>
      </trkpt>
      <trkpt lat="46.71094" lon="6.23288">
        <ele>1052.78</ele>
        <time>2015-06-29T08:19:19Z</time>
      </trkpt>
      <trkpt lat="46.71094" lon="6.23276">
        <ele>1052.3</ele>
        <time>2015-06-29T08:19:20Z</time>
      </trkpt>
      <trkpt lat="46.71095" lon="6.23227">
        <ele>1048.94</ele>
        <time>2015-06-29T08:19:25Z</time>
      </trkpt>
      <trkpt lat="46.71098" lon="6.2319">
        <ele>1046.05</ele>
        <time>2015-06-29T08:19:28Z</time>
      </trkpt>
      <trkpt lat="46.711" lon="6.23177">
        <ele>1045.57</ele>
        <time>2015-06-29T08:19:29Z</time>
      </trkpt>
      <trkpt lat="46.71103" lon="6.23134">
        <ele>1042.69</ele>
        <time>2015-06-29T08:19:32Z</time>
      </trkpt>
      <trkpt lat="46.71099" lon="6.2307">
        <ele>1038.84</ele>
        <time>2015-06-29T08:19:36Z</time>
      </trkpt>
      <trkpt lat="46.71093" lon="6.23015">
        <ele>1035.48</ele>
        <time>2015-06-29T08:19:39Z</time>
      </trkpt>
      <trkpt lat="46.7109" lon="6.22997">
        <ele>1034.04</ele>
        <time>2015-06-29T08:19:40Z</time>
      </trkpt>
      <trkpt lat="46.71084" lon="6.22953">
        <ele>1031.63</ele>
        <time>2015-06-29T08:19:43Z</time>
      </trkpt>
      <trkpt lat="46.71068" lon="6.22903">
        <ele>1028.27</ele>
        <time>2015-06-29T08:19:47Z</time>
      </trkpt>
      <trkpt lat="46.71066" lon="6.22894">
        <ele>1027.31</ele>
        <time>2015-06-29T08:19:48Z</time>
      </trkpt>
      <trkpt lat="46.71066" lon="6.22887">
        <ele>1026.83</ele>
        <time>2015-06-29T08:19:49Z</time>
      </trkpt>
      <trkpt lat="46.71066" lon="6.22881">
        <ele>1025.86</ele>
        <time>2015-06-29T08:19:50Z</time>
      </trkpt>
      <trkpt lat="46.71067" lon="6.22876">
        <ele>1025.86</ele>
        <time>2015-06-29T08:19:51Z</time>
      </trkpt>
      <trkpt lat="46.71066" lon="6.22849">
        <ele>1023.46</ele>
        <time>2015-06-29T08:20:00Z</time>
      </trkpt>
      <trkpt lat="46.71065" lon="6.22849">
        <ele>1023.46</ele>
        <time>2015-06-29T08:20:20Z</time>
      </trkpt>
      <trkpt lat="46.71064" lon="6.2285">
        <ele>1023.46</ele>
        <time>2015-06-29T08:20:51Z</time>
      </trkpt>
      <trkpt lat="46.7106" lon="6.22825">
        <ele>1022.02</ele>
        <time>2015-06-29T08:21:08Z</time>
      </trkpt>
      <trkpt lat="46.71041" lon="6.22746">
        <ele>1020.1</ele>
        <time>2015-06-29T08:21:19Z</time>
      </trkpt>
      <trkpt lat="46.7104" lon="6.22739">
        <ele>1020.1</ele>
        <time>2015-06-29T08:21:20Z</time>
      </trkpt>
      <trkpt lat="46.7103" lon="6.22701">
        <ele>1018.65</ele>
        <time>2015-06-29T08:21:25Z</time>
      </trkpt>
      <trkpt lat="46.71027" lon="6.22694">
        <ele>1018.65</ele>
        <time>2015-06-29T08:21:26Z</time>
      </trkpt>
      <trkpt lat="46.70995" lon="6.22621">
        <ele>1016.25</ele>
        <time>2015-06-29T08:21:36Z</time>
      </trkpt>
      <trkpt lat="46.70987" lon="6.22609">
        <ele>1016.25</ele>
        <time>2015-06-29T08:21:38Z</time>
      </trkpt>
      <trkpt lat="46.70982" lon="6.22603">
        <ele>1015.77</ele>
        <time>2015-06-29T08:21:39Z</time>
      </trkpt>
      <trkpt lat="46.70976" lon="6.22598">
        <ele>1015.77</ele>
        <time>2015-06-29T08:21:40Z</time>
      </trkpt>
      <trkpt lat="46.70968" lon="6.22586">
        <ele>1015.29</ele>
        <time>2015-06-29T08:21:42Z</time>
      </trkpt>
      <trkpt lat="46.70965" lon="6.2258">
        <ele>1015.77</ele>
        <time>2015-06-29T08:21:43Z</time>
      </trkpt>
      <trkpt lat="46.70962" lon="6.22567">
        <ele>1015.77</ele>
        <time>2015-06-29T08:21:45Z</time>
      </trkpt>
      <trkpt lat="46.7096" lon="6.22532">
        <ele>1018.17</ele>
        <time>2015-06-29T08:21:54Z</time>
      </trkpt>
      <trkpt lat="46.70959" lon="6.22526">
        <ele>1018.17</ele>
        <time>2015-06-29T08:21:56Z</time>
      </trkpt>
      <trkpt lat="46.70959" lon="6.22523">
        <ele>1019.13</ele>
        <time>2015-06-29T08:21:57Z</time>
      </trkpt>
      <trkpt lat="46.70958" lon="6.2252">
        <ele>1019.13</ele>
        <time>2015-06-29T08:21:58Z</time>
      </trkpt>
      <trkpt lat="46.70957" lon="6.22517">
        <ele>1019.13</ele>
        <time>2015-06-29T08:21:59Z</time>
      </trkpt>
      <trkpt lat="46.70956" lon="6.22514">
        <ele>1019.13</ele>
        <time>2015-06-29T08:22:00Z</time>
      </trkpt>
      <trkpt lat="46.70956" lon="6.22512">
        <ele>1019.13</ele>
        <time>2015-06-29T08:22:01Z</time>
      </trkpt>
      <trkpt lat="46.70955" lon="6.22508">
        <ele>1019.62</ele>
        <time>2015-06-29T08:22:02Z</time>
      </trkpt>
      <trkpt lat="46.70954" lon="6.22504">
        <ele>1020.1</ele>
        <time>2015-06-29T08:22:03Z</time>
      </trkpt>
      <trkpt lat="46.70953" lon="6.22501">
        <ele>1019.62</ele>
        <time>2015-06-29T08:22:04Z</time>
      </trkpt>
      <trkpt lat="46.70952" lon="6.22497">
        <ele>1020.1</ele>
        <time>2015-06-29T08:22:05Z</time>
      </trkpt>
      <trkpt lat="46.70952" lon="6.22494">
        <ele>1020.58</ele>
        <time>2015-06-29T08:22:06Z</time>
      </trkpt>
      <trkpt lat="46.70951" lon="6.22491">
        <ele>1020.58</ele>
        <time>2015-06-29T08:22:07Z</time>
      </trkpt>
      <trkpt lat="46.7095" lon="6.22488">
        <ele>1020.58</ele>
        <time>2015-06-29T08:22:08Z</time>
      </trkpt>
      <trkpt lat="46.70949" lon="6.22486">
        <ele>1020.58</ele>
        <time>2015-06-29T08:22:09Z</time>
      </trkpt>
      <trkpt lat="46.70948" lon="6.22483">
        <ele>1021.06</ele>
        <time>2015-06-29T08:22:10Z</time>
      </trkpt>
      <trkpt lat="46.70947" lon="6.2248">
        <ele>1020.58</ele>
        <time>2015-06-29T08:22:11Z</time>
      </trkpt>
      <trkpt lat="46.70946" lon="6.22477">
        <ele>1021.06</ele>
        <time>2015-06-29T08:22:12Z</time>
      </trkpt>
      <trkpt lat="46.70945" lon="6.22474">
        <ele>1021.06</ele>
        <time>2015-06-29T08:22:13Z</time>
      </trkpt>
      <trkpt lat="46.70945" lon="6.22472">
        <ele>1021.54</ele>
        <time>2015-06-29T08:22:14Z</time>
      </trkpt>
      <trkpt lat="46.70944" lon="6.2247">
        <ele>1021.06</ele>
        <time>2015-06-29T08:22:15Z</time>
      </trkpt>
      <trkpt lat="46.70943" lon="6.22467">
        <ele>1021.54</ele>
        <time>2015-06-29T08:22:16Z</time>
      </trkpt>
      <trkpt lat="46.70943" lon="6.22465">
        <ele>1022.02</ele>
        <time>2015-06-29T08:22:17Z</time>
      </trkpt>
      <trkpt lat="46.70943" lon="6.22462">
        <ele>1022.02</ele>
        <time>2015-06-29T08:22:18Z</time>
      </trkpt>
      <trkpt lat="46.70942" lon="6.22459">
        <ele>1022.5</ele>
        <time>2015-06-29T08:22:20Z</time>
      </trkpt>
      <trkpt lat="46.70941" lon="6.22456">
        <ele>1022.5</ele>
        <time>2015-06-29T08:22:21Z</time>
      </trkpt>
      <trkpt lat="46.70938" lon="6.22444">
        <ele>1022.98</ele>
        <time>2015-06-29T08:22:27Z</time>
      </trkpt>
      <trkpt lat="46.70936" lon="6.22436">
        <ele>1023.46</ele>
        <time>2015-06-29T08:22:30Z</time>
      </trkpt>
      <trkpt lat="46.70934" lon="6.22427">
        <ele>1023.46</ele>
        <time>2015-06-29T08:22:33Z</time>
      </trkpt>
      <trkpt lat="46.70933" lon="6.22425">
        <ele>1023.46</ele>
        <time>2015-06-29T08:22:34Z</time>
      </trkpt>
      <trkpt lat="46.70932" lon="6.22422">
        <ele>1023.46</ele>
        <time>2015-06-29T08:22:35Z</time>
      </trkpt>
      <trkpt lat="46.70931" lon="6.22419">
        <ele>1023.46</ele>
        <time>2015-06-29T08:22:36Z</time>
      </trkpt>
      <trkpt lat="46.7093" lon="6.22415">
        <ele>1023.46</ele>
        <time>2015-06-29T08:22:37Z</time>
      </trkpt>
      <trkpt lat="46.70928" lon="6.224">
        <ele>1023.46</ele>
        <time>2015-06-29T08:22:42Z</time>
      </trkpt>
      <trkpt lat="46.70929" lon="6.22397">
        <ele>1023.46</ele>
        <time>2015-06-29T08:22:43Z</time>
      </trkpt>
      <trkpt lat="46.70929" lon="6.22392">
        <ele>1022.98</ele>
        <time>2015-06-29T08:22:44Z</time>
      </trkpt>
      <trkpt lat="46.70931" lon="6.2234">
        <ele>1019.62</ele>
        <time>2015-06-29T08:22:53Z</time>
      </trkpt>
      <trkpt lat="46.7093" lon="6.22336">
        <ele>1019.62</ele>
        <time>2015-06-29T08:22:54Z</time>
      </trkpt>
      <trkpt lat="46.70928" lon="6.22331">
        <ele>1018.65</ele>
        <time>2015-06-29T08:22:55Z</time>
      </trkpt>
      <trkpt lat="46.70926" lon="6.22328">
        <ele>1018.65</ele>
        <time>2015-06-29T08:22:56Z</time>
      </trkpt>
      <trkpt lat="46.70925" lon="6.22324">
        <ele>1018.17</ele>
        <time>2015-06-29T08:22:57Z</time>
      </trkpt>
      <trkpt lat="46.70925" lon="6.22319">
        <ele>1018.17</ele>
        <time>2015-06-29T08:22:58Z</time>
      </trkpt>
      <trkpt lat="46.70925" lon="6.22315">
        <ele>1017.69</ele>
        <time>2015-06-29T08:22:59Z</time>
      </trkpt>
      <trkpt lat="46.70925" lon="6.2231">
        <ele>1017.69</ele>
        <time>2015-06-29T08:23:00Z</time>
      </trkpt>
      <trkpt lat="46.70925" lon="6.22307">
        <ele>1017.69</ele>
        <time>2015-06-29T08:23:01Z</time>
      </trkpt>
      <trkpt lat="46.70925" lon="6.22304">
        <ele>1017.69</ele>
        <time>2015-06-29T08:23:02Z</time>
      </trkpt>
      <trkpt lat="46.70925" lon="6.22302">
        <ele>1018.17</ele>
        <time>2015-06-29T08:23:03Z</time>
      </trkpt>
      <trkpt lat="46.70925" lon="6.22299">
        <ele>1017.69</ele>
        <time>2015-06-29T08:23:04Z</time>
      </trkpt>
      <trkpt lat="46.70925" lon="6.22296">
        <ele>1017.69</ele>
        <time>2015-06-29T08:23:05Z</time>
      </trkpt>
      <trkpt lat="46.70926" lon="6.22292">
        <ele>1017.21</ele>
        <time>2015-06-29T08:23:06Z</time>
      </trkpt>
      <trkpt lat="46.70925" lon="6.22286">
        <ele>1017.21</ele>
        <time>2015-06-29T08:23:07Z</time>
      </trkpt>
      <trkpt lat="46.70926" lon="6.22279">
        <ele>1016.73</ele>
        <time>2015-06-29T08:23:08Z</time>
      </trkpt>
      <trkpt lat="46.70924" lon="6.22253">
        <ele>1016.25</ele>
        <time>2015-06-29T08:23:11Z</time>
      </trkpt>
      <trkpt lat="46.70922" lon="6.22234">
        <ele>1015.29</ele>
        <time>2015-06-29T08:23:13Z</time>
      </trkpt>
      <trkpt lat="46.70921" lon="6.22224">
        <ele>1014.33</ele>
        <time>2015-06-29T08:23:14Z</time>
      </trkpt>
      <trkpt lat="46.70917" lon="6.22187">
        <ele>1012.41</ele>
        <time>2015-06-29T08:23:18Z</time>
      </trkpt>
      <trkpt lat="46.70917" lon="6.22178">
        <ele>1011.93</ele>
        <time>2015-06-29T08:23:19Z</time>
      </trkpt>
      <trkpt lat="46.70916" lon="6.22171">
        <ele>1010.96</ele>
        <time>2015-06-29T08:23:20Z</time>
      </trkpt>
      <trkpt lat="46.70914" lon="6.22163">
        <ele>1010.48</ele>
        <time>2015-06-29T08:23:21Z</time>
      </trkpt>
      <trkpt lat="46.70911" lon="6.22155">
        <ele>1010</ele>
        <time>2015-06-29T08:23:22Z</time>
      </trkpt>
      <trkpt lat="46.70908" lon="6.22148">
        <ele>1009.52</ele>
        <time>2015-06-29T08:23:23Z</time>
      </trkpt>
      <trkpt lat="46.70905" lon="6.22142">
        <ele>1009.04</ele>
        <time>2015-06-29T08:23:24Z</time>
      </trkpt>
      <trkpt lat="46.70902" lon="6.22137">
        <ele>1008.56</ele>
        <time>2015-06-29T08:23:25Z</time>
      </trkpt>
      <trkpt lat="46.70897" lon="6.22127">
        <ele>1007.6</ele>
        <time>2015-06-29T08:23:27Z</time>
      </trkpt>
      <trkpt lat="46.70895" lon="6.2212">
        <ele>1006.64</ele>
        <time>2015-06-29T08:23:28Z</time>
      </trkpt>
      <trkpt lat="46.70893" lon="6.22113">
        <ele>1005.68</ele>
        <time>2015-06-29T08:23:29Z</time>
      </trkpt>
      <trkpt lat="46.70891" lon="6.22105">
        <ele>1005.68</ele>
        <time>2015-06-29T08:23:30Z</time>
      </trkpt>
      <trkpt lat="46.70888" lon="6.22097">
        <ele>1004.72</ele>
        <time>2015-06-29T08:23:31Z</time>
      </trkpt>
      <trkpt lat="46.70871" lon="6.22046">
        <ele>1004.23</ele>
        <time>2015-06-29T08:23:37Z</time>
      </trkpt>
      <trkpt lat="46.7087" lon="6.22038">
        <ele>1004.23</ele>
        <time>2015-06-29T08:23:38Z</time>
      </trkpt>
      <trkpt lat="46.70868" lon="6.2203">
        <ele>1004.23</ele>
        <time>2015-06-29T08:23:39Z</time>
      </trkpt>
      <trkpt lat="46.70865" lon="6.22022">
        <ele>1004.72</ele>
        <time>2015-06-29T08:23:40Z</time>
      </trkpt>
      <trkpt lat="46.70862" lon="6.22015">
        <ele>1004.72</ele>
        <time>2015-06-29T08:23:41Z</time>
      </trkpt>
      <trkpt lat="46.7085" lon="6.21989">
        <ele>1004.23</ele>
        <time>2015-06-29T08:23:45Z</time>
      </trkpt>
      <trkpt lat="46.70836" lon="6.21946">
        <ele>1004.23</ele>
        <time>2015-06-29T08:23:52Z</time>
      </trkpt>
      <trkpt lat="46.70834" lon="6.21939">
        <ele>1004.23</ele>
        <time>2015-06-29T08:23:53Z</time>
      </trkpt>
      <trkpt lat="46.70822" lon="6.21892">
        <ele>1005.2</ele>
        <time>2015-06-29T08:24:02Z</time>
      </trkpt>
      <trkpt lat="46.7082" lon="6.21886">
        <ele>1005.2</ele>
        <time>2015-06-29T08:24:03Z</time>
      </trkpt>
      <trkpt lat="46.70818" lon="6.21879">
        <ele>1005.2</ele>
        <time>2015-06-29T08:24:04Z</time>
      </trkpt>
      <trkpt lat="46.70817" lon="6.21871">
        <ele>1005.2</ele>
        <time>2015-06-29T08:24:05Z</time>
      </trkpt>
      <trkpt lat="46.70814" lon="6.21863">
        <ele>1004.72</ele>
        <time>2015-06-29T08:24:06Z</time>
      </trkpt>
      <trkpt lat="46.70811" lon="6.21853">
        <ele>1004.23</ele>
        <time>2015-06-29T08:24:07Z</time>
      </trkpt>
      <trkpt lat="46.70807" lon="6.21844">
        <ele>1003.75</ele>
        <time>2015-06-29T08:24:08Z</time>
      </trkpt>
      <trkpt lat="46.70797" lon="6.21819">
        <ele>1003.27</ele>
        <time>2015-06-29T08:24:11Z</time>
      </trkpt>
      <trkpt lat="46.70795" lon="6.21812">
        <ele>1002.79</ele>
        <time>2015-06-29T08:24:12Z</time>
      </trkpt>
      <trkpt lat="46.70795" lon="6.21805">
        <ele>1002.79</ele>
        <time>2015-06-29T08:24:13Z</time>
      </trkpt>
      <trkpt lat="46.70798" lon="6.21787">
        <ele>1000.87</ele>
        <time>2015-06-29T08:24:17Z</time>
      </trkpt>
      <trkpt lat="46.70799" lon="6.21763">
        <ele>997.51</ele>
        <time>2015-06-29T08:24:22Z</time>
      </trkpt>
      <trkpt lat="46.70797" lon="6.21754">
        <ele>997.02</ele>
        <time>2015-06-29T08:24:23Z</time>
      </trkpt>
      <trkpt lat="46.70795" lon="6.21745">
        <ele>996.06</ele>
        <time>2015-06-29T08:24:24Z</time>
      </trkpt>
      <trkpt lat="46.70791" lon="6.21736">
        <ele>995.58</ele>
        <time>2015-06-29T08:24:25Z</time>
      </trkpt>
      <trkpt lat="46.70788" lon="6.21727">
        <ele>995.58</ele>
        <time>2015-06-29T08:24:26Z</time>
      </trkpt>
      <trkpt lat="46.70786" lon="6.21716">
        <ele>995.1</ele>
        <time>2015-06-29T08:24:27Z</time>
      </trkpt>
      <trkpt lat="46.70785" lon="6.21705">
        <ele>995.1</ele>
        <time>2015-06-29T08:24:28Z</time>
      </trkpt>
      <trkpt lat="46.70784" lon="6.21695">
        <ele>994.62</ele>
        <time>2015-06-29T08:24:29Z</time>
      </trkpt>
      <trkpt lat="46.70783" lon="6.21685">
        <ele>994.62</ele>
        <time>2015-06-29T08:24:30Z</time>
      </trkpt>
      <trkpt lat="46.70781" lon="6.21674">
        <ele>994.14</ele>
        <time>2015-06-29T08:24:31Z</time>
      </trkpt>
      <trkpt lat="46.70778" lon="6.21662">
        <ele>993.66</ele>
        <time>2015-06-29T08:24:32Z</time>
      </trkpt>
      <trkpt lat="46.70765" lon="6.21598">
        <ele>990.3</ele>
        <time>2015-06-29T08:24:37Z</time>
      </trkpt>
      <trkpt lat="46.70759" lon="6.2154">
        <ele>986.93</ele>
        <time>2015-06-29T08:24:41Z</time>
      </trkpt>
      <trkpt lat="46.70759" lon="6.21524">
        <ele>986.93</ele>
        <time>2015-06-29T08:24:42Z</time>
      </trkpt>
      <trkpt lat="46.70754" lon="6.2146">
        <ele>983.57</ele>
        <time>2015-06-29T08:24:46Z</time>
      </trkpt>
      <trkpt lat="46.70745" lon="6.21393">
        <ele>979.72</ele>
        <time>2015-06-29T08:24:50Z</time>
      </trkpt>
      <trkpt lat="46.70737" lon="6.21339">
        <ele>977.8</ele>
        <time>2015-06-29T08:24:53Z</time>
      </trkpt>
      <trkpt lat="46.70733" lon="6.21322">
        <ele>976.84</ele>
        <time>2015-06-29T08:24:54Z</time>
      </trkpt>
      <trkpt lat="46.70723" lon="6.21253">
        <ele>973.95</ele>
        <time>2015-06-29T08:24:58Z</time>
      </trkpt>
      <trkpt lat="46.70715" lon="6.2121">
        <ele>971.55</ele>
        <time>2015-06-29T08:25:01Z</time>
      </trkpt>
      <trkpt lat="46.70708" lon="6.21186">
        <ele>970.11</ele>
        <time>2015-06-29T08:25:04Z</time>
      </trkpt>
      <trkpt lat="46.70708" lon="6.2118">
        <ele>970.11</ele>
        <time>2015-06-29T08:25:05Z</time>
      </trkpt>
      <trkpt lat="46.7071" lon="6.21173">
        <ele>968.67</ele>
        <time>2015-06-29T08:25:06Z</time>
      </trkpt>
      <trkpt lat="46.70715" lon="6.21167">
        <ele>968.18</ele>
        <time>2015-06-29T08:25:07Z</time>
      </trkpt>
      <trkpt lat="46.70721" lon="6.21164">
        <ele>967.7</ele>
        <time>2015-06-29T08:25:08Z</time>
      </trkpt>
      <trkpt lat="46.70728" lon="6.21162">
        <ele>967.22</ele>
        <time>2015-06-29T08:25:09Z</time>
      </trkpt>
      <trkpt lat="46.70734" lon="6.21159">
        <ele>966.26</ele>
        <time>2015-06-29T08:25:10Z</time>
      </trkpt>
      <trkpt lat="46.70742" lon="6.21157">
        <ele>966.26</ele>
        <time>2015-06-29T08:25:11Z</time>
      </trkpt>
      <trkpt lat="46.70776" lon="6.21142">
        <ele>962.9</ele>
        <time>2015-06-29T08:25:15Z</time>
      </trkpt>
      <trkpt lat="46.70802" lon="6.21124">
        <ele>959.05</ele>
        <time>2015-06-29T08:25:18Z</time>
      </trkpt>
      <trkpt lat="46.70826" lon="6.21098">
        <ele>955.69</ele>
        <time>2015-06-29T08:25:22Z</time>
      </trkpt>
      <trkpt lat="46.70829" lon="6.21093">
        <ele>955.21</ele>
        <time>2015-06-29T08:25:23Z</time>
      </trkpt>
      <trkpt lat="46.70832" lon="6.21088">
        <ele>954.73</ele>
        <time>2015-06-29T08:25:24Z</time>
      </trkpt>
      <trkpt lat="46.70833" lon="6.21082">
        <ele>954.25</ele>
        <time>2015-06-29T08:25:25Z</time>
      </trkpt>
      <trkpt lat="46.70833" lon="6.21077">
        <ele>953.77</ele>
        <time>2015-06-29T08:25:26Z</time>
      </trkpt>
      <trkpt lat="46.70829" lon="6.21072">
        <ele>954.25</ele>
        <time>2015-06-29T08:25:27Z</time>
      </trkpt>
      <trkpt lat="46.70825" lon="6.21069">
        <ele>953.77</ele>
        <time>2015-06-29T08:25:28Z</time>
      </trkpt>
      <trkpt lat="46.70821" lon="6.21066">
        <ele>953.28</ele>
        <time>2015-06-29T08:25:29Z</time>
      </trkpt>
      <trkpt lat="46.70815" lon="6.21063">
        <ele>953.28</ele>
        <time>2015-06-29T08:25:30Z</time>
      </trkpt>
      <trkpt lat="46.70795" lon="6.21051">
        <ele>952.32</ele>
        <time>2015-06-29T08:25:34Z</time>
      </trkpt>
      <trkpt lat="46.70781" lon="6.21039">
        <ele>952.32</ele>
        <time>2015-06-29T08:25:37Z</time>
      </trkpt>
      <trkpt lat="46.70777" lon="6.21034">
        <ele>952.32</ele>
        <time>2015-06-29T08:25:38Z</time>
      </trkpt>
      <trkpt lat="46.70773" lon="6.21029">
        <ele>952.32</ele>
        <time>2015-06-29T08:25:39Z</time>
      </trkpt>
      <trkpt lat="46.70758" lon="6.21011">
        <ele>952.32</ele>
        <time>2015-06-29T08:25:43Z</time>
      </trkpt>
      <trkpt lat="46.70755" lon="6.21007">
        <ele>952.8</ele>
        <time>2015-06-29T08:25:44Z</time>
      </trkpt>
      <trkpt lat="46.70749" lon="6.20998">
        <ele>952.32</ele>
        <time>2015-06-29T08:25:46Z</time>
      </trkpt>
      <trkpt lat="46.70745" lon="6.20993">
        <ele>952.8</ele>
        <time>2015-06-29T08:25:47Z</time>
      </trkpt>
      <trkpt lat="46.70739" lon="6.20983">
        <ele>952.32</ele>
        <time>2015-06-29T08:25:49Z</time>
      </trkpt>
      <trkpt lat="46.70736" lon="6.20979">
        <ele>951.84</ele>
        <time>2015-06-29T08:25:50Z</time>
      </trkpt>
      <trkpt lat="46.70733" lon="6.20973">
        <ele>951.84</ele>
        <time>2015-06-29T08:25:51Z</time>
      </trkpt>
      <trkpt lat="46.7073" lon="6.20969">
        <ele>951.84</ele>
        <time>2015-06-29T08:25:52Z</time>
      </trkpt>
      <trkpt lat="46.70727" lon="6.20967">
        <ele>951.84</ele>
        <time>2015-06-29T08:25:53Z</time>
      </trkpt>
      <trkpt lat="46.70725" lon="6.20966">
        <ele>951.84</ele>
        <time>2015-06-29T08:25:54Z</time>
      </trkpt>
      <trkpt lat="46.70725" lon="6.20962">
        <ele>951.84</ele>
        <time>2015-06-29T08:26:02Z</time>
      </trkpt>
      <trkpt lat="46.70724" lon="6.2096">
        <ele>951.84</ele>
        <time>2015-06-29T08:26:18Z</time>
      </trkpt>
      <trkpt lat="46.70726" lon="6.20955">
        <ele>951.84</ele>
        <time>2015-06-29T08:26:32Z</time>
      </trkpt>
      <trkpt lat="46.70726" lon="6.20954">
        <ele>952.32</ele>
        <time>2015-06-29T08:26:33Z</time>
      </trkpt>
      <trkpt lat="46.70724" lon="6.20954">
        <ele>952.32</ele>
        <time>2015-06-29T08:26:45Z</time>
      </trkpt>
      <trkpt lat="46.70723" lon="6.20953">
        <ele>951.84</ele>
        <time>2015-06-29T08:26:46Z</time>
      </trkpt>
      <trkpt lat="46.70722" lon="6.20951">
        <ele>951.84</ele>
        <time>2015-06-29T08:26:47Z</time>
      </trkpt>
      <trkpt lat="46.70694" lon="6.20923">
        <ele>951.36</ele>
        <time>2015-06-29T08:26:58Z</time>
      </trkpt>
      <trkpt lat="46.70679" lon="6.20908">
        <ele>950.88</ele>
        <time>2015-06-29T08:27:03Z</time>
      </trkpt>
      <trkpt lat="46.70676" lon="6.20904">
        <ele>950.88</ele>
        <time>2015-06-29T08:27:04Z</time>
      </trkpt>
      <trkpt lat="46.70674" lon="6.20899">
        <ele>949.92</ele>
        <time>2015-06-29T08:27:05Z</time>
      </trkpt>
      <trkpt lat="46.70674" lon="6.20894">
        <ele>950.4</ele>
        <time>2015-06-29T08:27:06Z</time>
      </trkpt>
      <trkpt lat="46.70675" lon="6.20891">
        <ele>950.4</ele>
        <time>2015-06-29T08:27:07Z</time>
      </trkpt>
      <trkpt lat="46.70675" lon="6.20888">
        <ele>950.4</ele>
        <time>2015-06-29T08:27:08Z</time>
      </trkpt>
      <trkpt lat="46.70675" lon="6.20886">
        <ele>950.4</ele>
        <time>2015-06-29T08:27:09Z</time>
      </trkpt>
      <trkpt lat="46.70675" lon="6.20885">
        <ele>950.4</ele>
        <time>2015-06-29T08:27:20Z</time>
      </trkpt>
      <trkpt lat="46.70675" lon="6.20884">
        <ele>950.4</ele>
        <time>2015-06-29T08:27:46Z</time>
      </trkpt>
      <trkpt lat="46.70674" lon="6.20885">
        <ele>950.4</ele>
        <time>2015-06-29T08:28:24Z</time>
      </trkpt>
      <trkpt lat="46.70673" lon="6.20883">
        <ele>950.88</ele>
        <time>2015-06-29T08:29:08Z</time>
      </trkpt>
      <trkpt lat="46.70671" lon="6.20885">
        <ele>950.4</ele>
        <time>2015-06-29T08:29:47Z</time>
      </trkpt>
      <trkpt lat="46.70672" lon="6.20884">
        <ele>949.92</ele>
        <time>2015-06-29T08:30:26Z</time>
      </trkpt>
      <trkpt lat="46.70672" lon="6.20884">
        <ele>949.92</ele>
        <time>2015-06-29T08:30:31Z</time>
      </trkpt>
      <trkpt lat="46.70671" lon="6.20883">
        <ele>949.92</ele>
        <time>2015-06-29T08:30:32Z</time>
      </trkpt>
      <trkpt lat="46.7067" lon="6.20882">
        <ele>949.92</ele>
        <time>2015-06-29T08:30:33Z</time>
      </trkpt>
      <trkpt lat="46.70669" lon="6.2088">
        <ele>949.92</ele>
        <time>2015-06-29T08:30:34Z</time>
      </trkpt>
      <trkpt lat="46.70669" lon="6.20878">
        <ele>949.44</ele>
        <time>2015-06-29T08:30:35Z</time>
      </trkpt>
      <trkpt lat="46.70668" lon="6.20876">
        <ele>949.44</ele>
        <time>2015-06-29T08:30:36Z</time>
      </trkpt>
      <trkpt lat="46.70668" lon="6.20874">
        <ele>949.92</ele>
        <time>2015-06-29T08:30:37Z</time>
      </trkpt>
      <trkpt lat="46.70667" lon="6.20872">
        <ele>949.44</ele>
        <time>2015-06-29T08:30:38Z</time>
      </trkpt>
      <trkpt lat="46.70667" lon="6.20869">
        <ele>949.44</ele>
        <time>2015-06-29T08:30:39Z</time>
      </trkpt>
      <trkpt lat="46.70668" lon="6.20866">
        <ele>948.96</ele>
        <time>2015-06-29T08:30:40Z</time>
      </trkpt>
      <trkpt lat="46.70669" lon="6.20863">
        <ele>949.92</ele>
        <time>2015-06-29T08:30:41Z</time>
      </trkpt>
      <trkpt lat="46.70671" lon="6.20861">
        <ele>948.96</ele>
        <time>2015-06-29T08:30:42Z</time>
      </trkpt>
      <trkpt lat="46.70673" lon="6.20859">
        <ele>948.96</ele>
        <time>2015-06-29T08:30:43Z</time>
      </trkpt>
      <trkpt lat="46.70675" lon="6.20858">
        <ele>949.44</ele>
        <time>2015-06-29T08:30:44Z</time>
      </trkpt>
      <trkpt lat="46.70676" lon="6.20858">
        <ele>949.44</ele>
        <time>2015-06-29T08:30:45Z</time>
      </trkpt>
      <trkpt lat="46.70678" lon="6.20858">
        <ele>949.44</ele>
        <time>2015-06-29T08:30:55Z</time>
      </trkpt>
      <trkpt lat="46.70677" lon="6.20858">
        <ele>949.44</ele>
        <time>2015-06-29T08:31:30Z</time>
      </trkpt>
      <trkpt lat="46.70679" lon="6.20856">
        <ele>948.96</ele>
        <time>2015-06-29T08:32:04Z</time>
      </trkpt>
      <trkpt lat="46.70678" lon="6.20857">
        <ele>949.44</ele>
        <time>2015-06-29T08:32:43Z</time>
      </trkpt>
      <trkpt lat="46.70678" lon="6.20856">
        <ele>949.44</ele>
        <time>2015-06-29T08:33:00Z</time>
      </trkpt>
      <trkpt lat="46.70676" lon="6.20856">
        <ele>949.44</ele>
        <time>2015-06-29T08:33:03Z</time>
      </trkpt>
      <trkpt lat="46.70674" lon="6.20856">
        <ele>949.44</ele>
        <time>2015-06-29T08:33:04Z</time>
      </trkpt>
      <trkpt lat="46.70672" lon="6.20857">
        <ele>949.44</ele>
        <time>2015-06-29T08:33:05Z</time>
      </trkpt>
      <trkpt lat="46.7067" lon="6.2086">
        <ele>949.44</ele>
        <time>2015-06-29T08:33:06Z</time>
      </trkpt>
      <trkpt lat="46.70668" lon="6.20863">
        <ele>948.96</ele>
        <time>2015-06-29T08:33:07Z</time>
      </trkpt>
      <trkpt lat="46.70667" lon="6.20867">
        <ele>949.44</ele>
        <time>2015-06-29T08:33:08Z</time>
      </trkpt>
      <trkpt lat="46.70665" lon="6.2087">
        <ele>948.96</ele>
        <time>2015-06-29T08:33:09Z</time>
      </trkpt>
      <trkpt lat="46.70665" lon="6.20874">
        <ele>949.92</ele>
        <time>2015-06-29T08:33:10Z</time>
      </trkpt>
      <trkpt lat="46.70664" lon="6.20877">
        <ele>949.92</ele>
        <time>2015-06-29T08:33:11Z</time>
      </trkpt>
      <trkpt lat="46.70664" lon="6.20879">
        <ele>949.92</ele>
        <time>2015-06-29T08:33:12Z</time>
      </trkpt>
      <trkpt lat="46.70664" lon="6.20882">
        <ele>949.92</ele>
        <time>2015-06-29T08:33:13Z</time>
      </trkpt>
      <trkpt lat="46.70664" lon="6.20884">
        <ele>949.92</ele>
        <time>2015-06-29T08:33:14Z</time>
      </trkpt>
      <trkpt lat="46.70661" lon="6.20887">
        <ele>949.92</ele>
        <time>2015-06-29T08:33:24Z</time>
      </trkpt>
      <trkpt lat="46.7066" lon="6.20886">
        <ele>948.96</ele>
        <time>2015-06-29T08:33:40Z</time>
      </trkpt>
      <trkpt lat="46.70661" lon="6.20888">
        <ele>948.96</ele>
        <time>2015-06-29T08:34:21Z</time>
      </trkpt>
      <trkpt lat="46.7066" lon="6.20888">
        <ele>948.96</ele>
        <time>2015-06-29T08:34:55Z</time>
      </trkpt>
      <trkpt lat="46.70659" lon="6.20888">
        <ele>948.96</ele>
        <time>2015-06-29T08:35:32Z</time>
      </trkpt>
      <trkpt lat="46.70659" lon="6.20888">
        <ele>949.44</ele>
        <time>2015-06-29T08:36:06Z</time>
      </trkpt>
      <trkpt lat="46.70656" lon="6.20881">
        <ele>949.92</ele>
        <time>2015-06-29T08:36:27Z</time>
      </trkpt>
      <trkpt lat="46.70653" lon="6.2088">
        <ele>949.92</ele>
        <time>2015-06-29T08:36:44Z</time>
      </trkpt>
      <trkpt lat="46.70652" lon="6.20879">
        <ele>949.44</ele>
        <time>2015-06-29T08:37:06Z</time>
      </trkpt>
      <trkpt lat="46.70651" lon="6.20876">
        <ele>949.44</ele>
        <time>2015-06-29T08:37:28Z</time>
      </trkpt>
      <trkpt lat="46.70649" lon="6.20879">
        <ele>948.48</ele>
        <time>2015-06-29T08:37:47Z</time>
      </trkpt>
      <trkpt lat="46.7065" lon="6.20874">
        <ele>948.96</ele>
        <time>2015-06-29T08:38:23Z</time>
      </trkpt>
      <trkpt lat="46.70649" lon="6.20874">
        <ele>948.48</ele>
        <time>2015-06-29T08:38:58Z</time>
      </trkpt>
      <trkpt lat="46.70649" lon="6.20874">
        <ele>948.48</ele>
        <time>2015-06-29T08:39:36Z</time>
      </trkpt>
      <trkpt lat="46.70653" lon="6.20872">
        <ele>948.48</ele>
        <time>2015-06-29T08:40:15Z</time>
      </trkpt>
      <trkpt lat="46.70651" lon="6.2087">
        <ele>948.96</ele>
        <time>2015-06-29T08:40:54Z</time>
      </trkpt>
      <trkpt lat="46.7065" lon="6.2087">
        <ele>948</ele>
        <time>2015-06-29T08:41:33Z</time>
      </trkpt>
      <trkpt lat="46.7065" lon="6.20871">
        <ele>948.96</ele>
        <time>2015-06-29T08:41:39Z</time>
      </trkpt>
      <trkpt lat="46.70648" lon="6.20869">
        <ele>948.48</ele>
        <time>2015-06-29T08:41:40Z</time>
      </trkpt>
      <trkpt lat="46.70647" lon="6.20868">
        <ele>948.48</ele>
        <time>2015-06-29T08:41:41Z</time>
      </trkpt>
      <trkpt lat="46.70646" lon="6.20866">
        <ele>948.48</ele>
        <time>2015-06-29T08:41:42Z</time>
      </trkpt>
      <trkpt lat="46.70644" lon="6.20865">
        <ele>948.48</ele>
        <time>2015-06-29T08:41:43Z</time>
      </trkpt>
      <trkpt lat="46.70643" lon="6.20863">
        <ele>948.48</ele>
        <time>2015-06-29T08:41:44Z</time>
      </trkpt>
      <trkpt lat="46.70623" lon="6.20838">
        <ele>948.48</ele>
        <time>2015-06-29T08:41:56Z</time>
      </trkpt>
      <trkpt lat="46.70621" lon="6.20837">
        <ele>948.48</ele>
        <time>2015-06-29T08:41:57Z</time>
      </trkpt>
      <trkpt lat="46.70618" lon="6.20836">
        <ele>948</ele>
        <time>2015-06-29T08:41:58Z</time>
      </trkpt>
      <trkpt lat="46.70584" lon="6.20847">
        <ele>949.44</ele>
        <time>2015-06-29T08:42:10Z</time>
      </trkpt>
      <trkpt lat="46.70575" lon="6.20853">
        <ele>950.88</ele>
        <time>2015-06-29T08:42:15Z</time>
      </trkpt>
      <trkpt lat="46.70574" lon="6.20854">
        <ele>951.84</ele>
        <time>2015-06-29T08:42:16Z</time>
      </trkpt>
      <trkpt lat="46.70572" lon="6.20855">
        <ele>951.84</ele>
        <time>2015-06-29T08:42:17Z</time>
      </trkpt>
      <trkpt lat="46.70571" lon="6.20857">
        <ele>951.84</ele>
        <time>2015-06-29T08:42:18Z</time>
      </trkpt>
      <trkpt lat="46.70569" lon="6.20858">
        <ele>951.84</ele>
        <time>2015-06-29T08:42:19Z</time>
      </trkpt>
      <trkpt lat="46.70567" lon="6.20859">
        <ele>952.32</ele>
        <time>2015-06-29T08:42:20Z</time>
      </trkpt>
      <trkpt lat="46.70566" lon="6.2086">
        <ele>952.32</ele>
        <time>2015-06-29T08:42:21Z</time>
      </trkpt>
      <trkpt lat="46.70564" lon="6.20862">
        <ele>952.8</ele>
        <time>2015-06-29T08:42:22Z</time>
      </trkpt>
      <trkpt lat="46.70563" lon="6.20864">
        <ele>953.28</ele>
        <time>2015-06-29T08:42:23Z</time>
      </trkpt>
      <trkpt lat="46.70557" lon="6.20869">
        <ele>953.77</ele>
        <time>2015-06-29T08:42:27Z</time>
      </trkpt>
      <trkpt lat="46.7055" lon="6.20868">
        <ele>953.77</ele>
        <time>2015-06-29T08:42:31Z</time>
      </trkpt>
      <trkpt lat="46.70549" lon="6.2087">
        <ele>953.77</ele>
        <time>2015-06-29T08:42:32Z</time>
      </trkpt>
      <trkpt lat="46.70548" lon="6.20872">
        <ele>953.77</ele>
        <time>2015-06-29T08:42:33Z</time>
      </trkpt>
      <trkpt lat="46.70546" lon="6.20873">
        <ele>954.25</ele>
        <time>2015-06-29T08:42:34Z</time>
      </trkpt>
      <trkpt lat="46.70545" lon="6.20875">
        <ele>953.77</ele>
        <time>2015-06-29T08:42:35Z</time>
      </trkpt>
      <trkpt lat="46.70543" lon="6.20878">
        <ele>954.25</ele>
        <time>2015-06-29T08:42:36Z</time>
      </trkpt>
      <trkpt lat="46.70541" lon="6.2088">
        <ele>954.25</ele>
        <time>2015-06-29T08:42:37Z</time>
      </trkpt>
      <trkpt lat="46.70522" lon="6.20908">
        <ele>954.73</ele>
        <time>2015-06-29T08:42:48Z</time>
      </trkpt>
      <trkpt lat="46.70509" lon="6.20917">
        <ele>955.21</ele>
        <time>2015-06-29T08:43:00Z</time>
      </trkpt>
      <trkpt lat="46.70506" lon="6.20917">
        <ele>954.25</ele>
        <time>2015-06-29T08:43:24Z</time>
      </trkpt>
      <trkpt lat="46.70507" lon="6.20919">
        <ele>954.73</ele>
        <time>2015-06-29T08:43:58Z</time>
      </trkpt>
      <trkpt lat="46.70506" lon="6.20916">
        <ele>955.21</ele>
        <time>2015-06-29T08:44:30Z</time>
      </trkpt>
      <trkpt lat="46.70509" lon="6.20917">
        <ele>955.21</ele>
        <time>2015-06-29T08:45:01Z</time>
      </trkpt>
      <trkpt lat="46.70508" lon="6.20915">
        <ele>955.21</ele>
        <time>2015-06-29T08:45:23Z</time>
      </trkpt>
      <trkpt lat="46.70509" lon="6.20914">
        <ele>955.21</ele>
        <time>2015-06-29T08:45:50Z</time>
      </trkpt>
      <trkpt lat="46.70508" lon="6.20916">
        <ele>955.69</ele>
        <time>2015-06-29T08:46:18Z</time>
      </trkpt>
      <trkpt lat="46.70509" lon="6.20916">
        <ele>955.21</ele>
        <time>2015-06-29T08:46:47Z</time>
      </trkpt>
      <trkpt lat="46.7051" lon="6.20918">
        <ele>955.69</ele>
        <time>2015-06-29T08:47:15Z</time>
      </trkpt>
      <trkpt lat="46.7051" lon="6.20921">
        <ele>955.21</ele>
        <time>2015-06-29T08:47:46Z</time>
      </trkpt>
      <trkpt lat="46.70511" lon="6.2092">
        <ele>955.21</ele>
        <time>2015-06-29T08:48:14Z</time>
      </trkpt>
      <trkpt lat="46.70513" lon="6.20918">
        <ele>955.21</ele>
        <time>2015-06-29T08:48:39Z</time>
      </trkpt>
      <trkpt lat="46.70512" lon="6.20917">
        <ele>955.21</ele>
        <time>2015-06-29T08:49:05Z</time>
      </trkpt>
      <trkpt lat="46.7051" lon="6.20917">
        <ele>955.21</ele>
        <time>2015-06-29T08:49:27Z</time>
      </trkpt>
      <trkpt lat="46.70509" lon="6.20917">
        <ele>955.21</ele>
        <time>2015-06-29T08:49:57Z</time>
      </trkpt>
      <trkpt lat="46.70508" lon="6.20911">
        <ele>954.73</ele>
        <time>2015-06-29T08:50:32Z</time>
      </trkpt>
      <trkpt lat="46.70507" lon="6.20909">
        <ele>955.21</ele>
        <time>2015-06-29T08:51:04Z</time>
      </trkpt>
      <trkpt lat="46.70506" lon="6.2091">
        <ele>954.73</ele>
        <time>2015-06-29T08:51:33Z</time>
      </trkpt>
      <trkpt lat="46.70506" lon="6.20908">
        <ele>954.73</ele>
        <time>2015-06-29T08:52:08Z</time>
      </trkpt>
      <trkpt lat="46.70508" lon="6.2091">
        <ele>955.21</ele>
        <time>2015-06-29T08:52:44Z</time>
      </trkpt>
      <trkpt lat="46.70509" lon="6.20912">
        <ele>954.73</ele>
        <time>2015-06-29T08:53:03Z</time>
      </trkpt>
      <trkpt lat="46.70509" lon="6.20911">
        <ele>955.21</ele>
        <time>2015-06-29T08:53:30Z</time>
      </trkpt>
      <trkpt lat="46.70509" lon="6.20911">
        <ele>954.73</ele>
        <time>2015-06-29T08:53:33Z</time>
      </trkpt>
      <trkpt lat="46.7051" lon="6.2091">
        <ele>954.73</ele>
        <time>2015-06-29T08:53:34Z</time>
      </trkpt>
      <trkpt lat="46.7051" lon="6.20909">
        <ele>954.25</ele>
        <time>2015-06-29T08:53:35Z</time>
      </trkpt>
      <trkpt lat="46.70506" lon="6.20904">
        <ele>953.77</ele>
        <time>2015-06-29T08:53:41Z</time>
      </trkpt>
      <trkpt lat="46.70508" lon="6.20897">
        <ele>951.84</ele>
        <time>2015-06-29T08:53:51Z</time>
      </trkpt>
      <trkpt lat="46.7051" lon="6.20896">
        <ele>951.84</ele>
        <time>2015-06-29T08:53:55Z</time>
      </trkpt>
      <trkpt lat="46.70519" lon="6.20897">
        <ele>950.4</ele>
        <time>2015-06-29T08:54:05Z</time>
      </trkpt>
      <trkpt lat="46.70523" lon="6.20888">
        <ele>949.92</ele>
        <time>2015-06-29T08:54:15Z</time>
      </trkpt>
      <trkpt lat="46.70528" lon="6.20877">
        <ele>948.96</ele>
        <time>2015-06-29T08:54:28Z</time>
      </trkpt>
      <trkpt lat="46.70534" lon="6.20868">
        <ele>948.48</ele>
        <time>2015-06-29T08:54:31Z</time>
      </trkpt>
      <trkpt lat="46.70542" lon="6.20859">
        <ele>948</ele>
        <time>2015-06-29T08:54:42Z</time>
      </trkpt>
      <trkpt lat="46.70543" lon="6.20855">
        <ele>948</ele>
        <time>2015-06-29T08:54:44Z</time>
      </trkpt>
      <trkpt lat="46.70548" lon="6.20844">
        <ele>948</ele>
        <time>2015-06-29T08:54:49Z</time>
      </trkpt>
      <trkpt lat="46.70549" lon="6.20843">
        <ele>948</ele>
        <time>2015-06-29T08:54:50Z</time>
      </trkpt>
      <trkpt lat="46.7055" lon="6.20841">
        <ele>948</ele>
        <time>2015-06-29T08:54:51Z</time>
      </trkpt>
      <trkpt lat="46.70552" lon="6.20839">
        <ele>947.52</ele>
        <time>2015-06-29T08:54:52Z</time>
      </trkpt>
      <trkpt lat="46.70553" lon="6.20836">
        <ele>948</ele>
        <time>2015-06-29T08:54:53Z</time>
      </trkpt>
      <trkpt lat="46.70555" lon="6.20834">
        <ele>947.52</ele>
        <time>2015-06-29T08:54:54Z</time>
      </trkpt>
      <trkpt lat="46.70557" lon="6.20831">
        <ele>948</ele>
        <time>2015-06-29T08:54:55Z</time>
      </trkpt>
      <trkpt lat="46.70561" lon="6.20824">
        <ele>948.48</ele>
        <time>2015-06-29T08:54:58Z</time>
      </trkpt>
      <trkpt lat="46.70563" lon="6.20822">
        <ele>948.96</ele>
        <time>2015-06-29T08:55:00Z</time>
      </trkpt>
      <trkpt lat="46.70564" lon="6.2082">
        <ele>948.48</ele>
        <time>2015-06-29T08:55:01Z</time>
      </trkpt>
      <trkpt lat="46.70566" lon="6.20818">
        <ele>948.48</ele>
        <time>2015-06-29T08:55:02Z</time>
      </trkpt>
      <trkpt lat="46.70568" lon="6.20816">
        <ele>948</ele>
        <time>2015-06-29T08:55:03Z</time>
      </trkpt>
      <trkpt lat="46.7057" lon="6.20815">
        <ele>948.48</ele>
        <time>2015-06-29T08:55:04Z</time>
      </trkpt>
      <trkpt lat="46.70571" lon="6.20813">
        <ele>948.48</ele>
        <time>2015-06-29T08:55:05Z</time>
      </trkpt>
      <trkpt lat="46.70584" lon="6.20798">
        <ele>946.56</ele>
        <time>2015-06-29T08:55:13Z</time>
      </trkpt>
      <trkpt lat="46.70586" lon="6.20795">
        <ele>946.56</ele>
        <time>2015-06-29T08:55:14Z</time>
      </trkpt>
      <trkpt lat="46.70587" lon="6.20793">
        <ele>946.56</ele>
        <time>2015-06-29T08:55:15Z</time>
      </trkpt>
      <trkpt lat="46.70588" lon="6.20791">
        <ele>946.56</ele>
        <time>2015-06-29T08:55:16Z</time>
      </trkpt>
      <trkpt lat="46.70589" lon="6.20788">
        <ele>947.04</ele>
        <time>2015-06-29T08:55:17Z</time>
      </trkpt>
      <trkpt lat="46.7059" lon="6.20786">
        <ele>946.07</ele>
        <time>2015-06-29T08:55:18Z</time>
      </trkpt>
      <trkpt lat="46.7059" lon="6.20784">
        <ele>946.07</ele>
        <time>2015-06-29T08:55:19Z</time>
      </trkpt>
      <trkpt lat="46.7059" lon="6.20781">
        <ele>946.07</ele>
        <time>2015-06-29T08:55:20Z</time>
      </trkpt>
      <trkpt lat="46.7059" lon="6.20778">
        <ele>946.07</ele>
        <time>2015-06-29T08:55:21Z</time>
      </trkpt>
      <trkpt lat="46.70589" lon="6.20776">
        <ele>946.56</ele>
        <time>2015-06-29T08:55:22Z</time>
      </trkpt>
      <trkpt lat="46.70587" lon="6.20774">
        <ele>946.07</ele>
        <time>2015-06-29T08:55:23Z</time>
      </trkpt>
      <trkpt lat="46.70586" lon="6.20772">
        <ele>946.07</ele>
        <time>2015-06-29T08:55:24Z</time>
      </trkpt>
      <trkpt lat="46.70582" lon="6.20765">
        <ele>946.07</ele>
        <time>2015-06-29T08:55:38Z</time>
      </trkpt>
      <trkpt lat="46.70583" lon="6.20764">
        <ele>946.07</ele>
        <time>2015-06-29T08:56:01Z</time>
      </trkpt>
      <trkpt lat="46.70582" lon="6.20765">
        <ele>946.56</ele>
        <time>2015-06-29T08:56:25Z</time>
      </trkpt>
      <trkpt lat="46.70582" lon="6.20765">
        <ele>945.59</ele>
        <time>2015-06-29T08:56:45Z</time>
      </trkpt>
      <trkpt lat="46.70578" lon="6.20761">
        <ele>945.59</ele>
        <time>2015-06-29T08:56:58Z</time>
      </trkpt>
      <trkpt lat="46.70577" lon="6.2076">
        <ele>945.59</ele>
        <time>2015-06-29T08:56:59Z</time>
      </trkpt>
      <trkpt lat="46.70576" lon="6.20759">
        <ele>946.07</ele>
        <time>2015-06-29T08:57:00Z</time>
      </trkpt>
      <trkpt lat="46.70575" lon="6.20756">
        <ele>945.59</ele>
        <time>2015-06-29T08:57:02Z</time>
      </trkpt>
      <trkpt lat="46.70574" lon="6.20754">
        <ele>945.59</ele>
        <time>2015-06-29T08:57:03Z</time>
      </trkpt>
      <trkpt lat="46.70573" lon="6.20753">
        <ele>946.07</ele>
        <time>2015-06-29T08:57:04Z</time>
      </trkpt>
      <trkpt lat="46.70573" lon="6.20752">
        <ele>945.59</ele>
        <time>2015-06-29T08:57:05Z</time>
      </trkpt>
      <trkpt lat="46.70572" lon="6.2075">
        <ele>945.59</ele>
        <time>2015-06-29T08:57:06Z</time>
      </trkpt>
      <trkpt lat="46.70571" lon="6.20749">
        <ele>946.07</ele>
        <time>2015-06-29T08:57:07Z</time>
      </trkpt>
      <trkpt lat="46.7057" lon="6.20747">
        <ele>945.59</ele>
        <time>2015-06-29T08:57:08Z</time>
      </trkpt>
      <trkpt lat="46.70569" lon="6.20745">
        <ele>946.07</ele>
        <time>2015-06-29T08:57:09Z</time>
      </trkpt>
      <trkpt lat="46.70569" lon="6.20743">
        <ele>945.59</ele>
        <time>2015-06-29T08:57:10Z</time>
      </trkpt>
      <trkpt lat="46.70569" lon="6.20742">
        <ele>946.07</ele>
        <time>2015-06-29T08:57:11Z</time>
      </trkpt>
      <trkpt lat="46.70568" lon="6.2074">
        <ele>945.59</ele>
        <time>2015-06-29T08:57:12Z</time>
      </trkpt>
      <trkpt lat="46.70558" lon="6.20709">
        <ele>946.07</ele>
        <time>2015-06-29T08:57:25Z</time>
      </trkpt>
      <trkpt lat="46.70545" lon="6.20662">
        <ele>948.96</ele>
        <time>2015-06-29T08:57:41Z</time>
      </trkpt>
      <trkpt lat="46.70534" lon="6.20597">
        <ele>948.48</ele>
        <time>2015-06-29T08:57:57Z</time>
      </trkpt>
      <trkpt lat="46.7053" lon="6.20579">
        <ele>947.52</ele>
        <time>2015-06-29T08:58:00Z</time>
      </trkpt>
      <trkpt lat="46.70523" lon="6.20561">
        <ele>947.04</ele>
        <time>2015-06-29T08:58:03Z</time>
      </trkpt>
      <trkpt lat="46.70521" lon="6.20557">
        <ele>947.52</ele>
        <time>2015-06-29T08:58:04Z</time>
      </trkpt>
      <trkpt lat="46.70518" lon="6.20553">
        <ele>947.52</ele>
        <time>2015-06-29T08:58:05Z</time>
      </trkpt>
      <trkpt lat="46.70517" lon="6.20549">
        <ele>947.52</ele>
        <time>2015-06-29T08:58:06Z</time>
      </trkpt>
      <trkpt lat="46.70515" lon="6.20544">
        <ele>948</ele>
        <time>2015-06-29T08:58:07Z</time>
      </trkpt>
      <trkpt lat="46.70514" lon="6.20539">
        <ele>948</ele>
        <time>2015-06-29T08:58:08Z</time>
      </trkpt>
      <trkpt lat="46.70513" lon="6.20534">
        <ele>947.52</ele>
        <time>2015-06-29T08:58:09Z</time>
      </trkpt>
      <trkpt lat="46.70497" lon="6.20468">
        <ele>946.07</ele>
        <time>2015-06-29T08:58:21Z</time>
      </trkpt>
      <trkpt lat="46.70491" lon="6.2045">
        <ele>946.56</ele>
        <time>2015-06-29T08:58:24Z</time>
      </trkpt>
      <trkpt lat="46.70489" lon="6.20445">
        <ele>946.56</ele>
        <time>2015-06-29T08:58:25Z</time>
      </trkpt>
      <trkpt lat="46.70488" lon="6.2044">
        <ele>946.56</ele>
        <time>2015-06-29T08:58:26Z</time>
      </trkpt>
      <trkpt lat="46.70487" lon="6.20435">
        <ele>947.04</ele>
        <time>2015-06-29T08:58:27Z</time>
      </trkpt>
      <trkpt lat="46.70486" lon="6.2043">
        <ele>947.04</ele>
        <time>2015-06-29T08:58:28Z</time>
      </trkpt>
      <trkpt lat="46.70485" lon="6.20426">
        <ele>946.56</ele>
        <time>2015-06-29T08:58:29Z</time>
      </trkpt>
      <trkpt lat="46.70485" lon="6.20421">
        <ele>947.04</ele>
        <time>2015-06-29T08:58:30Z</time>
      </trkpt>
      <trkpt lat="46.70466" lon="6.20374">
        <ele>947.52</ele>
        <time>2015-06-29T08:58:41Z</time>
      </trkpt>
      <trkpt lat="46.70443" lon="6.20331">
        <ele>947.04</ele>
        <time>2015-06-29T08:58:51Z</time>
      </trkpt>
      <trkpt lat="46.70436" lon="6.20302">
        <ele>947.04</ele>
        <time>2015-06-29T08:59:01Z</time>
      </trkpt>
      <trkpt lat="46.70457" lon="6.20286">
        <ele>947.04</ele>
        <time>2015-06-29T08:59:13Z</time>
      </trkpt>
      <trkpt lat="46.70463" lon="6.20281">
        <ele>947.04</ele>
        <time>2015-06-29T08:59:23Z</time>
      </trkpt>
      <trkpt lat="46.70463" lon="6.20279">
        <ele>947.04</ele>
        <time>2015-06-29T08:59:35Z</time>
      </trkpt>
      <trkpt lat="46.70464" lon="6.20282">
        <ele>946.56</ele>
        <time>2015-06-29T09:00:10Z</time>
      </trkpt>
      <trkpt lat="46.70464" lon="6.20281">
        <ele>947.04</ele>
        <time>2015-06-29T09:00:36Z</time>
      </trkpt>
      <trkpt lat="46.70462" lon="6.20282">
        <ele>947.04</ele>
        <time>2015-06-29T09:01:06Z</time>
      </trkpt>
      <trkpt lat="46.70463" lon="6.20283">
        <ele>946.56</ele>
        <time>2015-06-29T09:01:41Z</time>
      </trkpt>
      <trkpt lat="46.70463" lon="6.20284">
        <ele>947.04</ele>
        <time>2015-06-29T09:01:58Z</time>
      </trkpt>
      <trkpt lat="46.70465" lon="6.20284">
        <ele>946.56</ele>
        <time>2015-06-29T09:02:32Z</time>
      </trkpt>
      <trkpt lat="46.70464" lon="6.20282">
        <ele>946.56</ele>
        <time>2015-06-29T09:03:04Z</time>
      </trkpt>
      <trkpt lat="46.70465" lon="6.20283">
        <ele>947.04</ele>
        <time>2015-06-29T09:03:21Z</time>
      </trkpt>
      <trkpt lat="46.70461" lon="6.20286">
        <ele>946.56</ele>
        <time>2015-06-29T09:03:30Z</time>
      </trkpt>
      <trkpt lat="46.70455" lon="6.2029">
        <ele>947.04</ele>
        <time>2015-06-29T09:03:34Z</time>
      </trkpt>
      <trkpt lat="46.70443" lon="6.20294">
        <ele>947.04</ele>
        <time>2015-06-29T09:03:39Z</time>
      </trkpt>
      <trkpt lat="46.70439" lon="6.20296">
        <ele>946.56</ele>
        <time>2015-06-29T09:03:41Z</time>
      </trkpt>
      <trkpt lat="46.70432" lon="6.20289">
        <ele>946.56</ele>
        <time>2015-06-29T09:03:45Z</time>
      </trkpt>
      <trkpt lat="46.70417" lon="6.20228">
        <ele>946.56</ele>
        <time>2015-06-29T09:03:58Z</time>
      </trkpt>
      <trkpt lat="46.70401" lon="6.20167">
        <ele>947.52</ele>
        <time>2015-06-29T09:04:12Z</time>
      </trkpt>
      <trkpt lat="46.70398" lon="6.20158">
        <ele>947.52</ele>
        <time>2015-06-29T09:04:16Z</time>
      </trkpt>
      <trkpt lat="46.7039" lon="6.20145">
        <ele>947.04</ele>
        <time>2015-06-29T09:04:22Z</time>
      </trkpt>
      <trkpt lat="46.70372" lon="6.20088">
        <ele>947.04</ele>
        <time>2015-06-29T09:04:35Z</time>
      </trkpt>
      <trkpt lat="46.70365" lon="6.20048">
        <ele>947.04</ele>
        <time>2015-06-29T09:04:42Z</time>
      </trkpt>
      <trkpt lat="46.70364" lon="6.20041">
        <ele>946.56</ele>
        <time>2015-06-29T09:04:43Z</time>
      </trkpt>
      <trkpt lat="46.70362" lon="6.20034">
        <ele>947.04</ele>
        <time>2015-06-29T09:04:44Z</time>
      </trkpt>
      <trkpt lat="46.7036" lon="6.20028">
        <ele>947.04</ele>
        <time>2015-06-29T09:04:45Z</time>
      </trkpt>
      <trkpt lat="46.70358" lon="6.20021">
        <ele>946.07</ele>
        <time>2015-06-29T09:04:46Z</time>
      </trkpt>
      <trkpt lat="46.70328" lon="6.19935">
        <ele>946.07</ele>
        <time>2015-06-29T09:05:01Z</time>
      </trkpt>
      <trkpt lat="46.70293" lon="6.1985">
        <ele>946.07</ele>
        <time>2015-06-29T09:05:17Z</time>
      </trkpt>
      <trkpt lat="46.70291" lon="6.19844">
        <ele>945.59</ele>
        <time>2015-06-29T09:05:18Z</time>
      </trkpt>
      <trkpt lat="46.70289" lon="6.19838">
        <ele>946.07</ele>
        <time>2015-06-29T09:05:19Z</time>
      </trkpt>
      <trkpt lat="46.70256" lon="6.19739">
        <ele>946.56</ele>
        <time>2015-06-29T09:05:37Z</time>
      </trkpt>
      <trkpt lat="46.70229" lon="6.19673">
        <ele>948.48</ele>
        <time>2015-06-29T09:05:51Z</time>
      </trkpt>
      <trkpt lat="46.70195" lon="6.19602">
        <ele>949.92</ele>
        <time>2015-06-29T09:06:09Z</time>
      </trkpt>
      <trkpt lat="46.70165" lon="6.19526">
        <ele>950.4</ele>
        <time>2015-06-29T09:06:28Z</time>
      </trkpt>
      <trkpt lat="46.7014" lon="6.19465">
        <ele>950.88</ele>
        <time>2015-06-29T09:06:44Z</time>
      </trkpt>
      <trkpt lat="46.70111" lon="6.19411">
        <ele>951.84</ele>
        <time>2015-06-29T09:07:00Z</time>
      </trkpt>
      <trkpt lat="46.70088" lon="6.19367">
        <ele>951.84</ele>
        <time>2015-06-29T09:07:12Z</time>
      </trkpt>
      <trkpt lat="46.70073" lon="6.19313">
        <ele>951.84</ele>
        <time>2015-06-29T09:07:23Z</time>
      </trkpt>
      <trkpt lat="46.70072" lon="6.19302">
        <ele>951.36</ele>
        <time>2015-06-29T09:07:25Z</time>
      </trkpt>
      <trkpt lat="46.7007" lon="6.19284">
        <ele>950.88</ele>
        <time>2015-06-29T09:07:28Z</time>
      </trkpt>
      <trkpt lat="46.70067" lon="6.19273">
        <ele>951.36</ele>
        <time>2015-06-29T09:07:30Z</time>
      </trkpt>
      <trkpt lat="46.7004" lon="6.19191">
        <ele>951.36</ele>
        <time>2015-06-29T09:07:45Z</time>
      </trkpt>
      <trkpt lat="46.70027" lon="6.19158">
        <ele>951.36</ele>
        <time>2015-06-29T09:07:51Z</time>
      </trkpt>
      <trkpt lat="46.70011" lon="6.19127">
        <ele>950.88</ele>
        <time>2015-06-29T09:07:57Z</time>
      </trkpt>
      <trkpt lat="46.69983" lon="6.1906">
        <ele>950.88</ele>
        <time>2015-06-29T09:08:11Z</time>
      </trkpt>
      <trkpt lat="46.69977" lon="6.19045">
        <ele>951.36</ele>
        <time>2015-06-29T09:08:14Z</time>
      </trkpt>
      <trkpt lat="46.69974" lon="6.1904">
        <ele>951.36</ele>
        <time>2015-06-29T09:08:15Z</time>
      </trkpt>
      <trkpt lat="46.69943" lon="6.18968">
        <ele>952.32</ele>
        <time>2015-06-29T09:08:30Z</time>
      </trkpt>
      <trkpt lat="46.69925" lon="6.18936">
        <ele>952.8</ele>
        <time>2015-06-29T09:08:37Z</time>
      </trkpt>
      <trkpt lat="46.69922" lon="6.18933">
        <ele>953.28</ele>
        <time>2015-06-29T09:08:38Z</time>
      </trkpt>
      <trkpt lat="46.69882" lon="6.18893">
        <ele>955.21</ele>
        <time>2015-06-29T09:08:53Z</time>
      </trkpt>
      <trkpt lat="46.69844" lon="6.1886">
        <ele>955.21</ele>
        <time>2015-06-29T09:09:06Z</time>
      </trkpt>
      <trkpt lat="46.6981" lon="6.1882">
        <ele>955.69</ele>
        <time>2015-06-29T09:09:18Z</time>
      </trkpt>
      <trkpt lat="46.69766" lon="6.1877">
        <ele>956.17</ele>
        <time>2015-06-29T09:09:33Z</time>
      </trkpt>
      <trkpt lat="46.69763" lon="6.18767">
        <ele>956.65</ele>
        <time>2015-06-29T09:09:34Z</time>
      </trkpt>
      <trkpt lat="46.69759" lon="6.18762">
        <ele>956.65</ele>
        <time>2015-06-29T09:09:35Z</time>
      </trkpt>
      <trkpt lat="46.69756" lon="6.18758">
        <ele>956.17</ele>
        <time>2015-06-29T09:09:36Z</time>
      </trkpt>
      <trkpt lat="46.6974" lon="6.18728">
        <ele>956.17</ele>
        <time>2015-06-29T09:09:42Z</time>
      </trkpt>
      <trkpt lat="46.6972" lon="6.18691">
        <ele>956.17</ele>
        <time>2015-06-29T09:09:50Z</time>
      </trkpt>
      <trkpt lat="46.69682" lon="6.18644">
        <ele>958.09</ele>
        <time>2015-06-29T09:10:03Z</time>
      </trkpt>
      <trkpt lat="46.69647" lon="6.18611">
        <ele>958.57</ele>
        <time>2015-06-29T09:10:16Z</time>
      </trkpt>
      <trkpt lat="46.69596" lon="6.18586">
        <ele>957.61</ele>
        <time>2015-06-29T09:10:29Z</time>
      </trkpt>
      <trkpt lat="46.69548" lon="6.18569">
        <ele>959.05</ele>
        <time>2015-06-29T09:10:43Z</time>
      </trkpt>
      <trkpt lat="46.69508" lon="6.1854">
        <ele>959.05</ele>
        <time>2015-06-29T09:10:56Z</time>
      </trkpt>
      <trkpt lat="46.69472" lon="6.18521">
        <ele>958.57</ele>
        <time>2015-06-29T09:11:07Z</time>
      </trkpt>
      <trkpt lat="46.69463" lon="6.18511">
        <ele>959.05</ele>
        <time>2015-06-29T09:11:10Z</time>
      </trkpt>
      <trkpt lat="46.69462" lon="6.18506">
        <ele>958.57</ele>
        <time>2015-06-29T09:11:11Z</time>
      </trkpt>
      <trkpt lat="46.69462" lon="6.18502">
        <ele>959.05</ele>
        <time>2015-06-29T09:11:12Z</time>
      </trkpt>
      <trkpt lat="46.69465" lon="6.18474">
        <ele>958.57</ele>
        <time>2015-06-29T09:11:19Z</time>
      </trkpt>
      <trkpt lat="46.69467" lon="6.1847">
        <ele>959.05</ele>
        <time>2015-06-29T09:11:20Z</time>
      </trkpt>
      <trkpt lat="46.69469" lon="6.18467">
        <ele>958.57</ele>
        <time>2015-06-29T09:11:21Z</time>
      </trkpt>
      <trkpt lat="46.69472" lon="6.18464">
        <ele>958.57</ele>
        <time>2015-06-29T09:11:22Z</time>
      </trkpt>
      <trkpt lat="46.69474" lon="6.18463">
        <ele>958.57</ele>
        <time>2015-06-29T09:11:23Z</time>
      </trkpt>
      <trkpt lat="46.69475" lon="6.18463">
        <ele>958.57</ele>
        <time>2015-06-29T09:11:24Z</time>
      </trkpt>
      <trkpt lat="46.69477" lon="6.18463">
        <ele>958.57</ele>
        <time>2015-06-29T09:11:25Z</time>
      </trkpt>
      <trkpt lat="46.69479" lon="6.18462">
        <ele>958.09</ele>
        <time>2015-06-29T09:11:26Z</time>
      </trkpt>
      <trkpt lat="46.69481" lon="6.18462">
        <ele>958.57</ele>
        <time>2015-06-29T09:11:27Z</time>
      </trkpt>
      <trkpt lat="46.69483" lon="6.1846">
        <ele>958.09</ele>
        <time>2015-06-29T09:11:28Z</time>
      </trkpt>
      <trkpt lat="46.69485" lon="6.18458">
        <ele>958.57</ele>
        <time>2015-06-29T09:11:29Z</time>
      </trkpt>
      <trkpt lat="46.69505" lon="6.18441">
        <ele>959.53</ele>
        <time>2015-06-29T09:11:38Z</time>
      </trkpt>
      <trkpt lat="46.69526" lon="6.18426">
        <ele>960.01</ele>
        <time>2015-06-29T09:11:48Z</time>
      </trkpt>
      <trkpt lat="46.69538" lon="6.18416">
        <ele>961.46</ele>
        <time>2015-06-29T09:11:56Z</time>
      </trkpt>
      <trkpt lat="46.6954" lon="6.18415">
        <ele>961.46</ele>
        <time>2015-06-29T09:11:57Z</time>
      </trkpt>
      <trkpt lat="46.69551" lon="6.18381">
        <ele>961.46</ele>
        <time>2015-06-29T09:12:09Z</time>
      </trkpt>
      <trkpt lat="46.69539" lon="6.18339">
        <ele>962.42</ele>
        <time>2015-06-29T09:12:20Z</time>
      </trkpt>
      <trkpt lat="46.6952" lon="6.18295">
        <ele>963.86</ele>
        <time>2015-06-29T09:12:33Z</time>
      </trkpt>
      <trkpt lat="46.69526" lon="6.18264">
        <ele>964.34</ele>
        <time>2015-06-29T09:12:38Z</time>
      </trkpt>
      <trkpt lat="46.69529" lon="6.18257">
        <ele>963.86</ele>
        <time>2015-06-29T09:12:39Z</time>
      </trkpt>
      <trkpt lat="46.69531" lon="6.18251">
        <ele>964.34</ele>
        <time>2015-06-29T09:12:40Z</time>
      </trkpt>
      <trkpt lat="46.69532" lon="6.18245">
        <ele>963.86</ele>
        <time>2015-06-29T09:12:41Z</time>
      </trkpt>
      <trkpt lat="46.69532" lon="6.18241">
        <ele>963.38</ele>
        <time>2015-06-29T09:12:42Z</time>
      </trkpt>
      <trkpt lat="46.69533" lon="6.18236">
        <ele>963.86</ele>
        <time>2015-06-29T09:12:43Z</time>
      </trkpt>
      <trkpt lat="46.69533" lon="6.18233">
        <ele>963.86</ele>
        <time>2015-06-29T09:12:44Z</time>
      </trkpt>
      <trkpt lat="46.69535" lon="6.18228">
        <ele>963.86</ele>
        <time>2015-06-29T09:12:45Z</time>
      </trkpt>
      <trkpt lat="46.69536" lon="6.18196">
        <ele>964.34</ele>
        <time>2015-06-29T09:12:52Z</time>
      </trkpt>
      <trkpt lat="46.69524" lon="6.18148">
        <ele>964.34</ele>
        <time>2015-06-29T09:13:04Z</time>
      </trkpt>
      <trkpt lat="46.69513" lon="6.18119">
        <ele>963.86</ele>
        <time>2015-06-29T09:13:10Z</time>
      </trkpt>
      <trkpt lat="46.69489" lon="6.18098">
        <ele>964.82</ele>
        <time>2015-06-29T09:13:21Z</time>
      </trkpt>
      <trkpt lat="46.69471" lon="6.18082">
        <ele>966.74</ele>
        <time>2015-06-29T09:13:33Z</time>
      </trkpt>
      <trkpt lat="46.69459" lon="6.18076">
        <ele>968.18</ele>
        <time>2015-06-29T09:13:41Z</time>
      </trkpt>
      <trkpt lat="46.69444" lon="6.18075">
        <ele>969.63</ele>
        <time>2015-06-29T09:13:49Z</time>
      </trkpt>
      <trkpt lat="46.69436" lon="6.18072">
        <ele>970.59</ele>
        <time>2015-06-29T09:13:55Z</time>
      </trkpt>
      <trkpt lat="46.69435" lon="6.18071">
        <ele>970.59</ele>
        <time>2015-06-29T09:13:56Z</time>
      </trkpt>
      <trkpt lat="46.69434" lon="6.1807">
        <ele>970.59</ele>
        <time>2015-06-29T09:13:57Z</time>
      </trkpt>
      <trkpt lat="46.69432" lon="6.18069">
        <ele>970.59</ele>
        <time>2015-06-29T09:13:58Z</time>
      </trkpt>
      <trkpt lat="46.69431" lon="6.18068">
        <ele>971.07</ele>
        <time>2015-06-29T09:13:59Z</time>
      </trkpt>
      <trkpt lat="46.69429" lon="6.18068">
        <ele>970.59</ele>
        <time>2015-06-29T09:14:00Z</time>
      </trkpt>
      <trkpt lat="46.69427" lon="6.18067">
        <ele>971.55</ele>
        <time>2015-06-29T09:14:01Z</time>
      </trkpt>
      <trkpt lat="46.69421" lon="6.18064">
        <ele>972.03</ele>
        <time>2015-06-29T09:14:07Z</time>
      </trkpt>
      <trkpt lat="46.69418" lon="6.18063">
        <ele>972.99</ele>
        <time>2015-06-29T09:14:09Z</time>
      </trkpt>
      <trkpt lat="46.69417" lon="6.18062">
        <ele>972.99</ele>
        <time>2015-06-29T09:14:10Z</time>
      </trkpt>
      <trkpt lat="46.69416" lon="6.18062">
        <ele>972.99</ele>
        <time>2015-06-29T09:14:11Z</time>
      </trkpt>
      <trkpt lat="46.69415" lon="6.18061">
        <ele>972.99</ele>
        <time>2015-06-29T09:14:12Z</time>
      </trkpt>
      <trkpt lat="46.69413" lon="6.1806">
        <ele>972.99</ele>
        <time>2015-06-29T09:14:13Z</time>
      </trkpt>
      <trkpt lat="46.69412" lon="6.18059">
        <ele>973.47</ele>
        <time>2015-06-29T09:14:14Z</time>
      </trkpt>
      <trkpt lat="46.694" lon="6.18053">
        <ele>976.36</ele>
        <time>2015-06-29T09:14:21Z</time>
      </trkpt>
      <trkpt lat="46.69399" lon="6.18052">
        <ele>976.36</ele>
        <time>2015-06-29T09:14:22Z</time>
      </trkpt>
      <trkpt lat="46.69394" lon="6.18049">
        <ele>977.8</ele>
        <time>2015-06-29T09:14:25Z</time>
      </trkpt>
      <trkpt lat="46.69393" lon="6.18048">
        <ele>977.8</ele>
        <time>2015-06-29T09:14:26Z</time>
      </trkpt>
      <trkpt lat="46.69392" lon="6.18046">
        <ele>977.32</ele>
        <time>2015-06-29T09:14:27Z</time>
      </trkpt>
      <trkpt lat="46.69391" lon="6.18044">
        <ele>977.8</ele>
        <time>2015-06-29T09:14:28Z</time>
      </trkpt>
      <trkpt lat="46.69389" lon="6.18043">
        <ele>977.8</ele>
        <time>2015-06-29T09:14:29Z</time>
      </trkpt>
      <trkpt lat="46.69387" lon="6.18042">
        <ele>977.8</ele>
        <time>2015-06-29T09:14:30Z</time>
      </trkpt>
      <trkpt lat="46.69386" lon="6.1804">
        <ele>977.8</ele>
        <time>2015-06-29T09:14:31Z</time>
      </trkpt>
      <trkpt lat="46.69367" lon="6.18015">
        <ele>978.76</ele>
        <time>2015-06-29T09:14:44Z</time>
      </trkpt>
      <trkpt lat="46.69341" lon="6.17991">
        <ele>979.24</ele>
        <time>2015-06-29T09:14:57Z</time>
      </trkpt>
      <trkpt lat="46.69312" lon="6.17947">
        <ele>978.28</ele>
        <time>2015-06-29T09:15:10Z</time>
      </trkpt>
      <trkpt lat="46.69286" lon="6.17916">
        <ele>979.72</ele>
        <time>2015-06-29T09:15:23Z</time>
      </trkpt>
      <trkpt lat="46.69271" lon="6.17899">
        <ele>980.68</ele>
        <time>2015-06-29T09:15:30Z</time>
      </trkpt>
      <trkpt lat="46.69268" lon="6.17897">
        <ele>980.68</ele>
        <time>2015-06-29T09:15:31Z</time>
      </trkpt>
      <trkpt lat="46.69266" lon="6.17895">
        <ele>981.16</ele>
        <time>2015-06-29T09:15:32Z</time>
      </trkpt>
      <trkpt lat="46.69264" lon="6.17892">
        <ele>981.16</ele>
        <time>2015-06-29T09:15:33Z</time>
      </trkpt>
      <trkpt lat="46.69263" lon="6.1789">
        <ele>981.16</ele>
        <time>2015-06-29T09:15:34Z</time>
      </trkpt>
      <trkpt lat="46.69262" lon="6.17888">
        <ele>981.16</ele>
        <time>2015-06-29T09:15:35Z</time>
      </trkpt>
      <trkpt lat="46.69261" lon="6.17885">
        <ele>981.64</ele>
        <time>2015-06-29T09:15:36Z</time>
      </trkpt>
      <trkpt lat="46.6926" lon="6.17883">
        <ele>981.64</ele>
        <time>2015-06-29T09:15:37Z</time>
      </trkpt>
      <trkpt lat="46.6926" lon="6.17881">
        <ele>981.16</ele>
        <time>2015-06-29T09:15:38Z</time>
      </trkpt>
      <trkpt lat="46.6926" lon="6.17872">
        <ele>980.68</ele>
        <time>2015-06-29T09:15:44Z</time>
      </trkpt>
      <trkpt lat="46.6926" lon="6.17871">
        <ele>981.16</ele>
        <time>2015-06-29T09:15:45Z</time>
      </trkpt>
      <trkpt lat="46.69258" lon="6.17867">
        <ele>981.16</ele>
        <time>2015-06-29T09:16:03Z</time>
      </trkpt>
      <trkpt lat="46.69258" lon="6.17867">
        <ele>980.68</ele>
        <time>2015-06-29T09:16:17Z</time>
      </trkpt>
      <trkpt lat="46.69259" lon="6.17865">
        <ele>980.68</ele>
        <time>2015-06-29T09:16:39Z</time>
      </trkpt>
      <trkpt lat="46.69258" lon="6.17866">
        <ele>980.2</ele>
        <time>2015-06-29T09:17:07Z</time>
      </trkpt>
      <trkpt lat="46.69258" lon="6.17866">
        <ele>980.2</ele>
        <time>2015-06-29T09:17:34Z</time>
      </trkpt>
      <trkpt lat="46.69259" lon="6.17864">
        <ele>979.72</ele>
        <time>2015-06-29T09:18:04Z</time>
      </trkpt>
      <trkpt lat="46.69258" lon="6.17864">
        <ele>980.2</ele>
        <time>2015-06-29T09:18:34Z</time>
      </trkpt>
      <trkpt lat="46.69259" lon="6.17853">
        <ele>979.72</ele>
        <time>2015-06-29T09:18:44Z</time>
      </trkpt>
      <trkpt lat="46.69261" lon="6.17849">
        <ele>979.24</ele>
        <time>2015-06-29T09:18:45Z</time>
      </trkpt>
      <trkpt lat="46.69263" lon="6.17846">
        <ele>979.72</ele>
        <time>2015-06-29T09:18:46Z</time>
      </trkpt>
      <trkpt lat="46.69266" lon="6.17844">
        <ele>979.24</ele>
        <time>2015-06-29T09:18:47Z</time>
      </trkpt>
      <trkpt lat="46.69269" lon="6.17842">
        <ele>979.24</ele>
        <time>2015-06-29T09:18:48Z</time>
      </trkpt>
      <trkpt lat="46.69271" lon="6.1784">
        <ele>979.24</ele>
        <time>2015-06-29T09:18:49Z</time>
      </trkpt>
      <trkpt lat="46.69284" lon="6.17833">
        <ele>980.2</ele>
        <time>2015-06-29T09:18:55Z</time>
      </trkpt>
      <trkpt lat="46.69288" lon="6.17832">
        <ele>980.2</ele>
        <time>2015-06-29T09:18:56Z</time>
      </trkpt>
      <trkpt lat="46.6929" lon="6.17831">
        <ele>980.2</ele>
        <time>2015-06-29T09:18:57Z</time>
      </trkpt>
      <trkpt lat="46.69306" lon="6.17805">
        <ele>980.68</ele>
        <time>2015-06-29T09:19:06Z</time>
      </trkpt>
      <trkpt lat="46.69307" lon="6.17801">
        <ele>980.68</ele>
        <time>2015-06-29T09:19:07Z</time>
      </trkpt>
      <trkpt lat="46.69306" lon="6.17798">
        <ele>981.16</ele>
        <time>2015-06-29T09:19:08Z</time>
      </trkpt>
      <trkpt lat="46.69291" lon="6.1775">
        <ele>983.57</ele>
        <time>2015-06-29T09:19:23Z</time>
      </trkpt>
      <trkpt lat="46.69293" lon="6.17745">
        <ele>984.53</ele>
        <time>2015-06-29T09:19:27Z</time>
      </trkpt>
      <trkpt lat="46.69299" lon="6.17748">
        <ele>983.57</ele>
        <time>2015-06-29T09:19:30Z</time>
      </trkpt>
      <trkpt lat="46.69304" lon="6.17745">
        <ele>983.09</ele>
        <time>2015-06-29T09:19:33Z</time>
      </trkpt>
      <trkpt lat="46.69306" lon="6.17746">
        <ele>983.57</ele>
        <time>2015-06-29T09:19:34Z</time>
      </trkpt>
      <trkpt lat="46.69307" lon="6.17749">
        <ele>983.09</ele>
        <time>2015-06-29T09:19:35Z</time>
      </trkpt>
      <trkpt lat="46.69359" lon="6.17736">
        <ele>985.49</ele>
        <time>2015-06-29T09:19:46Z</time>
      </trkpt>
      <trkpt lat="46.69383" lon="6.17739">
        <ele>986.45</ele>
        <time>2015-06-29T09:19:54Z</time>
      </trkpt>
      <trkpt lat="46.69389" lon="6.17739">
        <ele>986.45</ele>
        <time>2015-06-29T09:19:55Z</time>
      </trkpt>
      <trkpt lat="46.69445" lon="6.17722">
        <ele>986.45</ele>
        <time>2015-06-29T09:20:06Z</time>
      </trkpt>
      <trkpt lat="46.6945" lon="6.17722">
        <ele>986.45</ele>
        <time>2015-06-29T09:20:07Z</time>
      </trkpt>
      <trkpt lat="46.69455" lon="6.1772">
        <ele>985.97</ele>
        <time>2015-06-29T09:20:08Z</time>
      </trkpt>
      <trkpt lat="46.6946" lon="6.17717">
        <ele>985.97</ele>
        <time>2015-06-29T09:20:09Z</time>
      </trkpt>
      <trkpt lat="46.69464" lon="6.17714">
        <ele>985.49</ele>
        <time>2015-06-29T09:20:10Z</time>
      </trkpt>
      <trkpt lat="46.69468" lon="6.17709">
        <ele>985.97</ele>
        <time>2015-06-29T09:20:11Z</time>
      </trkpt>
      <trkpt lat="46.69472" lon="6.17703">
        <ele>985.97</ele>
        <time>2015-06-29T09:20:12Z</time>
      </trkpt>
      <trkpt lat="46.69475" lon="6.17697">
        <ele>985.49</ele>
        <time>2015-06-29T09:20:13Z</time>
      </trkpt>
      <trkpt lat="46.69478" lon="6.1769">
        <ele>985.49</ele>
        <time>2015-06-29T09:20:14Z</time>
      </trkpt>
      <trkpt lat="46.6948" lon="6.17683">
        <ele>985.49</ele>
        <time>2015-06-29T09:20:15Z</time>
      </trkpt>
      <trkpt lat="46.69482" lon="6.17676">
        <ele>985.49</ele>
        <time>2015-06-29T09:20:16Z</time>
      </trkpt>
      <trkpt lat="46.69483" lon="6.17669">
        <ele>985.49</ele>
        <time>2015-06-29T09:20:17Z</time>
      </trkpt>
      <trkpt lat="46.69483" lon="6.17662">
        <ele>985.49</ele>
        <time>2015-06-29T09:20:18Z</time>
      </trkpt>
      <trkpt lat="46.69483" lon="6.17656">
        <ele>984.53</ele>
        <time>2015-06-29T09:20:19Z</time>
      </trkpt>
      <trkpt lat="46.69482" lon="6.17649">
        <ele>985.49</ele>
        <time>2015-06-29T09:20:20Z</time>
      </trkpt>
      <trkpt lat="46.69482" lon="6.17641">
        <ele>984.53</ele>
        <time>2015-06-29T09:20:21Z</time>
      </trkpt>
      <trkpt lat="46.69479" lon="6.17609">
        <ele>988.37</ele>
        <time>2015-06-29T09:20:25Z</time>
      </trkpt>
      <trkpt lat="46.69478" lon="6.17601">
        <ele>983.57</ele>
        <time>2015-06-29T09:20:26Z</time>
      </trkpt>
      <trkpt lat="46.69476" lon="6.17593">
        <ele>983.57</ele>
        <time>2015-06-29T09:20:27Z</time>
      </trkpt>
      <trkpt lat="46.69473" lon="6.17586">
        <ele>983.57</ele>
        <time>2015-06-29T09:20:28Z</time>
      </trkpt>
      <trkpt lat="46.69458" lon="6.17553">
        <ele>983.57</ele>
        <time>2015-06-29T09:20:33Z</time>
      </trkpt>
      <trkpt lat="46.69436" lon="6.17475">
        <ele>983.57</ele>
        <time>2015-06-29T09:20:46Z</time>
      </trkpt>
      <trkpt lat="46.69422" lon="6.17437">
        <ele>984.05</ele>
        <time>2015-06-29T09:20:59Z</time>
      </trkpt>
      <trkpt lat="46.69415" lon="6.17425">
        <ele>984.53</ele>
        <time>2015-06-29T09:21:06Z</time>
      </trkpt>
      <trkpt lat="46.69415" lon="6.17424">
        <ele>984.53</ele>
        <time>2015-06-29T09:21:07Z</time>
      </trkpt>
      <trkpt lat="46.69414" lon="6.17422">
        <ele>985.01</ele>
        <time>2015-06-29T09:21:08Z</time>
      </trkpt>
      <trkpt lat="46.69412" lon="6.1742">
        <ele>987.41</ele>
        <time>2015-06-29T09:21:18Z</time>
      </trkpt>
      <trkpt lat="46.69412" lon="6.1742">
        <ele>985.01</ele>
        <time>2015-06-29T09:21:20Z</time>
      </trkpt>
      <trkpt lat="46.69412" lon="6.17419">
        <ele>977.32</ele>
        <time>2015-06-29T09:21:24Z</time>
      </trkpt>
      <trkpt lat="46.69412" lon="6.17419">
        <ele>985.01</ele>
        <time>2015-06-29T09:21:25Z</time>
      </trkpt>
      <trkpt lat="46.69412" lon="6.17419">
        <ele>992.22</ele>
        <time>2015-06-29T09:21:26Z</time>
      </trkpt>
      <trkpt lat="46.69412" lon="6.17419">
        <ele>979.72</ele>
        <time>2015-06-29T09:21:27Z</time>
      </trkpt>
      <trkpt lat="46.69412" lon="6.17419">
        <ele>985.49</ele>
        <time>2015-06-29T09:21:28Z</time>
      </trkpt>
      <trkpt lat="46.69412" lon="6.17419">
        <ele>976.36</ele>
        <time>2015-06-29T09:21:30Z</time>
      </trkpt>
      <trkpt lat="46.69412" lon="6.17419">
        <ele>986.45</ele>
        <time>2015-06-29T09:21:31Z</time>
      </trkpt>
      <trkpt lat="46.69412" lon="6.1742">
        <ele>991.26</ele>
        <time>2015-06-29T09:21:33Z</time>
      </trkpt>
      <trkpt lat="46.69412" lon="6.1742">
        <ele>985.01</ele>
        <time>2015-06-29T09:21:34Z</time>
      </trkpt>
      <trkpt lat="46.69412" lon="6.17419">
        <ele>993.18</ele>
        <time>2015-06-29T09:21:43Z</time>
      </trkpt>
      <trkpt lat="46.69412" lon="6.17419">
        <ele>987.89</ele>
        <time>2015-06-29T09:21:44Z</time>
      </trkpt>
      <trkpt lat="46.69412" lon="6.17419">
        <ele>979.24</ele>
        <time>2015-06-29T09:21:45Z</time>
      </trkpt>
      <trkpt lat="46.69412" lon="6.17419">
        <ele>989.81</ele>
        <time>2015-06-29T09:21:46Z</time>
      </trkpt>
      <trkpt lat="46.69412" lon="6.17419">
        <ele>984.53</ele>
        <time>2015-06-29T09:21:47Z</time>
      </trkpt>
      <trkpt lat="46.69412" lon="6.17419">
        <ele>990.3</ele>
        <time>2015-06-29T09:21:48Z</time>
      </trkpt>
      <trkpt lat="46.69412" lon="6.17419">
        <ele>976.36</ele>
        <time>2015-06-29T09:21:49Z</time>
      </trkpt>
      <trkpt lat="46.69412" lon="6.17419">
        <ele>986.45</ele>
        <time>2015-06-29T09:21:50Z</time>
      </trkpt>
      <trkpt lat="46.69412" lon="6.17419">
        <ele>982.12</ele>
        <time>2015-06-29T09:21:53Z</time>
      </trkpt>
      <trkpt lat="46.69412" lon="6.17419">
        <ele>985.97</ele>
        <time>2015-06-29T09:21:55Z</time>
      </trkpt>
      <trkpt lat="46.69412" lon="6.17419">
        <ele>982.6</ele>
        <time>2015-06-29T09:22:01Z</time>
      </trkpt>
      <trkpt lat="46.69412" lon="6.17419">
        <ele>978.76</ele>
        <time>2015-06-29T09:22:03Z</time>
      </trkpt>
      <trkpt lat="46.69412" lon="6.17419">
        <ele>985.97</ele>
        <time>2015-06-29T09:22:04Z</time>
      </trkpt>
      <trkpt lat="46.69412" lon="6.17418">
        <ele>984.53</ele>
        <time>2015-06-29T09:22:27Z</time>
      </trkpt>
      <trkpt lat="46.69414" lon="6.17417">
        <ele>985.01</ele>
        <time>2015-06-29T09:22:56Z</time>
      </trkpt>
      <trkpt lat="46.69414" lon="6.17416">
        <ele>976.36</ele>
        <time>2015-06-29T09:23:05Z</time>
      </trkpt>
      <trkpt lat="46.69414" lon="6.17416">
        <ele>985.97</ele>
        <time>2015-06-29T09:23:06Z</time>
      </trkpt>
      <trkpt lat="46.69414" lon="6.17416">
        <ele>985.01</ele>
        <time>2015-06-29T09:23:33Z</time>
      </trkpt>
      <trkpt lat="46.69414" lon="6.17416">
        <ele>985.01</ele>
        <time>2015-06-29T09:23:58Z</time>
      </trkpt>
      <trkpt lat="46.69414" lon="6.17416">
        <ele>985.01</ele>
        <time>2015-06-29T09:24:28Z</time>
      </trkpt>
      <trkpt lat="46.69414" lon="6.17415">
        <ele>985.01</ele>
        <time>2015-06-29T09:24:59Z</time>
      </trkpt>
      <trkpt lat="46.69414" lon="6.17415">
        <ele>985.01</ele>
        <time>2015-06-29T09:25:28Z</time>
      </trkpt>
      <trkpt lat="46.69415" lon="6.17417">
        <ele>985.01</ele>
        <time>2015-06-29T09:26:00Z</time>
      </trkpt>
      <trkpt lat="46.69408" lon="6.17409">
        <ele>985.49</ele>
        <time>2015-06-29T09:26:21Z</time>
      </trkpt>
      <trkpt lat="46.69392" lon="6.17396">
        <ele>988.85</ele>
        <time>2015-06-29T09:26:35Z</time>
      </trkpt>
      <trkpt lat="46.69377" lon="6.17387">
        <ele>990.3</ele>
        <time>2015-06-29T09:26:46Z</time>
      </trkpt>
      <trkpt lat="46.69375" lon="6.17386">
        <ele>990.3</ele>
        <time>2015-06-29T09:26:47Z</time>
      </trkpt>
      <trkpt lat="46.69374" lon="6.17384">
        <ele>991.26</ele>
        <time>2015-06-29T09:26:48Z</time>
      </trkpt>
      <trkpt lat="46.69356" lon="6.17376">
        <ele>993.18</ele>
        <time>2015-06-29T09:27:02Z</time>
      </trkpt>
      <trkpt lat="46.6935" lon="6.17372">
        <ele>994.62</ele>
        <time>2015-06-29T09:27:08Z</time>
      </trkpt>
      <trkpt lat="46.69342" lon="6.17363">
        <ele>997.02</ele>
        <time>2015-06-29T09:27:21Z</time>
      </trkpt>
      <trkpt lat="46.69325" lon="6.1735">
        <ele>999.43</ele>
        <time>2015-06-29T09:27:36Z</time>
      </trkpt>
      <trkpt lat="46.69322" lon="6.17342">
        <ele>1000.39</ele>
        <time>2015-06-29T09:27:43Z</time>
      </trkpt>
      <trkpt lat="46.69318" lon="6.17333">
        <ele>1001.83</ele>
        <time>2015-06-29T09:27:51Z</time>
      </trkpt>
      <trkpt lat="46.69315" lon="6.17325">
        <ele>1002.79</ele>
        <time>2015-06-29T09:27:58Z</time>
      </trkpt>
      <trkpt lat="46.6931" lon="6.17313">
        <ele>1004.23</ele>
        <time>2015-06-29T09:28:11Z</time>
      </trkpt>
      <trkpt lat="46.69305" lon="6.17304">
        <ele>1006.64</ele>
        <time>2015-06-29T09:28:24Z</time>
      </trkpt>
      <trkpt lat="46.69298" lon="6.173">
        <ele>1006.64</ele>
        <time>2015-06-29T09:28:38Z</time>
      </trkpt>
      <trkpt lat="46.69297" lon="6.17297">
        <ele>1007.6</ele>
        <time>2015-06-29T09:28:40Z</time>
      </trkpt>
      <trkpt lat="46.69296" lon="6.17296">
        <ele>1007.12</ele>
        <time>2015-06-29T09:28:41Z</time>
      </trkpt>
      <trkpt lat="46.69295" lon="6.17294">
        <ele>1007.12</ele>
        <time>2015-06-29T09:28:42Z</time>
      </trkpt>
      <trkpt lat="46.69294" lon="6.17292">
        <ele>1007.12</ele>
        <time>2015-06-29T09:28:43Z</time>
      </trkpt>
      <trkpt lat="46.69293" lon="6.1729">
        <ele>1007.6</ele>
        <time>2015-06-29T09:28:44Z</time>
      </trkpt>
      <trkpt lat="46.69291" lon="6.17289">
        <ele>1008.08</ele>
        <time>2015-06-29T09:28:45Z</time>
      </trkpt>
      <trkpt lat="46.6929" lon="6.17287">
        <ele>1008.08</ele>
        <time>2015-06-29T09:28:46Z</time>
      </trkpt>
      <trkpt lat="46.69288" lon="6.17285">
        <ele>1007.6</ele>
        <time>2015-06-29T09:28:47Z</time>
      </trkpt>
      <trkpt lat="46.69287" lon="6.17284">
        <ele>1008.08</ele>
        <time>2015-06-29T09:28:48Z</time>
      </trkpt>
      <trkpt lat="46.69286" lon="6.17282">
        <ele>1008.08</ele>
        <time>2015-06-29T09:28:49Z</time>
      </trkpt>
      <trkpt lat="46.69285" lon="6.1728">
        <ele>1008.56</ele>
        <time>2015-06-29T09:28:50Z</time>
      </trkpt>
      <trkpt lat="46.69284" lon="6.17278">
        <ele>1008.56</ele>
        <time>2015-06-29T09:28:51Z</time>
      </trkpt>
      <trkpt lat="46.69282" lon="6.17276">
        <ele>1008.08</ele>
        <time>2015-06-29T09:28:52Z</time>
      </trkpt>
      <trkpt lat="46.69281" lon="6.17274">
        <ele>1008.56</ele>
        <time>2015-06-29T09:28:53Z</time>
      </trkpt>
      <trkpt lat="46.69279" lon="6.17272">
        <ele>1008.56</ele>
        <time>2015-06-29T09:28:54Z</time>
      </trkpt>
      <trkpt lat="46.69277" lon="6.1727">
        <ele>1008.56</ele>
        <time>2015-06-29T09:28:55Z</time>
      </trkpt>
      <trkpt lat="46.69258" lon="6.17238">
        <ele>1010.96</ele>
        <time>2015-06-29T09:29:10Z</time>
      </trkpt>
      <trkpt lat="46.69239" lon="6.17208">
        <ele>1012.41</ele>
        <time>2015-06-29T09:29:21Z</time>
      </trkpt>
      <trkpt lat="46.69223" lon="6.17161">
        <ele>1010</ele>
        <time>2015-06-29T09:29:28Z</time>
      </trkpt>
      <trkpt lat="46.69214" lon="6.17138">
        <ele>1009.52</ele>
        <time>2015-06-29T09:29:31Z</time>
      </trkpt>
      <trkpt lat="46.6921" lon="6.17132">
        <ele>1010</ele>
        <time>2015-06-29T09:29:32Z</time>
      </trkpt>
      <trkpt lat="46.69207" lon="6.17127">
        <ele>1010</ele>
        <time>2015-06-29T09:29:33Z</time>
      </trkpt>
      <trkpt lat="46.69195" lon="6.17101">
        <ele>1010.48</ele>
        <time>2015-06-29T09:29:38Z</time>
      </trkpt>
      <trkpt lat="46.69157" lon="6.17031">
        <ele>1007.12</ele>
        <time>2015-06-29T09:29:48Z</time>
      </trkpt>
      <trkpt lat="46.69104" lon="6.16958">
        <ele>1008.08</ele>
        <time>2015-06-29T09:29:59Z</time>
      </trkpt>
      <trkpt lat="46.69075" lon="6.16926">
        <ele>1011.44</ele>
        <time>2015-06-29T09:30:07Z</time>
      </trkpt>
      <trkpt lat="46.69057" lon="6.16894">
        <ele>1012.41</ele>
        <time>2015-06-29T09:30:18Z</time>
      </trkpt>
      <trkpt lat="46.69043" lon="6.16874">
        <ele>1013.85</ele>
        <time>2015-06-29T09:30:27Z</time>
      </trkpt>
      <trkpt lat="46.69027" lon="6.16863">
        <ele>1016.25</ele>
        <time>2015-06-29T09:30:39Z</time>
      </trkpt>
      <trkpt lat="46.69019" lon="6.16861">
        <ele>1017.21</ele>
        <time>2015-06-29T09:30:43Z</time>
      </trkpt>
      <trkpt lat="46.69017" lon="6.16861">
        <ele>1017.69</ele>
        <time>2015-06-29T09:30:44Z</time>
      </trkpt>
      <trkpt lat="46.69015" lon="6.16859">
        <ele>1017.21</ele>
        <time>2015-06-29T09:30:45Z</time>
      </trkpt>
      <trkpt lat="46.69" lon="6.16849">
        <ele>1019.13</ele>
        <time>2015-06-29T09:30:55Z</time>
      </trkpt>
      <trkpt lat="46.68993" lon="6.16843">
        <ele>1019.62</ele>
        <time>2015-06-29T09:31:00Z</time>
      </trkpt>
      <trkpt lat="46.68973" lon="6.16822">
        <ele>1022.5</ele>
        <time>2015-06-29T09:31:13Z</time>
      </trkpt>
      <trkpt lat="46.68973" lon="6.16817">
        <ele>1022.5</ele>
        <time>2015-06-29T09:31:16Z</time>
      </trkpt>
      <trkpt lat="46.68964" lon="6.1678">
        <ele>1020.58</ele>
        <time>2015-06-29T09:31:26Z</time>
      </trkpt>
      <trkpt lat="46.68963" lon="6.16773">
        <ele>1020.1</ele>
        <time>2015-06-29T09:31:27Z</time>
      </trkpt>
      <trkpt lat="46.68962" lon="6.16765">
        <ele>1020.1</ele>
        <time>2015-06-29T09:31:28Z</time>
      </trkpt>
      <trkpt lat="46.6896" lon="6.16758">
        <ele>1020.1</ele>
        <time>2015-06-29T09:31:29Z</time>
      </trkpt>
      <trkpt lat="46.68958" lon="6.16751">
        <ele>1020.1</ele>
        <time>2015-06-29T09:31:30Z</time>
      </trkpt>
      <trkpt lat="46.68955" lon="6.16745">
        <ele>1020.1</ele>
        <time>2015-06-29T09:31:31Z</time>
      </trkpt>
      <trkpt lat="46.68952" lon="6.1674">
        <ele>1020.1</ele>
        <time>2015-06-29T09:31:32Z</time>
      </trkpt>
      <trkpt lat="46.6895" lon="6.16736">
        <ele>1020.1</ele>
        <time>2015-06-29T09:31:33Z</time>
      </trkpt>
      <trkpt lat="46.68948" lon="6.16732">
        <ele>1020.58</ele>
        <time>2015-06-29T09:31:34Z</time>
      </trkpt>
      <trkpt lat="46.68946" lon="6.16728">
        <ele>1020.58</ele>
        <time>2015-06-29T09:31:35Z</time>
      </trkpt>
      <trkpt lat="46.68944" lon="6.16725">
        <ele>1021.06</ele>
        <time>2015-06-29T09:31:36Z</time>
      </trkpt>
      <trkpt lat="46.68943" lon="6.16722">
        <ele>1021.06</ele>
        <time>2015-06-29T09:31:37Z</time>
      </trkpt>
      <trkpt lat="46.68943" lon="6.16717">
        <ele>1021.06</ele>
        <time>2015-06-29T09:31:38Z</time>
      </trkpt>
      <trkpt lat="46.68943" lon="6.16713">
        <ele>1021.06</ele>
        <time>2015-06-29T09:31:39Z</time>
      </trkpt>
      <trkpt lat="46.6893" lon="6.16675">
        <ele>1022.02</ele>
        <time>2015-06-29T09:31:51Z</time>
      </trkpt>
      <trkpt lat="46.68924" lon="6.16645">
        <ele>1019.62</ele>
        <time>2015-06-29T09:31:59Z</time>
      </trkpt>
      <trkpt lat="46.68923" lon="6.16639">
        <ele>1019.13</ele>
        <time>2015-06-29T09:32:00Z</time>
      </trkpt>
      <trkpt lat="46.68922" lon="6.16632">
        <ele>1018.65</ele>
        <time>2015-06-29T09:32:01Z</time>
      </trkpt>
      <trkpt lat="46.68917" lon="6.16604">
        <ele>1016.73</ele>
        <time>2015-06-29T09:32:06Z</time>
      </trkpt>
      <trkpt lat="46.6891" lon="6.16569">
        <ele>1013.37</ele>
        <time>2015-06-29T09:32:15Z</time>
      </trkpt>
      <trkpt lat="46.68905" lon="6.16549">
        <ele>1012.41</ele>
        <time>2015-06-29T09:32:21Z</time>
      </trkpt>
      <trkpt lat="46.68904" lon="6.16547">
        <ele>1012.41</ele>
        <time>2015-06-29T09:32:22Z</time>
      </trkpt>
      <trkpt lat="46.68904" lon="6.16543">
        <ele>1011.93</ele>
        <time>2015-06-29T09:32:23Z</time>
      </trkpt>
      <trkpt lat="46.68902" lon="6.16539">
        <ele>1011.93</ele>
        <time>2015-06-29T09:32:24Z</time>
      </trkpt>
      <trkpt lat="46.68901" lon="6.16536">
        <ele>1010.96</ele>
        <time>2015-06-29T09:32:25Z</time>
      </trkpt>
      <trkpt lat="46.689" lon="6.16532">
        <ele>1010.96</ele>
        <time>2015-06-29T09:32:26Z</time>
      </trkpt>
      <trkpt lat="46.68899" lon="6.16529">
        <ele>1010.96</ele>
        <time>2015-06-29T09:32:27Z</time>
      </trkpt>
      <trkpt lat="46.68898" lon="6.16527">
        <ele>1011.44</ele>
        <time>2015-06-29T09:32:28Z</time>
      </trkpt>
      <trkpt lat="46.68897" lon="6.16525">
        <ele>1010.96</ele>
        <time>2015-06-29T09:32:29Z</time>
      </trkpt>
      <trkpt lat="46.68895" lon="6.16524">
        <ele>1010.96</ele>
        <time>2015-06-29T09:32:30Z</time>
      </trkpt>
      <trkpt lat="46.68894" lon="6.16521">
        <ele>1010.96</ele>
        <time>2015-06-29T09:32:31Z</time>
      </trkpt>
      <trkpt lat="46.68892" lon="6.16517">
        <ele>1010.96</ele>
        <time>2015-06-29T09:32:32Z</time>
      </trkpt>
      <trkpt lat="46.6889" lon="6.16512">
        <ele>1010.96</ele>
        <time>2015-06-29T09:32:33Z</time>
      </trkpt>
      <trkpt lat="46.68888" lon="6.16507">
        <ele>1010.48</ele>
        <time>2015-06-29T09:32:34Z</time>
      </trkpt>
      <trkpt lat="46.68885" lon="6.16501">
        <ele>1010.48</ele>
        <time>2015-06-29T09:32:35Z</time>
      </trkpt>
      <trkpt lat="46.68882" lon="6.16495">
        <ele>1010</ele>
        <time>2015-06-29T09:32:36Z</time>
      </trkpt>
      <trkpt lat="46.68879" lon="6.1649">
        <ele>1010</ele>
        <time>2015-06-29T09:32:37Z</time>
      </trkpt>
      <trkpt lat="46.68876" lon="6.16485">
        <ele>1010</ele>
        <time>2015-06-29T09:32:38Z</time>
      </trkpt>
      <trkpt lat="46.68875" lon="6.16481">
        <ele>1010.48</ele>
        <time>2015-06-29T09:32:39Z</time>
      </trkpt>
      <trkpt lat="46.68873" lon="6.16477">
        <ele>1010.96</ele>
        <time>2015-06-29T09:32:40Z</time>
      </trkpt>
      <trkpt lat="46.68871" lon="6.16473">
        <ele>1010.96</ele>
        <time>2015-06-29T09:32:41Z</time>
      </trkpt>
      <trkpt lat="46.6887" lon="6.16468">
        <ele>1010.96</ele>
        <time>2015-06-29T09:32:42Z</time>
      </trkpt>
      <trkpt lat="46.6886" lon="6.16433">
        <ele>1010</ele>
        <time>2015-06-29T09:32:49Z</time>
      </trkpt>
      <trkpt lat="46.68856" lon="6.16421">
        <ele>1009.04</ele>
        <time>2015-06-29T09:32:51Z</time>
      </trkpt>
      <trkpt lat="46.68854" lon="6.16416">
        <ele>1009.04</ele>
        <time>2015-06-29T09:32:52Z</time>
      </trkpt>
      <trkpt lat="46.68853" lon="6.16411">
        <ele>1008.56</ele>
        <time>2015-06-29T09:32:53Z</time>
      </trkpt>
      <trkpt lat="46.68851" lon="6.16407">
        <ele>1009.04</ele>
        <time>2015-06-29T09:32:54Z</time>
      </trkpt>
      <trkpt lat="46.6885" lon="6.16402">
        <ele>1008.56</ele>
        <time>2015-06-29T09:32:55Z</time>
      </trkpt>
      <trkpt lat="46.68849" lon="6.16397">
        <ele>1008.08</ele>
        <time>2015-06-29T09:32:56Z</time>
      </trkpt>
      <trkpt lat="46.68848" lon="6.16393">
        <ele>1008.08</ele>
        <time>2015-06-29T09:32:57Z</time>
      </trkpt>
      <trkpt lat="46.68846" lon="6.16388">
        <ele>1007.6</ele>
        <time>2015-06-29T09:32:58Z</time>
      </trkpt>
      <trkpt lat="46.68828" lon="6.16343">
        <ele>1005.2</ele>
        <time>2015-06-29T09:33:08Z</time>
      </trkpt>
      <trkpt lat="46.68825" lon="6.16329">
        <ele>999.43</ele>
        <time>2015-06-29T09:33:16Z</time>
      </trkpt>
      <trkpt lat="46.68825" lon="6.16329">
        <ele>1005.2</ele>
        <time>2015-06-29T09:33:17Z</time>
      </trkpt>
      <trkpt lat="46.68825" lon="6.16329">
        <ele>1000.39</ele>
        <time>2015-06-29T09:33:18Z</time>
      </trkpt>
      <trkpt lat="46.68824" lon="6.16329">
        <ele>1009.52</ele>
        <time>2015-06-29T09:33:19Z</time>
      </trkpt>
      <trkpt lat="46.68824" lon="6.16329">
        <ele>1004.23</ele>
        <time>2015-06-29T09:33:20Z</time>
      </trkpt>
      <trkpt lat="46.68822" lon="6.16318">
        <ele>1002.79</ele>
        <time>2015-06-29T09:33:28Z</time>
      </trkpt>
      <trkpt lat="46.68821" lon="6.16312">
        <ele>1002.31</ele>
        <time>2015-06-29T09:33:29Z</time>
      </trkpt>
      <trkpt lat="46.6882" lon="6.16306">
        <ele>1001.35</ele>
        <time>2015-06-29T09:33:30Z</time>
      </trkpt>
      <trkpt lat="46.68819" lon="6.16299">
        <ele>1001.35</ele>
        <time>2015-06-29T09:33:31Z</time>
      </trkpt>
      <trkpt lat="46.68814" lon="6.16278">
        <ele>999.91</ele>
        <time>2015-06-29T09:33:34Z</time>
      </trkpt>
      <trkpt lat="46.68807" lon="6.16256">
        <ele>999.43</ele>
        <time>2015-06-29T09:33:37Z</time>
      </trkpt>
      <trkpt lat="46.68799" lon="6.16235">
        <ele>999.43</ele>
        <time>2015-06-29T09:33:45Z</time>
      </trkpt>
      <trkpt lat="46.68801" lon="6.16223">
        <ele>999.43</ele>
        <time>2015-06-29T09:34:08Z</time>
      </trkpt>
      <trkpt lat="46.688" lon="6.16224">
        <ele>994.62</ele>
        <time>2015-06-29T09:34:22Z</time>
      </trkpt>
      <trkpt lat="46.68801" lon="6.16224">
        <ele>1001.83</ele>
        <time>2015-06-29T09:34:23Z</time>
      </trkpt>
      <trkpt lat="46.68801" lon="6.16223">
        <ele>999.91</ele>
        <time>2015-06-29T09:34:24Z</time>
      </trkpt>
      <trkpt lat="46.68801" lon="6.16223">
        <ele>991.74</ele>
        <time>2015-06-29T09:34:25Z</time>
      </trkpt>
      <trkpt lat="46.688" lon="6.16223">
        <ele>1001.35</ele>
        <time>2015-06-29T09:34:26Z</time>
      </trkpt>
      <trkpt lat="46.688" lon="6.16223">
        <ele>995.58</ele>
        <time>2015-06-29T09:34:28Z</time>
      </trkpt>
      <trkpt lat="46.688" lon="6.16223">
        <ele>1000.87</ele>
        <time>2015-06-29T09:34:29Z</time>
      </trkpt>
      <trkpt lat="46.688" lon="6.16223">
        <ele>996.06</ele>
        <time>2015-06-29T09:34:30Z</time>
      </trkpt>
      <trkpt lat="46.688" lon="6.16223">
        <ele>1004.72</ele>
        <time>2015-06-29T09:34:31Z</time>
      </trkpt>
      <trkpt lat="46.688" lon="6.16223">
        <ele>1000.39</ele>
        <time>2015-06-29T09:34:32Z</time>
      </trkpt>
      <trkpt lat="46.688" lon="6.16223">
        <ele>999.43</ele>
        <time>2015-06-29T09:34:34Z</time>
      </trkpt>
      <trkpt lat="46.68799" lon="6.16228">
        <ele>999.43</ele>
        <time>2015-06-29T09:35:00Z</time>
      </trkpt>
      <trkpt lat="46.68797" lon="6.16226">
        <ele>998.95</ele>
        <time>2015-06-29T09:35:09Z</time>
      </trkpt>
      <trkpt lat="46.68793" lon="6.16213">
        <ele>997.99</ele>
        <time>2015-06-29T09:35:13Z</time>
      </trkpt>
      <trkpt lat="46.68786" lon="6.16195">
        <ele>997.02</ele>
        <time>2015-06-29T09:35:16Z</time>
      </trkpt>
      <trkpt lat="46.68763" lon="6.16144">
        <ele>994.62</ele>
        <time>2015-06-29T09:35:25Z</time>
      </trkpt>
      <trkpt lat="46.6876" lon="6.16138">
        <ele>993.66</ele>
        <time>2015-06-29T09:35:26Z</time>
      </trkpt>
      <trkpt lat="46.68758" lon="6.16122">
        <ele>992.22</ele>
        <time>2015-06-29T09:35:28Z</time>
      </trkpt>
      <trkpt lat="46.68759" lon="6.16095">
        <ele>988.85</ele>
        <time>2015-06-29T09:35:31Z</time>
      </trkpt>
      <trkpt lat="46.68762" lon="6.16057">
        <ele>985.49</ele>
        <time>2015-06-29T09:35:35Z</time>
      </trkpt>
      <trkpt lat="46.68762" lon="6.16026">
        <ele>984.05</ele>
        <time>2015-06-29T09:35:38Z</time>
      </trkpt>
      <trkpt lat="46.68762" lon="6.16016">
        <ele>983.57</ele>
        <time>2015-06-29T09:35:39Z</time>
      </trkpt>
      <trkpt lat="46.68758" lon="6.15985">
        <ele>982.6</ele>
        <time>2015-06-29T09:35:42Z</time>
      </trkpt>
      <trkpt lat="46.68756" lon="6.15976">
        <ele>982.6</ele>
        <time>2015-06-29T09:35:43Z</time>
      </trkpt>
      <trkpt lat="46.68754" lon="6.15967">
        <ele>983.09</ele>
        <time>2015-06-29T09:35:44Z</time>
      </trkpt>
      <trkpt lat="46.6875" lon="6.15959">
        <ele>982.6</ele>
        <time>2015-06-29T09:35:45Z</time>
      </trkpt>
      <trkpt lat="46.68747" lon="6.15954">
        <ele>983.09</ele>
        <time>2015-06-29T09:35:46Z</time>
      </trkpt>
      <trkpt lat="46.68727" lon="6.15885">
        <ele>982.12</ele>
        <time>2015-06-29T09:35:58Z</time>
      </trkpt>
      <trkpt lat="46.68722" lon="6.15866">
        <ele>981.64</ele>
        <time>2015-06-29T09:36:01Z</time>
      </trkpt>
      <trkpt lat="46.68722" lon="6.1586">
        <ele>981.64</ele>
        <time>2015-06-29T09:36:02Z</time>
      </trkpt>
      <trkpt lat="46.68732" lon="6.15822">
        <ele>983.09</ele>
        <time>2015-06-29T09:36:11Z</time>
      </trkpt>
      <trkpt lat="46.68745" lon="6.158">
        <ele>982.6</ele>
        <time>2015-06-29T09:36:17Z</time>
      </trkpt>
      <trkpt lat="46.68754" lon="6.15767">
        <ele>982.6</ele>
        <time>2015-06-29T09:36:23Z</time>
      </trkpt>
      <trkpt lat="46.68754" lon="6.15761">
        <ele>982.6</ele>
        <time>2015-06-29T09:36:24Z</time>
      </trkpt>
      <trkpt lat="46.68754" lon="6.15755">
        <ele>982.12</ele>
        <time>2015-06-29T09:36:25Z</time>
      </trkpt>
      <trkpt lat="46.68753" lon="6.1575">
        <ele>983.09</ele>
        <time>2015-06-29T09:36:26Z</time>
      </trkpt>
      <trkpt lat="46.68751" lon="6.15744">
        <ele>982.12</ele>
        <time>2015-06-29T09:36:27Z</time>
      </trkpt>
      <trkpt lat="46.68749" lon="6.15739">
        <ele>982.6</ele>
        <time>2015-06-29T09:36:28Z</time>
      </trkpt>
      <trkpt lat="46.68746" lon="6.15735">
        <ele>983.09</ele>
        <time>2015-06-29T09:36:29Z</time>
      </trkpt>
      <trkpt lat="46.68743" lon="6.15731">
        <ele>982.12</ele>
        <time>2015-06-29T09:36:30Z</time>
      </trkpt>
      <trkpt lat="46.68735" lon="6.15719">
        <ele>982.6</ele>
        <time>2015-06-29T09:36:33Z</time>
      </trkpt>
      <trkpt lat="46.68734" lon="6.15713">
        <ele>982.6</ele>
        <time>2015-06-29T09:36:34Z</time>
      </trkpt>
      <trkpt lat="46.68734" lon="6.15708">
        <ele>982.6</ele>
        <time>2015-06-29T09:36:35Z</time>
      </trkpt>
      <trkpt lat="46.68736" lon="6.15704">
        <ele>983.09</ele>
        <time>2015-06-29T09:36:36Z</time>
      </trkpt>
      <trkpt lat="46.68738" lon="6.15701">
        <ele>983.09</ele>
        <time>2015-06-29T09:36:37Z</time>
      </trkpt>
      <trkpt lat="46.68739" lon="6.15698">
        <ele>983.57</ele>
        <time>2015-06-29T09:36:38Z</time>
      </trkpt>
      <trkpt lat="46.68739" lon="6.15696">
        <ele>983.57</ele>
        <time>2015-06-29T09:36:39Z</time>
      </trkpt>
      <trkpt lat="46.68738" lon="6.15693">
        <ele>983.57</ele>
        <time>2015-06-29T09:36:40Z</time>
      </trkpt>
      <trkpt lat="46.68738" lon="6.1569">
        <ele>983.57</ele>
        <time>2015-06-29T09:36:41Z</time>
      </trkpt>
      <trkpt lat="46.68737" lon="6.15687">
        <ele>983.57</ele>
        <time>2015-06-29T09:36:42Z</time>
      </trkpt>
      <trkpt lat="46.68736" lon="6.15685">
        <ele>983.57</ele>
        <time>2015-06-29T09:36:43Z</time>
      </trkpt>
      <trkpt lat="46.68735" lon="6.15682">
        <ele>983.57</ele>
        <time>2015-06-29T09:36:44Z</time>
      </trkpt>
      <trkpt lat="46.68715" lon="6.15641">
        <ele>983.57</ele>
        <time>2015-06-29T09:36:55Z</time>
      </trkpt>
      <trkpt lat="46.68701" lon="6.15594">
        <ele>983.57</ele>
        <time>2015-06-29T09:37:06Z</time>
      </trkpt>
      <trkpt lat="46.68689" lon="6.15535">
        <ele>984.05</ele>
        <time>2015-06-29T09:37:19Z</time>
      </trkpt>
      <trkpt lat="46.6868" lon="6.15482">
        <ele>984.53</ele>
        <time>2015-06-29T09:37:32Z</time>
      </trkpt>
      <trkpt lat="46.68671" lon="6.15425">
        <ele>984.53</ele>
        <time>2015-06-29T09:37:47Z</time>
      </trkpt>
      <trkpt lat="46.68656" lon="6.15367">
        <ele>986.45</ele>
        <time>2015-06-29T09:38:04Z</time>
      </trkpt>
      <trkpt lat="46.68642" lon="6.15322">
        <ele>986.93</ele>
        <time>2015-06-29T09:38:16Z</time>
      </trkpt>
      <trkpt lat="46.68625" lon="6.15265">
        <ele>986.45</ele>
        <time>2015-06-29T09:38:30Z</time>
      </trkpt>
      <trkpt lat="46.68608" lon="6.15214">
        <ele>986.93</ele>
        <time>2015-06-29T09:38:43Z</time>
      </trkpt>
      <trkpt lat="46.68599" lon="6.15165">
        <ele>987.89</ele>
        <time>2015-06-29T09:38:55Z</time>
      </trkpt>
      <trkpt lat="46.68589" lon="6.15116">
        <ele>987.89</ele>
        <time>2015-06-29T09:39:06Z</time>
      </trkpt>
      <trkpt lat="46.68575" lon="6.15055">
        <ele>988.85</ele>
        <time>2015-06-29T09:39:19Z</time>
      </trkpt>
      <trkpt lat="46.68566" lon="6.15014">
        <ele>988.37</ele>
        <time>2015-06-29T09:39:30Z</time>
      </trkpt>
      <trkpt lat="46.68537" lon="6.14965">
        <ele>988.85</ele>
        <time>2015-06-29T09:39:42Z</time>
      </trkpt>
      <trkpt lat="46.68515" lon="6.14905">
        <ele>989.81</ele>
        <time>2015-06-29T09:39:56Z</time>
      </trkpt>
      <trkpt lat="46.68501" lon="6.14861">
        <ele>991.26</ele>
        <time>2015-06-29T09:40:07Z</time>
      </trkpt>
      <trkpt lat="46.6848" lon="6.1481">
        <ele>991.74</ele>
        <time>2015-06-29T09:40:19Z</time>
      </trkpt>
      <trkpt lat="46.68468" lon="6.14781">
        <ele>990.3</ele>
        <time>2015-06-29T09:40:31Z</time>
      </trkpt>
      <trkpt lat="46.68464" lon="6.14771">
        <ele>990.3</ele>
        <time>2015-06-29T09:40:43Z</time>
      </trkpt>
      <trkpt lat="46.68465" lon="6.1477">
        <ele>990.78</ele>
        <time>2015-06-29T09:40:44Z</time>
      </trkpt>
      <trkpt lat="46.68462" lon="6.14762">
        <ele>990.3</ele>
        <time>2015-06-29T09:40:56Z</time>
      </trkpt>
      <trkpt lat="46.68462" lon="6.14759">
        <ele>990.3</ele>
        <time>2015-06-29T09:40:57Z</time>
      </trkpt>
      <trkpt lat="46.6845" lon="6.14721">
        <ele>990.78</ele>
        <time>2015-06-29T09:41:08Z</time>
      </trkpt>
      <trkpt lat="46.68432" lon="6.14657">
        <ele>992.22</ele>
        <time>2015-06-29T09:41:22Z</time>
      </trkpt>
      <trkpt lat="46.68413" lon="6.14601">
        <ele>992.7</ele>
        <time>2015-06-29T09:41:35Z</time>
      </trkpt>
      <trkpt lat="46.68391" lon="6.14525">
        <ele>993.66</ele>
        <time>2015-06-29T09:41:53Z</time>
      </trkpt>
      <trkpt lat="46.68373" lon="6.14464">
        <ele>994.14</ele>
        <time>2015-06-29T09:42:08Z</time>
      </trkpt>
      <trkpt lat="46.6836" lon="6.14413">
        <ele>994.14</ele>
        <time>2015-06-29T09:42:20Z</time>
      </trkpt>
      <trkpt lat="46.68347" lon="6.14365">
        <ele>995.58</ele>
        <time>2015-06-29T09:42:35Z</time>
      </trkpt>
      <trkpt lat="46.68344" lon="6.14327">
        <ele>998.47</ele>
        <time>2015-06-29T09:42:51Z</time>
      </trkpt>
      <trkpt lat="46.68342" lon="6.14316">
        <ele>1000.39</ele>
        <time>2015-06-29T09:42:57Z</time>
      </trkpt>
      <trkpt lat="46.6834" lon="6.14292">
        <ele>1002.31</ele>
        <time>2015-06-29T09:43:10Z</time>
      </trkpt>
      <trkpt lat="46.68339" lon="6.14285">
        <ele>1003.27</ele>
        <time>2015-06-29T09:43:14Z</time>
      </trkpt>
      <trkpt lat="46.68339" lon="6.14277">
        <ele>1004.23</ele>
        <time>2015-06-29T09:43:18Z</time>
      </trkpt>
      <trkpt lat="46.68332" lon="6.1425">
        <ele>1006.16</ele>
        <time>2015-06-29T09:43:33Z</time>
      </trkpt>
      <trkpt lat="46.68326" lon="6.14223">
        <ele>1008.08</ele>
        <time>2015-06-29T09:43:48Z</time>
      </trkpt>
      <trkpt lat="46.68319" lon="6.14191">
        <ele>1009.04</ele>
        <time>2015-06-29T09:44:03Z</time>
      </trkpt>
      <trkpt lat="46.68318" lon="6.14164">
        <ele>1010</ele>
        <time>2015-06-29T09:44:16Z</time>
      </trkpt>
      <trkpt lat="46.68322" lon="6.14133">
        <ele>1011.44</ele>
        <time>2015-06-29T09:44:30Z</time>
      </trkpt>
      <trkpt lat="46.68313" lon="6.14093">
        <ele>1011.93</ele>
        <time>2015-06-29T09:44:45Z</time>
      </trkpt>
      <trkpt lat="46.68308" lon="6.14073">
        <ele>1012.41</ele>
        <time>2015-06-29T09:44:57Z</time>
      </trkpt>
      <trkpt lat="46.68308" lon="6.14073">
        <ele>1011.93</ele>
        <time>2015-06-29T09:45:18Z</time>
      </trkpt>
      <trkpt lat="46.68308" lon="6.14073">
        <ele>1011.93</ele>
        <time>2015-06-29T09:45:54Z</time>
      </trkpt>
      <trkpt lat="46.68306" lon="6.14068">
        <ele>1011.93</ele>
        <time>2015-06-29T09:46:02Z</time>
      </trkpt>
      <trkpt lat="46.68306" lon="6.1406">
        <ele>1011.44</ele>
        <time>2015-06-29T09:46:15Z</time>
      </trkpt>
      <trkpt lat="46.68306" lon="6.14059">
        <ele>1011.93</ele>
        <time>2015-06-29T09:46:30Z</time>
      </trkpt>
      <trkpt lat="46.68301" lon="6.14013">
        <ele>1011.44</ele>
        <time>2015-06-29T09:46:41Z</time>
      </trkpt>
      <trkpt lat="46.68277" lon="6.13941">
        <ele>1010.48</ele>
        <time>2015-06-29T09:46:54Z</time>
      </trkpt>
      <trkpt lat="46.6826" lon="6.13903">
        <ele>1012.89</ele>
        <time>2015-06-29T09:47:01Z</time>
      </trkpt>
      <trkpt lat="46.68258" lon="6.13898">
        <ele>1013.37</ele>
        <time>2015-06-29T09:47:02Z</time>
      </trkpt>
      <trkpt lat="46.68242" lon="6.13827">
        <ele>1013.85</ele>
        <time>2015-06-29T09:47:15Z</time>
      </trkpt>
      <trkpt lat="46.68228" lon="6.13782">
        <ele>1012.89</ele>
        <time>2015-06-29T09:47:22Z</time>
      </trkpt>
      <trkpt lat="46.68218" lon="6.13763">
        <ele>1012.41</ele>
        <time>2015-06-29T09:47:25Z</time>
      </trkpt>
      <trkpt lat="46.68214" lon="6.13757">
        <ele>1011.44</ele>
        <time>2015-06-29T09:47:26Z</time>
      </trkpt>
      <trkpt lat="46.68208" lon="6.13751">
        <ele>1010.96</ele>
        <time>2015-06-29T09:47:27Z</time>
      </trkpt>
      <trkpt lat="46.68192" lon="6.13734">
        <ele>1010.48</ele>
        <time>2015-06-29T09:47:30Z</time>
      </trkpt>
      <trkpt lat="46.68173" lon="6.13703">
        <ele>1009.04</ele>
        <time>2015-06-29T09:47:34Z</time>
      </trkpt>
      <trkpt lat="46.68142" lon="6.13651">
        <ele>1005.2</ele>
        <time>2015-06-29T09:47:40Z</time>
      </trkpt>
      <trkpt lat="46.68139" lon="6.13645">
        <ele>1004.72</ele>
        <time>2015-06-29T09:47:41Z</time>
      </trkpt>
      <trkpt lat="46.68129" lon="6.13624">
        <ele>1002.79</ele>
        <time>2015-06-29T09:47:45Z</time>
      </trkpt>
      <trkpt lat="46.68097" lon="6.13535">
        <ele>1000.39</ele>
        <time>2015-06-29T09:47:57Z</time>
      </trkpt>
      <trkpt lat="46.68082" lon="6.13491">
        <ele>999.91</ele>
        <time>2015-06-29T09:48:03Z</time>
      </trkpt>
      <trkpt lat="46.68082" lon="6.13484">
        <ele>999.43</ele>
        <time>2015-06-29T09:48:04Z</time>
      </trkpt>
      <trkpt lat="46.68084" lon="6.13477">
        <ele>999.43</ele>
        <time>2015-06-29T09:48:05Z</time>
      </trkpt>
      <trkpt lat="46.68087" lon="6.13471">
        <ele>999.43</ele>
        <time>2015-06-29T09:48:06Z</time>
      </trkpt>
      <trkpt lat="46.6809" lon="6.13465">
        <ele>999.91</ele>
        <time>2015-06-29T09:48:07Z</time>
      </trkpt>
      <trkpt lat="46.68092" lon="6.13458">
        <ele>999.43</ele>
        <time>2015-06-29T09:48:08Z</time>
      </trkpt>
      <trkpt lat="46.68092" lon="6.13451">
        <ele>999.43</ele>
        <time>2015-06-29T09:48:09Z</time>
      </trkpt>
      <trkpt lat="46.68092" lon="6.13447">
        <ele>999.43</ele>
        <time>2015-06-29T09:48:10Z</time>
      </trkpt>
      <trkpt lat="46.68091" lon="6.13443">
        <ele>999.43</ele>
        <time>2015-06-29T09:48:20Z</time>
      </trkpt>
      <trkpt lat="46.68091" lon="6.13443">
        <ele>999.43</ele>
        <time>2015-06-29T09:48:22Z</time>
      </trkpt>
      <trkpt lat="46.68092" lon="6.13442">
        <ele>998.95</ele>
        <time>2015-06-29T09:48:23Z</time>
      </trkpt>
      <trkpt lat="46.68093" lon="6.1344">
        <ele>998.95</ele>
        <time>2015-06-29T09:48:24Z</time>
      </trkpt>
      <trkpt lat="46.68095" lon="6.13438">
        <ele>999.43</ele>
        <time>2015-06-29T09:48:25Z</time>
      </trkpt>
      <trkpt lat="46.68098" lon="6.13436">
        <ele>999.43</ele>
        <time>2015-06-29T09:48:26Z</time>
      </trkpt>
      <trkpt lat="46.681" lon="6.13435">
        <ele>998.95</ele>
        <time>2015-06-29T09:48:27Z</time>
      </trkpt>
      <trkpt lat="46.68103" lon="6.13436">
        <ele>998.95</ele>
        <time>2015-06-29T09:48:28Z</time>
      </trkpt>
      <trkpt lat="46.68106" lon="6.13437">
        <ele>999.43</ele>
        <time>2015-06-29T09:48:29Z</time>
      </trkpt>
      <trkpt lat="46.68113" lon="6.13437">
        <ele>998.95</ele>
        <time>2015-06-29T09:48:32Z</time>
      </trkpt>
      <trkpt lat="46.68114" lon="6.13434">
        <ele>998.95</ele>
        <time>2015-06-29T09:48:33Z</time>
      </trkpt>
      <trkpt lat="46.68115" lon="6.13434">
        <ele>998.95</ele>
        <time>2015-06-29T09:48:43Z</time>
      </trkpt>
      <trkpt lat="46.68117" lon="6.13435">
        <ele>998.95</ele>
        <time>2015-06-29T09:48:44Z</time>
      </trkpt>
      <trkpt lat="46.68119" lon="6.13436">
        <ele>998.95</ele>
        <time>2015-06-29T09:48:45Z</time>
      </trkpt>
      <trkpt lat="46.68121" lon="6.13436">
        <ele>998.95</ele>
        <time>2015-06-29T09:48:46Z</time>
      </trkpt>
      <trkpt lat="46.68123" lon="6.13435">
        <ele>998.95</ele>
        <time>2015-06-29T09:48:47Z</time>
      </trkpt>
      <trkpt lat="46.68125" lon="6.13434">
        <ele>998.47</ele>
        <time>2015-06-29T09:48:49Z</time>
      </trkpt>
      <trkpt lat="46.68126" lon="6.13435">
        <ele>999.43</ele>
        <time>2015-06-29T09:48:50Z</time>
      </trkpt>
      <trkpt lat="46.68127" lon="6.13436">
        <ele>999.43</ele>
        <time>2015-06-29T09:48:51Z</time>
      </trkpt>
      <trkpt lat="46.68131" lon="6.1344">
        <ele>998.47</ele>
        <time>2015-06-29T09:48:56Z</time>
      </trkpt>
      <trkpt lat="46.68131" lon="6.13441">
        <ele>998.95</ele>
        <time>2015-06-29T09:48:57Z</time>
      </trkpt>
      <trkpt lat="46.68131" lon="6.13443">
        <ele>998.95</ele>
        <time>2015-06-29T09:48:58Z</time>
      </trkpt>
      <trkpt lat="46.6813" lon="6.13443">
        <ele>998.95</ele>
        <time>2015-06-29T09:48:59Z</time>
      </trkpt>
      <trkpt lat="46.68129" lon="6.13443">
        <ele>998.95</ele>
        <time>2015-06-29T09:49:00Z</time>
      </trkpt>
      <trkpt lat="46.68127" lon="6.13442">
        <ele>998.95</ele>
        <time>2015-06-29T09:49:01Z</time>
      </trkpt>
      <trkpt lat="46.68125" lon="6.13442">
        <ele>998.47</ele>
        <time>2015-06-29T09:49:02Z</time>
      </trkpt>
      <trkpt lat="46.68111" lon="6.13439">
        <ele>998.95</ele>
        <time>2015-06-29T09:49:08Z</time>
      </trkpt>
      <trkpt lat="46.68109" lon="6.13441">
        <ele>998.47</ele>
        <time>2015-06-29T09:49:09Z</time>
      </trkpt>
      <trkpt lat="46.68107" lon="6.13442">
        <ele>998.47</ele>
        <time>2015-06-29T09:49:10Z</time>
      </trkpt>
      <trkpt lat="46.68105" lon="6.13442">
        <ele>998.95</ele>
        <time>2015-06-29T09:49:11Z</time>
      </trkpt>
      <trkpt lat="46.68102" lon="6.13441">
        <ele>998.95</ele>
        <time>2015-06-29T09:49:12Z</time>
      </trkpt>
      <trkpt lat="46.681" lon="6.1344">
        <ele>998.47</ele>
        <time>2015-06-29T09:49:13Z</time>
      </trkpt>
      <trkpt lat="46.68099" lon="6.13439">
        <ele>998.47</ele>
        <time>2015-06-29T09:49:14Z</time>
      </trkpt>
      <trkpt lat="46.68097" lon="6.13437">
        <ele>998.95</ele>
        <time>2015-06-29T09:49:15Z</time>
      </trkpt>
      <trkpt lat="46.68095" lon="6.13435">
        <ele>998.47</ele>
        <time>2015-06-29T09:49:16Z</time>
      </trkpt>
      <trkpt lat="46.68093" lon="6.13431">
        <ele>998.95</ele>
        <time>2015-06-29T09:49:17Z</time>
      </trkpt>
      <trkpt lat="46.68089" lon="6.13428">
        <ele>998.95</ele>
        <time>2015-06-29T09:49:18Z</time>
      </trkpt>
      <trkpt lat="46.68057" lon="6.13421">
        <ele>999.43</ele>
        <time>2015-06-29T09:49:26Z</time>
      </trkpt>
      <trkpt lat="46.6802" lon="6.13392">
        <ele>1000.39</ele>
        <time>2015-06-29T09:49:39Z</time>
      </trkpt>
      <trkpt lat="46.67991" lon="6.13359">
        <ele>1000.39</ele>
        <time>2015-06-29T09:49:50Z</time>
      </trkpt>
      <trkpt lat="46.67988" lon="6.13355">
        <ele>999.91</ele>
        <time>2015-06-29T09:49:51Z</time>
      </trkpt>
      <trkpt lat="46.67975" lon="6.13336">
        <ele>999.43</ele>
        <time>2015-06-29T09:49:56Z</time>
      </trkpt>
      <trkpt lat="46.67972" lon="6.13333">
        <ele>998.47</ele>
        <time>2015-06-29T09:49:57Z</time>
      </trkpt>
      <trkpt lat="46.67952" lon="6.13303">
        <ele>997.99</ele>
        <time>2015-06-29T09:50:07Z</time>
      </trkpt>
      <trkpt lat="46.67935" lon="6.13319">
        <ele>997.99</ele>
        <time>2015-06-29T09:50:15Z</time>
      </trkpt>
      <trkpt lat="46.67934" lon="6.13316">
        <ele>997.51</ele>
        <time>2015-06-29T09:50:16Z</time>
      </trkpt>
      <trkpt lat="46.67934" lon="6.13313">
        <ele>997.99</ele>
        <time>2015-06-29T09:50:17Z</time>
      </trkpt>
      <trkpt lat="46.67934" lon="6.13311">
        <ele>997.51</ele>
        <time>2015-06-29T09:50:18Z</time>
      </trkpt>
      <trkpt lat="46.67934" lon="6.13309">
        <ele>997.99</ele>
        <time>2015-06-29T09:50:19Z</time>
      </trkpt>
      <trkpt lat="46.67937" lon="6.1331">
        <ele>997.99</ele>
        <time>2015-06-29T09:50:31Z</time>
      </trkpt>
      <trkpt lat="46.67937" lon="6.1331">
        <ele>997.51</ele>
        <time>2015-06-29T09:50:43Z</time>
      </trkpt>
      <trkpt lat="46.67924" lon="6.13319">
        <ele>997.02</ele>
        <time>2015-06-29T10:23:45Z</time>
      </trkpt>
      <trkpt lat="46.67925" lon="6.13318">
        <ele>996.06</ele>
        <time>2015-06-29T10:23:46Z</time>
      </trkpt>
      <trkpt lat="46.67927" lon="6.13311">
        <ele>995.58</ele>
        <time>2015-06-29T10:23:49Z</time>
      </trkpt>
      <trkpt lat="46.67937" lon="6.13316">
        <ele>994.62</ele>
        <time>2015-06-29T10:23:54Z</time>
      </trkpt>
      <trkpt lat="46.67938" lon="6.13319">
        <ele>993.66</ele>
        <time>2015-06-29T10:24:15Z</time>
      </trkpt>
      <trkpt lat="46.67939" lon="6.1332">
        <ele>994.14</ele>
        <time>2015-06-29T10:24:47Z</time>
      </trkpt>
      <trkpt lat="46.67937" lon="6.13316">
        <ele>993.66</ele>
        <time>2015-06-29T10:25:14Z</time>
      </trkpt>
      <trkpt lat="46.67936" lon="6.13317">
        <ele>993.18</ele>
        <time>2015-06-29T10:25:45Z</time>
      </trkpt>
      <trkpt lat="46.67937" lon="6.13316">
        <ele>993.66</ele>
        <time>2015-06-29T10:26:06Z</time>
      </trkpt>
      <trkpt lat="46.67937" lon="6.13317">
        <ele>994.14</ele>
        <time>2015-06-29T10:26:25Z</time>
      </trkpt>
      <trkpt lat="46.67938" lon="6.13319">
        <ele>993.66</ele>
        <time>2015-06-29T10:26:47Z</time>
      </trkpt>
      <trkpt lat="46.67937" lon="6.1332">
        <ele>993.66</ele>
        <time>2015-06-29T10:27:03Z</time>
      </trkpt>
      <trkpt lat="46.67937" lon="6.1332">
        <ele>994.14</ele>
        <time>2015-06-29T10:27:23Z</time>
      </trkpt>
      <trkpt lat="46.67937" lon="6.13322">
        <ele>994.14</ele>
        <time>2015-06-29T10:27:48Z</time>
      </trkpt>
      <trkpt lat="46.67936" lon="6.13321">
        <ele>994.62</ele>
        <time>2015-06-29T10:28:11Z</time>
      </trkpt>
      <trkpt lat="46.67937" lon="6.13321">
        <ele>994.14</ele>
        <time>2015-06-29T10:28:40Z</time>
      </trkpt>
      <trkpt lat="46.67939" lon="6.13321">
        <ele>994.14</ele>
        <time>2015-06-29T10:29:09Z</time>
      </trkpt>
      <trkpt lat="46.67939" lon="6.13322">
        <ele>994.14</ele>
        <time>2015-06-29T10:29:22Z</time>
      </trkpt>
      <trkpt lat="46.6794" lon="6.13322">
        <ele>994.14</ele>
        <time>2015-06-29T10:29:34Z</time>
      </trkpt>
      <trkpt lat="46.67928" lon="6.1334">
        <ele>994.14</ele>
        <time>2015-06-29T10:29:43Z</time>
      </trkpt>
      <trkpt lat="46.67901" lon="6.13385">
        <ele>994.14</ele>
        <time>2015-06-29T10:29:55Z</time>
      </trkpt>
      <trkpt lat="46.67872" lon="6.13442">
        <ele>995.1</ele>
        <time>2015-06-29T10:30:09Z</time>
      </trkpt>
      <trkpt lat="46.67844" lon="6.135">
        <ele>996.06</ele>
        <time>2015-06-29T10:30:24Z</time>
      </trkpt>
      <trkpt lat="46.67819" lon="6.13548">
        <ele>997.02</ele>
        <time>2015-06-29T10:30:37Z</time>
      </trkpt>
      <trkpt lat="46.67787" lon="6.13624">
        <ele>997.99</ele>
        <time>2015-06-29T10:30:54Z</time>
      </trkpt>
      <trkpt lat="46.67759" lon="6.1369">
        <ele>998.95</ele>
        <time>2015-06-29T10:31:09Z</time>
      </trkpt>
      <trkpt lat="46.67743" lon="6.13725">
        <ele>999.43</ele>
        <time>2015-06-29T10:31:20Z</time>
      </trkpt>
      <trkpt lat="46.67716" lon="6.13771">
        <ele>1000.39</ele>
        <time>2015-06-29T10:31:36Z</time>
      </trkpt>
      <trkpt lat="46.6768" lon="6.13821">
        <ele>1001.35</ele>
        <time>2015-06-29T10:31:53Z</time>
      </trkpt>
      <trkpt lat="46.67638" lon="6.13837">
        <ele>1002.79</ele>
        <time>2015-06-29T10:32:08Z</time>
      </trkpt>
      <trkpt lat="46.67602" lon="6.13822">
        <ele>1004.23</ele>
        <time>2015-06-29T10:32:22Z</time>
      </trkpt>
      <trkpt lat="46.67559" lon="6.13786">
        <ele>1004.23</ele>
        <time>2015-06-29T10:32:39Z</time>
      </trkpt>
      <trkpt lat="46.67522" lon="6.13754">
        <ele>1005.68</ele>
        <time>2015-06-29T10:32:56Z</time>
      </trkpt>
      <trkpt lat="46.67477" lon="6.13751">
        <ele>1007.6</ele>
        <time>2015-06-29T10:33:13Z</time>
      </trkpt>
      <trkpt lat="46.67475" lon="6.13752">
        <ele>1007.6</ele>
        <time>2015-06-29T10:33:14Z</time>
      </trkpt>
      <trkpt lat="46.67444" lon="6.13758">
        <ele>1008.08</ele>
        <time>2015-06-29T10:33:28Z</time>
      </trkpt>
      <trkpt lat="46.67422" lon="6.1374">
        <ele>1008.56</ele>
        <time>2015-06-29T10:33:41Z</time>
      </trkpt>
      <trkpt lat="46.67417" lon="6.13734">
        <ele>1009.04</ele>
        <time>2015-06-29T10:33:44Z</time>
      </trkpt>
      <trkpt lat="46.6741" lon="6.13732">
        <ele>1009.52</ele>
        <time>2015-06-29T10:33:48Z</time>
      </trkpt>
      <trkpt lat="46.67376" lon="6.13726">
        <ele>1010.96</ele>
        <time>2015-06-29T10:34:05Z</time>
      </trkpt>
      <trkpt lat="46.6736" lon="6.13711">
        <ele>1012.89</ele>
        <time>2015-06-29T10:34:18Z</time>
      </trkpt>
      <trkpt lat="46.6734" lon="6.13711">
        <ele>1015.77</ele>
        <time>2015-06-29T10:34:33Z</time>
      </trkpt>
      <trkpt lat="46.67324" lon="6.13726">
        <ele>1016.73</ele>
        <time>2015-06-29T10:34:45Z</time>
      </trkpt>
      <trkpt lat="46.67301" lon="6.13749">
        <ele>1018.17</ele>
        <time>2015-06-29T10:35:00Z</time>
      </trkpt>
      <trkpt lat="46.67276" lon="6.13762">
        <ele>1018.65</ele>
        <time>2015-06-29T10:35:12Z</time>
      </trkpt>
      <trkpt lat="46.67239" lon="6.13755">
        <ele>1020.1</ele>
        <time>2015-06-29T10:35:26Z</time>
      </trkpt>
      <trkpt lat="46.67218" lon="6.13725">
        <ele>1019.13</ele>
        <time>2015-06-29T10:35:37Z</time>
      </trkpt>
      <trkpt lat="46.67194" lon="6.13679">
        <ele>1018.17</ele>
        <time>2015-06-29T10:35:50Z</time>
      </trkpt>
      <trkpt lat="46.67176" lon="6.1364">
        <ele>1017.21</ele>
        <time>2015-06-29T10:36:02Z</time>
      </trkpt>
      <trkpt lat="46.67174" lon="6.13629">
        <ele>1017.21</ele>
        <time>2015-06-29T10:36:06Z</time>
      </trkpt>
      <trkpt lat="46.67173" lon="6.13621">
        <ele>1017.21</ele>
        <time>2015-06-29T10:36:20Z</time>
      </trkpt>
      <trkpt lat="46.67172" lon="6.13619">
        <ele>1016.73</ele>
        <time>2015-06-29T10:36:51Z</time>
      </trkpt>
      <trkpt lat="46.67172" lon="6.13619">
        <ele>1016.73</ele>
        <time>2015-06-29T10:37:21Z</time>
      </trkpt>
      <trkpt lat="46.67171" lon="6.13619">
        <ele>1016.73</ele>
        <time>2015-06-29T10:37:49Z</time>
      </trkpt>
      <trkpt lat="46.67172" lon="6.13619">
        <ele>1016.73</ele>
        <time>2015-06-29T10:38:17Z</time>
      </trkpt>
      <trkpt lat="46.67172" lon="6.13619">
        <ele>1015.77</ele>
        <time>2015-06-29T10:38:36Z</time>
      </trkpt>
      <trkpt lat="46.67173" lon="6.1362">
        <ele>1016.25</ele>
        <time>2015-06-29T10:39:03Z</time>
      </trkpt>
      <trkpt lat="46.67173" lon="6.1362">
        <ele>1015.77</ele>
        <time>2015-06-29T10:39:37Z</time>
      </trkpt>
      <trkpt lat="46.67172" lon="6.1362">
        <ele>1016.73</ele>
        <time>2015-06-29T10:39:58Z</time>
      </trkpt>
      <trkpt lat="46.67172" lon="6.1362">
        <ele>1016.73</ele>
        <time>2015-06-29T10:40:22Z</time>
      </trkpt>
      <trkpt lat="46.67172" lon="6.13619">
        <ele>1016.73</ele>
        <time>2015-06-29T10:40:41Z</time>
      </trkpt>
      <trkpt lat="46.67172" lon="6.13617">
        <ele>1016.73</ele>
        <time>2015-06-29T10:41:10Z</time>
      </trkpt>
      <trkpt lat="46.67174" lon="6.13621">
        <ele>1016.73</ele>
        <time>2015-06-29T10:41:18Z</time>
      </trkpt>
      <trkpt lat="46.67176" lon="6.13623">
        <ele>1016.73</ele>
        <time>2015-06-29T10:41:20Z</time>
      </trkpt>
      <trkpt lat="46.6719" lon="6.13625">
        <ele>1016.73</ele>
        <time>2015-06-29T10:41:33Z</time>
      </trkpt>
      <trkpt lat="46.67196" lon="6.13621">
        <ele>1016.25</ele>
        <time>2015-06-29T10:41:40Z</time>
      </trkpt>
      <trkpt lat="46.672" lon="6.13618">
        <ele>1015.77</ele>
        <time>2015-06-29T10:41:51Z</time>
      </trkpt>
      <trkpt lat="46.67198" lon="6.13619">
        <ele>1016.25</ele>
        <time>2015-06-29T10:42:11Z</time>
      </trkpt>
      <trkpt lat="46.67211" lon="6.13606">
        <ele>1015.29</ele>
        <time>2015-06-29T10:42:22Z</time>
      </trkpt>
      <trkpt lat="46.67241" lon="6.13572">
        <ele>1012.89</ele>
        <time>2015-06-29T10:42:31Z</time>
      </trkpt>
      <trkpt lat="46.67245" lon="6.13567">
        <ele>1011.93</ele>
        <time>2015-06-29T10:42:32Z</time>
      </trkpt>
      <trkpt lat="46.6725" lon="6.13562">
        <ele>1011.93</ele>
        <time>2015-06-29T10:42:33Z</time>
      </trkpt>
      <trkpt lat="46.67254" lon="6.13559">
        <ele>1011.93</ele>
        <time>2015-06-29T10:42:34Z</time>
      </trkpt>
      <trkpt lat="46.67259" lon="6.13556">
        <ele>1011.44</ele>
        <time>2015-06-29T10:42:35Z</time>
      </trkpt>
      <trkpt lat="46.67264" lon="6.13554">
        <ele>1011.44</ele>
        <time>2015-06-29T10:42:36Z</time>
      </trkpt>
      <trkpt lat="46.67268" lon="6.13551">
        <ele>1011.44</ele>
        <time>2015-06-29T10:42:37Z</time>
      </trkpt>
      <trkpt lat="46.67272" lon="6.13548">
        <ele>1010.96</ele>
        <time>2015-06-29T10:42:38Z</time>
      </trkpt>
      <trkpt lat="46.67276" lon="6.13547">
        <ele>1010.96</ele>
        <time>2015-06-29T10:42:39Z</time>
      </trkpt>
      <trkpt lat="46.67279" lon="6.13546">
        <ele>1010.96</ele>
        <time>2015-06-29T10:42:40Z</time>
      </trkpt>
      <trkpt lat="46.67283" lon="6.13546">
        <ele>1010.48</ele>
        <time>2015-06-29T10:42:41Z</time>
      </trkpt>
      <trkpt lat="46.67287" lon="6.13548">
        <ele>1010.48</ele>
        <time>2015-06-29T10:42:42Z</time>
      </trkpt>
      <trkpt lat="46.67291" lon="6.1355">
        <ele>1010.48</ele>
        <time>2015-06-29T10:42:43Z</time>
      </trkpt>
      <trkpt lat="46.67295" lon="6.13552">
        <ele>1010.48</ele>
        <time>2015-06-29T10:42:44Z</time>
      </trkpt>
      <trkpt lat="46.67298" lon="6.13555">
        <ele>1010.48</ele>
        <time>2015-06-29T10:42:45Z</time>
      </trkpt>
      <trkpt lat="46.67301" lon="6.13558">
        <ele>1010.48</ele>
        <time>2015-06-29T10:42:46Z</time>
      </trkpt>
      <trkpt lat="46.67331" lon="6.13587">
        <ele>1010.48</ele>
        <time>2015-06-29T10:42:58Z</time>
      </trkpt>
      <trkpt lat="46.67371" lon="6.13633">
        <ele>1010.96</ele>
        <time>2015-06-29T10:43:12Z</time>
      </trkpt>
      <trkpt lat="46.67375" lon="6.13672">
        <ele>1010.48</ele>
        <time>2015-06-29T10:43:21Z</time>
      </trkpt>
      <trkpt lat="46.67387" lon="6.13722">
        <ele>1010.96</ele>
        <time>2015-06-29T10:43:33Z</time>
      </trkpt>
      <trkpt lat="46.67393" lon="6.13724">
        <ele>1010.48</ele>
        <time>2015-06-29T10:43:35Z</time>
      </trkpt>
      <trkpt lat="46.67396" lon="6.13724">
        <ele>1010.48</ele>
        <time>2015-06-29T10:43:36Z</time>
      </trkpt>
      <trkpt lat="46.67399" lon="6.13723">
        <ele>1010.48</ele>
        <time>2015-06-29T10:43:37Z</time>
      </trkpt>
      <trkpt lat="46.67403" lon="6.13724">
        <ele>1010.48</ele>
        <time>2015-06-29T10:43:38Z</time>
      </trkpt>
      <trkpt lat="46.67406" lon="6.13725">
        <ele>1010.48</ele>
        <time>2015-06-29T10:43:39Z</time>
      </trkpt>
      <trkpt lat="46.6741" lon="6.13724">
        <ele>1010.48</ele>
        <time>2015-06-29T10:43:40Z</time>
      </trkpt>
      <trkpt lat="46.67412" lon="6.13719">
        <ele>1010</ele>
        <time>2015-06-29T10:43:41Z</time>
      </trkpt>
      <trkpt lat="46.67413" lon="6.13713">
        <ele>1010</ele>
        <time>2015-06-29T10:43:42Z</time>
      </trkpt>
      <trkpt lat="46.67413" lon="6.13707">
        <ele>1010</ele>
        <time>2015-06-29T10:43:43Z</time>
      </trkpt>
      <trkpt lat="46.67413" lon="6.13701">
        <ele>1010</ele>
        <time>2015-06-29T10:43:44Z</time>
      </trkpt>
      <trkpt lat="46.67412" lon="6.13696">
        <ele>1010.48</ele>
        <time>2015-06-29T10:43:45Z</time>
      </trkpt>
      <trkpt lat="46.674" lon="6.13641">
        <ele>1011.44</ele>
        <time>2015-06-29T10:43:56Z</time>
      </trkpt>
      <trkpt lat="46.67389" lon="6.1359">
        <ele>1012.41</ele>
        <time>2015-06-29T10:44:08Z</time>
      </trkpt>
      <trkpt lat="46.6738" lon="6.13543">
        <ele>1012.41</ele>
        <time>2015-06-29T10:44:21Z</time>
      </trkpt>
      <trkpt lat="46.67366" lon="6.13506">
        <ele>1012.89</ele>
        <time>2015-06-29T10:44:35Z</time>
      </trkpt>
      <trkpt lat="46.6736" lon="6.13488">
        <ele>1012.41</ele>
        <time>2015-06-29T10:44:48Z</time>
      </trkpt>
      <trkpt lat="46.6736" lon="6.13486">
        <ele>1013.37</ele>
        <time>2015-06-29T10:45:02Z</time>
      </trkpt>
      <trkpt lat="46.67359" lon="6.13484">
        <ele>1012.89</ele>
        <time>2015-06-29T10:45:03Z</time>
      </trkpt>
      <trkpt lat="46.67358" lon="6.13482">
        <ele>1012.89</ele>
        <time>2015-06-29T10:45:04Z</time>
      </trkpt>
      <trkpt lat="46.67356" lon="6.13479">
        <ele>1012.89</ele>
        <time>2015-06-29T10:45:05Z</time>
      </trkpt>
      <trkpt lat="46.67354" lon="6.13477">
        <ele>1013.37</ele>
        <time>2015-06-29T10:45:06Z</time>
      </trkpt>
      <trkpt lat="46.67353" lon="6.13474">
        <ele>1013.37</ele>
        <time>2015-06-29T10:45:07Z</time>
      </trkpt>
      <trkpt lat="46.67351" lon="6.13471">
        <ele>1013.37</ele>
        <time>2015-06-29T10:45:08Z</time>
      </trkpt>
      <trkpt lat="46.67326" lon="6.13417">
        <ele>1014.81</ele>
        <time>2015-06-29T10:45:24Z</time>
      </trkpt>
      <trkpt lat="46.67307" lon="6.13379">
        <ele>1015.77</ele>
        <time>2015-06-29T10:45:37Z</time>
      </trkpt>
      <trkpt lat="46.67286" lon="6.13327">
        <ele>1016.25</ele>
        <time>2015-06-29T10:45:51Z</time>
      </trkpt>
      <trkpt lat="46.67271" lon="6.13282">
        <ele>1017.21</ele>
        <time>2015-06-29T10:46:04Z</time>
      </trkpt>
      <trkpt lat="46.67253" lon="6.13227">
        <ele>1018.65</ele>
        <time>2015-06-29T10:46:21Z</time>
      </trkpt>
      <trkpt lat="46.67221" lon="6.13202">
        <ele>1020.1</ele>
        <time>2015-06-29T10:46:37Z</time>
      </trkpt>
      <trkpt lat="46.67188" lon="6.13189">
        <ele>1020.58</ele>
        <time>2015-06-29T10:46:52Z</time>
      </trkpt>
      <trkpt lat="46.67148" lon="6.13159">
        <ele>1022.02</ele>
        <time>2015-06-29T10:47:10Z</time>
      </trkpt>
      <trkpt lat="46.67116" lon="6.13123">
        <ele>1023.94</ele>
        <time>2015-06-29T10:47:28Z</time>
      </trkpt>
      <trkpt lat="46.67087" lon="6.13092">
        <ele>1025.38</ele>
        <time>2015-06-29T10:47:43Z</time>
      </trkpt>
      <trkpt lat="46.67045" lon="6.13044">
        <ele>1025.86</ele>
        <time>2015-06-29T10:48:01Z</time>
      </trkpt>
      <trkpt lat="46.67017" lon="6.13018">
        <ele>1027.31</ele>
        <time>2015-06-29T10:48:15Z</time>
      </trkpt>
      <trkpt lat="46.66993" lon="6.13006">
        <ele>1029.71</ele>
        <time>2015-06-29T10:48:31Z</time>
      </trkpt>
      <trkpt lat="46.66964" lon="6.12986">
        <ele>1032.59</ele>
        <time>2015-06-29T10:48:50Z</time>
      </trkpt>
      <trkpt lat="46.66953" lon="6.12969">
        <ele>1035</ele>
        <time>2015-06-29T10:49:03Z</time>
      </trkpt>
      <trkpt lat="46.6694" lon="6.12944">
        <ele>1037.88</ele>
        <time>2015-06-29T10:49:18Z</time>
      </trkpt>
      <trkpt lat="46.66927" lon="6.12919">
        <ele>1041.25</ele>
        <time>2015-06-29T10:49:33Z</time>
      </trkpt>
      <trkpt lat="46.66913" lon="6.12899">
        <ele>1044.61</ele>
        <time>2015-06-29T10:49:47Z</time>
      </trkpt>
      <trkpt lat="46.66899" lon="6.12881">
        <ele>1047.97</ele>
        <time>2015-06-29T10:50:00Z</time>
      </trkpt>
      <trkpt lat="46.66895" lon="6.12878">
        <ele>1048.94</ele>
        <time>2015-06-29T10:50:04Z</time>
      </trkpt>
      <trkpt lat="46.66893" lon="6.12876">
        <ele>1048.94</ele>
        <time>2015-06-29T10:50:05Z</time>
      </trkpt>
      <trkpt lat="46.66882" lon="6.1286">
        <ele>1052.3</ele>
        <time>2015-06-29T10:50:17Z</time>
      </trkpt>
      <trkpt lat="46.66867" lon="6.12833">
        <ele>1056.15</ele>
        <time>2015-06-29T10:50:34Z</time>
      </trkpt>
      <trkpt lat="46.66851" lon="6.12808">
        <ele>1058.07</ele>
        <time>2015-06-29T10:50:51Z</time>
      </trkpt>
      <trkpt lat="46.66837" lon="6.12783">
        <ele>1059.99</ele>
        <time>2015-06-29T10:51:06Z</time>
      </trkpt>
      <trkpt lat="46.66824" lon="6.12755">
        <ele>1060.95</ele>
        <time>2015-06-29T10:51:20Z</time>
      </trkpt>
      <trkpt lat="46.66806" lon="6.12722">
        <ele>1060.95</ele>
        <time>2015-06-29T10:51:36Z</time>
      </trkpt>
      <trkpt lat="46.66781" lon="6.12685">
        <ele>1060.95</ele>
        <time>2015-06-29T10:51:51Z</time>
      </trkpt>
      <trkpt lat="46.66738" lon="6.12625">
        <ele>1059.03</ele>
        <time>2015-06-29T10:52:04Z</time>
      </trkpt>
      <trkpt lat="46.66712" lon="6.12595">
        <ele>1059.51</ele>
        <time>2015-06-29T10:52:15Z</time>
      </trkpt>
      <trkpt lat="46.66695" lon="6.12576">
        <ele>1059.99</ele>
        <time>2015-06-29T10:52:27Z</time>
      </trkpt>
      <trkpt lat="46.66681" lon="6.12536">
        <ele>1059.03</ele>
        <time>2015-06-29T10:52:39Z</time>
      </trkpt>
      <trkpt lat="46.66672" lon="6.12491">
        <ele>1056.15</ele>
        <time>2015-06-29T10:52:49Z</time>
      </trkpt>
      <trkpt lat="46.66671" lon="6.12485">
        <ele>1056.63</ele>
        <time>2015-06-29T10:52:50Z</time>
      </trkpt>
      <trkpt lat="46.66665" lon="6.12468">
        <ele>1055.67</ele>
        <time>2015-06-29T10:52:53Z</time>
      </trkpt>
      <trkpt lat="46.66663" lon="6.12463">
        <ele>1055.67</ele>
        <time>2015-06-29T10:52:54Z</time>
      </trkpt>
      <trkpt lat="46.66661" lon="6.12458">
        <ele>1055.67</ele>
        <time>2015-06-29T10:52:55Z</time>
      </trkpt>
      <trkpt lat="46.6665" lon="6.12404">
        <ele>1054.22</ele>
        <time>2015-06-29T10:53:09Z</time>
      </trkpt>
      <trkpt lat="46.66629" lon="6.1235">
        <ele>1052.3</ele>
        <time>2015-06-29T10:53:21Z</time>
      </trkpt>
      <trkpt lat="46.66613" lon="6.12314">
        <ele>1051.34</ele>
        <time>2015-06-29T10:53:30Z</time>
      </trkpt>
      <trkpt lat="46.66591" lon="6.12264">
        <ele>1049.42</ele>
        <time>2015-06-29T10:53:41Z</time>
      </trkpt>
      <trkpt lat="46.66572" lon="6.12208">
        <ele>1048.45</ele>
        <time>2015-06-29T10:53:54Z</time>
      </trkpt>
      <trkpt lat="46.66546" lon="6.1215">
        <ele>1047.01</ele>
        <time>2015-06-29T10:54:08Z</time>
      </trkpt>
      <trkpt lat="46.66529" lon="6.12101">
        <ele>1045.57</ele>
        <time>2015-06-29T10:54:20Z</time>
      </trkpt>
      <trkpt lat="46.66526" lon="6.12061">
        <ele>1046.05</ele>
        <time>2015-06-29T10:54:30Z</time>
      </trkpt>
      <trkpt lat="46.66521" lon="6.12004">
        <ele>1046.53</ele>
        <time>2015-06-29T10:54:45Z</time>
      </trkpt>
      <trkpt lat="46.66511" lon="6.1195">
        <ele>1046.05</ele>
        <time>2015-06-29T10:54:59Z</time>
      </trkpt>
      <trkpt lat="46.66505" lon="6.11901">
        <ele>1045.57</ele>
        <time>2015-06-29T10:55:13Z</time>
      </trkpt>
      <trkpt lat="46.66496" lon="6.11857">
        <ele>1045.09</ele>
        <time>2015-06-29T10:55:24Z</time>
      </trkpt>
      <trkpt lat="46.6648" lon="6.11811">
        <ele>1044.61</ele>
        <time>2015-06-29T10:55:37Z</time>
      </trkpt>
      <trkpt lat="46.66465" lon="6.11776">
        <ele>1044.13</ele>
        <time>2015-06-29T10:55:48Z</time>
      </trkpt>
      <trkpt lat="46.66441" lon="6.11744">
        <ele>1045.57</ele>
        <time>2015-06-29T10:56:00Z</time>
      </trkpt>
      <trkpt lat="46.66411" lon="6.11711">
        <ele>1047.97</ele>
        <time>2015-06-29T10:56:15Z</time>
      </trkpt>
      <trkpt lat="46.66397" lon="6.11693">
        <ele>1047.49</ele>
        <time>2015-06-29T10:56:29Z</time>
      </trkpt>
      <trkpt lat="46.66396" lon="6.11693">
        <ele>1047.97</ele>
        <time>2015-06-29T10:56:49Z</time>
      </trkpt>
      <trkpt lat="46.66395" lon="6.11692">
        <ele>1047.97</ele>
        <time>2015-06-29T10:57:22Z</time>
      </trkpt>
      <trkpt lat="46.66392" lon="6.11695">
        <ele>1047.97</ele>
        <time>2015-06-29T10:57:35Z</time>
      </trkpt>
      <trkpt lat="46.66389" lon="6.117">
        <ele>1047.97</ele>
        <time>2015-06-29T10:57:43Z</time>
      </trkpt>
      <trkpt lat="46.66387" lon="6.11701">
        <ele>1048.45</ele>
        <time>2015-06-29T10:57:44Z</time>
      </trkpt>
      <trkpt lat="46.66386" lon="6.11703">
        <ele>1048.45</ele>
        <time>2015-06-29T10:57:45Z</time>
      </trkpt>
      <trkpt lat="46.66385" lon="6.11704">
        <ele>1048.45</ele>
        <time>2015-06-29T10:57:46Z</time>
      </trkpt>
      <trkpt lat="46.66384" lon="6.11705">
        <ele>1048.94</ele>
        <time>2015-06-29T10:57:47Z</time>
      </trkpt>
      <trkpt lat="46.66383" lon="6.11707">
        <ele>1048.94</ele>
        <time>2015-06-29T10:57:48Z</time>
      </trkpt>
      <trkpt lat="46.66382" lon="6.11708">
        <ele>1049.42</ele>
        <time>2015-06-29T10:57:49Z</time>
      </trkpt>
      <trkpt lat="46.66381" lon="6.11709">
        <ele>1049.42</ele>
        <time>2015-06-29T10:57:50Z</time>
      </trkpt>
      <trkpt lat="46.66363" lon="6.11727">
        <ele>1051.82</ele>
        <time>2015-06-29T10:58:04Z</time>
      </trkpt>
      <trkpt lat="46.66339" lon="6.11749">
        <ele>1053.74</ele>
        <time>2015-06-29T10:58:21Z</time>
      </trkpt>
      <trkpt lat="46.66319" lon="6.11758">
        <ele>1057.11</ele>
        <time>2015-06-29T10:58:35Z</time>
      </trkpt>
      <trkpt lat="46.66303" lon="6.11761">
        <ele>1058.55</ele>
        <time>2015-06-29T10:58:46Z</time>
      </trkpt>
      <trkpt lat="46.66302" lon="6.11761">
        <ele>1059.03</ele>
        <time>2015-06-29T10:58:47Z</time>
      </trkpt>
      <trkpt lat="46.663" lon="6.11761">
        <ele>1059.03</ele>
        <time>2015-06-29T10:58:48Z</time>
      </trkpt>
      <trkpt lat="46.66299" lon="6.11761">
        <ele>1058.55</ele>
        <time>2015-06-29T10:58:49Z</time>
      </trkpt>
      <trkpt lat="46.66298" lon="6.11761">
        <ele>1059.03</ele>
        <time>2015-06-29T10:58:50Z</time>
      </trkpt>
      <trkpt lat="46.66296" lon="6.11761">
        <ele>1059.51</ele>
        <time>2015-06-29T10:58:51Z</time>
      </trkpt>
      <trkpt lat="46.66275" lon="6.11757">
        <ele>1062.39</ele>
        <time>2015-06-29T10:59:07Z</time>
      </trkpt>
      <trkpt lat="46.66251" lon="6.1175">
        <ele>1063.84</ele>
        <time>2015-06-29T10:59:23Z</time>
      </trkpt>
      <trkpt lat="46.66233" lon="6.11735">
        <ele>1064.8</ele>
        <time>2015-06-29T10:59:37Z</time>
      </trkpt>
      <trkpt lat="46.66216" lon="6.11718">
        <ele>1063.84</ele>
        <time>2015-06-29T10:59:53Z</time>
      </trkpt>
      <trkpt lat="46.66213" lon="6.11718">
        <ele>1063.84</ele>
        <time>2015-06-29T11:00:15Z</time>
      </trkpt>
      <trkpt lat="46.6621" lon="6.11712">
        <ele>1063.84</ele>
        <time>2015-06-29T11:00:27Z</time>
      </trkpt>
      <trkpt lat="46.6621" lon="6.11709">
        <ele>1063.84</ele>
        <time>2015-06-29T11:00:28Z</time>
      </trkpt>
      <trkpt lat="46.66208" lon="6.11693">
        <ele>1061.91</ele>
        <time>2015-06-29T11:00:34Z</time>
      </trkpt>
      <trkpt lat="46.66207" lon="6.1169">
        <ele>1061.91</ele>
        <time>2015-06-29T11:00:35Z</time>
      </trkpt>
      <trkpt lat="46.66207" lon="6.11688">
        <ele>1061.43</ele>
        <time>2015-06-29T11:00:36Z</time>
      </trkpt>
      <trkpt lat="46.66206" lon="6.11681">
        <ele>1060.47</ele>
        <time>2015-06-29T11:00:38Z</time>
      </trkpt>
      <trkpt lat="46.66205" lon="6.11643">
        <ele>1057.59</ele>
        <time>2015-06-29T11:00:46Z</time>
      </trkpt>
      <trkpt lat="46.66205" lon="6.11619">
        <ele>1055.18</ele>
        <time>2015-06-29T11:00:52Z</time>
      </trkpt>
      <trkpt lat="46.66206" lon="6.11593">
        <ele>1053.26</ele>
        <time>2015-06-29T11:00:59Z</time>
      </trkpt>
      <trkpt lat="46.66217" lon="6.11564">
        <ele>1050.86</ele>
        <time>2015-06-29T11:01:06Z</time>
      </trkpt>
      <trkpt lat="46.6622" lon="6.11532">
        <ele>1047.49</ele>
        <time>2015-06-29T11:01:14Z</time>
      </trkpt>
      <trkpt lat="46.66221" lon="6.1153">
        <ele>1047.01</ele>
        <time>2015-06-29T11:01:15Z</time>
      </trkpt>
      <trkpt lat="46.66221" lon="6.11526">
        <ele>1047.01</ele>
        <time>2015-06-29T11:01:16Z</time>
      </trkpt>
      <trkpt lat="46.66221" lon="6.11484">
        <ele>1044.13</ele>
        <time>2015-06-29T11:01:24Z</time>
      </trkpt>
      <trkpt lat="46.6622" lon="6.11478">
        <ele>1044.13</ele>
        <time>2015-06-29T11:01:25Z</time>
      </trkpt>
      <trkpt lat="46.66219" lon="6.11473">
        <ele>1044.13</ele>
        <time>2015-06-29T11:01:26Z</time>
      </trkpt>
      <trkpt lat="46.66204" lon="6.11432">
        <ele>1044.61</ele>
        <time>2015-06-29T11:01:37Z</time>
      </trkpt>
      <trkpt lat="46.66199" lon="6.1142">
        <ele>1044.61</ele>
        <time>2015-06-29T11:01:40Z</time>
      </trkpt>
      <trkpt lat="46.66199" lon="6.11417">
        <ele>1044.61</ele>
        <time>2015-06-29T11:01:41Z</time>
      </trkpt>
      <trkpt lat="46.66185" lon="6.11371">
        <ele>1044.13</ele>
        <time>2015-06-29T11:01:51Z</time>
      </trkpt>
      <trkpt lat="46.66174" lon="6.11337">
        <ele>1045.57</ele>
        <time>2015-06-29T11:02:01Z</time>
      </trkpt>
      <trkpt lat="46.66174" lon="6.11334">
        <ele>1045.57</ele>
        <time>2015-06-29T11:02:02Z</time>
      </trkpt>
      <trkpt lat="46.6617" lon="6.11317">
        <ele>1047.49</ele>
        <time>2015-06-29T11:02:12Z</time>
      </trkpt>
      <trkpt lat="46.66169" lon="6.11315">
        <ele>1047.49</ele>
        <time>2015-06-29T11:02:13Z</time>
      </trkpt>
      <trkpt lat="46.66167" lon="6.11292">
        <ele>1049.42</ele>
        <time>2015-06-29T11:02:24Z</time>
      </trkpt>
      <trkpt lat="46.66163" lon="6.11266">
        <ele>1050.38</ele>
        <time>2015-06-29T11:02:35Z</time>
      </trkpt>
      <trkpt lat="46.66163" lon="6.11264">
        <ele>1050.38</ele>
        <time>2015-06-29T11:02:36Z</time>
      </trkpt>
      <trkpt lat="46.66163" lon="6.11262">
        <ele>1050.86</ele>
        <time>2015-06-29T11:02:37Z</time>
      </trkpt>
      <trkpt lat="46.66162" lon="6.1126">
        <ele>1050.86</ele>
        <time>2015-06-29T11:02:38Z</time>
      </trkpt>
      <trkpt lat="46.66161" lon="6.11258">
        <ele>1050.86</ele>
        <time>2015-06-29T11:02:39Z</time>
      </trkpt>
      <trkpt lat="46.6616" lon="6.11256">
        <ele>1050.86</ele>
        <time>2015-06-29T11:02:40Z</time>
      </trkpt>
      <trkpt lat="46.66152" lon="6.11225">
        <ele>1053.26</ele>
        <time>2015-06-29T11:02:57Z</time>
      </trkpt>
      <trkpt lat="46.66144" lon="6.112">
        <ele>1055.18</ele>
        <time>2015-06-29T11:03:12Z</time>
      </trkpt>
      <trkpt lat="46.66144" lon="6.11196">
        <ele>1055.67</ele>
        <time>2015-06-29T11:03:15Z</time>
      </trkpt>
      <trkpt lat="46.66143" lon="6.11194">
        <ele>1055.67</ele>
        <time>2015-06-29T11:03:16Z</time>
      </trkpt>
      <trkpt lat="46.66142" lon="6.11192">
        <ele>1055.67</ele>
        <time>2015-06-29T11:03:17Z</time>
      </trkpt>
      <trkpt lat="46.66142" lon="6.11191">
        <ele>1055.67</ele>
        <time>2015-06-29T11:03:18Z</time>
      </trkpt>
      <trkpt lat="46.66141" lon="6.11189">
        <ele>1056.15</ele>
        <time>2015-06-29T11:03:19Z</time>
      </trkpt>
      <trkpt lat="46.66134" lon="6.1117">
        <ele>1057.11</ele>
        <time>2015-06-29T11:03:32Z</time>
      </trkpt>
      <trkpt lat="46.66126" lon="6.11152">
        <ele>1059.03</ele>
        <time>2015-06-29T11:03:45Z</time>
      </trkpt>
      <trkpt lat="46.66126" lon="6.11151">
        <ele>1058.55</ele>
        <time>2015-06-29T11:03:46Z</time>
      </trkpt>
      <trkpt lat="46.66125" lon="6.11149">
        <ele>1059.03</ele>
        <time>2015-06-29T11:03:47Z</time>
      </trkpt>
      <trkpt lat="46.66125" lon="6.11147">
        <ele>1059.03</ele>
        <time>2015-06-29T11:03:48Z</time>
      </trkpt>
      <trkpt lat="46.66123" lon="6.11143">
        <ele>1059.51</ele>
        <time>2015-06-29T11:03:51Z</time>
      </trkpt>
      <trkpt lat="46.66121" lon="6.11138">
        <ele>1059.99</ele>
        <time>2015-06-29T11:03:54Z</time>
      </trkpt>
      <trkpt lat="46.6612" lon="6.11136">
        <ele>1059.99</ele>
        <time>2015-06-29T11:03:55Z</time>
      </trkpt>
      <trkpt lat="46.66119" lon="6.11135">
        <ele>1059.99</ele>
        <time>2015-06-29T11:03:56Z</time>
      </trkpt>
      <trkpt lat="46.66117" lon="6.1113">
        <ele>1060.47</ele>
        <time>2015-06-29T11:04:00Z</time>
      </trkpt>
      <trkpt lat="46.66116" lon="6.11129">
        <ele>1060.47</ele>
        <time>2015-06-29T11:04:01Z</time>
      </trkpt>
      <trkpt lat="46.6611" lon="6.11112">
        <ele>1059.99</ele>
        <time>2015-06-29T11:04:10Z</time>
      </trkpt>
      <trkpt lat="46.66104" lon="6.11096">
        <ele>1060.95</ele>
        <time>2015-06-29T11:04:20Z</time>
      </trkpt>
      <trkpt lat="46.66093" lon="6.11077">
        <ele>1060.95</ele>
        <time>2015-06-29T11:04:33Z</time>
      </trkpt>
      <trkpt lat="46.66093" lon="6.11078">
        <ele>1060.95</ele>
        <time>2015-06-29T11:04:43Z</time>
      </trkpt>
      <trkpt lat="46.66093" lon="6.11079">
        <ele>1060.47</ele>
        <time>2015-06-29T11:04:57Z</time>
      </trkpt>
      <trkpt lat="46.66092" lon="6.11081">
        <ele>1060.95</ele>
        <time>2015-06-29T11:05:17Z</time>
      </trkpt>
      <trkpt lat="46.66091" lon="6.1108">
        <ele>1060.47</ele>
        <time>2015-06-29T11:05:43Z</time>
      </trkpt>
      <trkpt lat="46.66088" lon="6.11079">
        <ele>1060.47</ele>
        <time>2015-06-29T11:06:14Z</time>
      </trkpt>
      <trkpt lat="46.66087" lon="6.11081">
        <ele>1060.47</ele>
        <time>2015-06-29T11:06:50Z</time>
      </trkpt>
      <trkpt lat="46.66088" lon="6.1108">
        <ele>1060.47</ele>
        <time>2015-06-29T11:07:25Z</time>
      </trkpt>
      <trkpt lat="46.66089" lon="6.11081">
        <ele>1059.99</ele>
        <time>2015-06-29T11:08:03Z</time>
      </trkpt>
      <trkpt lat="46.6609" lon="6.11081">
        <ele>1060.47</ele>
        <time>2015-06-29T11:08:37Z</time>
      </trkpt>
      <trkpt lat="46.6609" lon="6.11079">
        <ele>1060.47</ele>
        <time>2015-06-29T11:09:11Z</time>
      </trkpt>
      <trkpt lat="46.66089" lon="6.11079">
        <ele>1060.47</ele>
        <time>2015-06-29T11:09:49Z</time>
      </trkpt>
      <trkpt lat="46.66089" lon="6.11082">
        <ele>1060.95</ele>
        <time>2015-06-29T11:10:29Z</time>
      </trkpt>
      <trkpt lat="46.6609" lon="6.11082">
        <ele>1059.99</ele>
        <time>2015-06-29T11:11:07Z</time>
      </trkpt>
      <trkpt lat="46.66091" lon="6.11083">
        <ele>1060.95</ele>
        <time>2015-06-29T11:11:46Z</time>
      </trkpt>
      <trkpt lat="46.66089" lon="6.11083">
        <ele>1060.47</ele>
        <time>2015-06-29T11:12:22Z</time>
      </trkpt>
      <trkpt lat="46.66089" lon="6.11082">
        <ele>1060.47</ele>
        <time>2015-06-29T11:12:57Z</time>
      </trkpt>
      <trkpt lat="46.66089" lon="6.11083">
        <ele>1060.47</ele>
        <time>2015-06-29T11:13:33Z</time>
      </trkpt>
      <trkpt lat="46.6609" lon="6.11083">
        <ele>1060.47</ele>
        <time>2015-06-29T11:14:08Z</time>
      </trkpt>
      <trkpt lat="46.6609" lon="6.11082">
        <ele>1060.95</ele>
        <time>2015-06-29T11:14:43Z</time>
      </trkpt>
      <trkpt lat="46.66088" lon="6.1108">
        <ele>1060.95</ele>
        <time>2015-06-29T11:15:23Z</time>
      </trkpt>
      <trkpt lat="46.66088" lon="6.11079">
        <ele>1060.95</ele>
        <time>2015-06-29T11:15:56Z</time>
      </trkpt>
      <trkpt lat="46.66088" lon="6.1108">
        <ele>1060.95</ele>
        <time>2015-06-29T11:16:35Z</time>
      </trkpt>
      <trkpt lat="46.66089" lon="6.1108">
        <ele>1061.43</ele>
        <time>2015-06-29T11:17:07Z</time>
      </trkpt>
      <trkpt lat="46.66089" lon="6.1108">
        <ele>1060.95</ele>
        <time>2015-06-29T11:17:38Z</time>
      </trkpt>
      <trkpt lat="46.6609" lon="6.1108">
        <ele>1061.43</ele>
        <time>2015-06-29T11:18:09Z</time>
      </trkpt>
      <trkpt lat="46.66089" lon="6.1108">
        <ele>1060.95</ele>
        <time>2015-06-29T11:18:40Z</time>
      </trkpt>
      <trkpt lat="46.6609" lon="6.1108">
        <ele>1061.43</ele>
        <time>2015-06-29T11:19:11Z</time>
      </trkpt>
      <trkpt lat="46.66091" lon="6.11079">
        <ele>1061.43</ele>
        <time>2015-06-29T11:19:44Z</time>
      </trkpt>
      <trkpt lat="46.6609" lon="6.1108">
        <ele>1061.43</ele>
        <time>2015-06-29T11:20:21Z</time>
      </trkpt>
      <trkpt lat="46.66091" lon="6.1108">
        <ele>1061.91</ele>
        <time>2015-06-29T11:20:57Z</time>
      </trkpt>
      <trkpt lat="46.66091" lon="6.1108">
        <ele>1061.43</ele>
        <time>2015-06-29T11:21:37Z</time>
      </trkpt>
      <trkpt lat="46.66094" lon="6.11081">
        <ele>1061.43</ele>
        <time>2015-06-29T11:22:10Z</time>
      </trkpt>
      <trkpt lat="46.66095" lon="6.1108">
        <ele>1061.91</ele>
        <time>2015-06-29T11:22:52Z</time>
      </trkpt>
      <trkpt lat="46.66093" lon="6.11081">
        <ele>1061.91</ele>
        <time>2015-06-29T11:23:26Z</time>
      </trkpt>
      <trkpt lat="46.66094" lon="6.11082">
        <ele>1061.91</ele>
        <time>2015-06-29T11:24:02Z</time>
      </trkpt>
      <trkpt lat="46.66093" lon="6.11084">
        <ele>1061.91</ele>
        <time>2015-06-29T11:24:38Z</time>
      </trkpt>
      <trkpt lat="46.66093" lon="6.11084">
        <ele>1061.43</ele>
        <time>2015-06-29T11:25:16Z</time>
      </trkpt>
      <trkpt lat="46.66092" lon="6.11083">
        <ele>1061.91</ele>
        <time>2015-06-29T11:25:52Z</time>
      </trkpt>
      <trkpt lat="46.66091" lon="6.11082">
        <ele>1061.91</ele>
        <time>2015-06-29T11:26:34Z</time>
      </trkpt>
      <trkpt lat="46.6609" lon="6.11082">
        <ele>1061.43</ele>
        <time>2015-06-29T11:27:13Z</time>
      </trkpt>
      <trkpt lat="46.66089" lon="6.11082">
        <ele>1061.43</ele>
        <time>2015-06-29T11:27:50Z</time>
      </trkpt>
      <trkpt lat="46.66088" lon="6.11081">
        <ele>1061.91</ele>
        <time>2015-06-29T11:28:34Z</time>
      </trkpt>
      <trkpt lat="46.66088" lon="6.11081">
        <ele>1062.39</ele>
        <time>2015-06-29T11:29:11Z</time>
      </trkpt>
      <trkpt lat="46.66088" lon="6.11082">
        <ele>1062.39</ele>
        <time>2015-06-29T11:29:46Z</time>
      </trkpt>
      <trkpt lat="46.66088" lon="6.11082">
        <ele>1062.39</ele>
        <time>2015-06-29T11:30:22Z</time>
      </trkpt>
      <trkpt lat="46.66088" lon="6.11081">
        <ele>1061.91</ele>
        <time>2015-06-29T11:30:55Z</time>
      </trkpt>
      <trkpt lat="46.66088" lon="6.1108">
        <ele>1061.91</ele>
        <time>2015-06-29T11:31:28Z</time>
      </trkpt>
      <trkpt lat="46.66089" lon="6.11082">
        <ele>1061.91</ele>
        <time>2015-06-29T11:32:03Z</time>
      </trkpt>
      <trkpt lat="46.66089" lon="6.11081">
        <ele>1062.39</ele>
        <time>2015-06-29T11:32:34Z</time>
      </trkpt>
      <trkpt lat="46.66089" lon="6.11082">
        <ele>1062.87</ele>
        <time>2015-06-29T11:34:29Z</time>
      </trkpt>
      <trkpt lat="46.66088" lon="6.1108">
        <ele>1062.39</ele>
        <time>2015-06-29T11:35:11Z</time>
      </trkpt>
      <trkpt lat="46.66089" lon="6.11079">
        <ele>1062.39</ele>
        <time>2015-06-29T11:35:44Z</time>
      </trkpt>
      <trkpt lat="46.66089" lon="6.11079">
        <ele>1062.39</ele>
        <time>2015-06-29T11:36:18Z</time>
      </trkpt>
      <trkpt lat="46.66091" lon="6.11079">
        <ele>1062.39</ele>
        <time>2015-06-29T11:36:55Z</time>
      </trkpt>
      <trkpt lat="46.66089" lon="6.11081">
        <ele>1062.39</ele>
        <time>2015-06-29T11:37:36Z</time>
      </trkpt>
      <trkpt lat="46.66089" lon="6.11079">
        <ele>1062.39</ele>
        <time>2015-06-29T11:38:13Z</time>
      </trkpt>
      <trkpt lat="46.66089" lon="6.11079">
        <ele>1062.39</ele>
        <time>2015-06-29T11:38:49Z</time>
      </trkpt>
      <trkpt lat="46.66089" lon="6.11079">
        <ele>1062.39</ele>
        <time>2015-06-29T11:39:25Z</time>
      </trkpt>
      <trkpt lat="46.66089" lon="6.11081">
        <ele>1062.39</ele>
        <time>2015-06-29T11:40:00Z</time>
      </trkpt>
      <trkpt lat="46.6609" lon="6.11082">
        <ele>1062.39</ele>
        <time>2015-06-29T11:40:33Z</time>
      </trkpt>
      <trkpt lat="46.66091" lon="6.11081">
        <ele>1062.87</ele>
        <time>2015-06-29T11:41:13Z</time>
      </trkpt>
      <trkpt lat="46.66091" lon="6.11081">
        <ele>1062.87</ele>
        <time>2015-06-29T11:41:47Z</time>
      </trkpt>
      <trkpt lat="46.66092" lon="6.11081">
        <ele>1062.87</ele>
        <time>2015-06-29T11:42:16Z</time>
      </trkpt>
      <trkpt lat="46.66091" lon="6.11082">
        <ele>1062.87</ele>
        <time>2015-06-29T11:42:49Z</time>
      </trkpt>
      <trkpt lat="46.66089" lon="6.11081">
        <ele>1062.87</ele>
        <time>2015-06-29T11:43:18Z</time>
      </trkpt>
      <trkpt lat="46.66089" lon="6.1108">
        <ele>1063.36</ele>
        <time>2015-06-29T11:43:52Z</time>
      </trkpt>
      <trkpt lat="46.66088" lon="6.11079">
        <ele>1063.36</ele>
        <time>2015-06-29T11:44:33Z</time>
      </trkpt>
      <trkpt lat="46.66088" lon="6.11079">
        <ele>1063.84</ele>
        <time>2015-06-29T11:45:11Z</time>
      </trkpt>
      <trkpt lat="46.66088" lon="6.11079">
        <ele>1063.84</ele>
        <time>2015-06-29T11:45:51Z</time>
      </trkpt>
      <trkpt lat="46.66088" lon="6.11078">
        <ele>1063.84</ele>
        <time>2015-06-29T11:46:28Z</time>
      </trkpt>
      <trkpt lat="46.66088" lon="6.11078">
        <ele>1063.84</ele>
        <time>2015-06-29T11:47:06Z</time>
      </trkpt>
      <trkpt lat="46.66089" lon="6.11082">
        <ele>1063.84</ele>
        <time>2015-06-29T11:47:44Z</time>
      </trkpt>
      <trkpt lat="46.6609" lon="6.1108">
        <ele>1063.84</ele>
        <time>2015-06-29T11:48:25Z</time>
      </trkpt>
      <trkpt lat="46.66089" lon="6.1108">
        <ele>1063.84</ele>
        <time>2015-06-29T11:49:02Z</time>
      </trkpt>
      <trkpt lat="46.66088" lon="6.11081">
        <ele>1063.36</ele>
        <time>2015-06-29T11:49:42Z</time>
      </trkpt>
      <trkpt lat="46.66089" lon="6.11082">
        <ele>1063.84</ele>
        <time>2015-06-29T11:50:21Z</time>
      </trkpt>
      <trkpt lat="46.6609" lon="6.1108">
        <ele>1064.32</ele>
        <time>2015-06-29T11:50:59Z</time>
      </trkpt>
      <trkpt lat="46.66089" lon="6.1108">
        <ele>1063.36</ele>
        <time>2015-06-29T11:51:37Z</time>
      </trkpt>
      <trkpt lat="46.66089" lon="6.11081">
        <ele>1063.84</ele>
        <time>2015-06-29T11:52:18Z</time>
      </trkpt>
      <trkpt lat="46.66089" lon="6.11081">
        <ele>1063.84</ele>
        <time>2015-06-29T11:52:49Z</time>
      </trkpt>
      <trkpt lat="46.66091" lon="6.1108">
        <ele>1063.84</ele>
        <time>2015-06-29T11:53:25Z</time>
      </trkpt>
      <trkpt lat="46.66089" lon="6.11082">
        <ele>1063.84</ele>
        <time>2015-06-29T11:54:01Z</time>
      </trkpt>
      <trkpt lat="46.66089" lon="6.11081">
        <ele>1063.84</ele>
        <time>2015-06-29T11:54:42Z</time>
      </trkpt>
      <trkpt lat="46.66091" lon="6.11081">
        <ele>1063.84</ele>
        <time>2015-06-29T11:55:12Z</time>
      </trkpt>
      <trkpt lat="46.66091" lon="6.11079">
        <ele>1063.84</ele>
        <time>2015-06-29T11:55:49Z</time>
      </trkpt>
      <trkpt lat="46.66091" lon="6.11079">
        <ele>1063.84</ele>
        <time>2015-06-29T11:56:29Z</time>
      </trkpt>
      <trkpt lat="46.6609" lon="6.1108">
        <ele>1064.32</ele>
        <time>2015-06-29T11:57:10Z</time>
      </trkpt>
      <trkpt lat="46.66089" lon="6.1108">
        <ele>1064.8</ele>
        <time>2015-06-29T11:57:49Z</time>
      </trkpt>
      <trkpt lat="46.6609" lon="6.1108">
        <ele>1064.8</ele>
        <time>2015-06-29T11:58:23Z</time>
      </trkpt>
      <trkpt lat="46.66089" lon="6.11082">
        <ele>1065.28</ele>
        <time>2015-06-29T11:58:56Z</time>
      </trkpt>
      <trkpt lat="46.66088" lon="6.11082">
        <ele>1065.28</ele>
        <time>2015-06-29T11:59:34Z</time>
      </trkpt>
      <trkpt lat="46.66089" lon="6.11081">
        <ele>1065.28</ele>
        <time>2015-06-29T12:00:08Z</time>
      </trkpt>
      <trkpt lat="46.6609" lon="6.1108">
        <ele>1065.76</ele>
        <time>2015-06-29T12:00:41Z</time>
      </trkpt>
      <trkpt lat="46.66091" lon="6.11081">
        <ele>1066.24</ele>
        <time>2015-06-29T12:01:18Z</time>
      </trkpt>
      <trkpt lat="46.66091" lon="6.11078">
        <ele>1066.24</ele>
        <time>2015-06-29T12:01:58Z</time>
      </trkpt>
      <trkpt lat="46.6609" lon="6.11078">
        <ele>1066.24</ele>
        <time>2015-06-29T12:02:34Z</time>
      </trkpt>
      <trkpt lat="46.66092" lon="6.11081">
        <ele>1066.24</ele>
        <time>2015-06-29T12:03:10Z</time>
      </trkpt>
      <trkpt lat="46.66092" lon="6.11079">
        <ele>1066.72</ele>
        <time>2015-06-29T12:03:44Z</time>
      </trkpt>
      <trkpt lat="46.66092" lon="6.11081">
        <ele>1066.72</ele>
        <time>2015-06-29T12:04:18Z</time>
      </trkpt>
      <trkpt lat="46.66091" lon="6.1108">
        <ele>1066.72</ele>
        <time>2015-06-29T12:04:47Z</time>
      </trkpt>
      <trkpt lat="46.66091" lon="6.1108">
        <ele>1067.2</ele>
        <time>2015-06-29T12:05:19Z</time>
      </trkpt>
      <trkpt lat="46.66091" lon="6.11081">
        <ele>1066.24</ele>
        <time>2015-06-29T12:05:52Z</time>
      </trkpt>
      <trkpt lat="46.66091" lon="6.11083">
        <ele>1066.72</ele>
        <time>2015-06-29T12:06:29Z</time>
      </trkpt>
      <trkpt lat="46.66091" lon="6.11083">
        <ele>1066.72</ele>
        <time>2015-06-29T12:07:06Z</time>
      </trkpt>
      <trkpt lat="46.6609" lon="6.11081">
        <ele>1066.72</ele>
        <time>2015-06-29T12:07:41Z</time>
      </trkpt>
      <trkpt lat="46.66092" lon="6.11083">
        <ele>1066.72</ele>
        <time>2015-06-29T12:08:14Z</time>
      </trkpt>
      <trkpt lat="46.66091" lon="6.11082">
        <ele>1067.2</ele>
        <time>2015-06-29T12:08:41Z</time>
      </trkpt>
      <trkpt lat="46.6609" lon="6.11082">
        <ele>1066.72</ele>
        <time>2015-06-29T12:09:15Z</time>
      </trkpt>
      <trkpt lat="46.66091" lon="6.11083">
        <ele>1066.72</ele>
        <time>2015-06-29T12:09:50Z</time>
      </trkpt>
      <trkpt lat="46.66092" lon="6.11083">
        <ele>1066.72</ele>
        <time>2015-06-29T12:10:31Z</time>
      </trkpt>
      <trkpt lat="46.66092" lon="6.11083">
        <ele>1067.2</ele>
        <time>2015-06-29T12:11:15Z</time>
      </trkpt>
      <trkpt lat="46.6609" lon="6.11083">
        <ele>1066.72</ele>
        <time>2015-06-29T12:11:53Z</time>
      </trkpt>
      <trkpt lat="46.66089" lon="6.11084">
        <ele>1066.72</ele>
        <time>2015-06-29T12:12:34Z</time>
      </trkpt>
      <trkpt lat="46.66089" lon="6.11086">
        <ele>1066.72</ele>
        <time>2015-06-29T12:13:14Z</time>
      </trkpt>
      <trkpt lat="46.6609" lon="6.11084">
        <ele>1066.24</ele>
        <time>2015-06-29T12:13:56Z</time>
      </trkpt>
      <trkpt lat="46.66089" lon="6.11083">
        <ele>1066.24</ele>
        <time>2015-06-29T12:14:32Z</time>
      </trkpt>
      <trkpt lat="46.6609" lon="6.11082">
        <ele>1066.24</ele>
        <time>2015-06-29T12:15:08Z</time>
      </trkpt>
      <trkpt lat="46.6609" lon="6.1108">
        <ele>1066.24</ele>
        <time>2015-06-29T12:15:41Z</time>
      </trkpt>
      <trkpt lat="46.66088" lon="6.11079">
        <ele>1065.76</ele>
        <time>2015-06-29T12:16:16Z</time>
      </trkpt>
      <trkpt lat="46.66089" lon="6.1108">
        <ele>1065.76</ele>
        <time>2015-06-29T12:16:55Z</time>
      </trkpt>
      <trkpt lat="46.66089" lon="6.1108">
        <ele>1066.24</ele>
        <time>2015-06-29T12:17:32Z</time>
      </trkpt>
      <trkpt lat="46.66088" lon="6.11079">
        <ele>1065.76</ele>
        <time>2015-06-29T12:18:10Z</time>
      </trkpt>
      <trkpt lat="46.66088" lon="6.11079">
        <ele>1065.76</ele>
        <time>2015-06-29T12:18:52Z</time>
      </trkpt>
      <trkpt lat="46.66087" lon="6.11078">
        <ele>1065.76</ele>
        <time>2015-06-29T12:19:27Z</time>
      </trkpt>
      <trkpt lat="46.66087" lon="6.11076">
        <ele>1065.76</ele>
        <time>2015-06-29T12:19:58Z</time>
      </trkpt>
      <trkpt lat="46.66086" lon="6.11077">
        <ele>1065.28</ele>
        <time>2015-06-29T12:20:35Z</time>
      </trkpt>
      <trkpt lat="46.66085" lon="6.11076">
        <ele>1064.8</ele>
        <time>2015-06-29T12:21:10Z</time>
      </trkpt>
      <trkpt lat="46.66087" lon="6.11075">
        <ele>1065.28</ele>
        <time>2015-06-29T12:21:42Z</time>
      </trkpt>
      <trkpt lat="46.6609" lon="6.11075">
        <ele>1065.28</ele>
        <time>2015-06-29T12:22:17Z</time>
      </trkpt>
      <trkpt lat="46.66089" lon="6.11076">
        <ele>1065.28</ele>
        <time>2015-06-29T12:22:58Z</time>
      </trkpt>
      <trkpt lat="46.66089" lon="6.11077">
        <ele>1064.8</ele>
        <time>2015-06-29T12:23:30Z</time>
      </trkpt>
      <trkpt lat="46.6609" lon="6.11077">
        <ele>1064.8</ele>
        <time>2015-06-29T12:24:02Z</time>
      </trkpt>
      <trkpt lat="46.6609" lon="6.11078">
        <ele>1064.8</ele>
        <time>2015-06-29T12:24:27Z</time>
      </trkpt>
      <trkpt lat="46.6609" lon="6.11078">
        <ele>1064.8</ele>
        <time>2015-06-29T12:24:31Z</time>
      </trkpt>
      <trkpt lat="46.66089" lon="6.11078">
        <ele>1064.32</ele>
        <time>2015-06-29T12:24:44Z</time>
      </trkpt>
      <trkpt lat="46.66089" lon="6.11077">
        <ele>1064.8</ele>
        <time>2015-06-29T12:24:58Z</time>
      </trkpt>
      <trkpt lat="46.66077" lon="6.11055">
        <ele>1065.28</ele>
        <time>2015-06-29T12:25:10Z</time>
      </trkpt>
      <trkpt lat="46.66072" lon="6.11046">
        <ele>1065.76</ele>
        <time>2015-06-29T12:25:15Z</time>
      </trkpt>
      <trkpt lat="46.66072" lon="6.11043">
        <ele>1066.24</ele>
        <time>2015-06-29T12:25:16Z</time>
      </trkpt>
      <trkpt lat="46.66069" lon="6.11035">
        <ele>1066.72</ele>
        <time>2015-06-29T12:25:20Z</time>
      </trkpt>
      <trkpt lat="46.66068" lon="6.11033">
        <ele>1066.72</ele>
        <time>2015-06-29T12:25:21Z</time>
      </trkpt>
      <trkpt lat="46.66067" lon="6.11028">
        <ele>1066.72</ele>
        <time>2015-06-29T12:25:24Z</time>
      </trkpt>
      <trkpt lat="46.66066" lon="6.11026">
        <ele>1067.2</ele>
        <time>2015-06-29T12:25:25Z</time>
      </trkpt>
      <trkpt lat="46.66066" lon="6.11024">
        <ele>1067.2</ele>
        <time>2015-06-29T12:25:26Z</time>
      </trkpt>
      <trkpt lat="46.66065" lon="6.11022">
        <ele>1067.68</ele>
        <time>2015-06-29T12:25:27Z</time>
      </trkpt>
      <trkpt lat="46.66064" lon="6.1102">
        <ele>1067.68</ele>
        <time>2015-06-29T12:25:28Z</time>
      </trkpt>
      <trkpt lat="46.66064" lon="6.11017">
        <ele>1067.68</ele>
        <time>2015-06-29T12:25:29Z</time>
      </trkpt>
      <trkpt lat="46.66063" lon="6.11015">
        <ele>1068.16</ele>
        <time>2015-06-29T12:25:30Z</time>
      </trkpt>
      <trkpt lat="46.66062" lon="6.11012">
        <ele>1068.16</ele>
        <time>2015-06-29T12:25:31Z</time>
      </trkpt>
      <trkpt lat="46.66062" lon="6.1101">
        <ele>1068.16</ele>
        <time>2015-06-29T12:25:32Z</time>
      </trkpt>
      <trkpt lat="46.66061" lon="6.11008">
        <ele>1068.16</ele>
        <time>2015-06-29T12:25:33Z</time>
      </trkpt>
      <trkpt lat="46.6606" lon="6.11006">
        <ele>1068.16</ele>
        <time>2015-06-29T12:25:34Z</time>
      </trkpt>
      <trkpt lat="46.66041" lon="6.10972">
        <ele>1068.16</ele>
        <time>2015-06-29T12:25:50Z</time>
      </trkpt>
      <trkpt lat="46.66021" lon="6.10951">
        <ele>1068.16</ele>
        <time>2015-06-29T12:26:02Z</time>
      </trkpt>
      <trkpt lat="46.66017" lon="6.10948">
        <ele>1068.64</ele>
        <time>2015-06-29T12:26:04Z</time>
      </trkpt>
      <trkpt lat="46.66015" lon="6.10948">
        <ele>1068.64</ele>
        <time>2015-06-29T12:26:05Z</time>
      </trkpt>
      <trkpt lat="46.66013" lon="6.10946">
        <ele>1069.12</ele>
        <time>2015-06-29T12:26:06Z</time>
      </trkpt>
      <trkpt lat="46.66012" lon="6.10945">
        <ele>1069.12</ele>
        <time>2015-06-29T12:26:07Z</time>
      </trkpt>
      <trkpt lat="46.6601" lon="6.10944">
        <ele>1069.6</ele>
        <time>2015-06-29T12:26:08Z</time>
      </trkpt>
      <trkpt lat="46.66009" lon="6.10942">
        <ele>1070.08</ele>
        <time>2015-06-29T12:26:09Z</time>
      </trkpt>
      <trkpt lat="46.66005" lon="6.10937">
        <ele>1069.6</ele>
        <time>2015-06-29T12:26:12Z</time>
      </trkpt>
      <trkpt lat="46.66003" lon="6.10936">
        <ele>1069.12</ele>
        <time>2015-06-29T12:26:13Z</time>
      </trkpt>
      <trkpt lat="46.66002" lon="6.10935">
        <ele>1069.6</ele>
        <time>2015-06-29T12:26:14Z</time>
      </trkpt>
      <trkpt lat="46.66001" lon="6.10934">
        <ele>1069.6</ele>
        <time>2015-06-29T12:26:15Z</time>
      </trkpt>
      <trkpt lat="46.66" lon="6.10932">
        <ele>1069.12</ele>
        <time>2015-06-29T12:26:16Z</time>
      </trkpt>
      <trkpt lat="46.65998" lon="6.1093">
        <ele>1069.12</ele>
        <time>2015-06-29T12:26:17Z</time>
      </trkpt>
      <trkpt lat="46.65982" lon="6.10911">
        <ele>1070.08</ele>
        <time>2015-06-29T12:26:28Z</time>
      </trkpt>
      <trkpt lat="46.65981" lon="6.10909">
        <ele>1070.57</ele>
        <time>2015-06-29T12:26:29Z</time>
      </trkpt>
      <trkpt lat="46.6598" lon="6.10908">
        <ele>1070.08</ele>
        <time>2015-06-29T12:26:30Z</time>
      </trkpt>
      <trkpt lat="46.65979" lon="6.10906">
        <ele>1070.57</ele>
        <time>2015-06-29T12:26:31Z</time>
      </trkpt>
      <trkpt lat="46.65978" lon="6.10904">
        <ele>1070.57</ele>
        <time>2015-06-29T12:26:32Z</time>
      </trkpt>
      <trkpt lat="46.65972" lon="6.10892">
        <ele>1071.05</ele>
        <time>2015-06-29T12:26:39Z</time>
      </trkpt>
      <trkpt lat="46.65971" lon="6.1089">
        <ele>1070.57</ele>
        <time>2015-06-29T12:26:40Z</time>
      </trkpt>
      <trkpt lat="46.6597" lon="6.10887">
        <ele>1070.57</ele>
        <time>2015-06-29T12:26:41Z</time>
      </trkpt>
      <trkpt lat="46.65969" lon="6.10884">
        <ele>1070.57</ele>
        <time>2015-06-29T12:26:42Z</time>
      </trkpt>
      <trkpt lat="46.65967" lon="6.10882">
        <ele>1070.57</ele>
        <time>2015-06-29T12:26:43Z</time>
      </trkpt>
      <trkpt lat="46.65965" lon="6.10879">
        <ele>1069.6</ele>
        <time>2015-06-29T12:26:44Z</time>
      </trkpt>
      <trkpt lat="46.6596" lon="6.10874">
        <ele>1069.12</ele>
        <time>2015-06-29T12:26:46Z</time>
      </trkpt>
      <trkpt lat="46.65958" lon="6.1087">
        <ele>1068.16</ele>
        <time>2015-06-29T12:26:47Z</time>
      </trkpt>
      <trkpt lat="46.65954" lon="6.10862">
        <ele>1068.16</ele>
        <time>2015-06-29T12:26:49Z</time>
      </trkpt>
      <trkpt lat="46.65953" lon="6.10858">
        <ele>1067.68</ele>
        <time>2015-06-29T12:26:50Z</time>
      </trkpt>
      <trkpt lat="46.65951" lon="6.10855">
        <ele>1067.2</ele>
        <time>2015-06-29T12:26:51Z</time>
      </trkpt>
      <trkpt lat="46.6595" lon="6.10854">
        <ele>1067.68</ele>
        <time>2015-06-29T12:26:52Z</time>
      </trkpt>
      <trkpt lat="46.65946" lon="6.10847">
        <ele>1067.68</ele>
        <time>2015-06-29T12:26:55Z</time>
      </trkpt>
      <trkpt lat="46.65944" lon="6.10845">
        <ele>1067.2</ele>
        <time>2015-06-29T12:26:56Z</time>
      </trkpt>
      <trkpt lat="46.65943" lon="6.10843">
        <ele>1067.2</ele>
        <time>2015-06-29T12:26:57Z</time>
      </trkpt>
      <trkpt lat="46.6594" lon="6.10835">
        <ele>1067.2</ele>
        <time>2015-06-29T12:27:10Z</time>
      </trkpt>
      <trkpt lat="46.65936" lon="6.10827">
        <ele>1067.2</ele>
        <time>2015-06-29T12:27:19Z</time>
      </trkpt>
      <trkpt lat="46.65935" lon="6.10824">
        <ele>1067.68</ele>
        <time>2015-06-29T12:27:20Z</time>
      </trkpt>
      <trkpt lat="46.65933" lon="6.10822">
        <ele>1067.68</ele>
        <time>2015-06-29T12:27:21Z</time>
      </trkpt>
      <trkpt lat="46.65932" lon="6.10819">
        <ele>1067.68</ele>
        <time>2015-06-29T12:27:22Z</time>
      </trkpt>
      <trkpt lat="46.65931" lon="6.10815">
        <ele>1067.68</ele>
        <time>2015-06-29T12:27:23Z</time>
      </trkpt>
      <trkpt lat="46.6593" lon="6.10812">
        <ele>1068.64</ele>
        <time>2015-06-29T12:27:24Z</time>
      </trkpt>
      <trkpt lat="46.65929" lon="6.10809">
        <ele>1067.68</ele>
        <time>2015-06-29T12:27:25Z</time>
      </trkpt>
      <trkpt lat="46.65927" lon="6.10807">
        <ele>1068.64</ele>
        <time>2015-06-29T12:27:26Z</time>
      </trkpt>
      <trkpt lat="46.65923" lon="6.10797">
        <ele>1068.64</ele>
        <time>2015-06-29T12:27:30Z</time>
      </trkpt>
      <trkpt lat="46.65922" lon="6.10795">
        <ele>1069.12</ele>
        <time>2015-06-29T12:27:31Z</time>
      </trkpt>
      <trkpt lat="46.65922" lon="6.10793">
        <ele>1069.12</ele>
        <time>2015-06-29T12:27:32Z</time>
      </trkpt>
      <trkpt lat="46.65922" lon="6.1079">
        <ele>1069.12</ele>
        <time>2015-06-29T12:27:33Z</time>
      </trkpt>
      <trkpt lat="46.65921" lon="6.10786">
        <ele>1068.64</ele>
        <time>2015-06-29T12:27:34Z</time>
      </trkpt>
      <trkpt lat="46.6592" lon="6.10783">
        <ele>1069.12</ele>
        <time>2015-06-29T12:27:35Z</time>
      </trkpt>
      <trkpt lat="46.65919" lon="6.10779">
        <ele>1068.64</ele>
        <time>2015-06-29T12:27:36Z</time>
      </trkpt>
      <trkpt lat="46.65919" lon="6.10775">
        <ele>1069.12</ele>
        <time>2015-06-29T12:27:37Z</time>
      </trkpt>
      <trkpt lat="46.65918" lon="6.10772">
        <ele>1069.12</ele>
        <time>2015-06-29T12:27:38Z</time>
      </trkpt>
      <trkpt lat="46.65916" lon="6.10767">
        <ele>1069.6</ele>
        <time>2015-06-29T12:27:40Z</time>
      </trkpt>
      <trkpt lat="46.65915" lon="6.10764">
        <ele>1069.12</ele>
        <time>2015-06-29T12:27:41Z</time>
      </trkpt>
      <trkpt lat="46.65913" lon="6.10761">
        <ele>1069.12</ele>
        <time>2015-06-29T12:27:42Z</time>
      </trkpt>
      <trkpt lat="46.65912" lon="6.10757">
        <ele>1069.12</ele>
        <time>2015-06-29T12:27:43Z</time>
      </trkpt>
      <trkpt lat="46.65911" lon="6.10754">
        <ele>1069.12</ele>
        <time>2015-06-29T12:27:44Z</time>
      </trkpt>
      <trkpt lat="46.65909" lon="6.1075">
        <ele>1069.6</ele>
        <time>2015-06-29T12:27:45Z</time>
      </trkpt>
      <trkpt lat="46.65908" lon="6.10747">
        <ele>1069.6</ele>
        <time>2015-06-29T12:27:46Z</time>
      </trkpt>
      <trkpt lat="46.65906" lon="6.10744">
        <ele>1070.08</ele>
        <time>2015-06-29T12:27:47Z</time>
      </trkpt>
      <trkpt lat="46.65905" lon="6.10741">
        <ele>1070.08</ele>
        <time>2015-06-29T12:27:48Z</time>
      </trkpt>
      <trkpt lat="46.65888" lon="6.10699">
        <ele>1070.08</ele>
        <time>2015-06-29T12:28:01Z</time>
      </trkpt>
      <trkpt lat="46.65861" lon="6.10651">
        <ele>1069.6</ele>
        <time>2015-06-29T12:28:15Z</time>
      </trkpt>
      <trkpt lat="46.65839" lon="6.10609">
        <ele>1068.64</ele>
        <time>2015-06-29T12:28:28Z</time>
      </trkpt>
      <trkpt lat="46.65834" lon="6.10599">
        <ele>1068.64</ele>
        <time>2015-06-29T12:28:31Z</time>
      </trkpt>
      <trkpt lat="46.65833" lon="6.10596">
        <ele>1069.12</ele>
        <time>2015-06-29T12:28:32Z</time>
      </trkpt>
      <trkpt lat="46.65833" lon="6.10592">
        <ele>1068.64</ele>
        <time>2015-06-29T12:28:33Z</time>
      </trkpt>
      <trkpt lat="46.65832" lon="6.1059">
        <ele>1069.12</ele>
        <time>2015-06-29T12:28:34Z</time>
      </trkpt>
      <trkpt lat="46.65831" lon="6.10587">
        <ele>1069.12</ele>
        <time>2015-06-29T12:28:35Z</time>
      </trkpt>
      <trkpt lat="46.65827" lon="6.10582">
        <ele>1069.6</ele>
        <time>2015-06-29T12:28:39Z</time>
      </trkpt>
      <trkpt lat="46.65826" lon="6.1058">
        <ele>1070.08</ele>
        <time>2015-06-29T12:28:40Z</time>
      </trkpt>
      <trkpt lat="46.65825" lon="6.1058">
        <ele>1070.08</ele>
        <time>2015-06-29T12:28:41Z</time>
      </trkpt>
      <trkpt lat="46.65825" lon="6.1058">
        <ele>1069.6</ele>
        <time>2015-06-29T12:28:44Z</time>
      </trkpt>
      <trkpt lat="46.65826" lon="6.1058">
        <ele>1069.6</ele>
        <time>2015-06-29T12:28:45Z</time>
      </trkpt>
      <trkpt lat="46.65848" lon="6.1057">
        <ele>1068.64</ele>
        <time>2015-06-29T12:28:57Z</time>
      </trkpt>
      <trkpt lat="46.65885" lon="6.10544">
        <ele>1066.24</ele>
        <time>2015-06-29T12:29:08Z</time>
      </trkpt>
      <trkpt lat="46.6589" lon="6.10543">
        <ele>1065.76</ele>
        <time>2015-06-29T12:29:09Z</time>
      </trkpt>
      <trkpt lat="46.65895" lon="6.10544">
        <ele>1065.76</ele>
        <time>2015-06-29T12:29:10Z</time>
      </trkpt>
      <trkpt lat="46.65899" lon="6.10545">
        <ele>1065.28</ele>
        <time>2015-06-29T12:29:11Z</time>
      </trkpt>
      <trkpt lat="46.65903" lon="6.10547">
        <ele>1065.28</ele>
        <time>2015-06-29T12:29:12Z</time>
      </trkpt>
      <trkpt lat="46.65906" lon="6.10548">
        <ele>1065.28</ele>
        <time>2015-06-29T12:29:13Z</time>
      </trkpt>
      <trkpt lat="46.65931" lon="6.1055">
        <ele>1063.84</ele>
        <time>2015-06-29T12:29:25Z</time>
      </trkpt>
      <trkpt lat="46.65941" lon="6.10513">
        <ele>1060.47</ele>
        <time>2015-06-29T12:29:33Z</time>
      </trkpt>
      <trkpt lat="46.65941" lon="6.10492">
        <ele>1059.03</ele>
        <time>2015-06-29T12:29:36Z</time>
      </trkpt>
      <trkpt lat="46.65939" lon="6.10457">
        <ele>1055.67</ele>
        <time>2015-06-29T12:29:42Z</time>
      </trkpt>
      <trkpt lat="46.65939" lon="6.10451">
        <ele>1055.18</ele>
        <time>2015-06-29T12:29:43Z</time>
      </trkpt>
      <trkpt lat="46.65938" lon="6.10435">
        <ele>1054.22</ele>
        <time>2015-06-29T12:29:45Z</time>
      </trkpt>
      <trkpt lat="46.65937" lon="6.10426">
        <ele>1053.26</ele>
        <time>2015-06-29T12:29:46Z</time>
      </trkpt>
      <trkpt lat="46.65936" lon="6.10416">
        <ele>1053.26</ele>
        <time>2015-06-29T12:29:47Z</time>
      </trkpt>
      <trkpt lat="46.65934" lon="6.10408">
        <ele>1053.26</ele>
        <time>2015-06-29T12:29:48Z</time>
      </trkpt>
      <trkpt lat="46.6593" lon="6.10399">
        <ele>1052.3</ele>
        <time>2015-06-29T12:29:49Z</time>
      </trkpt>
      <trkpt lat="46.65927" lon="6.10391">
        <ele>1051.82</ele>
        <time>2015-06-29T12:29:50Z</time>
      </trkpt>
      <trkpt lat="46.65926" lon="6.10383">
        <ele>1051.82</ele>
        <time>2015-06-29T12:29:51Z</time>
      </trkpt>
      <trkpt lat="46.65923" lon="6.1037">
        <ele>1050.86</ele>
        <time>2015-06-29T12:29:53Z</time>
      </trkpt>
      <trkpt lat="46.6592" lon="6.10355">
        <ele>1048.94</ele>
        <time>2015-06-29T12:29:56Z</time>
      </trkpt>
      <trkpt lat="46.65918" lon="6.10344">
        <ele>1047.49</ele>
        <time>2015-06-29T12:29:58Z</time>
      </trkpt>
      <trkpt lat="46.65914" lon="6.10331">
        <ele>1046.53</ele>
        <time>2015-06-29T12:30:00Z</time>
      </trkpt>
      <trkpt lat="46.6591" lon="6.10303">
        <ele>1044.13</ele>
        <time>2015-06-29T12:30:03Z</time>
      </trkpt>
      <trkpt lat="46.6591" lon="6.10291">
        <ele>1042.69</ele>
        <time>2015-06-29T12:30:04Z</time>
      </trkpt>
      <trkpt lat="46.65909" lon="6.10258">
        <ele>1039.8</ele>
        <time>2015-06-29T12:30:07Z</time>
      </trkpt>
      <trkpt lat="46.65912" lon="6.10237">
        <ele>1037.88</ele>
        <time>2015-06-29T12:30:09Z</time>
      </trkpt>
      <trkpt lat="46.65915" lon="6.1023">
        <ele>1037.88</ele>
        <time>2015-06-29T12:30:10Z</time>
      </trkpt>
      <trkpt lat="46.6592" lon="6.10224">
        <ele>1037.88</ele>
        <time>2015-06-29T12:30:11Z</time>
      </trkpt>
      <trkpt lat="46.65926" lon="6.10221">
        <ele>1037.4</ele>
        <time>2015-06-29T12:30:12Z</time>
      </trkpt>
      <trkpt lat="46.65931" lon="6.10218">
        <ele>1036.92</ele>
        <time>2015-06-29T12:30:13Z</time>
      </trkpt>
      <trkpt lat="46.65937" lon="6.10218">
        <ele>1036.44</ele>
        <time>2015-06-29T12:30:14Z</time>
      </trkpt>
      <trkpt lat="46.65941" lon="6.10218">
        <ele>1036.92</ele>
        <time>2015-06-29T12:30:15Z</time>
      </trkpt>
      <trkpt lat="46.65958" lon="6.10217">
        <ele>1036.92</ele>
        <time>2015-06-29T12:30:19Z</time>
      </trkpt>
      <trkpt lat="46.65962" lon="6.10215">
        <ele>1036.92</ele>
        <time>2015-06-29T12:30:20Z</time>
      </trkpt>
      <trkpt lat="46.65965" lon="6.10213">
        <ele>1037.4</ele>
        <time>2015-06-29T12:30:21Z</time>
      </trkpt>
      <trkpt lat="46.65969" lon="6.1021">
        <ele>1037.4</ele>
        <time>2015-06-29T12:30:22Z</time>
      </trkpt>
      <trkpt lat="46.65972" lon="6.10207">
        <ele>1036.92</ele>
        <time>2015-06-29T12:30:23Z</time>
      </trkpt>
      <trkpt lat="46.65976" lon="6.10203">
        <ele>1036.92</ele>
        <time>2015-06-29T12:30:24Z</time>
      </trkpt>
      <trkpt lat="46.66032" lon="6.10165">
        <ele>1034.52</ele>
        <time>2015-06-29T12:30:36Z</time>
      </trkpt>
      <trkpt lat="46.66085" lon="6.10136">
        <ele>1035.96</ele>
        <time>2015-06-29T12:30:48Z</time>
      </trkpt>
      <trkpt lat="46.66099" lon="6.10112">
        <ele>1034.52</ele>
        <time>2015-06-29T12:30:55Z</time>
      </trkpt>
      <trkpt lat="46.66099" lon="6.10109">
        <ele>1034.04</ele>
        <time>2015-06-29T12:30:56Z</time>
      </trkpt>
      <trkpt lat="46.66099" lon="6.10106">
        <ele>1034.04</ele>
        <time>2015-06-29T12:30:57Z</time>
      </trkpt>
      <trkpt lat="46.661" lon="6.10103">
        <ele>1034.52</ele>
        <time>2015-06-29T12:30:58Z</time>
      </trkpt>
      <trkpt lat="46.66098" lon="6.10096">
        <ele>1035.48</ele>
        <time>2015-06-29T12:31:04Z</time>
      </trkpt>
      <trkpt lat="46.66097" lon="6.10094">
        <ele>1035.48</ele>
        <time>2015-06-29T12:31:05Z</time>
      </trkpt>
      <trkpt lat="46.66096" lon="6.10091">
        <ele>1035.48</ele>
        <time>2015-06-29T12:31:06Z</time>
      </trkpt>
      <trkpt lat="46.66094" lon="6.10088">
        <ele>1035.48</ele>
        <time>2015-06-29T12:31:07Z</time>
      </trkpt>
      <trkpt lat="46.66092" lon="6.10086">
        <ele>1035.96</ele>
        <time>2015-06-29T12:31:08Z</time>
      </trkpt>
      <trkpt lat="46.66091" lon="6.10083">
        <ele>1035.48</ele>
        <time>2015-06-29T12:31:09Z</time>
      </trkpt>
      <trkpt lat="46.66089" lon="6.10081">
        <ele>1035.48</ele>
        <time>2015-06-29T12:31:10Z</time>
      </trkpt>
      <trkpt lat="46.66088" lon="6.10077">
        <ele>1036.44</ele>
        <time>2015-06-29T12:31:13Z</time>
      </trkpt>
      <trkpt lat="46.66088" lon="6.10074">
        <ele>1036.92</ele>
        <time>2015-06-29T12:31:14Z</time>
      </trkpt>
      <trkpt lat="46.66086" lon="6.10071">
        <ele>1036.92</ele>
        <time>2015-06-29T12:31:15Z</time>
      </trkpt>
      <trkpt lat="46.6608" lon="6.10061">
        <ele>1037.88</ele>
        <time>2015-06-29T12:31:18Z</time>
      </trkpt>
      <trkpt lat="46.66079" lon="6.10058">
        <ele>1037.88</ele>
        <time>2015-06-29T12:31:19Z</time>
      </trkpt>
      <trkpt lat="46.66077" lon="6.10055">
        <ele>1038.36</ele>
        <time>2015-06-29T12:31:20Z</time>
      </trkpt>
      <trkpt lat="46.66076" lon="6.10052">
        <ele>1038.36</ele>
        <time>2015-06-29T12:31:21Z</time>
      </trkpt>
      <trkpt lat="46.66075" lon="6.10048">
        <ele>1038.36</ele>
        <time>2015-06-29T12:31:22Z</time>
      </trkpt>
      <trkpt lat="46.66074" lon="6.10044">
        <ele>1038.84</ele>
        <time>2015-06-29T12:31:23Z</time>
      </trkpt>
      <trkpt lat="46.66072" lon="6.10041">
        <ele>1039.32</ele>
        <time>2015-06-29T12:31:24Z</time>
      </trkpt>
      <trkpt lat="46.66071" lon="6.10037">
        <ele>1039.8</ele>
        <time>2015-06-29T12:31:25Z</time>
      </trkpt>
      <trkpt lat="46.66069" lon="6.10032">
        <ele>1039.8</ele>
        <time>2015-06-29T12:31:26Z</time>
      </trkpt>
      <trkpt lat="46.66068" lon="6.10027">
        <ele>1039.8</ele>
        <time>2015-06-29T12:31:27Z</time>
      </trkpt>
      <trkpt lat="46.66066" lon="6.10021">
        <ele>1040.28</ele>
        <time>2015-06-29T12:31:28Z</time>
      </trkpt>
      <trkpt lat="46.66065" lon="6.10015">
        <ele>1040.28</ele>
        <time>2015-06-29T12:31:29Z</time>
      </trkpt>
      <trkpt lat="46.66053" lon="6.0997">
        <ele>1040.28</ele>
        <time>2015-06-29T12:31:39Z</time>
      </trkpt>
      <trkpt lat="46.6604" lon="6.09931">
        <ele>1041.25</ele>
        <time>2015-06-29T12:31:50Z</time>
      </trkpt>
      <trkpt lat="46.66039" lon="6.09927">
        <ele>1041.25</ele>
        <time>2015-06-29T12:31:51Z</time>
      </trkpt>
      <trkpt lat="46.66037" lon="6.09923">
        <ele>1040.76</ele>
        <time>2015-06-29T12:31:52Z</time>
      </trkpt>
      <trkpt lat="46.6602" lon="6.09881">
        <ele>1041.25</ele>
        <time>2015-06-29T12:32:03Z</time>
      </trkpt>
      <trkpt lat="46.66002" lon="6.09842">
        <ele>1041.25</ele>
        <time>2015-06-29T12:32:14Z</time>
      </trkpt>
      <trkpt lat="46.65991" lon="6.09808">
        <ele>1042.21</ele>
        <time>2015-06-29T12:32:23Z</time>
      </trkpt>
      <trkpt lat="46.65989" lon="6.09804">
        <ele>1043.17</ele>
        <time>2015-06-29T12:32:24Z</time>
      </trkpt>
      <trkpt lat="46.65988" lon="6.098">
        <ele>1043.17</ele>
        <time>2015-06-29T12:32:25Z</time>
      </trkpt>
      <trkpt lat="46.65986" lon="6.09796">
        <ele>1043.17</ele>
        <time>2015-06-29T12:32:26Z</time>
      </trkpt>
      <trkpt lat="46.65985" lon="6.09792">
        <ele>1043.17</ele>
        <time>2015-06-29T12:32:27Z</time>
      </trkpt>
      <trkpt lat="46.65975" lon="6.09768">
        <ele>1043.17</ele>
        <time>2015-06-29T12:32:33Z</time>
      </trkpt>
      <trkpt lat="46.65973" lon="6.09766">
        <ele>1043.65</ele>
        <time>2015-06-29T12:32:34Z</time>
      </trkpt>
      <trkpt lat="46.65971" lon="6.09762">
        <ele>1043.65</ele>
        <time>2015-06-29T12:32:35Z</time>
      </trkpt>
      <trkpt lat="46.65969" lon="6.09759">
        <ele>1044.13</ele>
        <time>2015-06-29T12:32:36Z</time>
      </trkpt>
      <trkpt lat="46.65966" lon="6.09756">
        <ele>1044.13</ele>
        <time>2015-06-29T12:32:37Z</time>
      </trkpt>
      <trkpt lat="46.65959" lon="6.09748">
        <ele>1043.65</ele>
        <time>2015-06-29T12:32:40Z</time>
      </trkpt>
      <trkpt lat="46.65937" lon="6.09703">
        <ele>1044.61</ele>
        <time>2015-06-29T12:32:52Z</time>
      </trkpt>
      <trkpt lat="46.65917" lon="6.09666">
        <ele>1046.05</ele>
        <time>2015-06-29T12:33:05Z</time>
      </trkpt>
      <trkpt lat="46.65892" lon="6.09619">
        <ele>1045.57</ele>
        <time>2015-06-29T12:33:19Z</time>
      </trkpt>
      <trkpt lat="46.65866" lon="6.09585">
        <ele>1044.61</ele>
        <time>2015-06-29T12:33:30Z</time>
      </trkpt>
      <trkpt lat="46.65845" lon="6.09539">
        <ele>1042.69</ele>
        <time>2015-06-29T12:33:37Z</time>
      </trkpt>
      <trkpt lat="46.65836" lon="6.09518">
        <ele>1041.73</ele>
        <time>2015-06-29T12:33:40Z</time>
      </trkpt>
      <trkpt lat="46.65833" lon="6.09512">
        <ele>1040.76</ele>
        <time>2015-06-29T12:33:41Z</time>
      </trkpt>
      <trkpt lat="46.6583" lon="6.09506">
        <ele>1041.73</ele>
        <time>2015-06-29T12:33:42Z</time>
      </trkpt>
      <trkpt lat="46.65827" lon="6.09501">
        <ele>1040.76</ele>
        <time>2015-06-29T12:33:43Z</time>
      </trkpt>
      <trkpt lat="46.65824" lon="6.09494">
        <ele>1039.8</ele>
        <time>2015-06-29T12:33:44Z</time>
      </trkpt>
      <trkpt lat="46.65822" lon="6.09488">
        <ele>1039.32</ele>
        <time>2015-06-29T12:33:45Z</time>
      </trkpt>
      <trkpt lat="46.65819" lon="6.09481">
        <ele>1039.32</ele>
        <time>2015-06-29T12:33:46Z</time>
      </trkpt>
      <trkpt lat="46.65815" lon="6.09475">
        <ele>1039.32</ele>
        <time>2015-06-29T12:33:47Z</time>
      </trkpt>
      <trkpt lat="46.65812" lon="6.09469">
        <ele>1038.36</ele>
        <time>2015-06-29T12:33:48Z</time>
      </trkpt>
      <trkpt lat="46.65808" lon="6.09462">
        <ele>1038.84</ele>
        <time>2015-06-29T12:33:49Z</time>
      </trkpt>
      <trkpt lat="46.6579" lon="6.09433">
        <ele>1036.44</ele>
        <time>2015-06-29T12:33:53Z</time>
      </trkpt>
      <trkpt lat="46.65786" lon="6.09425">
        <ele>1036.92</ele>
        <time>2015-06-29T12:33:54Z</time>
      </trkpt>
      <trkpt lat="46.65782" lon="6.09417">
        <ele>1036.44</ele>
        <time>2015-06-29T12:33:55Z</time>
      </trkpt>
      <trkpt lat="46.65778" lon="6.09409">
        <ele>1036.44</ele>
        <time>2015-06-29T12:33:56Z</time>
      </trkpt>
      <trkpt lat="46.65774" lon="6.09402">
        <ele>1035.96</ele>
        <time>2015-06-29T12:33:57Z</time>
      </trkpt>
      <trkpt lat="46.65769" lon="6.09395">
        <ele>1035.96</ele>
        <time>2015-06-29T12:33:58Z</time>
      </trkpt>
      <trkpt lat="46.65765" lon="6.09389">
        <ele>1035.48</ele>
        <time>2015-06-29T12:33:59Z</time>
      </trkpt>
      <trkpt lat="46.65758" lon="6.09378">
        <ele>1035.96</ele>
        <time>2015-06-29T12:34:01Z</time>
      </trkpt>
      <trkpt lat="46.65755" lon="6.09373">
        <ele>1035.96</ele>
        <time>2015-06-29T12:34:02Z</time>
      </trkpt>
      <trkpt lat="46.65731" lon="6.09335">
        <ele>1036.44</ele>
        <time>2015-06-29T12:34:10Z</time>
      </trkpt>
      <trkpt lat="46.65728" lon="6.09331">
        <ele>1036.92</ele>
        <time>2015-06-29T12:34:11Z</time>
      </trkpt>
      <trkpt lat="46.65702" lon="6.09286">
        <ele>1036.92</ele>
        <time>2015-06-29T12:34:24Z</time>
      </trkpt>
      <trkpt lat="46.65695" lon="6.09276">
        <ele>1036.92</ele>
        <time>2015-06-29T12:34:29Z</time>
      </trkpt>
      <trkpt lat="46.65694" lon="6.09274">
        <ele>1037.4</ele>
        <time>2015-06-29T12:34:30Z</time>
      </trkpt>
      <trkpt lat="46.65693" lon="6.09272">
        <ele>1036.92</ele>
        <time>2015-06-29T12:34:31Z</time>
      </trkpt>
      <trkpt lat="46.65692" lon="6.0927">
        <ele>1036.92</ele>
        <time>2015-06-29T12:34:32Z</time>
      </trkpt>
      <trkpt lat="46.65691" lon="6.09268">
        <ele>1036.92</ele>
        <time>2015-06-29T12:34:33Z</time>
      </trkpt>
      <trkpt lat="46.6569" lon="6.09266">
        <ele>1036.92</ele>
        <time>2015-06-29T12:34:34Z</time>
      </trkpt>
      <trkpt lat="46.65663" lon="6.09233">
        <ele>1035.48</ele>
        <time>2015-06-29T12:34:45Z</time>
      </trkpt>
      <trkpt lat="46.6566" lon="6.09229">
        <ele>1035</ele>
        <time>2015-06-29T12:34:46Z</time>
      </trkpt>
      <trkpt lat="46.65656" lon="6.09225">
        <ele>1035</ele>
        <time>2015-06-29T12:34:47Z</time>
      </trkpt>
      <trkpt lat="46.65653" lon="6.09221">
        <ele>1035</ele>
        <time>2015-06-29T12:34:48Z</time>
      </trkpt>
      <trkpt lat="46.65649" lon="6.09217">
        <ele>1034.52</ele>
        <time>2015-06-29T12:34:49Z</time>
      </trkpt>
      <trkpt lat="46.65636" lon="6.09198">
        <ele>1034.04</ele>
        <time>2015-06-29T12:34:53Z</time>
      </trkpt>
      <trkpt lat="46.65622" lon="6.0917">
        <ele>1035</ele>
        <time>2015-06-29T12:34:58Z</time>
      </trkpt>
      <trkpt lat="46.65606" lon="6.09128">
        <ele>1034.52</ele>
        <time>2015-06-29T12:35:06Z</time>
      </trkpt>
      <trkpt lat="46.65596" lon="6.09109">
        <ele>1034.52</ele>
        <time>2015-06-29T12:35:10Z</time>
      </trkpt>
      <trkpt lat="46.65593" lon="6.09105">
        <ele>1035.48</ele>
        <time>2015-06-29T12:35:11Z</time>
      </trkpt>
      <trkpt lat="46.6556" lon="6.09045">
        <ele>1035.48</ele>
        <time>2015-06-29T12:35:25Z</time>
      </trkpt>
      <trkpt lat="46.65535" lon="6.09">
        <ele>1034.52</ele>
        <time>2015-06-29T12:35:38Z</time>
      </trkpt>
      <trkpt lat="46.65533" lon="6.08995">
        <ele>1034.04</ele>
        <time>2015-06-29T12:35:40Z</time>
      </trkpt>
      <trkpt lat="46.6553" lon="6.08989">
        <ele>1033.55</ele>
        <time>2015-06-29T12:35:52Z</time>
      </trkpt>
      <trkpt lat="46.6553" lon="6.08987">
        <ele>1035.48</ele>
        <time>2015-06-29T12:36:17Z</time>
      </trkpt>
      <trkpt lat="46.6553" lon="6.08986">
        <ele>1033.55</ele>
        <time>2015-06-29T12:36:52Z</time>
      </trkpt>
      <trkpt lat="46.65529" lon="6.08985">
        <ele>1033.07</ele>
        <time>2015-06-29T12:37:18Z</time>
      </trkpt>
      <trkpt lat="46.65529" lon="6.08985">
        <ele>1033.55</ele>
        <time>2015-06-29T12:37:45Z</time>
      </trkpt>
      <trkpt lat="46.65529" lon="6.0898">
        <ele>1033.07</ele>
        <time>2015-06-29T12:38:12Z</time>
      </trkpt>
      <trkpt lat="46.65519" lon="6.08953">
        <ele>1032.59</ele>
        <time>2015-06-29T12:38:19Z</time>
      </trkpt>
      <trkpt lat="46.65517" lon="6.08948">
        <ele>1032.59</ele>
        <time>2015-06-29T12:38:20Z</time>
      </trkpt>
      <trkpt lat="46.65515" lon="6.08942">
        <ele>1032.11</ele>
        <time>2015-06-29T12:38:21Z</time>
      </trkpt>
      <trkpt lat="46.65512" lon="6.08938">
        <ele>1032.11</ele>
        <time>2015-06-29T12:38:22Z</time>
      </trkpt>
      <trkpt lat="46.6551" lon="6.08934">
        <ele>1031.63</ele>
        <time>2015-06-29T12:38:23Z</time>
      </trkpt>
      <trkpt lat="46.65491" lon="6.08899">
        <ele>1031.63</ele>
        <time>2015-06-29T12:38:32Z</time>
      </trkpt>
      <trkpt lat="46.65454" lon="6.08843">
        <ele>1029.23</ele>
        <time>2015-06-29T12:38:43Z</time>
      </trkpt>
      <trkpt lat="46.65444" lon="6.08829">
        <ele>1027.79</ele>
        <time>2015-06-29T12:38:45Z</time>
      </trkpt>
      <trkpt lat="46.65434" lon="6.08812">
        <ele>1026.83</ele>
        <time>2015-06-29T12:38:47Z</time>
      </trkpt>
      <trkpt lat="46.6543" lon="6.08803">
        <ele>1026.34</ele>
        <time>2015-06-29T12:38:48Z</time>
      </trkpt>
      <trkpt lat="46.65427" lon="6.08793">
        <ele>1025.86</ele>
        <time>2015-06-29T12:38:49Z</time>
      </trkpt>
      <trkpt lat="46.6542" lon="6.08772">
        <ele>1025.38</ele>
        <time>2015-06-29T12:38:51Z</time>
      </trkpt>
      <trkpt lat="46.65415" lon="6.08763">
        <ele>1025.86</ele>
        <time>2015-06-29T12:38:52Z</time>
      </trkpt>
      <trkpt lat="46.65411" lon="6.08754">
        <ele>1024.9</ele>
        <time>2015-06-29T12:38:53Z</time>
      </trkpt>
      <trkpt lat="46.65406" lon="6.08745">
        <ele>1024.9</ele>
        <time>2015-06-29T12:38:54Z</time>
      </trkpt>
      <trkpt lat="46.65401" lon="6.08736">
        <ele>1024.42</ele>
        <time>2015-06-29T12:38:55Z</time>
      </trkpt>
      <trkpt lat="46.65397" lon="6.08726">
        <ele>1023.94</ele>
        <time>2015-06-29T12:38:56Z</time>
      </trkpt>
      <trkpt lat="46.65385" lon="6.08687">
        <ele>1021.06</ele>
        <time>2015-06-29T12:39:00Z</time>
      </trkpt>
      <trkpt lat="46.65371" lon="6.08651">
        <ele>1018.65</ele>
        <time>2015-06-29T12:39:04Z</time>
      </trkpt>
      <trkpt lat="46.65367" lon="6.08644">
        <ele>1018.17</ele>
        <time>2015-06-29T12:39:05Z</time>
      </trkpt>
      <trkpt lat="46.65363" lon="6.08637">
        <ele>1017.69</ele>
        <time>2015-06-29T12:39:06Z</time>
      </trkpt>
      <trkpt lat="46.65358" lon="6.08631">
        <ele>1017.21</ele>
        <time>2015-06-29T12:39:07Z</time>
      </trkpt>
      <trkpt lat="46.65353" lon="6.08626">
        <ele>1016.25</ele>
        <time>2015-06-29T12:39:08Z</time>
      </trkpt>
      <trkpt lat="46.65347" lon="6.08622">
        <ele>1015.29</ele>
        <time>2015-06-29T12:39:09Z</time>
      </trkpt>
      <trkpt lat="46.6534" lon="6.08619">
        <ele>1014.81</ele>
        <time>2015-06-29T12:39:10Z</time>
      </trkpt>
      <trkpt lat="46.65332" lon="6.08619">
        <ele>1014.81</ele>
        <time>2015-06-29T12:39:11Z</time>
      </trkpt>
      <trkpt lat="46.65324" lon="6.0862">
        <ele>1014.33</ele>
        <time>2015-06-29T12:39:12Z</time>
      </trkpt>
      <trkpt lat="46.65316" lon="6.08622">
        <ele>1012.89</ele>
        <time>2015-06-29T12:39:13Z</time>
      </trkpt>
      <trkpt lat="46.65307" lon="6.08622">
        <ele>1010.96</ele>
        <time>2015-06-29T12:39:14Z</time>
      </trkpt>
      <trkpt lat="46.653" lon="6.08619">
        <ele>1010.96</ele>
        <time>2015-06-29T12:39:15Z</time>
      </trkpt>
      <trkpt lat="46.65293" lon="6.08615">
        <ele>1010.96</ele>
        <time>2015-06-29T12:39:16Z</time>
      </trkpt>
      <trkpt lat="46.65287" lon="6.08611">
        <ele>1010.48</ele>
        <time>2015-06-29T12:39:17Z</time>
      </trkpt>
      <trkpt lat="46.65281" lon="6.08606">
        <ele>1010</ele>
        <time>2015-06-29T12:39:18Z</time>
      </trkpt>
      <trkpt lat="46.65275" lon="6.086">
        <ele>1010</ele>
        <time>2015-06-29T12:39:19Z</time>
      </trkpt>
      <trkpt lat="46.6527" lon="6.08594">
        <ele>1010.48</ele>
        <time>2015-06-29T12:39:20Z</time>
      </trkpt>
      <trkpt lat="46.65266" lon="6.08586">
        <ele>1010.48</ele>
        <time>2015-06-29T12:39:21Z</time>
      </trkpt>
      <trkpt lat="46.65263" lon="6.08579">
        <ele>1010.96</ele>
        <time>2015-06-29T12:39:22Z</time>
      </trkpt>
      <trkpt lat="46.65261" lon="6.08572">
        <ele>1010.48</ele>
        <time>2015-06-29T12:39:23Z</time>
      </trkpt>
      <trkpt lat="46.65247" lon="6.08517">
        <ele>1012.41</ele>
        <time>2015-06-29T12:39:31Z</time>
      </trkpt>
      <trkpt lat="46.65234" lon="6.08469">
        <ele>1015.29</ele>
        <time>2015-06-29T12:39:42Z</time>
      </trkpt>
      <trkpt lat="46.65228" lon="6.08459">
        <ele>1015.77</ele>
        <time>2015-06-29T12:39:45Z</time>
      </trkpt>
      <trkpt lat="46.65225" lon="6.08457">
        <ele>1016.25</ele>
        <time>2015-06-29T12:39:46Z</time>
      </trkpt>
      <trkpt lat="46.65217" lon="6.08454">
        <ele>1017.21</ele>
        <time>2015-06-29T12:39:49Z</time>
      </trkpt>
      <trkpt lat="46.65215" lon="6.08454">
        <ele>1016.73</ele>
        <time>2015-06-29T12:39:50Z</time>
      </trkpt>
      <trkpt lat="46.652" lon="6.08469">
        <ele>1019.62</ele>
        <time>2015-06-29T12:39:57Z</time>
      </trkpt>
      <trkpt lat="46.6518" lon="6.08499">
        <ele>1021.54</ele>
        <time>2015-06-29T12:40:10Z</time>
      </trkpt>
      <trkpt lat="46.65163" lon="6.08524">
        <ele>1021.54</ele>
        <time>2015-06-29T12:40:25Z</time>
      </trkpt>
      <trkpt lat="46.65164" lon="6.08523">
        <ele>1021.54</ele>
        <time>2015-06-29T12:40:41Z</time>
      </trkpt>
      <trkpt lat="46.65163" lon="6.08525">
        <ele>1021.54</ele>
        <time>2015-06-29T12:41:11Z</time>
      </trkpt>
      <trkpt lat="46.65163" lon="6.08525">
        <ele>1021.54</ele>
        <time>2015-06-29T12:41:36Z</time>
      </trkpt>
      <trkpt lat="46.65154" lon="6.08535">
        <ele>1021.06</ele>
        <time>2015-06-29T12:41:55Z</time>
      </trkpt>
      <trkpt lat="46.65143" lon="6.08549">
        <ele>1018.65</ele>
        <time>2015-06-29T12:41:59Z</time>
      </trkpt>
      <trkpt lat="46.65139" lon="6.08555">
        <ele>1018.65</ele>
        <time>2015-06-29T12:42:00Z</time>
      </trkpt>
      <trkpt lat="46.65127" lon="6.08572">
        <ele>1017.21</ele>
        <time>2015-06-29T12:42:03Z</time>
      </trkpt>
      <trkpt lat="46.65111" lon="6.08589">
        <ele>1015.29</ele>
        <time>2015-06-29T12:42:06Z</time>
      </trkpt>
      <trkpt lat="46.65083" lon="6.08624">
        <ele>1013.85</ele>
        <time>2015-06-29T12:42:11Z</time>
      </trkpt>
      <trkpt lat="46.65078" lon="6.0863">
        <ele>1013.37</ele>
        <time>2015-06-29T12:42:12Z</time>
      </trkpt>
      <trkpt lat="46.65074" lon="6.08636">
        <ele>1014.33</ele>
        <time>2015-06-29T12:42:13Z</time>
      </trkpt>
      <trkpt lat="46.65072" lon="6.08641">
        <ele>1014.81</ele>
        <time>2015-06-29T12:42:14Z</time>
      </trkpt>
      <trkpt lat="46.65071" lon="6.08645">
        <ele>1015.77</ele>
        <time>2015-06-29T12:42:15Z</time>
      </trkpt>
      <trkpt lat="46.6507" lon="6.08649">
        <ele>1015.29</ele>
        <time>2015-06-29T12:42:16Z</time>
      </trkpt>
      <trkpt lat="46.65071" lon="6.08652">
        <ele>1016.25</ele>
        <time>2015-06-29T12:42:17Z</time>
      </trkpt>
      <trkpt lat="46.65071" lon="6.08656">
        <ele>1016.25</ele>
        <time>2015-06-29T12:42:18Z</time>
      </trkpt>
      <trkpt lat="46.6507" lon="6.08695">
        <ele>1016.73</ele>
        <time>2015-06-29T12:42:28Z</time>
      </trkpt>
      <trkpt lat="46.65069" lon="6.08701">
        <ele>1016.73</ele>
        <time>2015-06-29T12:42:30Z</time>
      </trkpt>
      <trkpt lat="46.65068" lon="6.08704">
        <ele>1016.73</ele>
        <time>2015-06-29T12:42:31Z</time>
      </trkpt>
      <trkpt lat="46.65061" lon="6.08721">
        <ele>1018.65</ele>
        <time>2015-06-29T12:42:37Z</time>
      </trkpt>
      <trkpt lat="46.6506" lon="6.08722">
        <ele>1018.65</ele>
        <time>2015-06-29T12:42:38Z</time>
      </trkpt>
      <trkpt lat="46.65058" lon="6.08723">
        <ele>1019.13</ele>
        <time>2015-06-29T12:42:39Z</time>
      </trkpt>
      <trkpt lat="46.65056" lon="6.08724">
        <ele>1019.13</ele>
        <time>2015-06-29T12:42:40Z</time>
      </trkpt>
      <trkpt lat="46.65055" lon="6.08724">
        <ele>1019.62</ele>
        <time>2015-06-29T12:42:41Z</time>
      </trkpt>
      <trkpt lat="46.65041" lon="6.08729">
        <ele>1020.58</ele>
        <time>2015-06-29T12:42:49Z</time>
      </trkpt>
      <trkpt lat="46.6504" lon="6.08728">
        <ele>1020.58</ele>
        <time>2015-06-29T12:42:50Z</time>
      </trkpt>
      <trkpt lat="46.65035" lon="6.08721">
        <ele>1021.54</ele>
        <time>2015-06-29T12:42:55Z</time>
      </trkpt>
      <trkpt lat="46.65033" lon="6.08718">
        <ele>1022.02</ele>
        <time>2015-06-29T12:42:57Z</time>
      </trkpt>
      <trkpt lat="46.65032" lon="6.08717">
        <ele>1022.02</ele>
        <time>2015-06-29T12:42:58Z</time>
      </trkpt>
      <trkpt lat="46.65031" lon="6.08715">
        <ele>1022.02</ele>
        <time>2015-06-29T12:42:59Z</time>
      </trkpt>
      <trkpt lat="46.6503" lon="6.08713">
        <ele>1022.02</ele>
        <time>2015-06-29T12:43:00Z</time>
      </trkpt>
      <trkpt lat="46.65029" lon="6.08712">
        <ele>1022.02</ele>
        <time>2015-06-29T12:43:01Z</time>
      </trkpt>
      <trkpt lat="46.65028" lon="6.0871">
        <ele>1022.5</ele>
        <time>2015-06-29T12:43:02Z</time>
      </trkpt>
      <trkpt lat="46.65027" lon="6.08708">
        <ele>1022.5</ele>
        <time>2015-06-29T12:43:03Z</time>
      </trkpt>
      <trkpt lat="46.65026" lon="6.08706">
        <ele>1022.5</ele>
        <time>2015-06-29T12:43:04Z</time>
      </trkpt>
      <trkpt lat="46.65026" lon="6.08704">
        <ele>1022.5</ele>
        <time>2015-06-29T12:43:05Z</time>
      </trkpt>
      <trkpt lat="46.65026" lon="6.08702">
        <ele>1022.5</ele>
        <time>2015-06-29T12:43:06Z</time>
      </trkpt>
      <trkpt lat="46.65026" lon="6.087">
        <ele>1022.5</ele>
        <time>2015-06-29T12:43:07Z</time>
      </trkpt>
      <trkpt lat="46.65027" lon="6.08698">
        <ele>1022.5</ele>
        <time>2015-06-29T12:43:08Z</time>
      </trkpt>
      <trkpt lat="46.65027" lon="6.08695">
        <ele>1022.5</ele>
        <time>2015-06-29T12:43:09Z</time>
      </trkpt>
      <trkpt lat="46.65021" lon="6.08671">
        <ele>1022.98</ele>
        <time>2015-06-29T12:43:17Z</time>
      </trkpt>
      <trkpt lat="46.65019" lon="6.08668">
        <ele>1022.98</ele>
        <time>2015-06-29T12:43:18Z</time>
      </trkpt>
      <trkpt lat="46.65017" lon="6.08664">
        <ele>1022.98</ele>
        <time>2015-06-29T12:43:20Z</time>
      </trkpt>
      <trkpt lat="46.65014" lon="6.08663">
        <ele>1023.46</ele>
        <time>2015-06-29T12:43:21Z</time>
      </trkpt>
      <trkpt lat="46.65012" lon="6.08661">
        <ele>1023.46</ele>
        <time>2015-06-29T12:43:22Z</time>
      </trkpt>
      <trkpt lat="46.65011" lon="6.08659">
        <ele>1022.98</ele>
        <time>2015-06-29T12:43:23Z</time>
      </trkpt>
      <trkpt lat="46.65009" lon="6.08656">
        <ele>1023.46</ele>
        <time>2015-06-29T12:43:24Z</time>
      </trkpt>
      <trkpt lat="46.65008" lon="6.08654">
        <ele>1023.46</ele>
        <time>2015-06-29T12:43:25Z</time>
      </trkpt>
      <trkpt lat="46.65007" lon="6.08652">
        <ele>1023.46</ele>
        <time>2015-06-29T12:43:26Z</time>
      </trkpt>
      <trkpt lat="46.65" lon="6.08623">
        <ele>1022.98</ele>
        <time>2015-06-29T12:43:35Z</time>
      </trkpt>
      <trkpt lat="46.64998" lon="6.08617">
        <ele>1022.98</ele>
        <time>2015-06-29T12:43:37Z</time>
      </trkpt>
      <trkpt lat="46.64989" lon="6.08581">
        <ele>1022.02</ele>
        <time>2015-06-29T12:43:48Z</time>
      </trkpt>
      <trkpt lat="46.64984" lon="6.08554">
        <ele>1022.02</ele>
        <time>2015-06-29T12:43:59Z</time>
      </trkpt>
      <trkpt lat="46.64984" lon="6.08546">
        <ele>1022.02</ele>
        <time>2015-06-29T12:44:07Z</time>
      </trkpt>
      <trkpt lat="46.64982" lon="6.08543">
        <ele>1022.02</ele>
        <time>2015-06-29T12:44:10Z</time>
      </trkpt>
      <trkpt lat="46.64981" lon="6.0854">
        <ele>1022.02</ele>
        <time>2015-06-29T12:44:11Z</time>
      </trkpt>
      <trkpt lat="46.64981" lon="6.08538">
        <ele>1021.54</ele>
        <time>2015-06-29T12:44:12Z</time>
      </trkpt>
      <trkpt lat="46.6498" lon="6.08534">
        <ele>1021.54</ele>
        <time>2015-06-29T12:44:13Z</time>
      </trkpt>
      <trkpt lat="46.64979" lon="6.0853">
        <ele>1021.54</ele>
        <time>2015-06-29T12:44:14Z</time>
      </trkpt>
      <trkpt lat="46.64965" lon="6.08499">
        <ele>1020.1</ele>
        <time>2015-06-29T12:44:22Z</time>
      </trkpt>
      <trkpt lat="46.64963" lon="6.08498">
        <ele>1020.1</ele>
        <time>2015-06-29T12:44:24Z</time>
      </trkpt>
      <trkpt lat="46.64941" lon="6.08511">
        <ele>1016.25</ele>
        <time>2015-06-29T12:44:36Z</time>
      </trkpt>
      <trkpt lat="46.64932" lon="6.08516">
        <ele>1014.81</ele>
        <time>2015-06-29T12:44:46Z</time>
      </trkpt>
      <trkpt lat="46.64921" lon="6.08524">
        <ele>1014.81</ele>
        <time>2015-06-29T12:45:01Z</time>
      </trkpt>
      <trkpt lat="46.64919" lon="6.08527">
        <ele>1014.81</ele>
        <time>2015-06-29T12:45:08Z</time>
      </trkpt>
      <trkpt lat="46.64915" lon="6.08534">
        <ele>1014.81</ele>
        <time>2015-06-29T12:45:12Z</time>
      </trkpt>
      <trkpt lat="46.64896" lon="6.08557">
        <ele>1015.77</ele>
        <time>2015-06-29T12:45:24Z</time>
      </trkpt>
      <trkpt lat="46.64893" lon="6.08562">
        <ele>1015.29</ele>
        <time>2015-06-29T12:45:27Z</time>
      </trkpt>
      <trkpt lat="46.64889" lon="6.08565">
        <ele>1015.77</ele>
        <time>2015-06-29T12:45:31Z</time>
      </trkpt>
      <trkpt lat="46.64884" lon="6.08566">
        <ele>1015.77</ele>
        <time>2015-06-29T12:45:36Z</time>
      </trkpt>
      <trkpt lat="46.6488" lon="6.08563">
        <ele>1019.62</ele>
        <time>2015-06-29T12:45:42Z</time>
      </trkpt>
      <trkpt lat="46.6488" lon="6.08562">
        <ele>1015.29</ele>
        <time>2015-06-29T12:45:43Z</time>
      </trkpt>
      <trkpt lat="46.64878" lon="6.08565">
        <ele>1016.73</ele>
        <time>2015-06-29T12:45:59Z</time>
      </trkpt>
      <trkpt lat="46.64874" lon="6.08563">
        <ele>1016.25</ele>
        <time>2015-06-29T12:46:08Z</time>
      </trkpt>
      <trkpt lat="46.64865" lon="6.08558">
        <ele>1017.21</ele>
        <time>2015-06-29T12:46:20Z</time>
      </trkpt>
      <trkpt lat="46.64861" lon="6.08557">
        <ele>1017.21</ele>
        <time>2015-06-29T12:46:34Z</time>
      </trkpt>
      <trkpt lat="46.64861" lon="6.08556">
        <ele>1017.21</ele>
        <time>2015-06-29T12:47:02Z</time>
      </trkpt>
      <trkpt lat="46.64861" lon="6.08555">
        <ele>1016.73</ele>
        <time>2015-06-29T12:47:29Z</time>
      </trkpt>
      <trkpt lat="46.64861" lon="6.08557">
        <ele>1017.21</ele>
        <time>2015-06-29T12:48:00Z</time>
      </trkpt>
      <trkpt lat="46.64858" lon="6.08557">
        <ele>1018.65</ele>
        <time>2015-06-29T12:48:09Z</time>
      </trkpt>
      <trkpt lat="46.64856" lon="6.08555">
        <ele>1018.65</ele>
        <time>2015-06-29T12:48:16Z</time>
      </trkpt>
      <trkpt lat="46.64849" lon="6.0855">
        <ele>1019.62</ele>
        <time>2015-06-29T12:48:22Z</time>
      </trkpt>
      <trkpt lat="46.64843" lon="6.08544">
        <ele>1019.62</ele>
        <time>2015-06-29T12:48:26Z</time>
      </trkpt>
      <trkpt lat="46.64811" lon="6.08527">
        <ele>1020.58</ele>
        <time>2015-06-29T12:48:37Z</time>
      </trkpt>
      <trkpt lat="46.64791" lon="6.08496">
        <ele>1022.5</ele>
        <time>2015-06-29T12:48:50Z</time>
      </trkpt>
      <trkpt lat="46.64767" lon="6.08464">
        <ele>1023.94</ele>
        <time>2015-06-29T12:49:05Z</time>
      </trkpt>
      <trkpt lat="46.64745" lon="6.0844">
        <ele>1025.86</ele>
        <time>2015-06-29T12:49:19Z</time>
      </trkpt>
      <trkpt lat="46.64724" lon="6.08422">
        <ele>1029.23</ele>
        <time>2015-06-29T12:49:33Z</time>
      </trkpt>
      <trkpt lat="46.64721" lon="6.08419">
        <ele>1029.23</ele>
        <time>2015-06-29T12:49:35Z</time>
      </trkpt>
      <trkpt lat="46.64713" lon="6.08412">
        <ele>1029.71</ele>
        <time>2015-06-29T12:49:41Z</time>
      </trkpt>
      <trkpt lat="46.64693" lon="6.08386">
        <ele>1029.71</ele>
        <time>2015-06-29T12:49:52Z</time>
      </trkpt>
      <trkpt lat="46.64672" lon="6.08355">
        <ele>1031.15</ele>
        <time>2015-06-29T12:50:04Z</time>
      </trkpt>
      <trkpt lat="46.64638" lon="6.08317">
        <ele>1032.11</ele>
        <time>2015-06-29T12:50:20Z</time>
      </trkpt>
      <trkpt lat="46.64605" lon="6.08285">
        <ele>1031.15</ele>
        <time>2015-06-29T12:50:32Z</time>
      </trkpt>
      <trkpt lat="46.64586" lon="6.08262">
        <ele>1031.63</ele>
        <time>2015-06-29T12:50:40Z</time>
      </trkpt>
      <trkpt lat="46.64582" lon="6.08257">
        <ele>1030.67</ele>
        <time>2015-06-29T12:50:41Z</time>
      </trkpt>
      <trkpt lat="46.6457" lon="6.0824">
        <ele>1029.23</ele>
        <time>2015-06-29T12:50:44Z</time>
      </trkpt>
      <trkpt lat="46.64567" lon="6.08233">
        <ele>1029.23</ele>
        <time>2015-06-29T12:50:45Z</time>
      </trkpt>
      <trkpt lat="46.64563" lon="6.08227">
        <ele>1028.75</ele>
        <time>2015-06-29T12:50:46Z</time>
      </trkpt>
      <trkpt lat="46.64542" lon="6.08193">
        <ele>1025.86</ele>
        <time>2015-06-29T12:50:56Z</time>
      </trkpt>
      <trkpt lat="46.64542" lon="6.08191">
        <ele>1025.86</ele>
        <time>2015-06-29T12:50:57Z</time>
      </trkpt>
      <trkpt lat="46.64542" lon="6.08188">
        <ele>1025.38</ele>
        <time>2015-06-29T12:50:58Z</time>
      </trkpt>
      <trkpt lat="46.64543" lon="6.08185">
        <ele>1025.38</ele>
        <time>2015-06-29T12:50:59Z</time>
      </trkpt>
      <trkpt lat="46.64543" lon="6.08183">
        <ele>1024.9</ele>
        <time>2015-06-29T12:51:00Z</time>
      </trkpt>
      <trkpt lat="46.64543" lon="6.08181">
        <ele>1024.42</ele>
        <time>2015-06-29T12:51:01Z</time>
      </trkpt>
      <trkpt lat="46.64542" lon="6.08179">
        <ele>1024.42</ele>
        <time>2015-06-29T12:51:02Z</time>
      </trkpt>
      <trkpt lat="46.6454" lon="6.08178">
        <ele>1023.94</ele>
        <time>2015-06-29T12:51:03Z</time>
      </trkpt>
      <trkpt lat="46.64539" lon="6.08179">
        <ele>1023.94</ele>
        <time>2015-06-29T12:51:04Z</time>
      </trkpt>
      <trkpt lat="46.64532" lon="6.08178">
        <ele>1024.42</ele>
        <time>2015-06-29T12:51:11Z</time>
      </trkpt>
      <trkpt lat="46.6453" lon="6.08177">
        <ele>1023.94</ele>
        <time>2015-06-29T12:51:12Z</time>
      </trkpt>
      <trkpt lat="46.64528" lon="6.08176">
        <ele>1024.42</ele>
        <time>2015-06-29T12:51:13Z</time>
      </trkpt>
      <trkpt lat="46.64526" lon="6.08176">
        <ele>1024.42</ele>
        <time>2015-06-29T12:51:14Z</time>
      </trkpt>
      <trkpt lat="46.64524" lon="6.08175">
        <ele>1023.94</ele>
        <time>2015-06-29T12:51:15Z</time>
      </trkpt>
      <trkpt lat="46.64494" lon="6.08156">
        <ele>1023.46</ele>
        <time>2015-06-29T12:51:29Z</time>
      </trkpt>
      <trkpt lat="46.64441" lon="6.08116">
        <ele>1024.42</ele>
        <time>2015-06-29T12:51:45Z</time>
      </trkpt>
      <trkpt lat="46.64397" lon="6.08074">
        <ele>1024.9</ele>
        <time>2015-06-29T12:51:59Z</time>
      </trkpt>
      <trkpt lat="46.6436" lon="6.08009">
        <ele>1024.9</ele>
        <time>2015-06-29T12:52:13Z</time>
      </trkpt>
      <trkpt lat="46.64357" lon="6.08004">
        <ele>1025.38</ele>
        <time>2015-06-29T12:52:14Z</time>
      </trkpt>
      <trkpt lat="46.64354" lon="6.07999">
        <ele>1024.9</ele>
        <time>2015-06-29T12:52:15Z</time>
      </trkpt>
      <trkpt lat="46.64349" lon="6.07988">
        <ele>1024.9</ele>
        <time>2015-06-29T12:52:17Z</time>
      </trkpt>
      <trkpt lat="46.64346" lon="6.07984">
        <ele>1024.9</ele>
        <time>2015-06-29T12:52:18Z</time>
      </trkpt>
      <trkpt lat="46.64343" lon="6.07979">
        <ele>1024.9</ele>
        <time>2015-06-29T12:52:19Z</time>
      </trkpt>
      <trkpt lat="46.6434" lon="6.07974">
        <ele>1024.9</ele>
        <time>2015-06-29T12:52:20Z</time>
      </trkpt>
      <trkpt lat="46.64337" lon="6.07969">
        <ele>1025.38</ele>
        <time>2015-06-29T12:52:21Z</time>
      </trkpt>
      <trkpt lat="46.64334" lon="6.07965">
        <ele>1024.9</ele>
        <time>2015-06-29T12:52:22Z</time>
      </trkpt>
      <trkpt lat="46.64331" lon="6.0796">
        <ele>1025.38</ele>
        <time>2015-06-29T12:52:23Z</time>
      </trkpt>
      <trkpt lat="46.64322" lon="6.07946">
        <ele>1024.9</ele>
        <time>2015-06-29T12:52:26Z</time>
      </trkpt>
      <trkpt lat="46.64317" lon="6.07942">
        <ele>1025.38</ele>
        <time>2015-06-29T12:52:27Z</time>
      </trkpt>
      <trkpt lat="46.64314" lon="6.07938">
        <ele>1025.38</ele>
        <time>2015-06-29T12:52:28Z</time>
      </trkpt>
      <trkpt lat="46.64311" lon="6.07933">
        <ele>1025.38</ele>
        <time>2015-06-29T12:52:29Z</time>
      </trkpt>
      <trkpt lat="46.64307" lon="6.07928">
        <ele>1025.38</ele>
        <time>2015-06-29T12:52:30Z</time>
      </trkpt>
      <trkpt lat="46.64277" lon="6.0789">
        <ele>1025.38</ele>
        <time>2015-06-29T12:52:39Z</time>
      </trkpt>
      <trkpt lat="46.64274" lon="6.07885">
        <ele>1025.86</ele>
        <time>2015-06-29T12:52:40Z</time>
      </trkpt>
      <trkpt lat="46.64271" lon="6.0788">
        <ele>1025.86</ele>
        <time>2015-06-29T12:52:41Z</time>
      </trkpt>
      <trkpt lat="46.64268" lon="6.07875">
        <ele>1025.86</ele>
        <time>2015-06-29T12:52:42Z</time>
      </trkpt>
      <trkpt lat="46.64265" lon="6.0787">
        <ele>1025.86</ele>
        <time>2015-06-29T12:52:43Z</time>
      </trkpt>
      <trkpt lat="46.64259" lon="6.07859">
        <ele>1026.34</ele>
        <time>2015-06-29T12:52:45Z</time>
      </trkpt>
      <trkpt lat="46.64257" lon="6.07853">
        <ele>1026.34</ele>
        <time>2015-06-29T12:52:46Z</time>
      </trkpt>
      <trkpt lat="46.64249" lon="6.07834">
        <ele>1026.34</ele>
        <time>2015-06-29T12:52:49Z</time>
      </trkpt>
      <trkpt lat="46.6424" lon="6.078">
        <ele>1026.34</ele>
        <time>2015-06-29T12:52:54Z</time>
      </trkpt>
      <trkpt lat="46.64237" lon="6.07794">
        <ele>1026.34</ele>
        <time>2015-06-29T12:52:55Z</time>
      </trkpt>
      <trkpt lat="46.64225" lon="6.07773">
        <ele>1025.86</ele>
        <time>2015-06-29T12:52:59Z</time>
      </trkpt>
      <trkpt lat="46.64222" lon="6.07767">
        <ele>1025.86</ele>
        <time>2015-06-29T12:53:00Z</time>
      </trkpt>
      <trkpt lat="46.64216" lon="6.07755">
        <ele>1025.38</ele>
        <time>2015-06-29T12:53:02Z</time>
      </trkpt>
      <trkpt lat="46.64214" lon="6.07749">
        <ele>1025.86</ele>
        <time>2015-06-29T12:53:03Z</time>
      </trkpt>
      <trkpt lat="46.64212" lon="6.07743">
        <ele>1025.86</ele>
        <time>2015-06-29T12:53:04Z</time>
      </trkpt>
      <trkpt lat="46.64211" lon="6.07736">
        <ele>1025.86</ele>
        <time>2015-06-29T12:53:05Z</time>
      </trkpt>
      <trkpt lat="46.6421" lon="6.0773">
        <ele>1025.86</ele>
        <time>2015-06-29T12:53:06Z</time>
      </trkpt>
      <trkpt lat="46.64205" lon="6.07718">
        <ele>1025.86</ele>
        <time>2015-06-29T12:53:08Z</time>
      </trkpt>
      <trkpt lat="46.64202" lon="6.07712">
        <ele>1025.86</ele>
        <time>2015-06-29T12:53:09Z</time>
      </trkpt>
      <trkpt lat="46.64198" lon="6.07705">
        <ele>1025.86</ele>
        <time>2015-06-29T12:53:10Z</time>
      </trkpt>
      <trkpt lat="46.64185" lon="6.0768">
        <ele>1025.86</ele>
        <time>2015-06-29T12:53:14Z</time>
      </trkpt>
      <trkpt lat="46.64183" lon="6.07673">
        <ele>1026.34</ele>
        <time>2015-06-29T12:53:15Z</time>
      </trkpt>
      <trkpt lat="46.6418" lon="6.07668">
        <ele>1026.34</ele>
        <time>2015-06-29T12:53:16Z</time>
      </trkpt>
      <trkpt lat="46.64171" lon="6.07652">
        <ele>1025.86</ele>
        <time>2015-06-29T12:53:19Z</time>
      </trkpt>
      <trkpt lat="46.64168" lon="6.07647">
        <ele>1025.86</ele>
        <time>2015-06-29T12:53:20Z</time>
      </trkpt>
      <trkpt lat="46.64162" lon="6.07637">
        <ele>1026.34</ele>
        <time>2015-06-29T12:53:22Z</time>
      </trkpt>
      <trkpt lat="46.64154" lon="6.07629">
        <ele>1026.34</ele>
        <time>2015-06-29T12:53:24Z</time>
      </trkpt>
      <trkpt lat="46.6415" lon="6.07624">
        <ele>1026.34</ele>
        <time>2015-06-29T12:53:25Z</time>
      </trkpt>
      <trkpt lat="46.64121" lon="6.07596">
        <ele>1026.83</ele>
        <time>2015-06-29T12:53:32Z</time>
      </trkpt>
      <trkpt lat="46.64117" lon="6.07592">
        <ele>1026.83</ele>
        <time>2015-06-29T12:53:33Z</time>
      </trkpt>
      <trkpt lat="46.64113" lon="6.07587">
        <ele>1026.34</ele>
        <time>2015-06-29T12:53:34Z</time>
      </trkpt>
      <trkpt lat="46.6411" lon="6.07583">
        <ele>1027.31</ele>
        <time>2015-06-29T12:53:35Z</time>
      </trkpt>
      <trkpt lat="46.64106" lon="6.07578">
        <ele>1026.83</ele>
        <time>2015-06-29T12:53:36Z</time>
      </trkpt>
      <trkpt lat="46.64102" lon="6.07575">
        <ele>1026.34</ele>
        <time>2015-06-29T12:53:37Z</time>
      </trkpt>
      <trkpt lat="46.64098" lon="6.07571">
        <ele>1027.31</ele>
        <time>2015-06-29T12:53:38Z</time>
      </trkpt>
      <trkpt lat="46.64091" lon="6.07563">
        <ele>1026.83</ele>
        <time>2015-06-29T12:53:40Z</time>
      </trkpt>
      <trkpt lat="46.64087" lon="6.07559">
        <ele>1027.31</ele>
        <time>2015-06-29T12:53:41Z</time>
      </trkpt>
      <trkpt lat="46.64076" lon="6.07547">
        <ele>1026.83</ele>
        <time>2015-06-29T12:53:44Z</time>
      </trkpt>
      <trkpt lat="46.64069" lon="6.0754">
        <ele>1027.31</ele>
        <time>2015-06-29T12:53:46Z</time>
      </trkpt>
      <trkpt lat="46.64066" lon="6.07535">
        <ele>1027.79</ele>
        <time>2015-06-29T12:53:47Z</time>
      </trkpt>
      <trkpt lat="46.64052" lon="6.07518">
        <ele>1027.79</ele>
        <time>2015-06-29T12:53:51Z</time>
      </trkpt>
      <trkpt lat="46.64048" lon="6.07515">
        <ele>1027.79</ele>
        <time>2015-06-29T12:53:52Z</time>
      </trkpt>
      <trkpt lat="46.64041" lon="6.07507">
        <ele>1027.79</ele>
        <time>2015-06-29T12:53:54Z</time>
      </trkpt>
      <trkpt lat="46.64038" lon="6.07503">
        <ele>1028.27</ele>
        <time>2015-06-29T12:53:55Z</time>
      </trkpt>
      <trkpt lat="46.64031" lon="6.07495">
        <ele>1028.27</ele>
        <time>2015-06-29T12:53:57Z</time>
      </trkpt>
      <trkpt lat="46.64011" lon="6.07478">
        <ele>1028.75</ele>
        <time>2015-06-29T12:54:02Z</time>
      </trkpt>
      <trkpt lat="46.64006" lon="6.07475">
        <ele>1028.27</ele>
        <time>2015-06-29T12:54:03Z</time>
      </trkpt>
      <trkpt lat="46.64" lon="6.07471">
        <ele>1028.27</ele>
        <time>2015-06-29T12:54:04Z</time>
      </trkpt>
      <trkpt lat="46.63995" lon="6.07468">
        <ele>1028.27</ele>
        <time>2015-06-29T12:54:05Z</time>
      </trkpt>
      <trkpt lat="46.6399" lon="6.07466">
        <ele>1028.27</ele>
        <time>2015-06-29T12:54:06Z</time>
      </trkpt>
      <trkpt lat="46.63985" lon="6.07464">
        <ele>1028.75</ele>
        <time>2015-06-29T12:54:07Z</time>
      </trkpt>
      <trkpt lat="46.6398" lon="6.07464">
        <ele>1028.75</ele>
        <time>2015-06-29T12:54:08Z</time>
      </trkpt>
      <trkpt lat="46.63976" lon="6.07464">
        <ele>1029.23</ele>
        <time>2015-06-29T12:54:09Z</time>
      </trkpt>
      <trkpt lat="46.63972" lon="6.07466">
        <ele>1029.23</ele>
        <time>2015-06-29T12:54:10Z</time>
      </trkpt>
      <trkpt lat="46.63968" lon="6.07469">
        <ele>1029.23</ele>
        <time>2015-06-29T12:54:11Z</time>
      </trkpt>
      <trkpt lat="46.63963" lon="6.07474">
        <ele>1029.71</ele>
        <time>2015-06-29T12:54:12Z</time>
      </trkpt>
      <trkpt lat="46.63944" lon="6.07502">
        <ele>1028.75</ele>
        <time>2015-06-29T12:54:19Z</time>
      </trkpt>
      <trkpt lat="46.63942" lon="6.07506">
        <ele>1028.75</ele>
        <time>2015-06-29T12:54:20Z</time>
      </trkpt>
      <trkpt lat="46.6394" lon="6.0751">
        <ele>1028.27</ele>
        <time>2015-06-29T12:54:21Z</time>
      </trkpt>
      <trkpt lat="46.63935" lon="6.07514">
        <ele>1027.79</ele>
        <time>2015-06-29T12:54:22Z</time>
      </trkpt>
      <trkpt lat="46.6393" lon="6.07516">
        <ele>1027.31</ele>
        <time>2015-06-29T12:54:23Z</time>
      </trkpt>
      <trkpt lat="46.63923" lon="6.07515">
        <ele>1027.31</ele>
        <time>2015-06-29T12:54:24Z</time>
      </trkpt>
      <trkpt lat="46.63917" lon="6.07512">
        <ele>1026.83</ele>
        <time>2015-06-29T12:54:25Z</time>
      </trkpt>
      <trkpt lat="46.6391" lon="6.0751">
        <ele>1027.31</ele>
        <time>2015-06-29T12:54:26Z</time>
      </trkpt>
      <trkpt lat="46.63904" lon="6.07506">
        <ele>1027.31</ele>
        <time>2015-06-29T12:54:27Z</time>
      </trkpt>
      <trkpt lat="46.63899" lon="6.07503">
        <ele>1027.31</ele>
        <time>2015-06-29T12:54:28Z</time>
      </trkpt>
      <trkpt lat="46.63894" lon="6.07499">
        <ele>1026.83</ele>
        <time>2015-06-29T12:54:29Z</time>
      </trkpt>
      <trkpt lat="46.63889" lon="6.07495">
        <ele>1027.31</ele>
        <time>2015-06-29T12:54:30Z</time>
      </trkpt>
      <trkpt lat="46.6388" lon="6.07485">
        <ele>1027.79</ele>
        <time>2015-06-29T12:54:32Z</time>
      </trkpt>
      <trkpt lat="46.63874" lon="6.07475">
        <ele>1028.27</ele>
        <time>2015-06-29T12:54:34Z</time>
      </trkpt>
      <trkpt lat="46.63871" lon="6.0747">
        <ele>1028.27</ele>
        <time>2015-06-29T12:54:35Z</time>
      </trkpt>
      <trkpt lat="46.63868" lon="6.07465">
        <ele>1028.75</ele>
        <time>2015-06-29T12:54:36Z</time>
      </trkpt>
      <trkpt lat="46.63866" lon="6.0746">
        <ele>1029.23</ele>
        <time>2015-06-29T12:54:37Z</time>
      </trkpt>
      <trkpt lat="46.63864" lon="6.07456">
        <ele>1029.23</ele>
        <time>2015-06-29T12:54:38Z</time>
      </trkpt>
      <trkpt lat="46.63862" lon="6.07452">
        <ele>1029.71</ele>
        <time>2015-06-29T12:54:39Z</time>
      </trkpt>
      <trkpt lat="46.63861" lon="6.07448">
        <ele>1030.19</ele>
        <time>2015-06-29T12:54:40Z</time>
      </trkpt>
      <trkpt lat="46.6386" lon="6.07445">
        <ele>1030.19</ele>
        <time>2015-06-29T12:54:41Z</time>
      </trkpt>
      <trkpt lat="46.63851" lon="6.07407">
        <ele>1031.63</ele>
        <time>2015-06-29T12:54:51Z</time>
      </trkpt>
      <trkpt lat="46.63839" lon="6.07381">
        <ele>1033.07</ele>
        <time>2015-06-29T12:55:00Z</time>
      </trkpt>
      <trkpt lat="46.63827" lon="6.07357">
        <ele>1035</ele>
        <time>2015-06-29T12:55:08Z</time>
      </trkpt>
      <trkpt lat="46.63826" lon="6.07353">
        <ele>1035</ele>
        <time>2015-06-29T12:55:09Z</time>
      </trkpt>
      <trkpt lat="46.63825" lon="6.0735">
        <ele>1035</ele>
        <time>2015-06-29T12:55:10Z</time>
      </trkpt>
      <trkpt lat="46.63826" lon="6.07347">
        <ele>1035.48</ele>
        <time>2015-06-29T12:55:11Z</time>
      </trkpt>
      <trkpt lat="46.63835" lon="6.07333">
        <ele>1035.48</ele>
        <time>2015-06-29T12:55:18Z</time>
      </trkpt>
      <trkpt lat="46.63839" lon="6.07325">
        <ele>1036.44</ele>
        <time>2015-06-29T12:55:21Z</time>
      </trkpt>
      <trkpt lat="46.6384" lon="6.07325">
        <ele>1036.92</ele>
        <time>2015-06-29T12:55:22Z</time>
      </trkpt>
      <trkpt lat="46.63847" lon="6.07309">
        <ele>1036.92</ele>
        <time>2015-06-29T12:55:28Z</time>
      </trkpt>
      <trkpt lat="46.63844" lon="6.07278">
        <ele>1038.84</ele>
        <time>2015-06-29T12:55:38Z</time>
      </trkpt>
      <trkpt lat="46.63839" lon="6.07264">
        <ele>1038.84</ele>
        <time>2015-06-29T12:55:42Z</time>
      </trkpt>
      <trkpt lat="46.63828" lon="6.07244">
        <ele>1039.8</ele>
        <time>2015-06-29T12:55:48Z</time>
      </trkpt>
      <trkpt lat="46.63825" lon="6.07236">
        <ele>1040.28</ele>
        <time>2015-06-29T12:55:51Z</time>
      </trkpt>
      <trkpt lat="46.63818" lon="6.07228">
        <ele>1040.76</ele>
        <time>2015-06-29T12:55:55Z</time>
      </trkpt>
      <trkpt lat="46.63812" lon="6.07221">
        <ele>1040.76</ele>
        <time>2015-06-29T12:55:58Z</time>
      </trkpt>
      <trkpt lat="46.63805" lon="6.07195">
        <ele>1041.73</ele>
        <time>2015-06-29T12:56:07Z</time>
      </trkpt>
      <trkpt lat="46.63802" lon="6.07186">
        <ele>1041.73</ele>
        <time>2015-06-29T12:56:10Z</time>
      </trkpt>
      <trkpt lat="46.63795" lon="6.0716">
        <ele>1042.69</ele>
        <time>2015-06-29T12:56:19Z</time>
      </trkpt>
      <trkpt lat="46.63776" lon="6.07134">
        <ele>1045.09</ele>
        <time>2015-06-29T12:56:32Z</time>
      </trkpt>
      <trkpt lat="46.63759" lon="6.07126">
        <ele>1046.05</ele>
        <time>2015-06-29T12:56:40Z</time>
      </trkpt>
      <trkpt lat="46.63745" lon="6.07106">
        <ele>1047.01</ele>
        <time>2015-06-29T12:56:48Z</time>
      </trkpt>
      <trkpt lat="46.63741" lon="6.07098">
        <ele>1047.01</ele>
        <time>2015-06-29T12:56:51Z</time>
      </trkpt>
      <trkpt lat="46.63724" lon="6.07084">
        <ele>1047.97</ele>
        <time>2015-06-29T12:57:01Z</time>
      </trkpt>
      <trkpt lat="46.63719" lon="6.07084">
        <ele>1048.94</ele>
        <time>2015-06-29T12:57:04Z</time>
      </trkpt>
      <trkpt lat="46.63709" lon="6.07093">
        <ele>1049.9</ele>
        <time>2015-06-29T12:57:14Z</time>
      </trkpt>
      <trkpt lat="46.63701" lon="6.071">
        <ele>1051.34</ele>
        <time>2015-06-29T12:57:23Z</time>
      </trkpt>
      <trkpt lat="46.63699" lon="6.07102">
        <ele>1051.34</ele>
        <time>2015-06-29T12:57:25Z</time>
      </trkpt>
      <trkpt lat="46.63686" lon="6.07112">
        <ele>1052.3</ele>
        <time>2015-06-29T12:57:30Z</time>
      </trkpt>
      <trkpt lat="46.63659" lon="6.07116">
        <ele>1054.7</ele>
        <time>2015-06-29T12:57:40Z</time>
      </trkpt>
      <trkpt lat="46.63653" lon="6.0712">
        <ele>1054.7</ele>
        <time>2015-06-29T12:57:44Z</time>
      </trkpt>
      <trkpt lat="46.63647" lon="6.0713">
        <ele>1056.15</ele>
        <time>2015-06-29T12:57:50Z</time>
      </trkpt>
      <trkpt lat="46.63633" lon="6.07155">
        <ele>1057.59</ele>
        <time>2015-06-29T12:58:03Z</time>
      </trkpt>
      <trkpt lat="46.63617" lon="6.07182">
        <ele>1059.51</ele>
        <time>2015-06-29T12:58:17Z</time>
      </trkpt>
      <trkpt lat="46.636" lon="6.07197">
        <ele>1061.43</ele>
        <time>2015-06-29T12:58:29Z</time>
      </trkpt>
      <trkpt lat="46.63571" lon="6.072">
        <ele>1061.91</ele>
        <time>2015-06-29T12:58:45Z</time>
      </trkpt>
      <trkpt lat="46.63551" lon="6.07168">
        <ele>1063.36</ele>
        <time>2015-06-29T12:58:58Z</time>
      </trkpt>
      <trkpt lat="46.63528" lon="6.07144">
        <ele>1065.28</ele>
        <time>2015-06-29T12:59:12Z</time>
      </trkpt>
      <trkpt lat="46.63495" lon="6.07148">
        <ele>1066.24</ele>
        <time>2015-06-29T12:59:26Z</time>
      </trkpt>
      <trkpt lat="46.63448" lon="6.07157">
        <ele>1066.72</ele>
        <time>2015-06-29T12:59:42Z</time>
      </trkpt>
      <trkpt lat="46.63417" lon="6.07143">
        <ele>1067.68</ele>
        <time>2015-06-29T12:59:52Z</time>
      </trkpt>
      <trkpt lat="46.63413" lon="6.07126">
        <ele>1066.72</ele>
        <time>2015-06-29T12:59:55Z</time>
      </trkpt>
      <trkpt lat="46.6341" lon="6.07104">
        <ele>1065.76</ele>
        <time>2015-06-29T12:59:58Z</time>
      </trkpt>
      <trkpt lat="46.63408" lon="6.07097">
        <ele>1065.28</ele>
        <time>2015-06-29T12:59:59Z</time>
      </trkpt>
      <trkpt lat="46.63404" lon="6.07091">
        <ele>1064.32</ele>
        <time>2015-06-29T13:00:00Z</time>
      </trkpt>
      <trkpt lat="46.634" lon="6.07086">
        <ele>1064.8</ele>
        <time>2015-06-29T13:00:01Z</time>
      </trkpt>
      <trkpt lat="46.63394" lon="6.07082">
        <ele>1064.32</ele>
        <time>2015-06-29T13:00:02Z</time>
      </trkpt>
      <trkpt lat="46.63388" lon="6.07079">
        <ele>1062.87</ele>
        <time>2015-06-29T13:00:03Z</time>
      </trkpt>
      <trkpt lat="46.63382" lon="6.07075">
        <ele>1062.87</ele>
        <time>2015-06-29T13:00:04Z</time>
      </trkpt>
      <trkpt lat="46.63374" lon="6.07068">
        <ele>1062.39</ele>
        <time>2015-06-29T13:00:05Z</time>
      </trkpt>
      <trkpt lat="46.63367" lon="6.0706">
        <ele>1062.39</ele>
        <time>2015-06-29T13:00:06Z</time>
      </trkpt>
      <trkpt lat="46.63325" lon="6.06979">
        <ele>1059.99</ele>
        <time>2015-06-29T13:00:15Z</time>
      </trkpt>
      <trkpt lat="46.63321" lon="6.06968">
        <ele>1059.03</ele>
        <time>2015-06-29T13:00:16Z</time>
      </trkpt>
      <trkpt lat="46.63317" lon="6.06956">
        <ele>1058.55</ele>
        <time>2015-06-29T13:00:17Z</time>
      </trkpt>
      <trkpt lat="46.63315" lon="6.06943">
        <ele>1058.07</ele>
        <time>2015-06-29T13:00:18Z</time>
      </trkpt>
      <trkpt lat="46.63313" lon="6.06929">
        <ele>1057.11</ele>
        <time>2015-06-29T13:00:19Z</time>
      </trkpt>
      <trkpt lat="46.63312" lon="6.06915">
        <ele>1057.11</ele>
        <time>2015-06-29T13:00:20Z</time>
      </trkpt>
      <trkpt lat="46.63311" lon="6.06894">
        <ele>1056.15</ele>
        <time>2015-06-29T13:00:22Z</time>
      </trkpt>
      <trkpt lat="46.63311" lon="6.06885">
        <ele>1055.67</ele>
        <time>2015-06-29T13:00:23Z</time>
      </trkpt>
      <trkpt lat="46.6331" lon="6.06842">
        <ele>1053.74</ele>
        <time>2015-06-29T13:00:28Z</time>
      </trkpt>
      <trkpt lat="46.63307" lon="6.06835">
        <ele>1053.26</ele>
        <time>2015-06-29T13:00:29Z</time>
      </trkpt>
      <trkpt lat="46.63305" lon="6.06829">
        <ele>1053.26</ele>
        <time>2015-06-29T13:00:30Z</time>
      </trkpt>
      <trkpt lat="46.63302" lon="6.06823">
        <ele>1052.78</ele>
        <time>2015-06-29T13:00:31Z</time>
      </trkpt>
      <trkpt lat="46.63298" lon="6.06818">
        <ele>1052.3</ele>
        <time>2015-06-29T13:00:32Z</time>
      </trkpt>
      <trkpt lat="46.63295" lon="6.06813">
        <ele>1051.82</ele>
        <time>2015-06-29T13:00:33Z</time>
      </trkpt>
      <trkpt lat="46.63291" lon="6.0681">
        <ele>1051.34</ele>
        <time>2015-06-29T13:00:34Z</time>
      </trkpt>
      <trkpt lat="46.63287" lon="6.06807">
        <ele>1050.86</ele>
        <time>2015-06-29T13:00:35Z</time>
      </trkpt>
      <trkpt lat="46.63282" lon="6.06805">
        <ele>1050.38</ele>
        <time>2015-06-29T13:00:36Z</time>
      </trkpt>
      <trkpt lat="46.63277" lon="6.06804">
        <ele>1050.86</ele>
        <time>2015-06-29T13:00:37Z</time>
      </trkpt>
      <trkpt lat="46.63266" lon="6.06803">
        <ele>1049.42</ele>
        <time>2015-06-29T13:00:39Z</time>
      </trkpt>
      <trkpt lat="46.6326" lon="6.06804">
        <ele>1048.94</ele>
        <time>2015-06-29T13:00:40Z</time>
      </trkpt>
      <trkpt lat="46.63254" lon="6.06803">
        <ele>1048.94</ele>
        <time>2015-06-29T13:00:41Z</time>
      </trkpt>
      <trkpt lat="46.63248" lon="6.06801">
        <ele>1047.49</ele>
        <time>2015-06-29T13:00:42Z</time>
      </trkpt>
      <trkpt lat="46.63242" lon="6.06799">
        <ele>1047.97</ele>
        <time>2015-06-29T13:00:43Z</time>
      </trkpt>
      <trkpt lat="46.63236" lon="6.06795">
        <ele>1047.97</ele>
        <time>2015-06-29T13:00:44Z</time>
      </trkpt>
      <trkpt lat="46.63231" lon="6.06792">
        <ele>1047.97</ele>
        <time>2015-06-29T13:00:45Z</time>
      </trkpt>
      <trkpt lat="46.63221" lon="6.06785">
        <ele>1047.01</ele>
        <time>2015-06-29T13:00:47Z</time>
      </trkpt>
      <trkpt lat="46.63217" lon="6.06782">
        <ele>1046.53</ele>
        <time>2015-06-29T13:00:48Z</time>
      </trkpt>
      <trkpt lat="46.63202" lon="6.06771">
        <ele>1046.53</ele>
        <time>2015-06-29T13:00:58Z</time>
      </trkpt>
      <trkpt lat="46.63197" lon="6.06765">
        <ele>1046.53</ele>
        <time>2015-06-29T13:01:02Z</time>
      </trkpt>
      <trkpt lat="46.63195" lon="6.06764">
        <ele>1046.05</ele>
        <time>2015-06-29T13:01:03Z</time>
      </trkpt>
      <trkpt lat="46.63193" lon="6.06763">
        <ele>1046.05</ele>
        <time>2015-06-29T13:01:04Z</time>
      </trkpt>
      <trkpt lat="46.63191" lon="6.06762">
        <ele>1046.05</ele>
        <time>2015-06-29T13:01:05Z</time>
      </trkpt>
      <trkpt lat="46.63189" lon="6.06761">
        <ele>1046.05</ele>
        <time>2015-06-29T13:01:06Z</time>
      </trkpt>
      <trkpt lat="46.63185" lon="6.0676">
        <ele>1046.53</ele>
        <time>2015-06-29T13:01:07Z</time>
      </trkpt>
      <trkpt lat="46.63182" lon="6.06759">
        <ele>1046.05</ele>
        <time>2015-06-29T13:01:08Z</time>
      </trkpt>
      <trkpt lat="46.63178" lon="6.06758">
        <ele>1046.05</ele>
        <time>2015-06-29T13:01:09Z</time>
      </trkpt>
      <trkpt lat="46.63146" lon="6.06737">
        <ele>1047.01</ele>
        <time>2015-06-29T13:01:19Z</time>
      </trkpt>
      <trkpt lat="46.63111" lon="6.06737">
        <ele>1047.49</ele>
        <time>2015-06-29T13:01:30Z</time>
      </trkpt>
      <trkpt lat="46.63082" lon="6.06707">
        <ele>1048.45</ele>
        <time>2015-06-29T13:01:41Z</time>
      </trkpt>
      <trkpt lat="46.63061" lon="6.0667">
        <ele>1050.38</ele>
        <time>2015-06-29T13:01:50Z</time>
      </trkpt>
      <trkpt lat="46.63027" lon="6.06622">
        <ele>1049.9</ele>
        <time>2015-06-29T13:02:02Z</time>
      </trkpt>
      <trkpt lat="46.63008" lon="6.06618">
        <ele>1048.45</ele>
        <time>2015-06-29T13:02:07Z</time>
      </trkpt>
      <trkpt lat="46.63004" lon="6.06622">
        <ele>1048.45</ele>
        <time>2015-06-29T13:02:08Z</time>
      </trkpt>
      <trkpt lat="46.62978" lon="6.0665">
        <ele>1047.49</ele>
        <time>2015-06-29T13:02:14Z</time>
      </trkpt>
      <trkpt lat="46.62974" lon="6.06654">
        <ele>1047.49</ele>
        <time>2015-06-29T13:02:15Z</time>
      </trkpt>
      <trkpt lat="46.6297" lon="6.06659">
        <ele>1047.01</ele>
        <time>2015-06-29T13:02:16Z</time>
      </trkpt>
      <trkpt lat="46.62962" lon="6.06668">
        <ele>1047.01</ele>
        <time>2015-06-29T13:02:18Z</time>
      </trkpt>
      <trkpt lat="46.62954" lon="6.06677">
        <ele>1047.01</ele>
        <time>2015-06-29T13:02:20Z</time>
      </trkpt>
      <trkpt lat="46.62938" lon="6.06697">
        <ele>1047.49</ele>
        <time>2015-06-29T13:02:25Z</time>
      </trkpt>
      <trkpt lat="46.62927" lon="6.06706">
        <ele>1047.49</ele>
        <time>2015-06-29T13:02:28Z</time>
      </trkpt>
      <trkpt lat="46.62923" lon="6.06709">
        <ele>1047.01</ele>
        <time>2015-06-29T13:02:29Z</time>
      </trkpt>
      <trkpt lat="46.62919" lon="6.06712">
        <ele>1047.49</ele>
        <time>2015-06-29T13:02:30Z</time>
      </trkpt>
      <trkpt lat="46.62914" lon="6.06713">
        <ele>1047.01</ele>
        <time>2015-06-29T13:02:31Z</time>
      </trkpt>
      <trkpt lat="46.6291" lon="6.06714">
        <ele>1047.01</ele>
        <time>2015-06-29T13:02:32Z</time>
      </trkpt>
      <trkpt lat="46.62905" lon="6.06715">
        <ele>1047.01</ele>
        <time>2015-06-29T13:02:33Z</time>
      </trkpt>
      <trkpt lat="46.629" lon="6.06715">
        <ele>1047.01</ele>
        <time>2015-06-29T13:02:34Z</time>
      </trkpt>
      <trkpt lat="46.62896" lon="6.06713">
        <ele>1047.01</ele>
        <time>2015-06-29T13:02:35Z</time>
      </trkpt>
      <trkpt lat="46.62892" lon="6.0671">
        <ele>1046.53</ele>
        <time>2015-06-29T13:02:36Z</time>
      </trkpt>
      <trkpt lat="46.62887" lon="6.06707">
        <ele>1046.53</ele>
        <time>2015-06-29T13:02:37Z</time>
      </trkpt>
      <trkpt lat="46.62883" lon="6.06703">
        <ele>1046.05</ele>
        <time>2015-06-29T13:02:38Z</time>
      </trkpt>
      <trkpt lat="46.6288" lon="6.06698">
        <ele>1045.09</ele>
        <time>2015-06-29T13:02:39Z</time>
      </trkpt>
      <trkpt lat="46.62877" lon="6.06694">
        <ele>1046.05</ele>
        <time>2015-06-29T13:02:40Z</time>
      </trkpt>
      <trkpt lat="46.62864" lon="6.06675">
        <ele>1045.09</ele>
        <time>2015-06-29T13:02:51Z</time>
      </trkpt>
      <trkpt lat="46.6286" lon="6.06675">
        <ele>1048.45</ele>
        <time>2015-06-29T13:03:13Z</time>
      </trkpt>
      <trkpt lat="46.6286" lon="6.06675">
        <ele>1044.61</ele>
        <time>2015-06-29T13:03:14Z</time>
      </trkpt>
      <trkpt lat="46.62858" lon="6.06674">
        <ele>1044.13</ele>
        <time>2015-06-29T13:03:33Z</time>
      </trkpt>
      <trkpt lat="46.62858" lon="6.06675">
        <ele>1044.13</ele>
        <time>2015-06-29T13:03:34Z</time>
      </trkpt>
      <trkpt lat="46.62856" lon="6.06674">
        <ele>1044.61</ele>
        <time>2015-06-29T13:03:35Z</time>
      </trkpt>
      <trkpt lat="46.62854" lon="6.06672">
        <ele>1044.61</ele>
        <time>2015-06-29T13:03:36Z</time>
      </trkpt>
      <trkpt lat="46.62851" lon="6.06669">
        <ele>1044.61</ele>
        <time>2015-06-29T13:03:37Z</time>
      </trkpt>
      <trkpt lat="46.62849" lon="6.06666">
        <ele>1044.13</ele>
        <time>2015-06-29T13:03:38Z</time>
      </trkpt>
      <trkpt lat="46.62825" lon="6.06637">
        <ele>1041.73</ele>
        <time>2015-06-29T13:03:47Z</time>
      </trkpt>
      <trkpt lat="46.62818" lon="6.06628">
        <ele>1041.25</ele>
        <time>2015-06-29T13:03:49Z</time>
      </trkpt>
      <trkpt lat="46.62808" lon="6.06614">
        <ele>1041.73</ele>
        <time>2015-06-29T13:03:52Z</time>
      </trkpt>
      <trkpt lat="46.62804" lon="6.0661">
        <ele>1041.25</ele>
        <time>2015-06-29T13:03:53Z</time>
      </trkpt>
      <trkpt lat="46.62801" lon="6.06607">
        <ele>1041.25</ele>
        <time>2015-06-29T13:03:54Z</time>
      </trkpt>
      <trkpt lat="46.62798" lon="6.06603">
        <ele>1041.73</ele>
        <time>2015-06-29T13:03:55Z</time>
      </trkpt>
      <trkpt lat="46.62794" lon="6.06599">
        <ele>1041.25</ele>
        <time>2015-06-29T13:03:56Z</time>
      </trkpt>
      <trkpt lat="46.62749" lon="6.0657">
        <ele>1041.73</ele>
        <time>2015-06-29T13:04:07Z</time>
      </trkpt>
      <trkpt lat="46.62738" lon="6.06561">
        <ele>1042.21</ele>
        <time>2015-06-29T13:04:10Z</time>
      </trkpt>
      <trkpt lat="46.62733" lon="6.06558">
        <ele>1042.21</ele>
        <time>2015-06-29T13:04:11Z</time>
      </trkpt>
      <trkpt lat="46.62702" lon="6.06535">
        <ele>1043.17</ele>
        <time>2015-06-29T13:04:19Z</time>
      </trkpt>
      <trkpt lat="46.62701" lon="6.06532">
        <ele>1043.17</ele>
        <time>2015-06-29T13:04:20Z</time>
      </trkpt>
      <trkpt lat="46.62699" lon="6.0653">
        <ele>1044.61</ele>
        <time>2015-06-29T13:04:21Z</time>
      </trkpt>
      <trkpt lat="46.62669" lon="6.06516">
        <ele>1042.69</ele>
        <time>2015-06-29T13:04:30Z</time>
      </trkpt>
      <trkpt lat="46.62658" lon="6.06512">
        <ele>1042.69</ele>
        <time>2015-06-29T13:04:33Z</time>
      </trkpt>
      <trkpt lat="46.62654" lon="6.06511">
        <ele>1043.17</ele>
        <time>2015-06-29T13:04:34Z</time>
      </trkpt>
      <trkpt lat="46.6265" lon="6.06509">
        <ele>1042.69</ele>
        <time>2015-06-29T13:04:35Z</time>
      </trkpt>
      <trkpt lat="46.62646" lon="6.06507">
        <ele>1042.69</ele>
        <time>2015-06-29T13:04:36Z</time>
      </trkpt>
      <trkpt lat="46.6263" lon="6.06499">
        <ele>1042.69</ele>
        <time>2015-06-29T13:04:39Z</time>
      </trkpt>
      <trkpt lat="46.62626" lon="6.06495">
        <ele>1042.69</ele>
        <time>2015-06-29T13:04:40Z</time>
      </trkpt>
      <trkpt lat="46.62622" lon="6.06489">
        <ele>1042.21</ele>
        <time>2015-06-29T13:04:41Z</time>
      </trkpt>
      <trkpt lat="46.62616" lon="6.06477">
        <ele>1041.25</ele>
        <time>2015-06-29T13:04:43Z</time>
      </trkpt>
      <trkpt lat="46.62613" lon="6.06471">
        <ele>1040.76</ele>
        <time>2015-06-29T13:04:44Z</time>
      </trkpt>
      <trkpt lat="46.62605" lon="6.06459">
        <ele>1039.8</ele>
        <time>2015-06-29T13:04:46Z</time>
      </trkpt>
      <trkpt lat="46.62601" lon="6.06454">
        <ele>1039.32</ele>
        <time>2015-06-29T13:04:47Z</time>
      </trkpt>
      <trkpt lat="46.62598" lon="6.06449">
        <ele>1038.84</ele>
        <time>2015-06-29T13:04:48Z</time>
      </trkpt>
      <trkpt lat="46.62595" lon="6.06443">
        <ele>1038.36</ele>
        <time>2015-06-29T13:04:49Z</time>
      </trkpt>
      <trkpt lat="46.62592" lon="6.06436">
        <ele>1037.88</ele>
        <time>2015-06-29T13:04:50Z</time>
      </trkpt>
      <trkpt lat="46.62591" lon="6.06428">
        <ele>1037.4</ele>
        <time>2015-06-29T13:04:51Z</time>
      </trkpt>
      <trkpt lat="46.6259" lon="6.0642">
        <ele>1036.92</ele>
        <time>2015-06-29T13:04:52Z</time>
      </trkpt>
      <trkpt lat="46.62589" lon="6.06411">
        <ele>1035.96</ele>
        <time>2015-06-29T13:04:53Z</time>
      </trkpt>
      <trkpt lat="46.62588" lon="6.06403">
        <ele>1035.96</ele>
        <time>2015-06-29T13:04:54Z</time>
      </trkpt>
      <trkpt lat="46.62587" lon="6.06396">
        <ele>1035</ele>
        <time>2015-06-29T13:04:55Z</time>
      </trkpt>
      <trkpt lat="46.62586" lon="6.0639">
        <ele>1035.48</ele>
        <time>2015-06-29T13:04:56Z</time>
      </trkpt>
      <trkpt lat="46.62584" lon="6.06386">
        <ele>1034.52</ele>
        <time>2015-06-29T13:04:57Z</time>
      </trkpt>
      <trkpt lat="46.62581" lon="6.06383">
        <ele>1035.48</ele>
        <time>2015-06-29T13:04:58Z</time>
      </trkpt>
      <trkpt lat="46.62576" lon="6.0638">
        <ele>1035.48</ele>
        <time>2015-06-29T13:04:59Z</time>
      </trkpt>
      <trkpt lat="46.62571" lon="6.06377">
        <ele>1035</ele>
        <time>2015-06-29T13:05:00Z</time>
      </trkpt>
      <trkpt lat="46.62568" lon="6.06375">
        <ele>1034.52</ele>
        <time>2015-06-29T13:05:01Z</time>
      </trkpt>
      <trkpt lat="46.62565" lon="6.06373">
        <ele>1034.52</ele>
        <time>2015-06-29T13:05:02Z</time>
      </trkpt>
      <trkpt lat="46.6255" lon="6.06364">
        <ele>1032.59</ele>
        <time>2015-06-29T13:05:07Z</time>
      </trkpt>
      <trkpt lat="46.62547" lon="6.06365">
        <ele>1032.59</ele>
        <time>2015-06-29T13:05:08Z</time>
      </trkpt>
      <trkpt lat="46.62545" lon="6.06367">
        <ele>1032.11</ele>
        <time>2015-06-29T13:05:09Z</time>
      </trkpt>
      <trkpt lat="46.62538" lon="6.06378">
        <ele>1030.19</ele>
        <time>2015-06-29T13:05:12Z</time>
      </trkpt>
      <trkpt lat="46.62509" lon="6.06393">
        <ele>1029.23</ele>
        <time>2015-06-29T13:05:22Z</time>
      </trkpt>
      <trkpt lat="46.62498" lon="6.06395">
        <ele>1029.23</ele>
        <time>2015-06-29T13:05:34Z</time>
      </trkpt>
      <trkpt lat="46.62495" lon="6.06392">
        <ele>1028.75</ele>
        <time>2015-06-29T13:06:01Z</time>
      </trkpt>
      <trkpt lat="46.62493" lon="6.06391">
        <ele>1029.23</ele>
        <time>2015-06-29T13:06:29Z</time>
      </trkpt>
      <trkpt lat="46.62493" lon="6.06392">
        <ele>1029.23</ele>
        <time>2015-06-29T13:06:32Z</time>
      </trkpt>
      <trkpt lat="46.62474" lon="6.064">
        <ele>1027.79</ele>
        <time>2015-06-29T13:06:38Z</time>
      </trkpt>
      <trkpt lat="46.62469" lon="6.06402">
        <ele>1027.79</ele>
        <time>2015-06-29T13:06:39Z</time>
      </trkpt>
      <trkpt lat="46.62464" lon="6.06403">
        <ele>1026.83</ele>
        <time>2015-06-29T13:06:40Z</time>
      </trkpt>
      <trkpt lat="46.62459" lon="6.06404">
        <ele>1026.83</ele>
        <time>2015-06-29T13:06:41Z</time>
      </trkpt>
      <trkpt lat="46.62454" lon="6.06405">
        <ele>1027.31</ele>
        <time>2015-06-29T13:06:42Z</time>
      </trkpt>
      <trkpt lat="46.62443" lon="6.06407">
        <ele>1026.83</ele>
        <time>2015-06-29T13:06:44Z</time>
      </trkpt>
      <trkpt lat="46.62437" lon="6.06409">
        <ele>1026.83</ele>
        <time>2015-06-29T13:06:45Z</time>
      </trkpt>
      <trkpt lat="46.62431" lon="6.06412">
        <ele>1026.34</ele>
        <time>2015-06-29T13:06:46Z</time>
      </trkpt>
      <trkpt lat="46.62426" lon="6.06416">
        <ele>1026.34</ele>
        <time>2015-06-29T13:06:47Z</time>
      </trkpt>
      <trkpt lat="46.62422" lon="6.06422">
        <ele>1025.86</ele>
        <time>2015-06-29T13:06:48Z</time>
      </trkpt>
      <trkpt lat="46.62418" lon="6.06428">
        <ele>1024.9</ele>
        <time>2015-06-29T13:06:49Z</time>
      </trkpt>
      <trkpt lat="46.62414" lon="6.06435">
        <ele>1025.38</ele>
        <time>2015-06-29T13:06:50Z</time>
      </trkpt>
      <trkpt lat="46.62411" lon="6.06442">
        <ele>1024.9</ele>
        <time>2015-06-29T13:06:51Z</time>
      </trkpt>
      <trkpt lat="46.62407" lon="6.0645">
        <ele>1024.42</ele>
        <time>2015-06-29T13:06:52Z</time>
      </trkpt>
      <trkpt lat="46.62404" lon="6.06459">
        <ele>1023.46</ele>
        <time>2015-06-29T13:06:53Z</time>
      </trkpt>
      <trkpt lat="46.62393" lon="6.06491">
        <ele>1023.46</ele>
        <time>2015-06-29T13:06:57Z</time>
      </trkpt>
      <trkpt lat="46.62352" lon="6.06573">
        <ele>1022.5</ele>
        <time>2015-06-29T13:07:08Z</time>
      </trkpt>
      <trkpt lat="46.62324" lon="6.06596">
        <ele>1024.42</ele>
        <time>2015-06-29T13:07:17Z</time>
      </trkpt>
      <trkpt lat="46.62287" lon="6.06622">
        <ele>1026.83</ele>
        <time>2015-06-29T13:07:31Z</time>
      </trkpt>
      <trkpt lat="46.62258" lon="6.06651">
        <ele>1028.75</ele>
        <time>2015-06-29T13:07:42Z</time>
      </trkpt>
      <trkpt lat="46.62225" lon="6.0669">
        <ele>1027.79</ele>
        <time>2015-06-29T13:07:53Z</time>
      </trkpt>
      <trkpt lat="46.622" lon="6.06717">
        <ele>1029.23</ele>
        <time>2015-06-29T13:08:03Z</time>
      </trkpt>
      <trkpt lat="46.62169" lon="6.06733">
        <ele>1029.71</ele>
        <time>2015-06-29T13:08:15Z</time>
      </trkpt>
      <trkpt lat="46.62142" lon="6.06743">
        <ele>1031.15</ele>
        <time>2015-06-29T13:08:25Z</time>
      </trkpt>
      <trkpt lat="46.62124" lon="6.06751">
        <ele>1033.07</ele>
        <time>2015-06-29T13:08:34Z</time>
      </trkpt>
      <trkpt lat="46.62121" lon="6.06755">
        <ele>1033.55</ele>
        <time>2015-06-29T13:08:37Z</time>
      </trkpt>
      <trkpt lat="46.62127" lon="6.06761">
        <ele>1033.55</ele>
        <time>2015-06-29T13:08:41Z</time>
      </trkpt>
      <trkpt lat="46.62129" lon="6.0677">
        <ele>1034.52</ele>
        <time>2015-06-29T13:08:49Z</time>
      </trkpt>
      <trkpt lat="46.62128" lon="6.06771">
        <ele>1035</ele>
        <time>2015-06-29T13:08:51Z</time>
      </trkpt>
      <trkpt lat="46.62128" lon="6.06773">
        <ele>1035</ele>
        <time>2015-06-29T13:08:53Z</time>
      </trkpt>
      <trkpt lat="46.62129" lon="6.06777">
        <ele>1035.96</ele>
        <time>2015-06-29T13:08:57Z</time>
      </trkpt>
      <trkpt lat="46.62132" lon="6.0678">
        <ele>1035.96</ele>
        <time>2015-06-29T13:08:58Z</time>
      </trkpt>
      <trkpt lat="46.62058" lon="6.06788">
        <ele>1037.88</ele>
        <time>2015-06-29T13:09:09Z</time>
      </trkpt>
      <trkpt lat="46.62053" lon="6.06796">
        <ele>1038.84</ele>
        <time>2015-06-29T13:09:16Z</time>
      </trkpt>
      <trkpt lat="46.62053" lon="6.06796">
        <ele>1038.84</ele>
        <time>2015-06-29T13:09:17Z</time>
      </trkpt>
      <trkpt lat="46.62049" lon="6.06802">
        <ele>1039.8</ele>
        <time>2015-06-29T13:09:23Z</time>
      </trkpt>
      <trkpt lat="46.62045" lon="6.06818">
        <ele>1040.76</ele>
        <time>2015-06-29T13:09:31Z</time>
      </trkpt>
      <trkpt lat="46.62036" lon="6.06841">
        <ele>1041.73</ele>
        <time>2015-06-29T13:09:43Z</time>
      </trkpt>
      <trkpt lat="46.62032" lon="6.06848">
        <ele>1041.73</ele>
        <time>2015-06-29T13:09:46Z</time>
      </trkpt>
      <trkpt lat="46.6203" lon="6.06876">
        <ele>1043.65</ele>
        <time>2015-06-29T13:09:58Z</time>
      </trkpt>
      <trkpt lat="46.6203" lon="6.06885">
        <ele>1044.13</ele>
        <time>2015-06-29T13:10:02Z</time>
      </trkpt>
      <trkpt lat="46.6203" lon="6.06887">
        <ele>1044.13</ele>
        <time>2015-06-29T13:10:03Z</time>
      </trkpt>
      <trkpt lat="46.6203" lon="6.0689">
        <ele>1044.13</ele>
        <time>2015-06-29T13:10:04Z</time>
      </trkpt>
      <trkpt lat="46.6203" lon="6.06892">
        <ele>1044.61</ele>
        <time>2015-06-29T13:10:05Z</time>
      </trkpt>
      <trkpt lat="46.6203" lon="6.06895">
        <ele>1044.61</ele>
        <time>2015-06-29T13:10:06Z</time>
      </trkpt>
      <trkpt lat="46.62029" lon="6.06897">
        <ele>1045.09</ele>
        <time>2015-06-29T13:10:07Z</time>
      </trkpt>
      <trkpt lat="46.62029" lon="6.06899">
        <ele>1045.09</ele>
        <time>2015-06-29T13:10:08Z</time>
      </trkpt>
      <trkpt lat="46.62027" lon="6.06928">
        <ele>1046.53</ele>
        <time>2015-06-29T13:10:21Z</time>
      </trkpt>
      <trkpt lat="46.62022" lon="6.06955">
        <ele>1047.97</ele>
        <time>2015-06-29T13:10:33Z</time>
      </trkpt>
      <trkpt lat="46.62009" lon="6.06989">
        <ele>1048.94</ele>
        <time>2015-06-29T13:10:48Z</time>
      </trkpt>
      <trkpt lat="46.62008" lon="6.0699">
        <ele>1049.42</ele>
        <time>2015-06-29T13:10:49Z</time>
      </trkpt>
      <trkpt lat="46.62006" lon="6.06991">
        <ele>1049.42</ele>
        <time>2015-06-29T13:10:50Z</time>
      </trkpt>
      <trkpt lat="46.62004" lon="6.06993">
        <ele>1049.42</ele>
        <time>2015-06-29T13:10:51Z</time>
      </trkpt>
      <trkpt lat="46.62003" lon="6.06995">
        <ele>1049.9</ele>
        <time>2015-06-29T13:10:52Z</time>
      </trkpt>
      <trkpt lat="46.62002" lon="6.06997">
        <ele>1049.9</ele>
        <time>2015-06-29T13:10:53Z</time>
      </trkpt>
      <trkpt lat="46.62001" lon="6.06999">
        <ele>1049.9</ele>
        <time>2015-06-29T13:10:54Z</time>
      </trkpt>
      <trkpt lat="46.62" lon="6.07001">
        <ele>1049.9</ele>
        <time>2015-06-29T13:10:55Z</time>
      </trkpt>
      <trkpt lat="46.61983" lon="6.07022">
        <ele>1051.82</ele>
        <time>2015-06-29T13:11:07Z</time>
      </trkpt>
      <trkpt lat="46.61963" lon="6.07045">
        <ele>1053.26</ele>
        <time>2015-06-29T13:11:21Z</time>
      </trkpt>
      <trkpt lat="46.61953" lon="6.07049">
        <ele>1054.22</ele>
        <time>2015-06-29T13:11:27Z</time>
      </trkpt>
      <trkpt lat="46.61952" lon="6.07051">
        <ele>1054.22</ele>
        <time>2015-06-29T13:11:28Z</time>
      </trkpt>
      <trkpt lat="46.6195" lon="6.07053">
        <ele>1054.7</ele>
        <time>2015-06-29T13:11:29Z</time>
      </trkpt>
      <trkpt lat="46.6194" lon="6.0708">
        <ele>1056.15</ele>
        <time>2015-06-29T13:11:44Z</time>
      </trkpt>
      <trkpt lat="46.61931" lon="6.07104">
        <ele>1057.59</ele>
        <time>2015-06-29T13:11:56Z</time>
      </trkpt>
      <trkpt lat="46.61921" lon="6.0712">
        <ele>1059.03</ele>
        <time>2015-06-29T13:12:06Z</time>
      </trkpt>
      <trkpt lat="46.61906" lon="6.07143">
        <ele>1059.99</ele>
        <time>2015-06-29T13:12:20Z</time>
      </trkpt>
      <trkpt lat="46.61901" lon="6.0715">
        <ele>1060.47</ele>
        <time>2015-06-29T13:12:24Z</time>
      </trkpt>
      <trkpt lat="46.61899" lon="6.07151">
        <ele>1059.99</ele>
        <time>2015-06-29T13:12:25Z</time>
      </trkpt>
      <trkpt lat="46.61897" lon="6.07152">
        <ele>1060.47</ele>
        <time>2015-06-29T13:12:26Z</time>
      </trkpt>
      <trkpt lat="46.61896" lon="6.07152">
        <ele>1060.47</ele>
        <time>2015-06-29T13:12:27Z</time>
      </trkpt>
      <trkpt lat="46.61894" lon="6.07154">
        <ele>1060.95</ele>
        <time>2015-06-29T13:12:28Z</time>
      </trkpt>
      <trkpt lat="46.61892" lon="6.07155">
        <ele>1060.47</ele>
        <time>2015-06-29T13:12:29Z</time>
      </trkpt>
      <trkpt lat="46.6189" lon="6.07157">
        <ele>1060.95</ele>
        <time>2015-06-29T13:12:30Z</time>
      </trkpt>
      <trkpt lat="46.61866" lon="6.07184">
        <ele>1062.87</ele>
        <time>2015-06-29T13:12:44Z</time>
      </trkpt>
      <trkpt lat="46.61852" lon="6.072">
        <ele>1063.36</ele>
        <time>2015-06-29T13:12:55Z</time>
      </trkpt>
      <trkpt lat="46.61836" lon="6.07219">
        <ele>1064.8</ele>
        <time>2015-06-29T13:13:06Z</time>
      </trkpt>
      <trkpt lat="46.61834" lon="6.07219">
        <ele>1065.28</ele>
        <time>2015-06-29T13:13:07Z</time>
      </trkpt>
      <trkpt lat="46.61833" lon="6.07219">
        <ele>1065.28</ele>
        <time>2015-06-29T13:13:08Z</time>
      </trkpt>
      <trkpt lat="46.61831" lon="6.07221">
        <ele>1064.8</ele>
        <time>2015-06-29T13:13:09Z</time>
      </trkpt>
      <trkpt lat="46.61829" lon="6.07223">
        <ele>1065.28</ele>
        <time>2015-06-29T13:13:25Z</time>
      </trkpt>
      <trkpt lat="46.61829" lon="6.07222">
        <ele>1064.8</ele>
        <time>2015-06-29T13:13:45Z</time>
      </trkpt>
      <trkpt lat="46.61829" lon="6.07224">
        <ele>1064.32</ele>
        <time>2015-06-29T13:14:09Z</time>
      </trkpt>
      <trkpt lat="46.61828" lon="6.07223">
        <ele>1064.8</ele>
        <time>2015-06-29T13:14:28Z</time>
      </trkpt>
      <trkpt lat="46.61826" lon="6.07225">
        <ele>1064.8</ele>
        <time>2015-06-29T13:14:29Z</time>
      </trkpt>
      <trkpt lat="46.61824" lon="6.07226">
        <ele>1064.32</ele>
        <time>2015-06-29T13:14:30Z</time>
      </trkpt>
      <trkpt lat="46.61823" lon="6.07227">
        <ele>1064.8</ele>
        <time>2015-06-29T13:14:31Z</time>
      </trkpt>
      <trkpt lat="46.61821" lon="6.07228">
        <ele>1064.32</ele>
        <time>2015-06-29T13:14:32Z</time>
      </trkpt>
      <trkpt lat="46.61819" lon="6.07229">
        <ele>1065.28</ele>
        <time>2015-06-29T13:14:33Z</time>
      </trkpt>
      <trkpt lat="46.61816" lon="6.07229">
        <ele>1065.28</ele>
        <time>2015-06-29T13:14:36Z</time>
      </trkpt>
      <trkpt lat="46.61814" lon="6.07229">
        <ele>1065.28</ele>
        <time>2015-06-29T13:14:37Z</time>
      </trkpt>
      <trkpt lat="46.61813" lon="6.07228">
        <ele>1065.28</ele>
        <time>2015-06-29T13:14:38Z</time>
      </trkpt>
      <trkpt lat="46.61808" lon="6.07225">
        <ele>1065.76</ele>
        <time>2015-06-29T13:14:41Z</time>
      </trkpt>
      <trkpt lat="46.61806" lon="6.07224">
        <ele>1066.24</ele>
        <time>2015-06-29T13:14:42Z</time>
      </trkpt>
      <trkpt lat="46.61804" lon="6.07222">
        <ele>1065.76</ele>
        <time>2015-06-29T13:14:43Z</time>
      </trkpt>
      <trkpt lat="46.61802" lon="6.07221">
        <ele>1066.24</ele>
        <time>2015-06-29T13:14:44Z</time>
      </trkpt>
      <trkpt lat="46.61799" lon="6.0722">
        <ele>1066.72</ele>
        <time>2015-06-29T13:14:45Z</time>
      </trkpt>
      <trkpt lat="46.61774" lon="6.07215">
        <ele>1068.16</ele>
        <time>2015-06-29T13:14:58Z</time>
      </trkpt>
      <trkpt lat="46.61744" lon="6.07219">
        <ele>1070.08</ele>
        <time>2015-06-29T13:15:13Z</time>
      </trkpt>
      <trkpt lat="46.61725" lon="6.07216">
        <ele>1072.49</ele>
        <time>2015-06-29T13:15:25Z</time>
      </trkpt>
      <trkpt lat="46.617" lon="6.07217">
        <ele>1072.97</ele>
        <time>2015-06-29T13:15:38Z</time>
      </trkpt>
      <trkpt lat="46.61667" lon="6.07236">
        <ele>1072.97</ele>
        <time>2015-06-29T13:15:53Z</time>
      </trkpt>
      <trkpt lat="46.61647" lon="6.07259">
        <ele>1072.97</ele>
        <time>2015-06-29T13:16:04Z</time>
      </trkpt>
      <trkpt lat="46.61638" lon="6.07266">
        <ele>1073.45</ele>
        <time>2015-06-29T13:16:09Z</time>
      </trkpt>
      <trkpt lat="46.61636" lon="6.07269">
        <ele>1073.45</ele>
        <time>2015-06-29T13:16:10Z</time>
      </trkpt>
      <trkpt lat="46.61623" lon="6.07277">
        <ele>1073.45</ele>
        <time>2015-06-29T13:16:15Z</time>
      </trkpt>
      <trkpt lat="46.61621" lon="6.07278">
        <ele>1073.45</ele>
        <time>2015-06-29T13:16:16Z</time>
      </trkpt>
      <trkpt lat="46.61618" lon="6.07279">
        <ele>1073.45</ele>
        <time>2015-06-29T13:16:17Z</time>
      </trkpt>
      <trkpt lat="46.6157" lon="6.0731">
        <ele>1071.53</ele>
        <time>2015-06-29T13:16:31Z</time>
      </trkpt>
      <trkpt lat="46.61542" lon="6.07356">
        <ele>1069.6</ele>
        <time>2015-06-29T13:16:43Z</time>
      </trkpt>
      <trkpt lat="46.6153" lon="6.07371">
        <ele>1068.64</ele>
        <time>2015-06-29T13:16:46Z</time>
      </trkpt>
      <trkpt lat="46.61525" lon="6.07378">
        <ele>1068.64</ele>
        <time>2015-06-29T13:16:47Z</time>
      </trkpt>
      <trkpt lat="46.6151" lon="6.07396">
        <ele>1067.2</ele>
        <time>2015-06-29T13:16:50Z</time>
      </trkpt>
      <trkpt lat="46.615" lon="6.07411">
        <ele>1065.76</ele>
        <time>2015-06-29T13:16:56Z</time>
      </trkpt>
      <trkpt lat="46.61493" lon="6.07415">
        <ele>1065.76</ele>
        <time>2015-06-29T13:17:00Z</time>
      </trkpt>
      <trkpt lat="46.61491" lon="6.07416">
        <ele>1065.28</ele>
        <time>2015-06-29T13:17:01Z</time>
      </trkpt>
      <trkpt lat="46.61487" lon="6.0742">
        <ele>1066.24</ele>
        <time>2015-06-29T13:17:02Z</time>
      </trkpt>
      <trkpt lat="46.61469" lon="6.07445">
        <ele>1064.32</ele>
        <time>2015-06-29T13:17:07Z</time>
      </trkpt>
      <trkpt lat="46.61458" lon="6.07464">
        <ele>1063.36</ele>
        <time>2015-06-29T13:17:10Z</time>
      </trkpt>
      <trkpt lat="46.61439" lon="6.0751">
        <ele>1062.87</ele>
        <time>2015-06-29T13:17:16Z</time>
      </trkpt>
      <trkpt lat="46.61436" lon="6.07517">
        <ele>1062.39</ele>
        <time>2015-06-29T13:17:17Z</time>
      </trkpt>
      <trkpt lat="46.61419" lon="6.07564">
        <ele>1061.91</ele>
        <time>2015-06-29T13:17:23Z</time>
      </trkpt>
      <trkpt lat="46.61417" lon="6.07572">
        <ele>1062.39</ele>
        <time>2015-06-29T13:17:24Z</time>
      </trkpt>
      <trkpt lat="46.61413" lon="6.07588">
        <ele>1062.39</ele>
        <time>2015-06-29T13:17:26Z</time>
      </trkpt>
      <trkpt lat="46.61409" lon="6.07595">
        <ele>1061.91</ele>
        <time>2015-06-29T13:17:27Z</time>
      </trkpt>
      <trkpt lat="46.61406" lon="6.07603">
        <ele>1062.39</ele>
        <time>2015-06-29T13:17:28Z</time>
      </trkpt>
      <trkpt lat="46.61403" lon="6.0761">
        <ele>1062.87</ele>
        <time>2015-06-29T13:17:29Z</time>
      </trkpt>
      <trkpt lat="46.614" lon="6.07616">
        <ele>1062.87</ele>
        <time>2015-06-29T13:17:30Z</time>
      </trkpt>
      <trkpt lat="46.61397" lon="6.07622">
        <ele>1062.87</ele>
        <time>2015-06-29T13:17:31Z</time>
      </trkpt>
      <trkpt lat="46.61394" lon="6.07629">
        <ele>1062.87</ele>
        <time>2015-06-29T13:17:32Z</time>
      </trkpt>
      <trkpt lat="46.61379" lon="6.07663">
        <ele>1062.39</ele>
        <time>2015-06-29T13:17:37Z</time>
      </trkpt>
      <trkpt lat="46.61332" lon="6.07745">
        <ele>1063.36</ele>
        <time>2015-06-29T13:17:50Z</time>
      </trkpt>
      <trkpt lat="46.61318" lon="6.07775">
        <ele>1063.36</ele>
        <time>2015-06-29T13:17:55Z</time>
      </trkpt>
      <trkpt lat="46.61315" lon="6.07782">
        <ele>1062.87</ele>
        <time>2015-06-29T13:17:56Z</time>
      </trkpt>
      <trkpt lat="46.61312" lon="6.07789">
        <ele>1063.36</ele>
        <time>2015-06-29T13:17:57Z</time>
      </trkpt>
      <trkpt lat="46.61295" lon="6.07824">
        <ele>1063.36</ele>
        <time>2015-06-29T13:18:03Z</time>
      </trkpt>
      <trkpt lat="46.61286" lon="6.07868">
        <ele>1062.87</ele>
        <time>2015-06-29T13:18:09Z</time>
      </trkpt>
      <trkpt lat="46.61285" lon="6.07876">
        <ele>1063.36</ele>
        <time>2015-06-29T13:18:10Z</time>
      </trkpt>
      <trkpt lat="46.61284" lon="6.07883">
        <ele>1063.36</ele>
        <time>2015-06-29T13:18:11Z</time>
      </trkpt>
      <trkpt lat="46.61279" lon="6.07915">
        <ele>1062.87</ele>
        <time>2015-06-29T13:18:15Z</time>
      </trkpt>
      <trkpt lat="46.61276" lon="6.07922">
        <ele>1062.39</ele>
        <time>2015-06-29T13:18:16Z</time>
      </trkpt>
      <trkpt lat="46.61261" lon="6.07958">
        <ele>1062.87</ele>
        <time>2015-06-29T13:18:21Z</time>
      </trkpt>
      <trkpt lat="46.6124" lon="6.07994">
        <ele>1062.39</ele>
        <time>2015-06-29T13:18:27Z</time>
      </trkpt>
      <trkpt lat="46.61217" lon="6.08047">
        <ele>1061.43</ele>
        <time>2015-06-29T13:18:35Z</time>
      </trkpt>
      <trkpt lat="46.61215" lon="6.08164">
        <ele>1059.03</ele>
        <time>2015-06-29T13:18:48Z</time>
      </trkpt>
      <trkpt lat="46.61215" lon="6.08172">
        <ele>1059.51</ele>
        <time>2015-06-29T13:18:49Z</time>
      </trkpt>
      <trkpt lat="46.61214" lon="6.08179">
        <ele>1059.99</ele>
        <time>2015-06-29T13:18:50Z</time>
      </trkpt>
      <trkpt lat="46.61213" lon="6.08186">
        <ele>1060.47</ele>
        <time>2015-06-29T13:18:51Z</time>
      </trkpt>
      <trkpt lat="46.61211" lon="6.08192">
        <ele>1060.47</ele>
        <time>2015-06-29T13:18:52Z</time>
      </trkpt>
      <trkpt lat="46.61208" lon="6.08197">
        <ele>1060.47</ele>
        <time>2015-06-29T13:18:53Z</time>
      </trkpt>
      <trkpt lat="46.612" lon="6.08213">
        <ele>1061.43</ele>
        <time>2015-06-29T13:18:56Z</time>
      </trkpt>
      <trkpt lat="46.61198" lon="6.08219">
        <ele>1061.43</ele>
        <time>2015-06-29T13:18:57Z</time>
      </trkpt>
      <trkpt lat="46.61196" lon="6.08225">
        <ele>1060.95</ele>
        <time>2015-06-29T13:18:58Z</time>
      </trkpt>
      <trkpt lat="46.61194" lon="6.08231">
        <ele>1061.43</ele>
        <time>2015-06-29T13:18:59Z</time>
      </trkpt>
      <trkpt lat="46.61193" lon="6.08237">
        <ele>1061.43</ele>
        <time>2015-06-29T13:19:00Z</time>
      </trkpt>
      <trkpt lat="46.61191" lon="6.08243">
        <ele>1061.91</ele>
        <time>2015-06-29T13:19:01Z</time>
      </trkpt>
      <trkpt lat="46.61189" lon="6.08248">
        <ele>1061.91</ele>
        <time>2015-06-29T13:19:02Z</time>
      </trkpt>
      <trkpt lat="46.61186" lon="6.08254">
        <ele>1062.39</ele>
        <time>2015-06-29T13:19:03Z</time>
      </trkpt>
      <trkpt lat="46.61161" lon="6.08296">
        <ele>1062.39</ele>
        <time>2015-06-29T13:19:12Z</time>
      </trkpt>
      <trkpt lat="46.61154" lon="6.08306">
        <ele>1062.87</ele>
        <time>2015-06-29T13:19:14Z</time>
      </trkpt>
      <trkpt lat="46.61142" lon="6.08326">
        <ele>1062.39</ele>
        <time>2015-06-29T13:19:18Z</time>
      </trkpt>
      <trkpt lat="46.61138" lon="6.0833">
        <ele>1062.39</ele>
        <time>2015-06-29T13:19:19Z</time>
      </trkpt>
      <trkpt lat="46.61081" lon="6.08428">
        <ele>1059.99</ele>
        <time>2015-06-29T13:19:35Z</time>
      </trkpt>
      <trkpt lat="46.6106" lon="6.08457">
        <ele>1059.03</ele>
        <time>2015-06-29T13:19:40Z</time>
      </trkpt>
      <trkpt lat="46.61056" lon="6.08463">
        <ele>1059.03</ele>
        <time>2015-06-29T13:19:41Z</time>
      </trkpt>
      <trkpt lat="46.61053" lon="6.0847">
        <ele>1059.03</ele>
        <time>2015-06-29T13:19:42Z</time>
      </trkpt>
      <trkpt lat="46.61048" lon="6.08483">
        <ele>1058.55</ele>
        <time>2015-06-29T13:19:44Z</time>
      </trkpt>
      <trkpt lat="46.61043" lon="6.08505">
        <ele>1057.59</ele>
        <time>2015-06-29T13:19:47Z</time>
      </trkpt>
      <trkpt lat="46.6104" lon="6.08511">
        <ele>1057.59</ele>
        <time>2015-06-29T13:19:48Z</time>
      </trkpt>
      <trkpt lat="46.61036" lon="6.08517">
        <ele>1057.11</ele>
        <time>2015-06-29T13:19:49Z</time>
      </trkpt>
      <trkpt lat="46.61032" lon="6.08523">
        <ele>1057.11</ele>
        <time>2015-06-29T13:19:50Z</time>
      </trkpt>
      <trkpt lat="46.61027" lon="6.08528">
        <ele>1056.63</ele>
        <time>2015-06-29T13:19:51Z</time>
      </trkpt>
      <trkpt lat="46.61009" lon="6.08553">
        <ele>1055.67</ele>
        <time>2015-06-29T13:19:55Z</time>
      </trkpt>
      <trkpt lat="46.61004" lon="6.08558">
        <ele>1055.67</ele>
        <time>2015-06-29T13:19:56Z</time>
      </trkpt>
      <trkpt lat="46.60998" lon="6.08563">
        <ele>1055.18</ele>
        <time>2015-06-29T13:19:57Z</time>
      </trkpt>
      <trkpt lat="46.60992" lon="6.08567">
        <ele>1055.67</ele>
        <time>2015-06-29T13:19:58Z</time>
      </trkpt>
      <trkpt lat="46.60986" lon="6.0857">
        <ele>1055.18</ele>
        <time>2015-06-29T13:19:59Z</time>
      </trkpt>
      <trkpt lat="46.60981" lon="6.08572">
        <ele>1055.67</ele>
        <time>2015-06-29T13:20:00Z</time>
      </trkpt>
      <trkpt lat="46.60976" lon="6.08573">
        <ele>1055.67</ele>
        <time>2015-06-29T13:20:01Z</time>
      </trkpt>
      <trkpt lat="46.60972" lon="6.08574">
        <ele>1055.67</ele>
        <time>2015-06-29T13:20:02Z</time>
      </trkpt>
      <trkpt lat="46.60954" lon="6.0858">
        <ele>1056.63</ele>
        <time>2015-06-29T13:20:06Z</time>
      </trkpt>
      <trkpt lat="46.6094" lon="6.08587">
        <ele>1056.63</ele>
        <time>2015-06-29T13:20:09Z</time>
      </trkpt>
      <trkpt lat="46.609" lon="6.08614">
        <ele>1057.11</ele>
        <time>2015-06-29T13:20:18Z</time>
      </trkpt>
      <trkpt lat="46.60825" lon="6.08667">
        <ele>1059.51</ele>
        <time>2015-06-29T13:20:34Z</time>
      </trkpt>
      <trkpt lat="46.60814" lon="6.08679">
        <ele>1059.99</ele>
        <time>2015-06-29T13:20:37Z</time>
      </trkpt>
      <trkpt lat="46.60785" lon="6.08698">
        <ele>1059.03</ele>
        <time>2015-06-29T13:20:44Z</time>
      </trkpt>
      <trkpt lat="46.60781" lon="6.08703">
        <ele>1059.03</ele>
        <time>2015-06-29T13:20:45Z</time>
      </trkpt>
      <trkpt lat="46.60776" lon="6.08708">
        <ele>1059.03</ele>
        <time>2015-06-29T13:20:46Z</time>
      </trkpt>
      <trkpt lat="46.60767" lon="6.08721">
        <ele>1057.59</ele>
        <time>2015-06-29T13:20:48Z</time>
      </trkpt>
      <trkpt lat="46.60763" lon="6.08729">
        <ele>1057.59</ele>
        <time>2015-06-29T13:20:49Z</time>
      </trkpt>
      <trkpt lat="46.60738" lon="6.0878">
        <ele>1057.11</ele>
        <time>2015-06-29T13:20:56Z</time>
      </trkpt>
      <trkpt lat="46.60709" lon="6.08883">
        <ele>1057.59</ele>
        <time>2015-06-29T13:21:08Z</time>
      </trkpt>
      <trkpt lat="46.60684" lon="6.08934">
        <ele>1057.59</ele>
        <time>2015-06-29T13:21:15Z</time>
      </trkpt>
      <trkpt lat="46.60624" lon="6.09039">
        <ele>1057.11</ele>
        <time>2015-06-29T13:21:30Z</time>
      </trkpt>
      <trkpt lat="46.60605" lon="6.09059">
        <ele>1057.59</ele>
        <time>2015-06-29T13:21:34Z</time>
      </trkpt>
      <trkpt lat="46.60601" lon="6.09063">
        <ele>1058.07</ele>
        <time>2015-06-29T13:21:35Z</time>
      </trkpt>
      <trkpt lat="46.60542" lon="6.0912">
        <ele>1059.03</ele>
        <time>2015-06-29T13:21:48Z</time>
      </trkpt>
      <trkpt lat="46.60537" lon="6.09123">
        <ele>1059.03</ele>
        <time>2015-06-29T13:21:49Z</time>
      </trkpt>
      <trkpt lat="46.60456" lon="6.09147">
        <ele>1059.99</ele>
        <time>2015-06-29T13:22:04Z</time>
      </trkpt>
      <trkpt lat="46.6036" lon="6.09158">
        <ele>1060.47</ele>
        <time>2015-06-29T13:22:22Z</time>
      </trkpt>
      <trkpt lat="46.60323" lon="6.09159">
        <ele>1061.43</ele>
        <time>2015-06-29T13:22:29Z</time>
      </trkpt>
      <trkpt lat="46.60314" lon="6.09161">
        <ele>1061.43</ele>
        <time>2015-06-29T13:22:31Z</time>
      </trkpt>
      <trkpt lat="46.60309" lon="6.09164">
        <ele>1061.91</ele>
        <time>2015-06-29T13:22:32Z</time>
      </trkpt>
      <trkpt lat="46.60224" lon="6.09224">
        <ele>1060.47</ele>
        <time>2015-06-29T13:22:50Z</time>
      </trkpt>
      <trkpt lat="46.60137" lon="6.09312">
        <ele>1058.55</ele>
        <time>2015-06-29T13:23:06Z</time>
      </trkpt>
      <trkpt lat="46.60061" lon="6.09391">
        <ele>1059.99</ele>
        <time>2015-06-29T13:23:22Z</time>
      </trkpt>
      <trkpt lat="46.60006" lon="6.09439">
        <ele>1063.36</ele>
        <time>2015-06-29T13:23:35Z</time>
      </trkpt>
      <trkpt lat="46.60002" lon="6.09442">
        <ele>1063.36</ele>
        <time>2015-06-29T13:23:36Z</time>
      </trkpt>
      <trkpt lat="46.5997" lon="6.09468">
        <ele>1064.8</ele>
        <time>2015-06-29T13:23:45Z</time>
      </trkpt>
      <trkpt lat="46.59935" lon="6.09537">
        <ele>1065.28</ele>
        <time>2015-06-29T13:23:59Z</time>
      </trkpt>
      <trkpt lat="46.59933" lon="6.09542">
        <ele>1065.28</ele>
        <time>2015-06-29T13:24:00Z</time>
      </trkpt>
      <trkpt lat="46.5991" lon="6.09609">
        <ele>1065.76</ele>
        <time>2015-06-29T13:24:13Z</time>
      </trkpt>
      <trkpt lat="46.59898" lon="6.09637">
        <ele>1066.24</ele>
        <time>2015-06-29T13:24:23Z</time>
      </trkpt>
      <trkpt lat="46.599" lon="6.09639">
        <ele>1066.72</ele>
        <time>2015-06-29T13:24:33Z</time>
      </trkpt>
      <trkpt lat="46.599" lon="6.0964">
        <ele>1066.72</ele>
        <time>2015-06-29T13:24:34Z</time>
      </trkpt>
      <trkpt lat="46.59903" lon="6.09644">
        <ele>1066.72</ele>
        <time>2015-06-29T13:24:43Z</time>
      </trkpt>
      <trkpt lat="46.59904" lon="6.09648">
        <ele>1066.72</ele>
        <time>2015-06-29T13:24:58Z</time>
      </trkpt>
      <trkpt lat="46.59905" lon="6.09649">
        <ele>1066.24</ele>
        <time>2015-06-29T13:25:22Z</time>
      </trkpt>
      <trkpt lat="46.59906" lon="6.09652">
        <ele>1066.72</ele>
        <time>2015-06-29T13:25:27Z</time>
      </trkpt>
      <trkpt lat="46.59906" lon="6.09653">
        <ele>1066.72</ele>
        <time>2015-06-29T13:25:28Z</time>
      </trkpt>
      <trkpt lat="46.59906" lon="6.09655">
        <ele>1066.72</ele>
        <time>2015-06-29T13:25:29Z</time>
      </trkpt>
      <trkpt lat="46.59906" lon="6.09658">
        <ele>1066.72</ele>
        <time>2015-06-29T13:25:30Z</time>
      </trkpt>
      <trkpt lat="46.59907" lon="6.09662">
        <ele>1067.2</ele>
        <time>2015-06-29T13:25:31Z</time>
      </trkpt>
      <trkpt lat="46.59908" lon="6.09665">
        <ele>1067.2</ele>
        <time>2015-06-29T13:25:32Z</time>
      </trkpt>
      <trkpt lat="46.59909" lon="6.09669">
        <ele>1067.2</ele>
        <time>2015-06-29T13:25:33Z</time>
      </trkpt>
      <trkpt lat="46.59916" lon="6.09714">
        <ele>1067.68</ele>
        <time>2015-06-29T13:25:46Z</time>
      </trkpt>
      <trkpt lat="46.59928" lon="6.09766">
        <ele>1066.72</ele>
        <time>2015-06-29T13:25:59Z</time>
      </trkpt>
      <trkpt lat="46.59928" lon="6.09782">
        <ele>1066.72</ele>
        <time>2015-06-29T13:26:02Z</time>
      </trkpt>
      <trkpt lat="46.59928" lon="6.09788">
        <ele>1067.2</ele>
        <time>2015-06-29T13:26:03Z</time>
      </trkpt>
      <trkpt lat="46.59929" lon="6.09794">
        <ele>1067.2</ele>
        <time>2015-06-29T13:26:04Z</time>
      </trkpt>
      <trkpt lat="46.59928" lon="6.09799">
        <ele>1067.2</ele>
        <time>2015-06-29T13:26:05Z</time>
      </trkpt>
      <trkpt lat="46.59928" lon="6.09805">
        <ele>1067.2</ele>
        <time>2015-06-29T13:26:06Z</time>
      </trkpt>
      <trkpt lat="46.59923" lon="6.09857">
        <ele>1068.16</ele>
        <time>2015-06-29T13:26:16Z</time>
      </trkpt>
      <trkpt lat="46.5993" lon="6.09892">
        <ele>1068.16</ele>
        <time>2015-06-29T13:26:23Z</time>
      </trkpt>
      <trkpt lat="46.59931" lon="6.09898">
        <ele>1068.64</ele>
        <time>2015-06-29T13:26:24Z</time>
      </trkpt>
      <trkpt lat="46.59947" lon="6.09954">
        <ele>1069.6</ele>
        <time>2015-06-29T13:26:36Z</time>
      </trkpt>
      <trkpt lat="46.5995" lon="6.0997">
        <ele>1069.6</ele>
        <time>2015-06-29T13:26:41Z</time>
      </trkpt>
      <trkpt lat="46.5995" lon="6.09973">
        <ele>1069.6</ele>
        <time>2015-06-29T13:26:42Z</time>
      </trkpt>
      <trkpt lat="46.59955" lon="6.09995">
        <ele>1069.6</ele>
        <time>2015-06-29T13:26:56Z</time>
      </trkpt>
      <trkpt lat="46.59955" lon="6.09999">
        <ele>1069.6</ele>
        <time>2015-06-29T13:27:07Z</time>
      </trkpt>
      <trkpt lat="46.59956" lon="6.1">
        <ele>1070.08</ele>
        <time>2015-06-29T13:27:08Z</time>
      </trkpt>
      <trkpt lat="46.59957" lon="6.10003">
        <ele>1070.08</ele>
        <time>2015-06-29T13:27:12Z</time>
      </trkpt>
      <trkpt lat="46.59965" lon="6.10007">
        <ele>1070.08</ele>
        <time>2015-06-29T13:27:22Z</time>
      </trkpt>
      <trkpt lat="46.59992" lon="6.10032">
        <ele>1069.6</ele>
        <time>2015-06-29T13:27:33Z</time>
      </trkpt>
      <trkpt lat="46.59997" lon="6.10041">
        <ele>1070.08</ele>
        <time>2015-06-29T13:27:36Z</time>
      </trkpt>
      <trkpt lat="46.59998" lon="6.10043">
        <ele>1069.6</ele>
        <time>2015-06-29T13:27:37Z</time>
      </trkpt>
      <trkpt lat="46.6" lon="6.10046">
        <ele>1069.6</ele>
        <time>2015-06-29T13:27:38Z</time>
      </trkpt>
      <trkpt lat="46.60002" lon="6.10049">
        <ele>1070.08</ele>
        <time>2015-06-29T13:27:39Z</time>
      </trkpt>
      <trkpt lat="46.60004" lon="6.10053">
        <ele>1070.08</ele>
        <time>2015-06-29T13:27:40Z</time>
      </trkpt>
      <trkpt lat="46.60025" lon="6.10095">
        <ele>1070.57</ele>
        <time>2015-06-29T13:27:50Z</time>
      </trkpt>
      <trkpt lat="46.60059" lon="6.10152">
        <ele>1070.57</ele>
        <time>2015-06-29T13:28:03Z</time>
      </trkpt>
      <trkpt lat="46.60085" lon="6.10171">
        <ele>1071.53</ele>
        <time>2015-06-29T13:28:17Z</time>
      </trkpt>
      <trkpt lat="46.6009" lon="6.10177">
        <ele>1071.53</ele>
        <time>2015-06-29T13:28:20Z</time>
      </trkpt>
      <trkpt lat="46.60115" lon="6.10198">
        <ele>1072.49</ele>
        <time>2015-06-29T13:28:30Z</time>
      </trkpt>
      <trkpt lat="46.60143" lon="6.1024">
        <ele>1072.97</ele>
        <time>2015-06-29T13:28:43Z</time>
      </trkpt>
      <trkpt lat="46.60171" lon="6.10286">
        <ele>1073.45</ele>
        <time>2015-06-29T13:28:57Z</time>
      </trkpt>
      <trkpt lat="46.60174" lon="6.1033">
        <ele>1074.41</ele>
        <time>2015-06-29T13:29:08Z</time>
      </trkpt>
      <trkpt lat="46.60168" lon="6.10368">
        <ele>1074.41</ele>
        <time>2015-06-29T13:29:17Z</time>
      </trkpt>
      <trkpt lat="46.60165" lon="6.1037">
        <ele>1074.41</ele>
        <time>2015-06-29T13:29:18Z</time>
      </trkpt>
      <trkpt lat="46.60163" lon="6.10372">
        <ele>1074.89</ele>
        <time>2015-06-29T13:29:19Z</time>
      </trkpt>
      <trkpt lat="46.6016" lon="6.10374">
        <ele>1074.41</ele>
        <time>2015-06-29T13:29:20Z</time>
      </trkpt>
      <trkpt lat="46.60158" lon="6.10376">
        <ele>1074.41</ele>
        <time>2015-06-29T13:29:21Z</time>
      </trkpt>
      <trkpt lat="46.60155" lon="6.10378">
        <ele>1074.89</ele>
        <time>2015-06-29T13:29:22Z</time>
      </trkpt>
      <trkpt lat="46.60125" lon="6.10407">
        <ele>1076.33</ele>
        <time>2015-06-29T13:29:36Z</time>
      </trkpt>
      <trkpt lat="46.60106" lon="6.10431">
        <ele>1076.81</ele>
        <time>2015-06-29T13:29:46Z</time>
      </trkpt>
      <trkpt lat="46.60103" lon="6.10435">
        <ele>1075.85</ele>
        <time>2015-06-29T13:29:47Z</time>
      </trkpt>
      <trkpt lat="46.60101" lon="6.1044">
        <ele>1075.37</ele>
        <time>2015-06-29T13:29:48Z</time>
      </trkpt>
      <trkpt lat="46.6009" lon="6.10464">
        <ele>1074.89</ele>
        <time>2015-06-29T13:29:53Z</time>
      </trkpt>
      <trkpt lat="46.60067" lon="6.10499">
        <ele>1074.89</ele>
        <time>2015-06-29T13:30:04Z</time>
      </trkpt>
      <trkpt lat="46.60058" lon="6.10511">
        <ele>1074.89</ele>
        <time>2015-06-29T13:30:16Z</time>
      </trkpt>
      <trkpt lat="46.60051" lon="6.10524">
        <ele>1075.85</ele>
        <time>2015-06-29T13:30:25Z</time>
      </trkpt>
      <trkpt lat="46.60036" lon="6.10563">
        <ele>1075.85</ele>
        <time>2015-06-29T13:30:41Z</time>
      </trkpt>
      <trkpt lat="46.60034" lon="6.10565">
        <ele>1075.85</ele>
        <time>2015-06-29T13:30:52Z</time>
      </trkpt>
      <trkpt lat="46.60033" lon="6.10569">
        <ele>1075.85</ele>
        <time>2015-06-29T13:31:08Z</time>
      </trkpt>
      <trkpt lat="46.60032" lon="6.1057">
        <ele>1074.89</ele>
        <time>2015-06-29T13:31:24Z</time>
      </trkpt>
      <trkpt lat="46.60031" lon="6.10572">
        <ele>1075.37</ele>
        <time>2015-06-29T13:31:38Z</time>
      </trkpt>
      <trkpt lat="46.60031" lon="6.10574">
        <ele>1076.33</ele>
        <time>2015-06-29T13:31:51Z</time>
      </trkpt>
      <trkpt lat="46.60031" lon="6.10573">
        <ele>1081.14</ele>
        <time>2015-06-29T13:31:59Z</time>
      </trkpt>
      <trkpt lat="46.60031" lon="6.10573">
        <ele>1073.45</ele>
        <time>2015-06-29T13:32:00Z</time>
      </trkpt>
      <trkpt lat="46.6003" lon="6.10573">
        <ele>1076.33</ele>
        <time>2015-06-29T13:32:01Z</time>
      </trkpt>
      <trkpt lat="46.60031" lon="6.10575">
        <ele>1075.37</ele>
        <time>2015-06-29T13:32:24Z</time>
      </trkpt>
      <trkpt lat="46.60031" lon="6.10575">
        <ele>1075.85</ele>
        <time>2015-06-29T13:32:31Z</time>
      </trkpt>
      <trkpt lat="46.60047" lon="6.10616">
        <ele>1073.45</ele>
        <time>2015-06-29T13:32:39Z</time>
      </trkpt>
      <trkpt lat="46.60049" lon="6.10625">
        <ele>1072.97</ele>
        <time>2015-06-29T13:32:40Z</time>
      </trkpt>
      <trkpt lat="46.60055" lon="6.10665">
        <ele>1072.97</ele>
        <time>2015-06-29T13:32:44Z</time>
      </trkpt>
      <trkpt lat="46.60057" lon="6.10674">
        <ele>1072.49</ele>
        <time>2015-06-29T13:32:45Z</time>
      </trkpt>
      <trkpt lat="46.6006" lon="6.10682">
        <ele>1072.01</ele>
        <time>2015-06-29T13:32:46Z</time>
      </trkpt>
      <trkpt lat="46.60064" lon="6.10691">
        <ele>1072.49</ele>
        <time>2015-06-29T13:32:47Z</time>
      </trkpt>
      <trkpt lat="46.60067" lon="6.10699">
        <ele>1072.01</ele>
        <time>2015-06-29T13:32:48Z</time>
      </trkpt>
      <trkpt lat="46.60072" lon="6.10716">
        <ele>1072.49</ele>
        <time>2015-06-29T13:32:50Z</time>
      </trkpt>
      <trkpt lat="46.60073" lon="6.10724">
        <ele>1072.49</ele>
        <time>2015-06-29T13:32:51Z</time>
      </trkpt>
      <trkpt lat="46.60074" lon="6.10732">
        <ele>1072.49</ele>
        <time>2015-06-29T13:32:52Z</time>
      </trkpt>
      <trkpt lat="46.60075" lon="6.1074">
        <ele>1072.49</ele>
        <time>2015-06-29T13:32:53Z</time>
      </trkpt>
      <trkpt lat="46.60075" lon="6.10748">
        <ele>1072.49</ele>
        <time>2015-06-29T13:32:54Z</time>
      </trkpt>
      <trkpt lat="46.60065" lon="6.10843">
        <ele>1072.97</ele>
        <time>2015-06-29T13:33:09Z</time>
      </trkpt>
      <trkpt lat="46.6004" lon="6.10916">
        <ele>1072.97</ele>
        <time>2015-06-29T13:33:22Z</time>
      </trkpt>
      <trkpt lat="46.60014" lon="6.11014">
        <ele>1074.41</ele>
        <time>2015-06-29T13:33:38Z</time>
      </trkpt>
      <trkpt lat="46.59995" lon="6.11094">
        <ele>1078.74</ele>
        <time>2015-06-29T13:33:53Z</time>
      </trkpt>
      <trkpt lat="46.59982" lon="6.1115">
        <ele>1081.62</ele>
        <time>2015-06-29T13:34:04Z</time>
      </trkpt>
      <trkpt lat="46.59973" lon="6.11191">
        <ele>1084.02</ele>
        <time>2015-06-29T13:34:17Z</time>
      </trkpt>
      <trkpt lat="46.59969" lon="6.11214">
        <ele>1085.95</ele>
        <time>2015-06-29T13:34:28Z</time>
      </trkpt>
      <trkpt lat="46.59968" lon="6.11218">
        <ele>1085.95</ele>
        <time>2015-06-29T13:34:30Z</time>
      </trkpt>
      <trkpt lat="46.59968" lon="6.11219">
        <ele>1086.43</ele>
        <time>2015-06-29T13:34:31Z</time>
      </trkpt>
      <trkpt lat="46.59968" lon="6.11221">
        <ele>1086.43</ele>
        <time>2015-06-29T13:34:32Z</time>
      </trkpt>
      <trkpt lat="46.59967" lon="6.11224">
        <ele>1086.91</ele>
        <time>2015-06-29T13:34:33Z</time>
      </trkpt>
      <trkpt lat="46.59967" lon="6.11226">
        <ele>1086.43</ele>
        <time>2015-06-29T13:34:34Z</time>
      </trkpt>
      <trkpt lat="46.59961" lon="6.1126">
        <ele>1088.35</ele>
        <time>2015-06-29T13:34:49Z</time>
      </trkpt>
      <trkpt lat="46.59948" lon="6.11305">
        <ele>1090.75</ele>
        <time>2015-06-29T13:35:06Z</time>
      </trkpt>
      <trkpt lat="46.59933" lon="6.11343">
        <ele>1089.79</ele>
        <time>2015-06-29T13:35:15Z</time>
      </trkpt>
      <trkpt lat="46.5993" lon="6.11348">
        <ele>1089.79</ele>
        <time>2015-06-29T13:35:16Z</time>
      </trkpt>
      <trkpt lat="46.59922" lon="6.11362">
        <ele>1088.35</ele>
        <time>2015-06-29T13:35:18Z</time>
      </trkpt>
      <trkpt lat="46.59917" lon="6.11368">
        <ele>1088.35</ele>
        <time>2015-06-29T13:35:19Z</time>
      </trkpt>
      <trkpt lat="46.59907" lon="6.11378">
        <ele>1087.87</ele>
        <time>2015-06-29T13:35:21Z</time>
      </trkpt>
      <trkpt lat="46.59905" lon="6.11385">
        <ele>1087.87</ele>
        <time>2015-06-29T13:35:22Z</time>
      </trkpt>
      <trkpt lat="46.59906" lon="6.11391">
        <ele>1087.39</ele>
        <time>2015-06-29T13:35:23Z</time>
      </trkpt>
      <trkpt lat="46.5991" lon="6.11396">
        <ele>1087.39</ele>
        <time>2015-06-29T13:35:24Z</time>
      </trkpt>
      <trkpt lat="46.59914" lon="6.114">
        <ele>1086.91</ele>
        <time>2015-06-29T13:35:25Z</time>
      </trkpt>
      <trkpt lat="46.59965" lon="6.11434">
        <ele>1086.91</ele>
        <time>2015-06-29T13:35:37Z</time>
      </trkpt>
      <trkpt lat="46.59996" lon="6.11451">
        <ele>1085.95</ele>
        <time>2015-06-29T13:35:49Z</time>
      </trkpt>
      <trkpt lat="46.59999" lon="6.11451">
        <ele>1085.47</ele>
        <time>2015-06-29T13:35:50Z</time>
      </trkpt>
      <trkpt lat="46.60012" lon="6.11453">
        <ele>1084.5</ele>
        <time>2015-06-29T13:35:53Z</time>
      </trkpt>
      <trkpt lat="46.60039" lon="6.11463">
        <ele>1083.54</ele>
        <time>2015-06-29T13:35:58Z</time>
      </trkpt>
      <trkpt lat="46.60045" lon="6.11463">
        <ele>1083.54</ele>
        <time>2015-06-29T13:35:59Z</time>
      </trkpt>
      <trkpt lat="46.60061" lon="6.11465">
        <ele>1083.54</ele>
        <time>2015-06-29T13:36:02Z</time>
      </trkpt>
      <trkpt lat="46.60067" lon="6.11464">
        <ele>1083.54</ele>
        <time>2015-06-29T13:36:03Z</time>
      </trkpt>
      <trkpt lat="46.60086" lon="6.1146">
        <ele>1084.02</ele>
        <time>2015-06-29T13:36:06Z</time>
      </trkpt>
      <trkpt lat="46.6015" lon="6.11427">
        <ele>1087.39</ele>
        <time>2015-06-29T13:36:19Z</time>
      </trkpt>
      <trkpt lat="46.6017" lon="6.11412">
        <ele>1087.39</ele>
        <time>2015-06-29T13:36:24Z</time>
      </trkpt>
      <trkpt lat="46.60174" lon="6.11408">
        <ele>1087.39</ele>
        <time>2015-06-29T13:36:25Z</time>
      </trkpt>
      <trkpt lat="46.60177" lon="6.11404">
        <ele>1087.39</ele>
        <time>2015-06-29T13:36:26Z</time>
      </trkpt>
      <trkpt lat="46.60204" lon="6.1136">
        <ele>1087.39</ele>
        <time>2015-06-29T13:36:38Z</time>
      </trkpt>
      <trkpt lat="46.60204" lon="6.11356">
        <ele>1086.91</ele>
        <time>2015-06-29T13:36:39Z</time>
      </trkpt>
      <trkpt lat="46.60202" lon="6.11354">
        <ele>1087.39</ele>
        <time>2015-06-29T13:36:40Z</time>
      </trkpt>
      <trkpt lat="46.602" lon="6.11354">
        <ele>1087.39</ele>
        <time>2015-06-29T13:36:41Z</time>
      </trkpt>
      <trkpt lat="46.60183" lon="6.11365">
        <ele>1086.43</ele>
        <time>2015-06-29T13:36:47Z</time>
      </trkpt>
      <trkpt lat="46.60156" lon="6.11355">
        <ele>1085.95</ele>
        <time>2015-06-29T13:36:59Z</time>
      </trkpt>
      <trkpt lat="46.60155" lon="6.11352">
        <ele>1086.91</ele>
        <time>2015-06-29T13:37:13Z</time>
      </trkpt>
      <trkpt lat="46.60153" lon="6.11351">
        <ele>1086.91</ele>
        <time>2015-06-29T13:37:49Z</time>
      </trkpt>
      <trkpt lat="46.60153" lon="6.11351">
        <ele>1086.91</ele>
        <time>2015-06-29T13:38:20Z</time>
      </trkpt>
      <trkpt lat="46.60153" lon="6.11351">
        <ele>1086.91</ele>
        <time>2015-06-29T13:39:00Z</time>
      </trkpt>
      <trkpt lat="46.60154" lon="6.11352">
        <ele>1087.39</ele>
        <time>2015-06-29T13:39:43Z</time>
      </trkpt>
      <trkpt lat="46.60155" lon="6.11352">
        <ele>1086.91</ele>
        <time>2015-06-29T13:40:21Z</time>
      </trkpt>
      <trkpt lat="46.60155" lon="6.11352">
        <ele>1086.91</ele>
        <time>2015-06-29T13:41:03Z</time>
      </trkpt>
      <trkpt lat="46.60154" lon="6.11351">
        <ele>1087.39</ele>
        <time>2015-06-29T13:41:42Z</time>
      </trkpt>
      <trkpt lat="46.60154" lon="6.11351">
        <ele>1087.39</ele>
        <time>2015-06-29T13:42:19Z</time>
      </trkpt>
      <trkpt lat="46.60154" lon="6.11351">
        <ele>1087.39</ele>
        <time>2015-06-29T13:42:55Z</time>
      </trkpt>
      <trkpt lat="46.60153" lon="6.11352">
        <ele>1086.91</ele>
        <time>2015-06-29T13:43:33Z</time>
      </trkpt>
      <trkpt lat="46.60153" lon="6.11353">
        <ele>1086.91</ele>
        <time>2015-06-29T13:44:00Z</time>
      </trkpt>
      <trkpt lat="46.60153" lon="6.11353">
        <ele>1086.91</ele>
        <time>2015-06-29T13:44:32Z</time>
      </trkpt>
      <trkpt lat="46.60153" lon="6.11352">
        <ele>1086.43</ele>
        <time>2015-06-29T13:45:06Z</time>
      </trkpt>
      <trkpt lat="46.60152" lon="6.11351">
        <ele>1086.43</ele>
        <time>2015-06-29T13:45:37Z</time>
      </trkpt>
      <trkpt lat="46.60153" lon="6.11352">
        <ele>1086.43</ele>
        <time>2015-06-29T13:46:11Z</time>
      </trkpt>
      <trkpt lat="46.60154" lon="6.11355">
        <ele>1086.43</ele>
        <time>2015-06-29T13:46:56Z</time>
      </trkpt>
      <trkpt lat="46.60155" lon="6.11354">
        <ele>1085.95</ele>
        <time>2015-06-29T13:47:31Z</time>
      </trkpt>
      <trkpt lat="46.60155" lon="6.11355">
        <ele>1085.95</ele>
        <time>2015-06-29T13:48:07Z</time>
      </trkpt>
      <trkpt lat="46.60157" lon="6.11354">
        <ele>1085.95</ele>
        <time>2015-06-29T13:48:41Z</time>
      </trkpt>
      <trkpt lat="46.60158" lon="6.11355">
        <ele>1085.95</ele>
        <time>2015-06-29T13:49:12Z</time>
      </trkpt>
      <trkpt lat="46.60158" lon="6.11354">
        <ele>1085.95</ele>
        <time>2015-06-29T13:49:51Z</time>
      </trkpt>
      <trkpt lat="46.60158" lon="6.11354">
        <ele>1085.95</ele>
        <time>2015-06-29T13:50:23Z</time>
      </trkpt>
      <trkpt lat="46.60158" lon="6.11356">
        <ele>1085.95</ele>
        <time>2015-06-29T13:50:58Z</time>
      </trkpt>
      <trkpt lat="46.60158" lon="6.11356">
        <ele>1085.95</ele>
        <time>2015-06-29T13:51:31Z</time>
      </trkpt>
      <trkpt lat="46.60158" lon="6.11356">
        <ele>1086.43</ele>
        <time>2015-06-29T13:51:41Z</time>
      </trkpt>
      <trkpt lat="46.60154" lon="6.1135">
        <ele>1084.5</ele>
        <time>2015-06-29T14:32:50Z</time>
      </trkpt>
      <trkpt lat="46.60158" lon="6.11346">
        <ele>1091.23</ele>
        <time>2015-06-29T14:33:14Z</time>
      </trkpt>
      <trkpt lat="46.60158" lon="6.11346">
        <ele>1081.62</ele>
        <time>2015-06-29T14:33:15Z</time>
      </trkpt>
      <trkpt lat="46.60158" lon="6.11346">
        <ele>1087.87</ele>
        <time>2015-06-29T14:33:16Z</time>
      </trkpt>
      <trkpt lat="46.60158" lon="6.11346">
        <ele>1094.6</ele>
        <time>2015-06-29T14:33:17Z</time>
      </trkpt>
      <trkpt lat="46.60158" lon="6.11346">
        <ele>1080.66</ele>
        <time>2015-06-29T14:33:18Z</time>
      </trkpt>
      <trkpt lat="46.60158" lon="6.11346">
        <ele>1090.75</ele>
        <time>2015-06-29T14:33:19Z</time>
      </trkpt>
      <trkpt lat="46.60158" lon="6.11346">
        <ele>1087.87</ele>
        <time>2015-06-29T14:33:20Z</time>
      </trkpt>
      <trkpt lat="46.60158" lon="6.11346">
        <ele>1092.2</ele>
        <time>2015-06-29T14:33:23Z</time>
      </trkpt>
      <trkpt lat="46.60158" lon="6.11346">
        <ele>1087.87</ele>
        <time>2015-06-29T14:33:24Z</time>
      </trkpt>
      <trkpt lat="46.60158" lon="6.11346">
        <ele>1082.58</ele>
        <time>2015-06-29T14:33:25Z</time>
      </trkpt>
      <trkpt lat="46.60158" lon="6.11347">
        <ele>1086.91</ele>
        <time>2015-06-29T14:33:26Z</time>
      </trkpt>
      <trkpt lat="46.60158" lon="6.11347">
        <ele>1095.08</ele>
        <time>2015-06-29T14:33:27Z</time>
      </trkpt>
      <trkpt lat="46.60157" lon="6.11347">
        <ele>1087.39</ele>
        <time>2015-06-29T14:33:28Z</time>
      </trkpt>
      <trkpt lat="46.60157" lon="6.11347">
        <ele>1084.5</ele>
        <time>2015-06-29T14:33:29Z</time>
      </trkpt>
      <trkpt lat="46.60157" lon="6.11347">
        <ele>1088.83</ele>
        <time>2015-06-29T14:33:30Z</time>
      </trkpt>
      <trkpt lat="46.60156" lon="6.11348">
        <ele>1084.99</ele>
        <time>2015-06-29T14:33:35Z</time>
      </trkpt>
      <trkpt lat="46.60155" lon="6.11348">
        <ele>1087.87</ele>
        <time>2015-06-29T14:33:37Z</time>
      </trkpt>
      <trkpt lat="46.60155" lon="6.11348">
        <ele>1092.2</ele>
        <time>2015-06-29T14:33:38Z</time>
      </trkpt>
      <trkpt lat="46.60156" lon="6.11349">
        <ele>1088.35</ele>
        <time>2015-06-29T14:33:40Z</time>
      </trkpt>
      <trkpt lat="46.60156" lon="6.11349">
        <ele>1094.12</ele>
        <time>2015-06-29T14:33:41Z</time>
      </trkpt>
      <trkpt lat="46.60156" lon="6.11348">
        <ele>1086.91</ele>
        <time>2015-06-29T14:33:42Z</time>
      </trkpt>
      <trkpt lat="46.60158" lon="6.11348">
        <ele>1087.39</ele>
        <time>2015-06-29T14:34:18Z</time>
      </trkpt>
      <trkpt lat="46.60157" lon="6.11347">
        <ele>1082.58</ele>
        <time>2015-06-29T14:34:37Z</time>
      </trkpt>
      <trkpt lat="46.60157" lon="6.11347">
        <ele>1082.58</ele>
        <time>2015-06-29T14:34:38Z</time>
      </trkpt>
      <trkpt lat="46.60157" lon="6.11347">
        <ele>1087.39</ele>
        <time>2015-06-29T14:34:39Z</time>
      </trkpt>
      <trkpt lat="46.60156" lon="6.11348">
        <ele>1084.5</ele>
        <time>2015-06-29T14:35:05Z</time>
      </trkpt>
      <trkpt lat="46.60156" lon="6.11349">
        <ele>1088.83</ele>
        <time>2015-06-29T14:35:10Z</time>
      </trkpt>
      <trkpt lat="46.60157" lon="6.11351">
        <ele>1083.54</ele>
        <time>2015-06-29T14:35:46Z</time>
      </trkpt>
      <trkpt lat="46.60157" lon="6.11351">
        <ele>1087.87</ele>
        <time>2015-06-29T14:35:47Z</time>
      </trkpt>
      <trkpt lat="46.60157" lon="6.1135">
        <ele>1085.95</ele>
        <time>2015-06-29T14:35:52Z</time>
      </trkpt>
      <trkpt lat="46.60156" lon="6.11349">
        <ele>1086.91</ele>
        <time>2015-06-29T14:36:32Z</time>
      </trkpt>
      <trkpt lat="46.60157" lon="6.11348">
        <ele>1087.39</ele>
        <time>2015-06-29T14:37:00Z</time>
      </trkpt>
      <trkpt lat="46.60157" lon="6.11348">
        <ele>1087.39</ele>
        <time>2015-06-29T14:37:42Z</time>
      </trkpt>
      <trkpt lat="46.60157" lon="6.11349">
        <ele>1086.91</ele>
        <time>2015-06-29T14:38:23Z</time>
      </trkpt>
      <trkpt lat="46.60156" lon="6.1135">
        <ele>1086.91</ele>
        <time>2015-06-29T14:39:11Z</time>
      </trkpt>
      <trkpt lat="46.60156" lon="6.11349">
        <ele>1087.39</ele>
        <time>2015-06-29T14:39:56Z</time>
      </trkpt>
      <trkpt lat="46.60156" lon="6.1135">
        <ele>1087.87</ele>
        <time>2015-06-29T14:40:39Z</time>
      </trkpt>
      <trkpt lat="46.60156" lon="6.1135">
        <ele>1087.39</ele>
        <time>2015-06-29T14:41:21Z</time>
      </trkpt>
      <trkpt lat="46.60157" lon="6.1135">
        <ele>1087.39</ele>
        <time>2015-06-29T14:41:56Z</time>
      </trkpt>
      <trkpt lat="46.60157" lon="6.1135">
        <ele>1086.91</ele>
        <time>2015-06-29T14:42:40Z</time>
      </trkpt>
      <trkpt lat="46.60157" lon="6.1135">
        <ele>1087.39</ele>
        <time>2015-06-29T14:43:19Z</time>
      </trkpt>
      <trkpt lat="46.60157" lon="6.11349">
        <ele>1087.39</ele>
        <time>2015-06-29T14:43:59Z</time>
      </trkpt>
      <trkpt lat="46.60157" lon="6.11349">
        <ele>1087.39</ele>
        <time>2015-06-29T14:44:38Z</time>
      </trkpt>
      <trkpt lat="46.60156" lon="6.11348">
        <ele>1086.43</ele>
        <time>2015-06-29T14:45:15Z</time>
      </trkpt>
      <trkpt lat="46.60156" lon="6.11349">
        <ele>1086.43</ele>
        <time>2015-06-29T14:45:52Z</time>
      </trkpt>
      <trkpt lat="46.60156" lon="6.1135">
        <ele>1085.95</ele>
        <time>2015-06-29T14:46:33Z</time>
      </trkpt>
      <trkpt lat="46.60157" lon="6.1135">
        <ele>1086.43</ele>
        <time>2015-06-29T14:46:43Z</time>
      </trkpt>
      <trkpt lat="46.60156" lon="6.11351">
        <ele>1086.43</ele>
        <time>2015-06-29T14:47:15Z</time>
      </trkpt>
      <trkpt lat="46.60156" lon="6.11351">
        <ele>1086.91</ele>
        <time>2015-06-29T14:47:44Z</time>
      </trkpt>
      <trkpt lat="46.60156" lon="6.11351">
        <ele>1086.43</ele>
        <time>2015-06-29T14:48:11Z</time>
      </trkpt>
      <trkpt lat="46.60157" lon="6.11351">
        <ele>1086.91</ele>
        <time>2015-06-29T14:48:38Z</time>
      </trkpt>
      <trkpt lat="46.60156" lon="6.1135">
        <ele>1086.43</ele>
        <time>2015-06-29T14:49:08Z</time>
      </trkpt>
      <trkpt lat="46.60156" lon="6.11352">
        <ele>1086.43</ele>
        <time>2015-06-29T14:49:36Z</time>
      </trkpt>
      <trkpt lat="46.60157" lon="6.11352">
        <ele>1086.91</ele>
        <time>2015-06-29T14:49:49Z</time>
      </trkpt>
      <trkpt lat="46.60158" lon="6.11354">
        <ele>1086.43</ele>
        <time>2015-06-29T14:50:01Z</time>
      </trkpt>
      <trkpt lat="46.60163" lon="6.11351">
        <ele>1085.95</ele>
        <time>2015-06-29T14:50:06Z</time>
      </trkpt>
      <trkpt lat="46.60163" lon="6.11346">
        <ele>1085.95</ele>
        <time>2015-06-29T14:50:09Z</time>
      </trkpt>
      <trkpt lat="46.60164" lon="6.11332">
        <ele>1085.47</ele>
        <time>2015-06-29T14:50:16Z</time>
      </trkpt>
      <trkpt lat="46.60159" lon="6.1133">
        <ele>1084.99</ele>
        <time>2015-06-29T14:50:20Z</time>
      </trkpt>
      <trkpt lat="46.60151" lon="6.11335">
        <ele>1084.99</ele>
        <time>2015-06-29T14:50:28Z</time>
      </trkpt>
      <trkpt lat="46.60153" lon="6.11348">
        <ele>1084.5</ele>
        <time>2015-06-29T14:50:38Z</time>
      </trkpt>
      <trkpt lat="46.60155" lon="6.11361">
        <ele>1079.22</ele>
        <time>2015-06-29T14:50:47Z</time>
      </trkpt>
      <trkpt lat="46.60156" lon="6.11362">
        <ele>1084.99</ele>
        <time>2015-06-29T14:50:48Z</time>
      </trkpt>
      <trkpt lat="46.60156" lon="6.11364">
        <ele>1084.99</ele>
        <time>2015-06-29T14:50:49Z</time>
      </trkpt>
      <trkpt lat="46.60149" lon="6.11332">
        <ele>1084.5</ele>
        <time>2015-06-29T14:51:12Z</time>
      </trkpt>
      <trkpt lat="46.6015" lon="6.11325">
        <ele>1084.5</ele>
        <time>2015-06-29T14:51:18Z</time>
      </trkpt>
      <trkpt lat="46.60172" lon="6.11315">
        <ele>1084.99</ele>
        <time>2015-06-29T14:51:28Z</time>
      </trkpt>
      <trkpt lat="46.60181" lon="6.11339">
        <ele>1085.95</ele>
        <time>2015-06-29T14:51:36Z</time>
      </trkpt>
      <trkpt lat="46.60188" lon="6.1138">
        <ele>1087.87</ele>
        <time>2015-06-29T14:51:50Z</time>
      </trkpt>
      <trkpt lat="46.60166" lon="6.11415">
        <ele>1087.87</ele>
        <time>2015-06-29T14:52:02Z</time>
      </trkpt>
      <trkpt lat="46.60135" lon="6.11439">
        <ele>1086.91</ele>
        <time>2015-06-29T14:52:14Z</time>
      </trkpt>
      <trkpt lat="46.60069" lon="6.11462">
        <ele>1084.5</ele>
        <time>2015-06-29T14:52:26Z</time>
      </trkpt>
      <trkpt lat="46.60029" lon="6.11458">
        <ele>1084.5</ele>
        <time>2015-06-29T14:52:32Z</time>
      </trkpt>
      <trkpt lat="46.6001" lon="6.11451">
        <ele>1084.99</ele>
        <time>2015-06-29T14:52:36Z</time>
      </trkpt>
      <trkpt lat="46.59966" lon="6.11459">
        <ele>1087.39</ele>
        <time>2015-06-29T14:52:48Z</time>
      </trkpt>
      <trkpt lat="46.59923" lon="6.11481">
        <ele>1089.31</ele>
        <time>2015-06-29T14:53:01Z</time>
      </trkpt>
      <trkpt lat="46.59879" lon="6.11509">
        <ele>1089.31</ele>
        <time>2015-06-29T14:53:16Z</time>
      </trkpt>
      <trkpt lat="46.59847" lon="6.11547">
        <ele>1087.39</ele>
        <time>2015-06-29T14:53:27Z</time>
      </trkpt>
      <trkpt lat="46.59844" lon="6.11545">
        <ele>1087.39</ele>
        <time>2015-06-29T14:53:28Z</time>
      </trkpt>
      <trkpt lat="46.59841" lon="6.11541">
        <ele>1087.87</ele>
        <time>2015-06-29T14:53:29Z</time>
      </trkpt>
      <trkpt lat="46.59827" lon="6.11514">
        <ele>1090.27</ele>
        <time>2015-06-29T14:53:35Z</time>
      </trkpt>
      <trkpt lat="46.59805" lon="6.11453">
        <ele>1090.75</ele>
        <time>2015-06-29T14:53:50Z</time>
      </trkpt>
      <trkpt lat="46.59782" lon="6.11385">
        <ele>1090.75</ele>
        <time>2015-06-29T14:54:03Z</time>
      </trkpt>
      <trkpt lat="46.59741" lon="6.11322">
        <ele>1087.87</ele>
        <time>2015-06-29T14:54:14Z</time>
      </trkpt>
      <trkpt lat="46.59738" lon="6.11313">
        <ele>1086.43</ele>
        <time>2015-06-29T14:54:15Z</time>
      </trkpt>
      <trkpt lat="46.59732" lon="6.11293">
        <ele>1085.95</ele>
        <time>2015-06-29T14:54:17Z</time>
      </trkpt>
      <trkpt lat="46.59718" lon="6.11245">
        <ele>1083.54</ele>
        <time>2015-06-29T14:54:21Z</time>
      </trkpt>
      <trkpt lat="46.59698" lon="6.11178">
        <ele>1080.18</ele>
        <time>2015-06-29T14:54:26Z</time>
      </trkpt>
      <trkpt lat="46.59682" lon="6.11138">
        <ele>1078.26</ele>
        <time>2015-06-29T14:54:29Z</time>
      </trkpt>
      <trkpt lat="46.59622" lon="6.11043">
        <ele>1077.29</ele>
        <time>2015-06-29T14:54:39Z</time>
      </trkpt>
      <trkpt lat="46.59571" lon="6.10988">
        <ele>1077.29</ele>
        <time>2015-06-29T14:54:50Z</time>
      </trkpt>
      <trkpt lat="46.59563" lon="6.10979">
        <ele>1078.26</ele>
        <time>2015-06-29T14:54:52Z</time>
      </trkpt>
      <trkpt lat="46.59496" lon="6.1091">
        <ele>1080.18</ele>
        <time>2015-06-29T14:55:09Z</time>
      </trkpt>
      <trkpt lat="46.59461" lon="6.10867">
        <ele>1083.54</ele>
        <time>2015-06-29T14:55:19Z</time>
      </trkpt>
      <trkpt lat="46.5945" lon="6.1085">
        <ele>1083.54</ele>
        <time>2015-06-29T14:55:23Z</time>
      </trkpt>
      <trkpt lat="46.59406" lon="6.10781">
        <ele>1084.5</ele>
        <time>2015-06-29T14:55:39Z</time>
      </trkpt>
      <trkpt lat="46.59349" lon="6.10721">
        <ele>1086.43</ele>
        <time>2015-06-29T14:55:57Z</time>
      </trkpt>
      <trkpt lat="46.59301" lon="6.10686">
        <ele>1089.79</ele>
        <time>2015-06-29T14:56:14Z</time>
      </trkpt>
      <trkpt lat="46.5926" lon="6.10655">
        <ele>1092.68</ele>
        <time>2015-06-29T14:56:30Z</time>
      </trkpt>
      <trkpt lat="46.59217" lon="6.10623">
        <ele>1093.64</ele>
        <time>2015-06-29T14:56:46Z</time>
      </trkpt>
      <trkpt lat="46.59168" lon="6.10588">
        <ele>1094.6</ele>
        <time>2015-06-29T14:57:03Z</time>
      </trkpt>
      <trkpt lat="46.59138" lon="6.10568">
        <ele>1094.12</ele>
        <time>2015-06-29T14:57:11Z</time>
      </trkpt>
      <trkpt lat="46.59063" lon="6.10527">
        <ele>1093.16</ele>
        <time>2015-06-29T14:57:27Z</time>
      </trkpt>
      <trkpt lat="46.59008" lon="6.10483">
        <ele>1096.52</ele>
        <time>2015-06-29T14:57:41Z</time>
      </trkpt>
      <trkpt lat="46.58954" lon="6.10433">
        <ele>1097.96</ele>
        <time>2015-06-29T14:57:57Z</time>
      </trkpt>
      <trkpt lat="46.58898" lon="6.10402">
        <ele>1099.89</ele>
        <time>2015-06-29T14:58:13Z</time>
      </trkpt>
      <trkpt lat="46.58833" lon="6.1038">
        <ele>1100.37</ele>
        <time>2015-06-29T14:58:29Z</time>
      </trkpt>
      <trkpt lat="46.58779" lon="6.10346">
        <ele>1103.25</ele>
        <time>2015-06-29T14:58:45Z</time>
      </trkpt>
      <trkpt lat="46.58734" lon="6.10309">
        <ele>1106.13</ele>
        <time>2015-06-29T14:59:01Z</time>
      </trkpt>
      <trkpt lat="46.58697" lon="6.10277">
        <ele>1108.06</ele>
        <time>2015-06-29T14:59:15Z</time>
      </trkpt>
      <trkpt lat="46.58656" lon="6.10228">
        <ele>1109.5</ele>
        <time>2015-06-29T14:59:33Z</time>
      </trkpt>
      <trkpt lat="46.58632" lon="6.10169">
        <ele>1110.46</ele>
        <time>2015-06-29T14:59:48Z</time>
      </trkpt>
      <trkpt lat="46.58628" lon="6.10163">
        <ele>1110.94</ele>
        <time>2015-06-29T14:59:50Z</time>
      </trkpt>
      <trkpt lat="46.58625" lon="6.10161">
        <ele>1110.94</ele>
        <time>2015-06-29T14:59:51Z</time>
      </trkpt>
      <trkpt lat="46.58623" lon="6.10161">
        <ele>1110.94</ele>
        <time>2015-06-29T14:59:52Z</time>
      </trkpt>
      <trkpt lat="46.58619" lon="6.1016">
        <ele>1110.94</ele>
        <time>2015-06-29T15:00:03Z</time>
      </trkpt>
      <trkpt lat="46.58619" lon="6.1016">
        <ele>1111.9</ele>
        <time>2015-06-29T15:00:37Z</time>
      </trkpt>
      <trkpt lat="46.58619" lon="6.10161">
        <ele>1113.34</ele>
        <time>2015-06-29T15:00:50Z</time>
      </trkpt>
      <trkpt lat="46.58618" lon="6.10162">
        <ele>1111.9</ele>
        <time>2015-06-29T15:01:11Z</time>
      </trkpt>
      <trkpt lat="46.58617" lon="6.10163">
        <ele>1111.9</ele>
        <time>2015-06-29T15:01:12Z</time>
      </trkpt>
      <trkpt lat="46.58615" lon="6.10165">
        <ele>1111.42</ele>
        <time>2015-06-29T15:01:13Z</time>
      </trkpt>
      <trkpt lat="46.58591" lon="6.10205">
        <ele>1112.86</ele>
        <time>2015-06-29T15:01:26Z</time>
      </trkpt>
      <trkpt lat="46.5856" lon="6.10261">
        <ele>1114.79</ele>
        <time>2015-06-29T15:01:43Z</time>
      </trkpt>
      <trkpt lat="46.5853" lon="6.10315">
        <ele>1118.15</ele>
        <time>2015-06-29T15:01:59Z</time>
      </trkpt>
      <trkpt lat="46.58498" lon="6.10358">
        <ele>1119.59</ele>
        <time>2015-06-29T15:02:14Z</time>
      </trkpt>
      <trkpt lat="46.58451" lon="6.1039">
        <ele>1121.52</ele>
        <time>2015-06-29T15:02:30Z</time>
      </trkpt>
      <trkpt lat="46.58448" lon="6.10393">
        <ele>1120.55</ele>
        <time>2015-06-29T15:02:31Z</time>
      </trkpt>
      <trkpt lat="46.58441" lon="6.10401">
        <ele>1121.03</ele>
        <time>2015-06-29T15:02:33Z</time>
      </trkpt>
      <trkpt lat="46.58438" lon="6.10405">
        <ele>1120.55</ele>
        <time>2015-06-29T15:02:34Z</time>
      </trkpt>
      <trkpt lat="46.58435" lon="6.10409">
        <ele>1120.55</ele>
        <time>2015-06-29T15:02:35Z</time>
      </trkpt>
      <trkpt lat="46.58426" lon="6.10429">
        <ele>1121.03</ele>
        <time>2015-06-29T15:02:39Z</time>
      </trkpt>
      <trkpt lat="46.58425" lon="6.10434">
        <ele>1121.03</ele>
        <time>2015-06-29T15:02:40Z</time>
      </trkpt>
      <trkpt lat="46.58423" lon="6.1044">
        <ele>1121.52</ele>
        <time>2015-06-29T15:02:41Z</time>
      </trkpt>
      <trkpt lat="46.58423" lon="6.10445">
        <ele>1121.03</ele>
        <time>2015-06-29T15:02:42Z</time>
      </trkpt>
      <trkpt lat="46.58422" lon="6.1045">
        <ele>1121.52</ele>
        <time>2015-06-29T15:02:43Z</time>
      </trkpt>
      <trkpt lat="46.58421" lon="6.10455">
        <ele>1121.52</ele>
        <time>2015-06-29T15:02:44Z</time>
      </trkpt>
      <trkpt lat="46.58414" lon="6.10537">
        <ele>1123.44</ele>
        <time>2015-06-29T15:02:59Z</time>
      </trkpt>
      <trkpt lat="46.58386" lon="6.1065">
        <ele>1123.92</ele>
        <time>2015-06-29T15:03:20Z</time>
      </trkpt>
      <trkpt lat="46.58332" lon="6.10714">
        <ele>1122.96</ele>
        <time>2015-06-29T15:03:35Z</time>
      </trkpt>
      <trkpt lat="46.58267" lon="6.10744">
        <ele>1123.92</ele>
        <time>2015-06-29T15:03:49Z</time>
      </trkpt>
      <trkpt lat="46.58249" lon="6.10746">
        <ele>1124.88</ele>
        <time>2015-06-29T15:03:53Z</time>
      </trkpt>
      <trkpt lat="46.58244" lon="6.10745">
        <ele>1124.4</ele>
        <time>2015-06-29T15:03:54Z</time>
      </trkpt>
      <trkpt lat="46.5824" lon="6.10744">
        <ele>1124.88</ele>
        <time>2015-06-29T15:03:55Z</time>
      </trkpt>
      <trkpt lat="46.58184" lon="6.10706">
        <ele>1126.8</ele>
        <time>2015-06-29T15:04:10Z</time>
      </trkpt>
      <trkpt lat="46.58177" lon="6.10699">
        <ele>1126.32</ele>
        <time>2015-06-29T15:04:12Z</time>
      </trkpt>
      <trkpt lat="46.58136" lon="6.10654">
        <ele>1122.96</ele>
        <time>2015-06-29T15:04:21Z</time>
      </trkpt>
      <trkpt lat="46.58131" lon="6.10647">
        <ele>1122.96</ele>
        <time>2015-06-29T15:04:22Z</time>
      </trkpt>
      <trkpt lat="46.58095" lon="6.10605">
        <ele>1120.55</ele>
        <time>2015-06-29T15:04:28Z</time>
      </trkpt>
      <trkpt lat="46.5805" lon="6.10562">
        <ele>1120.07</ele>
        <time>2015-06-29T15:04:35Z</time>
      </trkpt>
      <trkpt lat="46.58044" lon="6.10559">
        <ele>1120.55</ele>
        <time>2015-06-29T15:04:36Z</time>
      </trkpt>
      <trkpt lat="46.57968" lon="6.10547">
        <ele>1123.44</ele>
        <time>2015-06-29T15:04:48Z</time>
      </trkpt>
      <trkpt lat="46.57929" lon="6.10548">
        <ele>1126.8</ele>
        <time>2015-06-29T15:04:58Z</time>
      </trkpt>
      <trkpt lat="46.57884" lon="6.10564">
        <ele>1127.76</ele>
        <time>2015-06-29T15:05:12Z</time>
      </trkpt>
      <trkpt lat="46.5783" lon="6.10571">
        <ele>1129.69</ele>
        <time>2015-06-29T15:05:27Z</time>
      </trkpt>
      <trkpt lat="46.57791" lon="6.10555">
        <ele>1133.05</ele>
        <time>2015-06-29T15:05:40Z</time>
      </trkpt>
      <trkpt lat="46.57761" lon="6.10517">
        <ele>1135.45</ele>
        <time>2015-06-29T15:05:53Z</time>
      </trkpt>
      <trkpt lat="46.57732" lon="6.10475">
        <ele>1136.9</ele>
        <time>2015-06-29T15:06:06Z</time>
      </trkpt>
      <trkpt lat="46.57698" lon="6.10419">
        <ele>1138.34</ele>
        <time>2015-06-29T15:06:22Z</time>
      </trkpt>
      <trkpt lat="46.57665" lon="6.10372">
        <ele>1137.38</ele>
        <time>2015-06-29T15:06:35Z</time>
      </trkpt>
      <trkpt lat="46.57637" lon="6.10336">
        <ele>1135.94</ele>
        <time>2015-06-29T15:06:41Z</time>
      </trkpt>
      <trkpt lat="46.57592" lon="6.10305">
        <ele>1132.09</ele>
        <time>2015-06-29T15:06:47Z</time>
      </trkpt>
      <trkpt lat="46.57574" lon="6.10292">
        <ele>1130.65</ele>
        <time>2015-06-29T15:06:49Z</time>
      </trkpt>
      <trkpt lat="46.57551" lon="6.10272">
        <ele>1131.13</ele>
        <time>2015-06-29T15:06:52Z</time>
      </trkpt>
      <trkpt lat="46.57545" lon="6.10265">
        <ele>1132.09</ele>
        <time>2015-06-29T15:06:53Z</time>
      </trkpt>
      <trkpt lat="46.57541" lon="6.10257">
        <ele>1132.09</ele>
        <time>2015-06-29T15:06:54Z</time>
      </trkpt>
      <trkpt lat="46.57538" lon="6.1025">
        <ele>1133.05</ele>
        <time>2015-06-29T15:06:55Z</time>
      </trkpt>
      <trkpt lat="46.57535" lon="6.10243">
        <ele>1133.53</ele>
        <time>2015-06-29T15:06:56Z</time>
      </trkpt>
      <trkpt lat="46.57533" lon="6.10235">
        <ele>1133.53</ele>
        <time>2015-06-29T15:06:57Z</time>
      </trkpt>
      <trkpt lat="46.57531" lon="6.10227">
        <ele>1134.01</ele>
        <time>2015-06-29T15:06:58Z</time>
      </trkpt>
      <trkpt lat="46.5753" lon="6.10219">
        <ele>1134.01</ele>
        <time>2015-06-29T15:06:59Z</time>
      </trkpt>
      <trkpt lat="46.57529" lon="6.10212">
        <ele>1135.45</ele>
        <time>2015-06-29T15:07:00Z</time>
      </trkpt>
      <trkpt lat="46.57529" lon="6.10204">
        <ele>1135.45</ele>
        <time>2015-06-29T15:07:01Z</time>
      </trkpt>
      <trkpt lat="46.57529" lon="6.10197">
        <ele>1135.45</ele>
        <time>2015-06-29T15:07:02Z</time>
      </trkpt>
      <trkpt lat="46.57528" lon="6.10189">
        <ele>1135.45</ele>
        <time>2015-06-29T15:07:03Z</time>
      </trkpt>
      <trkpt lat="46.57527" lon="6.10182">
        <ele>1134.97</ele>
        <time>2015-06-29T15:07:04Z</time>
      </trkpt>
      <trkpt lat="46.57525" lon="6.10175">
        <ele>1134.97</ele>
        <time>2015-06-29T15:07:05Z</time>
      </trkpt>
      <trkpt lat="46.57523" lon="6.10167">
        <ele>1134.49</ele>
        <time>2015-06-29T15:07:06Z</time>
      </trkpt>
      <trkpt lat="46.57512" lon="6.10135">
        <ele>1133.05</ele>
        <time>2015-06-29T15:07:10Z</time>
      </trkpt>
      <trkpt lat="46.5751" lon="6.10126">
        <ele>1133.05</ele>
        <time>2015-06-29T15:07:11Z</time>
      </trkpt>
      <trkpt lat="46.57509" lon="6.10117">
        <ele>1132.57</ele>
        <time>2015-06-29T15:07:12Z</time>
      </trkpt>
      <trkpt lat="46.5751" lon="6.10108">
        <ele>1132.57</ele>
        <time>2015-06-29T15:07:13Z</time>
      </trkpt>
      <trkpt lat="46.57511" lon="6.10099">
        <ele>1132.57</ele>
        <time>2015-06-29T15:07:14Z</time>
      </trkpt>
      <trkpt lat="46.57513" lon="6.10091">
        <ele>1132.09</ele>
        <time>2015-06-29T15:07:15Z</time>
      </trkpt>
      <trkpt lat="46.57516" lon="6.10083">
        <ele>1132.09</ele>
        <time>2015-06-29T15:07:16Z</time>
      </trkpt>
      <trkpt lat="46.57522" lon="6.10061">
        <ele>1132.09</ele>
        <time>2015-06-29T15:07:19Z</time>
      </trkpt>
      <trkpt lat="46.57521" lon="6.10053">
        <ele>1131.61</ele>
        <time>2015-06-29T15:07:20Z</time>
      </trkpt>
      <trkpt lat="46.57519" lon="6.10044">
        <ele>1130.65</ele>
        <time>2015-06-29T15:07:21Z</time>
      </trkpt>
      <trkpt lat="46.57517" lon="6.10035">
        <ele>1130.65</ele>
        <time>2015-06-29T15:07:22Z</time>
      </trkpt>
      <trkpt lat="46.57507" lon="6.09998">
        <ele>1128.73</ele>
        <time>2015-06-29T15:07:26Z</time>
      </trkpt>
      <trkpt lat="46.57494" lon="6.09955">
        <ele>1126.32</ele>
        <time>2015-06-29T15:07:30Z</time>
      </trkpt>
      <trkpt lat="46.5748" lon="6.099">
        <ele>1124.88</ele>
        <time>2015-06-29T15:07:35Z</time>
      </trkpt>
      <trkpt lat="46.57478" lon="6.09889">
        <ele>1124.88</ele>
        <time>2015-06-29T15:07:36Z</time>
      </trkpt>
      <trkpt lat="46.57477" lon="6.09878">
        <ele>1124.88</ele>
        <time>2015-06-29T15:07:37Z</time>
      </trkpt>
      <trkpt lat="46.57477" lon="6.09867">
        <ele>1124.88</ele>
        <time>2015-06-29T15:07:38Z</time>
      </trkpt>
      <trkpt lat="46.57478" lon="6.09856">
        <ele>1124.4</ele>
        <time>2015-06-29T15:07:39Z</time>
      </trkpt>
      <trkpt lat="46.57478" lon="6.09847">
        <ele>1124.88</ele>
        <time>2015-06-29T15:07:40Z</time>
      </trkpt>
      <trkpt lat="46.57479" lon="6.09822">
        <ele>1124.88</ele>
        <time>2015-06-29T15:07:47Z</time>
      </trkpt>
      <trkpt lat="46.57481" lon="6.09817">
        <ele>1124.88</ele>
        <time>2015-06-29T15:07:57Z</time>
      </trkpt>
      <trkpt lat="46.57482" lon="6.09816">
        <ele>1124.4</ele>
        <time>2015-06-29T15:07:58Z</time>
      </trkpt>
      <trkpt lat="46.57488" lon="6.09802">
        <ele>1122.48</ele>
        <time>2015-06-29T15:08:04Z</time>
      </trkpt>
      <trkpt lat="46.57488" lon="6.09799">
        <ele>1122.48</ele>
        <time>2015-06-29T15:08:05Z</time>
      </trkpt>
      <trkpt lat="46.57487" lon="6.09796">
        <ele>1122</ele>
        <time>2015-06-29T15:08:06Z</time>
      </trkpt>
      <trkpt lat="46.57488" lon="6.09792">
        <ele>1121.52</ele>
        <time>2015-06-29T15:08:07Z</time>
      </trkpt>
      <trkpt lat="46.57488" lon="6.09789">
        <ele>1121.52</ele>
        <time>2015-06-29T15:08:08Z</time>
      </trkpt>
      <trkpt lat="46.57488" lon="6.09786">
        <ele>1120.55</ele>
        <time>2015-06-29T15:08:09Z</time>
      </trkpt>
      <trkpt lat="46.57487" lon="6.09783">
        <ele>1120.07</ele>
        <time>2015-06-29T15:08:10Z</time>
      </trkpt>
      <trkpt lat="46.57486" lon="6.0978">
        <ele>1119.59</ele>
        <time>2015-06-29T15:08:11Z</time>
      </trkpt>
      <trkpt lat="46.57488" lon="6.09768">
        <ele>1118.63</ele>
        <time>2015-06-29T15:08:17Z</time>
      </trkpt>
      <trkpt lat="46.57488" lon="6.09766">
        <ele>1118.15</ele>
        <time>2015-06-29T15:08:18Z</time>
      </trkpt>
      <trkpt lat="46.57489" lon="6.09764">
        <ele>1117.67</ele>
        <time>2015-06-29T15:08:19Z</time>
      </trkpt>
      <trkpt lat="46.5749" lon="6.09762">
        <ele>1117.67</ele>
        <time>2015-06-29T15:08:20Z</time>
      </trkpt>
      <trkpt lat="46.57491" lon="6.0976">
        <ele>1117.19</ele>
        <time>2015-06-29T15:08:21Z</time>
      </trkpt>
      <trkpt lat="46.57491" lon="6.09758">
        <ele>1116.71</ele>
        <time>2015-06-29T15:08:22Z</time>
      </trkpt>
      <trkpt lat="46.57492" lon="6.09756">
        <ele>1116.23</ele>
        <time>2015-06-29T15:08:23Z</time>
      </trkpt>
      <trkpt lat="46.57492" lon="6.09753">
        <ele>1115.75</ele>
        <time>2015-06-29T15:08:24Z</time>
      </trkpt>
      <trkpt lat="46.57497" lon="6.0973">
        <ele>1112.86</ele>
        <time>2015-06-29T15:08:32Z</time>
      </trkpt>
      <trkpt lat="46.57501" lon="6.09716">
        <ele>1110.94</ele>
        <time>2015-06-29T15:08:37Z</time>
      </trkpt>
      <trkpt lat="46.57505" lon="6.09705">
        <ele>1109.02</ele>
        <time>2015-06-29T15:08:41Z</time>
      </trkpt>
      <trkpt lat="46.57505" lon="6.09703">
        <ele>1108.54</ele>
        <time>2015-06-29T15:08:42Z</time>
      </trkpt>
      <trkpt lat="46.57516" lon="6.09673">
        <ele>1105.65</ele>
        <time>2015-06-29T15:08:51Z</time>
      </trkpt>
      <trkpt lat="46.57522" lon="6.09658">
        <ele>1103.73</ele>
        <time>2015-06-29T15:08:55Z</time>
      </trkpt>
      <trkpt lat="46.57532" lon="6.0964">
        <ele>1099.89</ele>
        <time>2015-06-29T15:09:01Z</time>
      </trkpt>
      <trkpt lat="46.57533" lon="6.09636">
        <ele>1099.89</ele>
        <time>2015-06-29T15:09:02Z</time>
      </trkpt>
      <trkpt lat="46.57544" lon="6.09616">
        <ele>1096.52</ele>
        <time>2015-06-29T15:09:10Z</time>
      </trkpt>
      <trkpt lat="46.57547" lon="6.09611">
        <ele>1096.04</ele>
        <time>2015-06-29T15:09:12Z</time>
      </trkpt>
      <trkpt lat="46.57547" lon="6.09608">
        <ele>1096.04</ele>
        <time>2015-06-29T15:09:13Z</time>
      </trkpt>
      <trkpt lat="46.57547" lon="6.09605">
        <ele>1096.04</ele>
        <time>2015-06-29T15:09:14Z</time>
      </trkpt>
      <trkpt lat="46.57545" lon="6.09557">
        <ele>1095.56</ele>
        <time>2015-06-29T15:09:27Z</time>
      </trkpt>
      <trkpt lat="46.57543" lon="6.09538">
        <ele>1095.08</ele>
        <time>2015-06-29T15:09:32Z</time>
      </trkpt>
      <trkpt lat="46.57542" lon="6.09535">
        <ele>1095.08</ele>
        <time>2015-06-29T15:09:33Z</time>
      </trkpt>
      <trkpt lat="46.57542" lon="6.09531">
        <ele>1095.08</ele>
        <time>2015-06-29T15:09:34Z</time>
      </trkpt>
      <trkpt lat="46.57542" lon="6.09527">
        <ele>1095.08</ele>
        <time>2015-06-29T15:09:35Z</time>
      </trkpt>
      <trkpt lat="46.57542" lon="6.09524">
        <ele>1095.56</ele>
        <time>2015-06-29T15:09:36Z</time>
      </trkpt>
      <trkpt lat="46.57542" lon="6.09521">
        <ele>1095.08</ele>
        <time>2015-06-29T15:09:37Z</time>
      </trkpt>
      <trkpt lat="46.57542" lon="6.09518">
        <ele>1095.08</ele>
        <time>2015-06-29T15:09:38Z</time>
      </trkpt>
      <trkpt lat="46.57542" lon="6.09515">
        <ele>1095.56</ele>
        <time>2015-06-29T15:09:39Z</time>
      </trkpt>
      <trkpt lat="46.57544" lon="6.09511">
        <ele>1095.08</ele>
        <time>2015-06-29T15:09:47Z</time>
      </trkpt>
      <trkpt lat="46.57544" lon="6.09508">
        <ele>1095.08</ele>
        <time>2015-06-29T15:09:48Z</time>
      </trkpt>
      <trkpt lat="46.57544" lon="6.09505">
        <ele>1095.08</ele>
        <time>2015-06-29T15:09:49Z</time>
      </trkpt>
      <trkpt lat="46.57544" lon="6.09502">
        <ele>1095.56</ele>
        <time>2015-06-29T15:09:50Z</time>
      </trkpt>
      <trkpt lat="46.57545" lon="6.09499">
        <ele>1095.08</ele>
        <time>2015-06-29T15:09:51Z</time>
      </trkpt>
      <trkpt lat="46.57546" lon="6.09496">
        <ele>1095.08</ele>
        <time>2015-06-29T15:09:52Z</time>
      </trkpt>
      <trkpt lat="46.57546" lon="6.09493">
        <ele>1095.08</ele>
        <time>2015-06-29T15:09:53Z</time>
      </trkpt>
      <trkpt lat="46.57547" lon="6.0949">
        <ele>1095.56</ele>
        <time>2015-06-29T15:09:54Z</time>
      </trkpt>
      <trkpt lat="46.57548" lon="6.09487">
        <ele>1096.04</ele>
        <time>2015-06-29T15:09:55Z</time>
      </trkpt>
      <trkpt lat="46.5755" lon="6.09484">
        <ele>1096.04</ele>
        <time>2015-06-29T15:09:56Z</time>
      </trkpt>
      <trkpt lat="46.57551" lon="6.09482">
        <ele>1095.56</ele>
        <time>2015-06-29T15:09:57Z</time>
      </trkpt>
      <trkpt lat="46.57552" lon="6.09479">
        <ele>1096.04</ele>
        <time>2015-06-29T15:09:58Z</time>
      </trkpt>
      <trkpt lat="46.57555" lon="6.09474">
        <ele>1096.04</ele>
        <time>2015-06-29T15:10:00Z</time>
      </trkpt>
      <trkpt lat="46.57557" lon="6.09474">
        <ele>1095.56</ele>
        <time>2015-06-29T15:10:01Z</time>
      </trkpt>
      <trkpt lat="46.57559" lon="6.09474">
        <ele>1095.56</ele>
        <time>2015-06-29T15:10:13Z</time>
      </trkpt>
      <trkpt lat="46.57563" lon="6.09469">
        <ele>1094.6</ele>
        <time>2015-06-29T15:10:27Z</time>
      </trkpt>
      <trkpt lat="46.57562" lon="6.09468">
        <ele>1094.6</ele>
        <time>2015-06-29T15:10:55Z</time>
      </trkpt>
      <trkpt lat="46.57562" lon="6.09467">
        <ele>1095.56</ele>
        <time>2015-06-29T15:11:27Z</time>
      </trkpt>
      <trkpt lat="46.57562" lon="6.09466">
        <ele>1095.08</ele>
        <time>2015-06-29T15:12:01Z</time>
      </trkpt>
      <trkpt lat="46.57562" lon="6.09466">
        <ele>1094.6</ele>
        <time>2015-06-29T15:12:32Z</time>
      </trkpt>
      <trkpt lat="46.57562" lon="6.09466">
        <ele>1095.56</ele>
        <time>2015-06-29T15:13:11Z</time>
      </trkpt>
      <trkpt lat="46.57562" lon="6.09465">
        <ele>1095.56</ele>
        <time>2015-06-29T15:13:57Z</time>
      </trkpt>
      <trkpt lat="46.57562" lon="6.09465">
        <ele>1095.08</ele>
        <time>2015-06-29T15:14:45Z</time>
      </trkpt>
      <trkpt lat="46.57561" lon="6.09465">
        <ele>1095.56</ele>
        <time>2015-06-29T15:15:29Z</time>
      </trkpt>
      <trkpt lat="46.57561" lon="6.09464">
        <ele>1095.08</ele>
        <time>2015-06-29T15:16:13Z</time>
      </trkpt>
      <trkpt lat="46.57561" lon="6.09464">
        <ele>1095.56</ele>
        <time>2015-06-29T15:17:03Z</time>
      </trkpt>
      <trkpt lat="46.57561" lon="6.09464">
        <ele>1095.08</ele>
        <time>2015-06-29T15:17:54Z</time>
      </trkpt>
      <trkpt lat="46.57561" lon="6.09464">
        <ele>1095.08</ele>
        <time>2015-06-29T15:18:39Z</time>
      </trkpt>
      <trkpt lat="46.57561" lon="6.09464">
        <ele>1095.08</ele>
        <time>2015-06-29T15:19:26Z</time>
      </trkpt>
      <trkpt lat="46.57561" lon="6.09464">
        <ele>1095.08</ele>
        <time>2015-06-29T15:20:07Z</time>
      </trkpt>
      <trkpt lat="46.57561" lon="6.09464">
        <ele>1095.08</ele>
        <time>2015-06-29T15:20:51Z</time>
      </trkpt>
      <trkpt lat="46.57561" lon="6.09464">
        <ele>1094.6</ele>
        <time>2015-06-29T15:21:31Z</time>
      </trkpt>
      <trkpt lat="46.57561" lon="6.09464">
        <ele>1095.08</ele>
        <time>2015-06-29T15:22:16Z</time>
      </trkpt>
      <trkpt lat="46.57562" lon="6.09464">
        <ele>1094.6</ele>
        <time>2015-06-29T15:23:00Z</time>
      </trkpt>
      <trkpt lat="46.57562" lon="6.09466">
        <ele>1095.08</ele>
        <time>2015-06-29T15:23:42Z</time>
      </trkpt>
      <trkpt lat="46.57563" lon="6.09466">
        <ele>1094.6</ele>
        <time>2015-06-29T15:24:34Z</time>
      </trkpt>
      <trkpt lat="46.57563" lon="6.09466">
        <ele>1095.08</ele>
        <time>2015-06-29T15:25:18Z</time>
      </trkpt>
      <trkpt lat="46.57563" lon="6.09466">
        <ele>1094.6</ele>
        <time>2015-06-29T15:25:59Z</time>
      </trkpt>
      <trkpt lat="46.57563" lon="6.09466">
        <ele>1095.08</ele>
        <time>2015-06-29T15:26:44Z</time>
      </trkpt>
      <trkpt lat="46.57563" lon="6.09466">
        <ele>1094.6</ele>
        <time>2015-06-29T15:27:23Z</time>
      </trkpt>
      <trkpt lat="46.57564" lon="6.09465">
        <ele>1094.6</ele>
        <time>2015-06-29T15:28:05Z</time>
      </trkpt>
      <trkpt lat="46.57563" lon="6.09465">
        <ele>1095.08</ele>
        <time>2015-06-29T15:28:46Z</time>
      </trkpt>
      <trkpt lat="46.57563" lon="6.09465">
        <ele>1095.08</ele>
        <time>2015-06-29T15:29:22Z</time>
      </trkpt>
      <trkpt lat="46.57563" lon="6.09465">
        <ele>1094.6</ele>
        <time>2015-06-29T15:30:02Z</time>
      </trkpt>
      <trkpt lat="46.57562" lon="6.09465">
        <ele>1094.12</ele>
        <time>2015-06-29T15:30:44Z</time>
      </trkpt>
      <trkpt lat="46.57561" lon="6.09465">
        <ele>1094.12</ele>
        <time>2015-06-29T15:31:24Z</time>
      </trkpt>
      <trkpt lat="46.57561" lon="6.09464">
        <ele>1094.12</ele>
        <time>2015-06-29T15:32:03Z</time>
      </trkpt>
      <trkpt lat="46.57561" lon="6.09465">
        <ele>1094.6</ele>
        <time>2015-06-29T15:32:48Z</time>
      </trkpt>
      <trkpt lat="46.5756" lon="6.09464">
        <ele>1094.12</ele>
        <time>2015-06-29T15:33:37Z</time>
      </trkpt>
      <trkpt lat="46.5756" lon="6.09464">
        <ele>1094.6</ele>
        <time>2015-06-29T15:34:25Z</time>
      </trkpt>
      <trkpt lat="46.5756" lon="6.09464">
        <ele>1094.12</ele>
        <time>2015-06-29T15:35:14Z</time>
      </trkpt>
      <trkpt lat="46.5756" lon="6.09463">
        <ele>1094.6</ele>
        <time>2015-06-29T15:36:01Z</time>
      </trkpt>
      <trkpt lat="46.5756" lon="6.09463">
        <ele>1094.6</ele>
        <time>2015-06-29T15:36:54Z</time>
      </trkpt>
      <trkpt lat="46.5756" lon="6.09463">
        <ele>1094.6</ele>
        <time>2015-06-29T15:37:41Z</time>
      </trkpt>
      <trkpt lat="46.5756" lon="6.09464">
        <ele>1094.6</ele>
        <time>2015-06-29T15:38:30Z</time>
      </trkpt>
      <trkpt lat="46.57559" lon="6.09464">
        <ele>1095.08</ele>
        <time>2015-06-29T15:39:20Z</time>
      </trkpt>
      <trkpt lat="46.57559" lon="6.09463">
        <ele>1095.56</ele>
        <time>2015-06-29T15:40:11Z</time>
      </trkpt>
      <trkpt lat="46.5756" lon="6.09463">
        <ele>1095.08</ele>
        <time>2015-06-29T15:40:57Z</time>
      </trkpt>
      <trkpt lat="46.57559" lon="6.09463">
        <ele>1095.08</ele>
        <time>2015-06-29T15:41:43Z</time>
      </trkpt>
      <trkpt lat="46.57559" lon="6.09463">
        <ele>1095.08</ele>
        <time>2015-06-29T15:42:32Z</time>
      </trkpt>
      <trkpt lat="46.57559" lon="6.09463">
        <ele>1096.04</ele>
        <time>2015-06-29T15:43:22Z</time>
      </trkpt>
      <trkpt lat="46.57559" lon="6.09461">
        <ele>1096.04</ele>
        <time>2015-06-29T15:44:13Z</time>
      </trkpt>
      <trkpt lat="46.5756" lon="6.09462">
        <ele>1096.04</ele>
        <time>2015-06-29T15:45:03Z</time>
      </trkpt>
      <trkpt lat="46.57559" lon="6.09463">
        <ele>1096.04</ele>
        <time>2015-06-29T15:45:54Z</time>
      </trkpt>
      <trkpt lat="46.57559" lon="6.09463">
        <ele>1096.04</ele>
        <time>2015-06-29T15:46:38Z</time>
      </trkpt>
      <trkpt lat="46.57558" lon="6.09463">
        <ele>1096.04</ele>
        <time>2015-06-29T15:47:30Z</time>
      </trkpt>
      <trkpt lat="46.57559" lon="6.09463">
        <ele>1096.04</ele>
        <time>2015-06-29T15:48:14Z</time>
      </trkpt>
      <trkpt lat="46.57559" lon="6.09462">
        <ele>1095.56</ele>
        <time>2015-06-29T15:48:49Z</time>
      </trkpt>
      <trkpt lat="46.57559" lon="6.09463">
        <ele>1095.56</ele>
        <time>2015-06-29T15:49:36Z</time>
      </trkpt>
      <trkpt lat="46.57559" lon="6.09463">
        <ele>1096.04</ele>
        <time>2015-06-29T15:50:22Z</time>
      </trkpt>
      <trkpt lat="46.57559" lon="6.09463">
        <ele>1096.52</ele>
        <time>2015-06-29T15:51:09Z</time>
      </trkpt>
      <trkpt lat="46.57559" lon="6.09463">
        <ele>1096.04</ele>
        <time>2015-06-29T15:52:03Z</time>
      </trkpt>
      <trkpt lat="46.5756" lon="6.09463">
        <ele>1096.52</ele>
        <time>2015-06-29T15:52:43Z</time>
      </trkpt>
      <trkpt lat="46.57559" lon="6.09463">
        <ele>1096.52</ele>
        <time>2015-06-29T15:53:26Z</time>
      </trkpt>
      <trkpt lat="46.57559" lon="6.09463">
        <ele>1096.52</ele>
        <time>2015-06-29T15:54:08Z</time>
      </trkpt>
      <trkpt lat="46.57559" lon="6.09462">
        <ele>1096.52</ele>
        <time>2015-06-29T15:54:50Z</time>
      </trkpt>
      <trkpt lat="46.57559" lon="6.09463">
        <ele>1097</ele>
        <time>2015-06-29T15:55:36Z</time>
      </trkpt>
      <trkpt lat="46.57559" lon="6.09464">
        <ele>1096.52</ele>
        <time>2015-06-29T15:56:17Z</time>
      </trkpt>
      <trkpt lat="46.57559" lon="6.09463">
        <ele>1096.52</ele>
        <time>2015-06-29T15:57:03Z</time>
      </trkpt>
      <trkpt lat="46.57559" lon="6.09463">
        <ele>1097</ele>
        <time>2015-06-29T15:57:48Z</time>
      </trkpt>
      <trkpt lat="46.57559" lon="6.09463">
        <ele>1097.48</ele>
        <time>2015-06-29T15:58:39Z</time>
      </trkpt>
      <trkpt lat="46.5756" lon="6.09463">
        <ele>1097.48</ele>
        <time>2015-06-29T15:59:32Z</time>
      </trkpt>
      <trkpt lat="46.5756" lon="6.09463">
        <ele>1097.48</ele>
        <time>2015-06-29T16:00:22Z</time>
      </trkpt>
      <trkpt lat="46.5756" lon="6.09462">
        <ele>1097</ele>
        <time>2015-06-29T16:01:07Z</time>
      </trkpt>
      <trkpt lat="46.5756" lon="6.09462">
        <ele>1097</ele>
        <time>2015-06-29T16:01:56Z</time>
      </trkpt>
      <trkpt lat="46.5756" lon="6.09462">
        <ele>1096.52</ele>
        <time>2015-06-29T16:02:45Z</time>
      </trkpt>
      <trkpt lat="46.5756" lon="6.09463">
        <ele>1096.52</ele>
        <time>2015-06-29T16:03:34Z</time>
      </trkpt>
      <trkpt lat="46.5756" lon="6.09463">
        <ele>1097</ele>
        <time>2015-06-29T16:04:25Z</time>
      </trkpt>
      <trkpt lat="46.5756" lon="6.09462">
        <ele>1097</ele>
        <time>2015-06-29T16:05:08Z</time>
      </trkpt>
      <trkpt lat="46.5756" lon="6.09462">
        <ele>1097</ele>
        <time>2015-06-29T16:05:55Z</time>
      </trkpt>
      <trkpt lat="46.5756" lon="6.09463">
        <ele>1097</ele>
        <time>2015-06-29T16:06:37Z</time>
      </trkpt>
      <trkpt lat="46.5756" lon="6.09463">
        <ele>1097.48</ele>
        <time>2015-06-29T16:07:22Z</time>
      </trkpt>
      <trkpt lat="46.5756" lon="6.09462">
        <ele>1097.48</ele>
        <time>2015-06-29T16:08:05Z</time>
      </trkpt>
      <trkpt lat="46.5756" lon="6.09463">
        <ele>1097</ele>
        <time>2015-06-29T16:08:40Z</time>
      </trkpt>
      <trkpt lat="46.5756" lon="6.09462">
        <ele>1097.96</ele>
        <time>2015-06-29T16:09:17Z</time>
      </trkpt>
      <trkpt lat="46.57559" lon="6.09462">
        <ele>1097.48</ele>
        <time>2015-06-29T16:09:49Z</time>
      </trkpt>
      <trkpt lat="46.57559" lon="6.09462">
        <ele>1097.96</ele>
        <time>2015-06-29T16:10:28Z</time>
      </trkpt>
      <trkpt lat="46.57559" lon="6.09463">
        <ele>1097</ele>
        <time>2015-06-29T16:11:01Z</time>
      </trkpt>
      <trkpt lat="46.5756" lon="6.09462">
        <ele>1097</ele>
        <time>2015-06-29T16:11:32Z</time>
      </trkpt>
      <trkpt lat="46.57559" lon="6.09462">
        <ele>1097.48</ele>
        <time>2015-06-29T16:12:09Z</time>
      </trkpt>
      <trkpt lat="46.57559" lon="6.09463">
        <ele>1097</ele>
        <time>2015-06-29T16:12:40Z</time>
      </trkpt>
      <trkpt lat="46.5756" lon="6.09462">
        <ele>1097.48</ele>
        <time>2015-06-29T16:13:14Z</time>
      </trkpt>
      <trkpt lat="46.57559" lon="6.09463">
        <ele>1097.48</ele>
        <time>2015-06-29T16:13:43Z</time>
      </trkpt>
      <trkpt lat="46.5756" lon="6.09463">
        <ele>1098.44</ele>
        <time>2015-06-29T16:14:13Z</time>
      </trkpt>
      <trkpt lat="46.57558" lon="6.09462">
        <ele>1098.44</ele>
        <time>2015-06-29T16:14:15Z</time>
      </trkpt>
      <trkpt lat="46.57558" lon="6.09462">
        <ele>1098.44</ele>
        <time>2015-06-29T16:14:26Z</time>
      </trkpt>
      <trkpt lat="46.57556" lon="6.09465">
        <ele>1098.92</ele>
        <time>2015-06-29T16:14:37Z</time>
      </trkpt>
      <trkpt lat="46.57555" lon="6.09466">
        <ele>1098.92</ele>
        <time>2015-06-29T16:14:44Z</time>
      </trkpt>
      <trkpt lat="46.57554" lon="6.09468">
        <ele>1099.4</ele>
        <time>2015-06-29T16:14:45Z</time>
      </trkpt>
      <trkpt lat="46.57553" lon="6.09471">
        <ele>1099.4</ele>
        <time>2015-06-29T16:14:46Z</time>
      </trkpt>
      <trkpt lat="46.57552" lon="6.09474">
        <ele>1099.4</ele>
        <time>2015-06-29T16:14:47Z</time>
      </trkpt>
      <trkpt lat="46.57551" lon="6.09476">
        <ele>1098.44</ele>
        <time>2015-06-29T16:14:48Z</time>
      </trkpt>
      <trkpt lat="46.57543" lon="6.09507">
        <ele>1098.44</ele>
        <time>2015-06-29T16:14:57Z</time>
      </trkpt>
      <trkpt lat="46.57542" lon="6.09509">
        <ele>1098.92</ele>
        <time>2015-06-29T16:14:58Z</time>
      </trkpt>
      <trkpt lat="46.5754" lon="6.09512">
        <ele>1098.44</ele>
        <time>2015-06-29T16:15:01Z</time>
      </trkpt>
      <trkpt lat="46.5754" lon="6.09515">
        <ele>1098.92</ele>
        <time>2015-06-29T16:15:02Z</time>
      </trkpt>
      <trkpt lat="46.5754" lon="6.09517">
        <ele>1098.44</ele>
        <time>2015-06-29T16:15:03Z</time>
      </trkpt>
      <trkpt lat="46.5754" lon="6.0952">
        <ele>1098.44</ele>
        <time>2015-06-29T16:15:04Z</time>
      </trkpt>
      <trkpt lat="46.5754" lon="6.09524">
        <ele>1098.92</ele>
        <time>2015-06-29T16:15:05Z</time>
      </trkpt>
      <trkpt lat="46.5754" lon="6.09527">
        <ele>1098.44</ele>
        <time>2015-06-29T16:15:06Z</time>
      </trkpt>
      <trkpt lat="46.57541" lon="6.09531">
        <ele>1098.44</ele>
        <time>2015-06-29T16:15:07Z</time>
      </trkpt>
      <trkpt lat="46.57541" lon="6.09535">
        <ele>1098.44</ele>
        <time>2015-06-29T16:15:08Z</time>
      </trkpt>
      <trkpt lat="46.57541" lon="6.09539">
        <ele>1098.44</ele>
        <time>2015-06-29T16:15:09Z</time>
      </trkpt>
      <trkpt lat="46.57541" lon="6.09543">
        <ele>1098.92</ele>
        <time>2015-06-29T16:15:10Z</time>
      </trkpt>
      <trkpt lat="46.57541" lon="6.09546">
        <ele>1098.92</ele>
        <time>2015-06-29T16:15:11Z</time>
      </trkpt>
      <trkpt lat="46.57541" lon="6.0955">
        <ele>1098.44</ele>
        <time>2015-06-29T16:15:12Z</time>
      </trkpt>
      <trkpt lat="46.57541" lon="6.09554">
        <ele>1098.44</ele>
        <time>2015-06-29T16:15:13Z</time>
      </trkpt>
      <trkpt lat="46.57545" lon="6.09596">
        <ele>1098.92</ele>
        <time>2015-06-29T16:15:26Z</time>
      </trkpt>
      <trkpt lat="46.57544" lon="6.09608">
        <ele>1098.44</ele>
        <time>2015-06-29T16:15:33Z</time>
      </trkpt>
      <trkpt lat="46.57543" lon="6.09609">
        <ele>1098.92</ele>
        <time>2015-06-29T16:15:34Z</time>
      </trkpt>
      <trkpt lat="46.57539" lon="6.09614">
        <ele>1100.37</ele>
        <time>2015-06-29T16:15:44Z</time>
      </trkpt>
      <trkpt lat="46.57534" lon="6.09625">
        <ele>1101.81</ele>
        <time>2015-06-29T16:15:57Z</time>
      </trkpt>
      <trkpt lat="46.57529" lon="6.09631">
        <ele>1102.77</ele>
        <time>2015-06-29T16:16:08Z</time>
      </trkpt>
      <trkpt lat="46.57526" lon="6.09636">
        <ele>1104.69</ele>
        <time>2015-06-29T16:16:18Z</time>
      </trkpt>
      <trkpt lat="46.5752" lon="6.09648">
        <ele>1106.13</ele>
        <time>2015-06-29T16:16:31Z</time>
      </trkpt>
      <trkpt lat="46.57517" lon="6.09652">
        <ele>1106.61</ele>
        <time>2015-06-29T16:16:42Z</time>
      </trkpt>
      <trkpt lat="46.57515" lon="6.09653">
        <ele>1107.1</ele>
        <time>2015-06-29T16:16:53Z</time>
      </trkpt>
      <trkpt lat="46.5751" lon="6.09667">
        <ele>1109.02</ele>
        <time>2015-06-29T16:17:06Z</time>
      </trkpt>
      <trkpt lat="46.5751" lon="6.09669">
        <ele>1109.02</ele>
        <time>2015-06-29T16:17:22Z</time>
      </trkpt>
      <trkpt lat="46.57505" lon="6.09684">
        <ele>1110.46</ele>
        <time>2015-06-29T16:17:35Z</time>
      </trkpt>
      <trkpt lat="46.575" lon="6.09697">
        <ele>1112.38</ele>
        <time>2015-06-29T16:17:47Z</time>
      </trkpt>
      <trkpt lat="46.57497" lon="6.0971">
        <ele>1114.31</ele>
        <time>2015-06-29T16:18:00Z</time>
      </trkpt>
      <trkpt lat="46.57494" lon="6.09725">
        <ele>1115.75</ele>
        <time>2015-06-29T16:18:13Z</time>
      </trkpt>
      <trkpt lat="46.57491" lon="6.09738">
        <ele>1118.15</ele>
        <time>2015-06-29T16:18:27Z</time>
      </trkpt>
      <trkpt lat="46.57488" lon="6.09753">
        <ele>1120.07</ele>
        <time>2015-06-29T16:18:42Z</time>
      </trkpt>
      <trkpt lat="46.57485" lon="6.09767">
        <ele>1122</ele>
        <time>2015-06-29T16:18:57Z</time>
      </trkpt>
      <trkpt lat="46.57489" lon="6.09782">
        <ele>1123.44</ele>
        <time>2015-06-29T16:19:10Z</time>
      </trkpt>
      <trkpt lat="46.57488" lon="6.0979">
        <ele>1124.4</ele>
        <time>2015-06-29T16:19:23Z</time>
      </trkpt>
      <trkpt lat="46.57487" lon="6.0979">
        <ele>1124.4</ele>
        <time>2015-06-29T16:19:51Z</time>
      </trkpt>
      <trkpt lat="46.57487" lon="6.0979">
        <ele>1124.88</ele>
        <time>2015-06-29T16:20:14Z</time>
      </trkpt>
      <trkpt lat="46.57487" lon="6.09791">
        <ele>1124.4</ele>
        <time>2015-06-29T16:20:35Z</time>
      </trkpt>
      <trkpt lat="46.57486" lon="6.09791">
        <ele>1123.92</ele>
        <time>2015-06-29T16:21:00Z</time>
      </trkpt>
      <trkpt lat="46.57487" lon="6.09791">
        <ele>1124.4</ele>
        <time>2015-06-29T16:21:22Z</time>
      </trkpt>
      <trkpt lat="46.57485" lon="6.09806">
        <ele>1125.84</ele>
        <time>2015-06-29T16:21:34Z</time>
      </trkpt>
      <trkpt lat="46.57481" lon="6.0982">
        <ele>1127.76</ele>
        <time>2015-06-29T16:21:46Z</time>
      </trkpt>
      <trkpt lat="46.57478" lon="6.09832">
        <ele>1128.24</ele>
        <time>2015-06-29T16:22:00Z</time>
      </trkpt>
      <trkpt lat="46.57478" lon="6.09833">
        <ele>1127.76</ele>
        <time>2015-06-29T16:22:16Z</time>
      </trkpt>
      <trkpt lat="46.57478" lon="6.09834">
        <ele>1128.24</ele>
        <time>2015-06-29T16:22:26Z</time>
      </trkpt>
      <trkpt lat="46.57478" lon="6.09843">
        <ele>1128.24</ele>
        <time>2015-06-29T16:22:42Z</time>
      </trkpt>
      <trkpt lat="46.57479" lon="6.09852">
        <ele>1128.24</ele>
        <time>2015-06-29T16:22:53Z</time>
      </trkpt>
      <trkpt lat="46.57479" lon="6.09868">
        <ele>1128.24</ele>
        <time>2015-06-29T16:23:04Z</time>
      </trkpt>
      <trkpt lat="46.57481" lon="6.09911">
        <ele>1128.24</ele>
        <time>2015-06-29T16:23:15Z</time>
      </trkpt>
      <trkpt lat="46.57492" lon="6.09952">
        <ele>1130.17</ele>
        <time>2015-06-29T16:23:28Z</time>
      </trkpt>
      <trkpt lat="46.57508" lon="6.10005">
        <ele>1133.05</ele>
        <time>2015-06-29T16:23:46Z</time>
      </trkpt>
      <trkpt lat="46.57522" lon="6.10061">
        <ele>1134.01</ele>
        <time>2015-06-29T16:24:03Z</time>
      </trkpt>
      <trkpt lat="46.57521" lon="6.1007">
        <ele>1135.45</ele>
        <time>2015-06-29T16:24:06Z</time>
      </trkpt>
      <trkpt lat="46.57519" lon="6.10073">
        <ele>1135.45</ele>
        <time>2015-06-29T16:24:07Z</time>
      </trkpt>
      <trkpt lat="46.57509" lon="6.1012">
        <ele>1136.42</ele>
        <time>2015-06-29T16:24:22Z</time>
      </trkpt>
      <trkpt lat="46.57525" lon="6.10173">
        <ele>1137.86</ele>
        <time>2015-06-29T16:24:38Z</time>
      </trkpt>
      <trkpt lat="46.57532" lon="6.10223">
        <ele>1137.86</ele>
        <time>2015-06-29T16:24:52Z</time>
      </trkpt>
      <trkpt lat="46.57537" lon="6.10244">
        <ele>1136.9</ele>
        <time>2015-06-29T16:24:55Z</time>
      </trkpt>
      <trkpt lat="46.5754" lon="6.10251">
        <ele>1136.42</ele>
        <time>2015-06-29T16:24:56Z</time>
      </trkpt>
      <trkpt lat="46.57543" lon="6.10258">
        <ele>1135.94</ele>
        <time>2015-06-29T16:24:57Z</time>
      </trkpt>
      <trkpt lat="46.57548" lon="6.10266">
        <ele>1135.94</ele>
        <time>2015-06-29T16:24:58Z</time>
      </trkpt>
      <trkpt lat="46.57553" lon="6.10273">
        <ele>1135.45</ele>
        <time>2015-06-29T16:24:59Z</time>
      </trkpt>
      <trkpt lat="46.57558" lon="6.10279">
        <ele>1134.97</ele>
        <time>2015-06-29T16:25:00Z</time>
      </trkpt>
      <trkpt lat="46.57564" lon="6.10285">
        <ele>1134.49</ele>
        <time>2015-06-29T16:25:01Z</time>
      </trkpt>
      <trkpt lat="46.5757" lon="6.10291">
        <ele>1134.49</ele>
        <time>2015-06-29T16:25:02Z</time>
      </trkpt>
      <trkpt lat="46.57582" lon="6.10301">
        <ele>1134.01</ele>
        <time>2015-06-29T16:25:04Z</time>
      </trkpt>
      <trkpt lat="46.57605" lon="6.10316">
        <ele>1135.94</ele>
        <time>2015-06-29T16:25:08Z</time>
      </trkpt>
      <trkpt lat="46.57633" lon="6.10334">
        <ele>1138.82</ele>
        <time>2015-06-29T16:25:15Z</time>
      </trkpt>
      <trkpt lat="46.57674" lon="6.10386">
        <ele>1141.7</ele>
        <time>2015-06-29T16:25:28Z</time>
      </trkpt>
      <trkpt lat="46.57697" lon="6.10421">
        <ele>1142.18</ele>
        <time>2015-06-29T16:25:38Z</time>
      </trkpt>
      <trkpt lat="46.57699" lon="6.10425">
        <ele>1141.7</ele>
        <time>2015-06-29T16:25:39Z</time>
      </trkpt>
      <trkpt lat="46.57748" lon="6.10501">
        <ele>1139.78</ele>
        <time>2015-06-29T16:25:53Z</time>
      </trkpt>
      <trkpt lat="46.57785" lon="6.10553">
        <ele>1137.38</ele>
        <time>2015-06-29T16:26:01Z</time>
      </trkpt>
      <trkpt lat="46.57792" lon="6.10559">
        <ele>1136.9</ele>
        <time>2015-06-29T16:26:02Z</time>
      </trkpt>
      <trkpt lat="46.57799" lon="6.10564">
        <ele>1136.42</ele>
        <time>2015-06-29T16:26:03Z</time>
      </trkpt>
      <trkpt lat="46.57807" lon="6.10567">
        <ele>1135.45</ele>
        <time>2015-06-29T16:26:04Z</time>
      </trkpt>
      <trkpt lat="46.57815" lon="6.10569">
        <ele>1134.97</ele>
        <time>2015-06-29T16:26:05Z</time>
      </trkpt>
      <trkpt lat="46.57859" lon="6.10578">
        <ele>1132.09</ele>
        <time>2015-06-29T16:26:10Z</time>
      </trkpt>
      <trkpt lat="46.57868" lon="6.10576">
        <ele>1132.09</ele>
        <time>2015-06-29T16:26:11Z</time>
      </trkpt>
      <trkpt lat="46.57877" lon="6.10572">
        <ele>1132.57</ele>
        <time>2015-06-29T16:26:12Z</time>
      </trkpt>
      <trkpt lat="46.57885" lon="6.10568">
        <ele>1131.61</ele>
        <time>2015-06-29T16:26:13Z</time>
      </trkpt>
      <trkpt lat="46.57894" lon="6.10563">
        <ele>1131.61</ele>
        <time>2015-06-29T16:26:14Z</time>
      </trkpt>
      <trkpt lat="46.57911" lon="6.10554">
        <ele>1130.65</ele>
        <time>2015-06-29T16:26:16Z</time>
      </trkpt>
      <trkpt lat="46.5792" lon="6.10553">
        <ele>1130.17</ele>
        <time>2015-06-29T16:26:17Z</time>
      </trkpt>
      <trkpt lat="46.57986" lon="6.10549">
        <ele>1126.8</ele>
        <time>2015-06-29T16:26:24Z</time>
      </trkpt>
      <trkpt lat="46.58017" lon="6.10552">
        <ele>1125.36</ele>
        <time>2015-06-29T16:26:27Z</time>
      </trkpt>
      <trkpt lat="46.58047" lon="6.10561">
        <ele>1124.88</ele>
        <time>2015-06-29T16:26:30Z</time>
      </trkpt>
      <trkpt lat="46.58056" lon="6.10567">
        <ele>1124.4</ele>
        <time>2015-06-29T16:26:31Z</time>
      </trkpt>
      <trkpt lat="46.58064" lon="6.10573">
        <ele>1124.88</ele>
        <time>2015-06-29T16:26:32Z</time>
      </trkpt>
      <trkpt lat="46.58072" lon="6.10581">
        <ele>1124.4</ele>
        <time>2015-06-29T16:26:33Z</time>
      </trkpt>
      <trkpt lat="46.58079" lon="6.10589">
        <ele>1123.92</ele>
        <time>2015-06-29T16:26:34Z</time>
      </trkpt>
      <trkpt lat="46.58121" lon="6.10636">
        <ele>1125.84</ele>
        <time>2015-06-29T16:26:41Z</time>
      </trkpt>
      <trkpt lat="46.58126" lon="6.10643">
        <ele>1125.84</ele>
        <time>2015-06-29T16:26:42Z</time>
      </trkpt>
      <trkpt lat="46.58147" lon="6.10665">
        <ele>1127.76</ele>
        <time>2015-06-29T16:26:46Z</time>
      </trkpt>
      <trkpt lat="46.5817" lon="6.1069">
        <ele>1128.73</ele>
        <time>2015-06-29T16:26:53Z</time>
      </trkpt>
      <trkpt lat="46.5819" lon="6.10714">
        <ele>1130.17</ele>
        <time>2015-06-29T16:26:59Z</time>
      </trkpt>
      <trkpt lat="46.58194" lon="6.10717">
        <ele>1130.17</ele>
        <time>2015-06-29T16:27:00Z</time>
      </trkpt>
      <trkpt lat="46.58197" lon="6.10719">
        <ele>1129.69</ele>
        <time>2015-06-29T16:27:01Z</time>
      </trkpt>
      <trkpt lat="46.58201" lon="6.10721">
        <ele>1130.17</ele>
        <time>2015-06-29T16:27:02Z</time>
      </trkpt>
      <trkpt lat="46.58204" lon="6.10724">
        <ele>1129.69</ele>
        <time>2015-06-29T16:27:03Z</time>
      </trkpt>
      <trkpt lat="46.58208" lon="6.10726">
        <ele>1129.69</ele>
        <time>2015-06-29T16:27:04Z</time>
      </trkpt>
      <trkpt lat="46.58248" lon="6.10748">
        <ele>1127.76</ele>
        <time>2015-06-29T16:27:13Z</time>
      </trkpt>
      <trkpt lat="46.58254" lon="6.10748">
        <ele>1127.76</ele>
        <time>2015-06-29T16:27:14Z</time>
      </trkpt>
      <trkpt lat="46.5826" lon="6.10747">
        <ele>1127.76</ele>
        <time>2015-06-29T16:27:15Z</time>
      </trkpt>
      <trkpt lat="46.58346" lon="6.10708">
        <ele>1126.32</ele>
        <time>2015-06-29T16:27:28Z</time>
      </trkpt>
      <trkpt lat="46.58358" lon="6.10698">
        <ele>1126.8</ele>
        <time>2015-06-29T16:27:30Z</time>
      </trkpt>
      <trkpt lat="46.58388" lon="6.10656">
        <ele>1126.8</ele>
        <time>2015-06-29T16:27:37Z</time>
      </trkpt>
      <trkpt lat="46.58391" lon="6.10649">
        <ele>1127.28</ele>
        <time>2015-06-29T16:27:38Z</time>
      </trkpt>
      <trkpt lat="46.58394" lon="6.10641">
        <ele>1126.8</ele>
        <time>2015-06-29T16:27:39Z</time>
      </trkpt>
      <trkpt lat="46.58423" lon="6.10507">
        <ele>1125.36</ele>
        <time>2015-06-29T16:27:56Z</time>
      </trkpt>
      <trkpt lat="46.58426" lon="6.10451">
        <ele>1123.92</ele>
        <time>2015-06-29T16:28:02Z</time>
      </trkpt>
      <trkpt lat="46.58428" lon="6.10441">
        <ele>1123.44</ele>
        <time>2015-06-29T16:28:03Z</time>
      </trkpt>
      <trkpt lat="46.5843" lon="6.10432">
        <ele>1123.44</ele>
        <time>2015-06-29T16:28:04Z</time>
      </trkpt>
      <trkpt lat="46.58433" lon="6.10424">
        <ele>1123.44</ele>
        <time>2015-06-29T16:28:05Z</time>
      </trkpt>
      <trkpt lat="46.58436" lon="6.10416">
        <ele>1122.96</ele>
        <time>2015-06-29T16:28:06Z</time>
      </trkpt>
      <trkpt lat="46.5844" lon="6.1041">
        <ele>1122.96</ele>
        <time>2015-06-29T16:28:07Z</time>
      </trkpt>
      <trkpt lat="46.58445" lon="6.10404">
        <ele>1123.44</ele>
        <time>2015-06-29T16:28:08Z</time>
      </trkpt>
      <trkpt lat="46.5845" lon="6.10399">
        <ele>1123.92</ele>
        <time>2015-06-29T16:28:09Z</time>
      </trkpt>
      <trkpt lat="46.58455" lon="6.10395">
        <ele>1123.92</ele>
        <time>2015-06-29T16:28:10Z</time>
      </trkpt>
      <trkpt lat="46.5846" lon="6.10391">
        <ele>1124.4</ele>
        <time>2015-06-29T16:28:11Z</time>
      </trkpt>
      <trkpt lat="46.58465" lon="6.10388">
        <ele>1123.92</ele>
        <time>2015-06-29T16:28:12Z</time>
      </trkpt>
      <trkpt lat="46.58525" lon="6.10329">
        <ele>1121.52</ele>
        <time>2015-06-29T16:28:24Z</time>
      </trkpt>
      <trkpt lat="46.58571" lon="6.10245">
        <ele>1118.15</ele>
        <time>2015-06-29T16:28:33Z</time>
      </trkpt>
      <trkpt lat="46.58588" lon="6.10216">
        <ele>1116.71</ele>
        <time>2015-06-29T16:28:36Z</time>
      </trkpt>
      <trkpt lat="46.58611" lon="6.10174">
        <ele>1115.27</ele>
        <time>2015-06-29T16:28:41Z</time>
      </trkpt>
      <trkpt lat="46.58615" lon="6.10169">
        <ele>1115.27</ele>
        <time>2015-06-29T16:28:42Z</time>
      </trkpt>
      <trkpt lat="46.58618" lon="6.10167">
        <ele>1114.79</ele>
        <time>2015-06-29T16:28:43Z</time>
      </trkpt>
      <trkpt lat="46.58623" lon="6.10167">
        <ele>1114.31</ele>
        <time>2015-06-29T16:28:44Z</time>
      </trkpt>
      <trkpt lat="46.58627" lon="6.1017">
        <ele>1114.31</ele>
        <time>2015-06-29T16:28:45Z</time>
      </trkpt>
      <trkpt lat="46.5863" lon="6.10176">
        <ele>1114.31</ele>
        <time>2015-06-29T16:28:46Z</time>
      </trkpt>
      <trkpt lat="46.58633" lon="6.10182">
        <ele>1114.31</ele>
        <time>2015-06-29T16:28:47Z</time>
      </trkpt>
      <trkpt lat="46.58636" lon="6.10189">
        <ele>1113.82</ele>
        <time>2015-06-29T16:28:48Z</time>
      </trkpt>
      <trkpt lat="46.58639" lon="6.10196">
        <ele>1113.82</ele>
        <time>2015-06-29T16:28:49Z</time>
      </trkpt>
      <trkpt lat="46.58659" lon="6.10243">
        <ele>1113.34</ele>
        <time>2015-06-29T16:28:55Z</time>
      </trkpt>
      <trkpt lat="46.58663" lon="6.1025">
        <ele>1113.82</ele>
        <time>2015-06-29T16:28:56Z</time>
      </trkpt>
      <trkpt lat="46.58668" lon="6.10256">
        <ele>1113.34</ele>
        <time>2015-06-29T16:28:57Z</time>
      </trkpt>
      <trkpt lat="46.58723" lon="6.10306">
        <ele>1110.46</ele>
        <time>2015-06-29T16:29:07Z</time>
      </trkpt>
      <trkpt lat="46.58764" lon="6.10342">
        <ele>1108.06</ele>
        <time>2015-06-29T16:29:13Z</time>
      </trkpt>
      <trkpt lat="46.58804" lon="6.10372">
        <ele>1104.69</ele>
        <time>2015-06-29T16:29:18Z</time>
      </trkpt>
      <trkpt lat="46.58831" lon="6.10385">
        <ele>1103.25</ele>
        <time>2015-06-29T16:29:21Z</time>
      </trkpt>
      <trkpt lat="46.58932" lon="6.10423">
        <ele>1102.29</ele>
        <time>2015-06-29T16:29:34Z</time>
      </trkpt>
      <trkpt lat="46.58959" lon="6.10444">
        <ele>1101.33</ele>
        <time>2015-06-29T16:29:38Z</time>
      </trkpt>
      <trkpt lat="46.5906" lon="6.10533">
        <ele>1098.44</ele>
        <time>2015-06-29T16:29:52Z</time>
      </trkpt>
      <trkpt lat="46.59171" lon="6.10598">
        <ele>1097.96</ele>
        <time>2015-06-29T16:30:06Z</time>
      </trkpt>
      <trkpt lat="46.59289" lon="6.10684">
        <ele>1094.6</ele>
        <time>2015-06-29T16:30:24Z</time>
      </trkpt>
      <trkpt lat="46.59337" lon="6.10719">
        <ele>1091.23</ele>
        <time>2015-06-29T16:30:30Z</time>
      </trkpt>
      <trkpt lat="46.59345" lon="6.10725">
        <ele>1090.75</ele>
        <time>2015-06-29T16:30:31Z</time>
      </trkpt>
      <trkpt lat="46.59387" lon="6.10764">
        <ele>1087.87</ele>
        <time>2015-06-29T16:30:36Z</time>
      </trkpt>
      <trkpt lat="46.59394" lon="6.10774">
        <ele>1087.87</ele>
        <time>2015-06-29T16:30:37Z</time>
      </trkpt>
      <trkpt lat="46.59468" lon="6.10886">
        <ele>1086.43</ele>
        <time>2015-06-29T16:30:49Z</time>
      </trkpt>
      <trkpt lat="46.59503" lon="6.10924">
        <ele>1083.54</ele>
        <time>2015-06-29T16:30:54Z</time>
      </trkpt>
      <trkpt lat="46.59599" lon="6.11024">
        <ele>1081.14</ele>
        <time>2015-06-29T16:31:08Z</time>
      </trkpt>
      <trkpt lat="46.59676" lon="6.11135">
        <ele>1082.1</ele>
        <time>2015-06-29T16:31:23Z</time>
      </trkpt>
      <trkpt lat="46.59705" lon="6.1121">
        <ele>1084.02</ele>
        <time>2015-06-29T16:31:32Z</time>
      </trkpt>
      <trkpt lat="46.59721" lon="6.11264">
        <ele>1086.91</ele>
        <time>2015-06-29T16:31:39Z</time>
      </trkpt>
      <trkpt lat="46.59724" lon="6.11279">
        <ele>1087.87</ele>
        <time>2015-06-29T16:31:41Z</time>
      </trkpt>
      <trkpt lat="46.59732" lon="6.11316">
        <ele>1090.75</ele>
        <time>2015-06-29T16:31:50Z</time>
      </trkpt>
      <trkpt lat="46.5975" lon="6.11349">
        <ele>1091.71</ele>
        <time>2015-06-29T16:32:02Z</time>
      </trkpt>
      <trkpt lat="46.59778" lon="6.11381">
        <ele>1093.64</ele>
        <time>2015-06-29T16:32:16Z</time>
      </trkpt>
      <trkpt lat="46.59796" lon="6.11419">
        <ele>1093.64</ele>
        <time>2015-06-29T16:32:29Z</time>
      </trkpt>
      <trkpt lat="46.5981" lon="6.11473">
        <ele>1093.16</ele>
        <time>2015-06-29T16:32:41Z</time>
      </trkpt>
      <trkpt lat="46.59819" lon="6.11497">
        <ele>1092.68</ele>
        <time>2015-06-29T16:32:46Z</time>
      </trkpt>
      <trkpt lat="46.59821" lon="6.11503">
        <ele>1093.16</ele>
        <time>2015-06-29T16:32:47Z</time>
      </trkpt>
      <trkpt lat="46.59823" lon="6.11508">
        <ele>1093.64</ele>
        <time>2015-06-29T16:32:48Z</time>
      </trkpt>
      <trkpt lat="46.59825" lon="6.11514">
        <ele>1093.16</ele>
        <time>2015-06-29T16:32:49Z</time>
      </trkpt>
      <trkpt lat="46.59827" lon="6.1152">
        <ele>1092.68</ele>
        <time>2015-06-29T16:32:50Z</time>
      </trkpt>
      <trkpt lat="46.5983" lon="6.11526">
        <ele>1092.68</ele>
        <time>2015-06-29T16:32:51Z</time>
      </trkpt>
      <trkpt lat="46.59837" lon="6.1154">
        <ele>1091.71</ele>
        <time>2015-06-29T16:32:53Z</time>
      </trkpt>
      <trkpt lat="46.59842" lon="6.11545">
        <ele>1091.23</ele>
        <time>2015-06-29T16:32:54Z</time>
      </trkpt>
      <trkpt lat="46.59848" lon="6.11547">
        <ele>1090.27</ele>
        <time>2015-06-29T16:32:55Z</time>
      </trkpt>
      <trkpt lat="46.59855" lon="6.11546">
        <ele>1090.75</ele>
        <time>2015-06-29T16:32:56Z</time>
      </trkpt>
      <trkpt lat="46.5986" lon="6.11541">
        <ele>1090.75</ele>
        <time>2015-06-29T16:32:57Z</time>
      </trkpt>
      <trkpt lat="46.59865" lon="6.11535">
        <ele>1090.75</ele>
        <time>2015-06-29T16:32:58Z</time>
      </trkpt>
      <trkpt lat="46.59869" lon="6.11529">
        <ele>1090.75</ele>
        <time>2015-06-29T16:32:59Z</time>
      </trkpt>
      <trkpt lat="46.59886" lon="6.11507">
        <ele>1091.71</ele>
        <time>2015-06-29T16:33:03Z</time>
      </trkpt>
      <trkpt lat="46.5989" lon="6.11504">
        <ele>1092.2</ele>
        <time>2015-06-29T16:33:04Z</time>
      </trkpt>
      <trkpt lat="46.59894" lon="6.11501">
        <ele>1092.2</ele>
        <time>2015-06-29T16:33:05Z</time>
      </trkpt>
      <trkpt lat="46.59968" lon="6.11461">
        <ele>1089.79</ele>
        <time>2015-06-29T16:33:19Z</time>
      </trkpt>
      <trkpt lat="46.59982" lon="6.11454">
        <ele>1089.79</ele>
        <time>2015-06-29T16:33:21Z</time>
      </trkpt>
      <trkpt lat="46.59989" lon="6.11452">
        <ele>1089.31</ele>
        <time>2015-06-29T16:33:22Z</time>
      </trkpt>
      <trkpt lat="46.59996" lon="6.11452">
        <ele>1088.83</ele>
        <time>2015-06-29T16:33:23Z</time>
      </trkpt>
      <trkpt lat="46.60004" lon="6.11453">
        <ele>1088.83</ele>
        <time>2015-06-29T16:33:24Z</time>
      </trkpt>
      <trkpt lat="46.60011" lon="6.11455">
        <ele>1087.39</ele>
        <time>2015-06-29T16:33:25Z</time>
      </trkpt>
      <trkpt lat="46.60043" lon="6.11465">
        <ele>1086.91</ele>
        <time>2015-06-29T16:33:29Z</time>
      </trkpt>
      <trkpt lat="46.60086" lon="6.11463">
        <ele>1086.91</ele>
        <time>2015-06-29T16:33:35Z</time>
      </trkpt>
      <trkpt lat="46.60146" lon="6.11432">
        <ele>1090.27</ele>
        <time>2015-06-29T16:33:45Z</time>
      </trkpt>
      <trkpt lat="46.6017" lon="6.11415">
        <ele>1090.75</ele>
        <time>2015-06-29T16:33:50Z</time>
      </trkpt>
      <trkpt lat="46.60175" lon="6.1141">
        <ele>1090.27</ele>
        <time>2015-06-29T16:33:51Z</time>
      </trkpt>
      <trkpt lat="46.60179" lon="6.11404">
        <ele>1090.75</ele>
        <time>2015-06-29T16:33:52Z</time>
      </trkpt>
      <trkpt lat="46.60188" lon="6.11393">
        <ele>1090.27</ele>
        <time>2015-06-29T16:33:54Z</time>
      </trkpt>
      <trkpt lat="46.60192" lon="6.11387">
        <ele>1090.27</ele>
        <time>2015-06-29T16:33:55Z</time>
      </trkpt>
      <trkpt lat="46.60195" lon="6.11379">
        <ele>1090.27</ele>
        <time>2015-06-29T16:33:56Z</time>
      </trkpt>
      <trkpt lat="46.60195" lon="6.11371">
        <ele>1090.27</ele>
        <time>2015-06-29T16:33:57Z</time>
      </trkpt>
      <trkpt lat="46.60194" lon="6.11364">
        <ele>1090.27</ele>
        <time>2015-06-29T16:33:58Z</time>
      </trkpt>
      <trkpt lat="46.60191" lon="6.11358">
        <ele>1089.79</ele>
        <time>2015-06-29T16:33:59Z</time>
      </trkpt>
      <trkpt lat="46.6018" lon="6.11319">
        <ele>1087.87</ele>
        <time>2015-06-29T16:34:05Z</time>
      </trkpt>
      <trkpt lat="46.60175" lon="6.11316">
        <ele>1087.39</ele>
        <time>2015-06-29T16:34:06Z</time>
      </trkpt>
      <trkpt lat="46.6017" lon="6.11315">
        <ele>1087.87</ele>
        <time>2015-06-29T16:34:07Z</time>
      </trkpt>
      <trkpt lat="46.60155" lon="6.1132">
        <ele>1087.39</ele>
        <time>2015-06-29T16:34:10Z</time>
      </trkpt>
      <trkpt lat="46.60151" lon="6.11325">
        <ele>1086.43</ele>
        <time>2015-06-29T16:34:11Z</time>
      </trkpt>
      <trkpt lat="46.6015" lon="6.11332">
        <ele>1086.43</ele>
        <time>2015-06-29T16:34:12Z</time>
      </trkpt>
      <trkpt lat="46.6015" lon="6.11337">
        <ele>1086.91</ele>
        <time>2015-06-29T16:34:13Z</time>
      </trkpt>
      <trkpt lat="46.6015" lon="6.11339">
        <ele>1086.91</ele>
        <time>2015-06-29T16:34:14Z</time>
      </trkpt>
      <trkpt lat="46.60151" lon="6.1134">
        <ele>1086.91</ele>
        <time>2015-06-29T16:34:24Z</time>
      </trkpt>
      <trkpt lat="46.60156" lon="6.11347">
        <ele>1086.91</ele>
        <time>2015-06-29T16:34:39Z</time>
      </trkpt>
      <trkpt lat="46.6018" lon="6.11337">
        <ele>1086.43</ele>
        <time>2015-06-29T16:35:02Z</time>
      </trkpt>
      <trkpt lat="46.60181" lon="6.11337">
        <ele>1086.43</ele>
        <time>2015-06-29T16:35:05Z</time>
      </trkpt>
    </trkseg>
  </trk>
</gpx>